<?xml version="1.0" encoding="UTF-8" standalone="no" ?>
<gpx xmlns="http://www.topografix.com/GPX/1/1" xmlns:xsi="http://www.w3.org/2001/XMLSchema-instance" xsi:schemaLocation="http://www.topografix.com/GPX/1/1 http://www.topografix.com/GPX/1/1/gpx.xsd" version="1.1" creator="VisuGPX - https://www.visugpx.com">
  <metadata>
    <name>Grande Traversée des Alpes J2 partie 1</name>
    <desc><![CDATA[Grande Traversée des Alpes jour 2]]></desc>
  </metadata>
  <trk>
    <name><![CDATA[3/7/2016 07:46]]></name>
    <desc><![CDATA[]]></desc>
    <trkseg>
      <trkpt lat="46.32928" lon="6.76811">
        <ele>1613</ele>
        <time>2016-07-03T05:46:06.829Z</time>
      </trkpt>
      <trkpt lat="46.32927" lon="6.76821">
        <ele>1613</ele>
        <time>2016-07-03T05:46:08.358Z</time>
      </trkpt>
      <trkpt lat="46.32933" lon="6.76812">
        <ele>1603</ele>
        <time>2016-07-03T05:46:09.357Z</time>
      </trkpt>
      <trkpt lat="46.32954" lon="6.76798">
        <ele>1635</ele>
        <time>2016-07-03T05:46:10.000Z</time>
      </trkpt>
      <trkpt lat="46.32946" lon="6.76804">
        <ele>1621</ele>
        <time>2016-07-03T05:46:37.000Z</time>
      </trkpt>
      <trkpt lat="46.32945" lon="6.76805">
        <ele>1619</ele>
        <time>2016-07-03T05:46:38.000Z</time>
      </trkpt>
      <trkpt lat="46.32943" lon="6.7681">
        <ele>1634</ele>
        <time>2016-07-03T05:47:39.000Z</time>
      </trkpt>
      <trkpt lat="46.32943" lon="6.7681">
        <ele>1635</ele>
        <time>2016-07-03T05:47:40.000Z</time>
      </trkpt>
      <trkpt lat="46.32944" lon="6.76812">
        <ele>1634</ele>
        <time>2016-07-03T05:47:41.000Z</time>
      </trkpt>
      <trkpt lat="46.32944" lon="6.76812">
        <ele>1634</ele>
        <time>2016-07-03T05:47:42.000Z</time>
      </trkpt>
      <trkpt lat="46.32936" lon="6.76816">
        <ele>1626</ele>
        <time>2016-07-03T05:47:48.000Z</time>
      </trkpt>
      <trkpt lat="46.32935" lon="6.76817">
        <ele>1625</ele>
        <time>2016-07-03T05:47:49.000Z</time>
      </trkpt>
      <trkpt lat="46.32936" lon="6.76816">
        <ele>1629</ele>
        <time>2016-07-03T05:48:46.000Z</time>
      </trkpt>
      <trkpt lat="46.32936" lon="6.76816">
        <ele>1629</ele>
        <time>2016-07-03T05:48:47.000Z</time>
      </trkpt>
      <trkpt lat="46.32939" lon="6.76816">
        <ele>1629</ele>
        <time>2016-07-03T05:48:48.000Z</time>
      </trkpt>
      <trkpt lat="46.32943" lon="6.76813">
        <ele>1622</ele>
        <time>2016-07-03T05:48:56.000Z</time>
      </trkpt>
      <trkpt lat="46.32942" lon="6.76814">
        <ele>1621</ele>
        <time>2016-07-03T05:48:57.000Z</time>
      </trkpt>
      <trkpt lat="46.32939" lon="6.76818">
        <ele>1610</ele>
        <time>2016-07-03T05:49:24.000Z</time>
      </trkpt>
      <trkpt lat="46.32939" lon="6.76817">
        <ele>1611</ele>
        <time>2016-07-03T05:49:25.000Z</time>
      </trkpt>
      <trkpt lat="46.32937" lon="6.76815">
        <ele>1608</ele>
        <time>2016-07-03T05:49:29.000Z</time>
      </trkpt>
      <trkpt lat="46.32937" lon="6.76815">
        <ele>1609</ele>
        <time>2016-07-03T05:49:30.000Z</time>
      </trkpt>
      <trkpt lat="46.32938" lon="6.76816">
        <ele>1608</ele>
        <time>2016-07-03T05:49:34.000Z</time>
      </trkpt>
      <trkpt lat="46.32938" lon="6.76816">
        <ele>1608</ele>
        <time>2016-07-03T05:49:35.000Z</time>
      </trkpt>
      <trkpt lat="46.32941" lon="6.76814">
        <ele>1613</ele>
        <time>2016-07-03T05:50:01.000Z</time>
      </trkpt>
      <trkpt lat="46.32941" lon="6.76814">
        <ele>1613</ele>
        <time>2016-07-03T05:50:02.000Z</time>
      </trkpt>
      <trkpt lat="46.32939" lon="6.76814">
        <ele>1611</ele>
        <time>2016-07-03T05:51:24.000Z</time>
      </trkpt>
      <trkpt lat="46.32939" lon="6.76814">
        <ele>1611</ele>
        <time>2016-07-03T05:51:25.000Z</time>
      </trkpt>
      <trkpt lat="46.3294" lon="6.76826">
        <ele>1608</ele>
        <time>2016-07-03T05:51:53.000Z</time>
      </trkpt>
      <trkpt lat="46.32939" lon="6.76828">
        <ele>1607</ele>
        <time>2016-07-03T05:51:54.000Z</time>
      </trkpt>
      <trkpt lat="46.32942" lon="6.7684">
        <ele>1612</ele>
        <time>2016-07-03T05:52:07.000Z</time>
      </trkpt>
      <trkpt lat="46.32942" lon="6.76841">
        <ele>1613</ele>
        <time>2016-07-03T05:52:08.000Z</time>
      </trkpt>
      <trkpt lat="46.32946" lon="6.76852">
        <ele>1615</ele>
        <time>2016-07-03T05:52:22.000Z</time>
      </trkpt>
      <trkpt lat="46.32946" lon="6.76854">
        <ele>1612</ele>
        <time>2016-07-03T05:52:23.000Z</time>
      </trkpt>
      <trkpt lat="46.32954" lon="6.76852">
        <ele>1620</ele>
        <time>2016-07-03T05:52:36.000Z</time>
      </trkpt>
      <trkpt lat="46.32956" lon="6.76853">
        <ele>1620</ele>
        <time>2016-07-03T05:52:37.000Z</time>
      </trkpt>
      <trkpt lat="46.32955" lon="6.76865">
        <ele>1610</ele>
        <time>2016-07-03T05:52:45.000Z</time>
      </trkpt>
      <trkpt lat="46.32954" lon="6.76867">
        <ele>1610</ele>
        <time>2016-07-03T05:52:46.000Z</time>
      </trkpt>
      <trkpt lat="46.32956" lon="6.76878">
        <ele>1609</ele>
        <time>2016-07-03T05:52:53.000Z</time>
      </trkpt>
      <trkpt lat="46.32956" lon="6.7688">
        <ele>1609</ele>
        <time>2016-07-03T05:52:54.000Z</time>
      </trkpt>
      <trkpt lat="46.3296" lon="6.76891">
        <ele>1615</ele>
        <time>2016-07-03T05:53:21.000Z</time>
      </trkpt>
      <trkpt lat="46.3296" lon="6.76893">
        <ele>1614</ele>
        <time>2016-07-03T05:53:22.000Z</time>
      </trkpt>
      <trkpt lat="46.32966" lon="6.76901">
        <ele>1603</ele>
        <time>2016-07-03T05:53:39.000Z</time>
      </trkpt>
      <trkpt lat="46.32967" lon="6.76901">
        <ele>1602</ele>
        <time>2016-07-03T05:53:40.000Z</time>
      </trkpt>
      <trkpt lat="46.32968" lon="6.76914">
        <ele>1608</ele>
        <time>2016-07-03T05:53:57.000Z</time>
      </trkpt>
      <trkpt lat="46.32969" lon="6.76916">
        <ele>1606</ele>
        <time>2016-07-03T05:53:58.000Z</time>
      </trkpt>
      <trkpt lat="46.32973" lon="6.76926">
        <ele>1605</ele>
        <time>2016-07-03T05:54:09.000Z</time>
      </trkpt>
      <trkpt lat="46.32973" lon="6.76929">
        <ele>1605</ele>
        <time>2016-07-03T05:54:10.000Z</time>
      </trkpt>
      <trkpt lat="46.32975" lon="6.7694">
        <ele>1606</ele>
        <time>2016-07-03T05:54:16.000Z</time>
      </trkpt>
      <trkpt lat="46.32973" lon="6.76943">
        <ele>1604</ele>
        <time>2016-07-03T05:54:17.000Z</time>
      </trkpt>
      <trkpt lat="46.32968" lon="6.76953">
        <ele>1602</ele>
        <time>2016-07-03T05:54:22.000Z</time>
      </trkpt>
      <trkpt lat="46.32968" lon="6.76954">
        <ele>1601</ele>
        <time>2016-07-03T05:54:23.000Z</time>
      </trkpt>
      <trkpt lat="46.32963" lon="6.76964">
        <ele>1598</ele>
        <time>2016-07-03T05:54:29.000Z</time>
      </trkpt>
      <trkpt lat="46.32962" lon="6.76965">
        <ele>1597</ele>
        <time>2016-07-03T05:54:30.000Z</time>
      </trkpt>
      <trkpt lat="46.32962" lon="6.76978">
        <ele>1603</ele>
        <time>2016-07-03T05:54:43.000Z</time>
      </trkpt>
      <trkpt lat="46.3296" lon="6.76979">
        <ele>1602</ele>
        <time>2016-07-03T05:54:44.000Z</time>
      </trkpt>
      <trkpt lat="46.32954" lon="6.76987">
        <ele>1605</ele>
        <time>2016-07-03T05:54:50.000Z</time>
      </trkpt>
      <trkpt lat="46.32953" lon="6.76989">
        <ele>1604</ele>
        <time>2016-07-03T05:54:51.000Z</time>
      </trkpt>
      <trkpt lat="46.32947" lon="6.76998">
        <ele>1610</ele>
        <time>2016-07-03T05:55:02.000Z</time>
      </trkpt>
      <trkpt lat="46.32946" lon="6.76999">
        <ele>1610</ele>
        <time>2016-07-03T05:55:03.000Z</time>
      </trkpt>
      <trkpt lat="46.32942" lon="6.77008">
        <ele>1610</ele>
        <time>2016-07-03T05:55:14.000Z</time>
      </trkpt>
      <trkpt lat="46.32941" lon="6.7701">
        <ele>1611</ele>
        <time>2016-07-03T05:55:15.000Z</time>
      </trkpt>
      <trkpt lat="46.32942" lon="6.77023">
        <ele>1611</ele>
        <time>2016-07-03T05:55:27.000Z</time>
      </trkpt>
      <trkpt lat="46.32942" lon="6.77024">
        <ele>1612</ele>
        <time>2016-07-03T05:55:28.000Z</time>
      </trkpt>
      <trkpt lat="46.32939" lon="6.77035">
        <ele>1612</ele>
        <time>2016-07-03T05:55:37.000Z</time>
      </trkpt>
      <trkpt lat="46.32938" lon="6.77037">
        <ele>1613</ele>
        <time>2016-07-03T05:55:38.000Z</time>
      </trkpt>
      <trkpt lat="46.32934" lon="6.77047">
        <ele>1617</ele>
        <time>2016-07-03T05:56:01.000Z</time>
      </trkpt>
      <trkpt lat="46.32933" lon="6.77049">
        <ele>1617</ele>
        <time>2016-07-03T05:56:02.000Z</time>
      </trkpt>
      <trkpt lat="46.32929" lon="6.77059">
        <ele>1615</ele>
        <time>2016-07-03T05:56:17.000Z</time>
      </trkpt>
      <trkpt lat="46.32928" lon="6.77059">
        <ele>1615</ele>
        <time>2016-07-03T05:56:18.000Z</time>
      </trkpt>
      <trkpt lat="46.32928" lon="6.77058">
        <ele>1616</ele>
        <time>2016-07-03T05:56:19.000Z</time>
      </trkpt>
      <trkpt lat="46.32925" lon="6.7707">
        <ele>1632</ele>
        <time>2016-07-03T05:56:55.000Z</time>
      </trkpt>
      <trkpt lat="46.32925" lon="6.77071">
        <ele>1633</ele>
        <time>2016-07-03T05:56:56.000Z</time>
      </trkpt>
      <trkpt lat="46.3292" lon="6.77081">
        <ele>1635</ele>
        <time>2016-07-03T05:57:15.000Z</time>
      </trkpt>
      <trkpt lat="46.32919" lon="6.77081">
        <ele>1636</ele>
        <time>2016-07-03T05:57:16.000Z</time>
      </trkpt>
      <trkpt lat="46.32911" lon="6.77084">
        <ele>1640</ele>
        <time>2016-07-03T05:57:39.000Z</time>
      </trkpt>
      <trkpt lat="46.3291" lon="6.77085">
        <ele>1641</ele>
        <time>2016-07-03T05:57:40.000Z</time>
      </trkpt>
      <trkpt lat="46.32903" lon="6.77093">
        <ele>1648</ele>
        <time>2016-07-03T05:58:17.000Z</time>
      </trkpt>
      <trkpt lat="46.32902" lon="6.77093">
        <ele>1648</ele>
        <time>2016-07-03T05:58:18.000Z</time>
      </trkpt>
      <trkpt lat="46.32897" lon="6.77097">
        <ele>1650</ele>
        <time>2016-07-03T05:58:28.000Z</time>
      </trkpt>
      <trkpt lat="46.32897" lon="6.77097">
        <ele>1650</ele>
        <time>2016-07-03T05:58:29.000Z</time>
      </trkpt>
      <trkpt lat="46.32896" lon="6.77097">
        <ele>1650</ele>
        <time>2016-07-03T05:58:30.000Z</time>
      </trkpt>
      <trkpt lat="46.32889" lon="6.77103">
        <ele>1661</ele>
        <time>2016-07-03T05:58:50.000Z</time>
      </trkpt>
      <trkpt lat="46.32888" lon="6.77103">
        <ele>1661</ele>
        <time>2016-07-03T05:58:51.000Z</time>
      </trkpt>
      <trkpt lat="46.3288" lon="6.77107">
        <ele>1667</ele>
        <time>2016-07-03T05:59:10.000Z</time>
      </trkpt>
      <trkpt lat="46.3288" lon="6.77108">
        <ele>1666</ele>
        <time>2016-07-03T05:59:11.000Z</time>
      </trkpt>
      <trkpt lat="46.32874" lon="6.77118">
        <ele>1674</ele>
        <time>2016-07-03T05:59:30.000Z</time>
      </trkpt>
      <trkpt lat="46.32873" lon="6.77119">
        <ele>1675</ele>
        <time>2016-07-03T05:59:31.000Z</time>
      </trkpt>
      <trkpt lat="46.32866" lon="6.77125">
        <ele>1682</ele>
        <time>2016-07-03T05:59:48.000Z</time>
      </trkpt>
      <trkpt lat="46.32865" lon="6.77126">
        <ele>1683</ele>
        <time>2016-07-03T05:59:49.000Z</time>
      </trkpt>
      <trkpt lat="46.3286" lon="6.77136">
        <ele>1688</ele>
        <time>2016-07-03T06:03:50.000Z</time>
      </trkpt>
      <trkpt lat="46.32858" lon="6.77137">
        <ele>1684</ele>
        <time>2016-07-03T06:03:51.000Z</time>
      </trkpt>
      <trkpt lat="46.32849" lon="6.77142">
        <ele>1687</ele>
        <time>2016-07-03T06:04:00.000Z</time>
      </trkpt>
      <trkpt lat="46.32848" lon="6.77143">
        <ele>1685</ele>
        <time>2016-07-03T06:04:01.000Z</time>
      </trkpt>
      <trkpt lat="46.32841" lon="6.7715">
        <ele>1691</ele>
        <time>2016-07-03T06:04:15.000Z</time>
      </trkpt>
      <trkpt lat="46.32841" lon="6.7715">
        <ele>1691</ele>
        <time>2016-07-03T06:04:16.000Z</time>
      </trkpt>
      <trkpt lat="46.32833" lon="6.77156">
        <ele>1693</ele>
        <time>2016-07-03T06:04:29.000Z</time>
      </trkpt>
      <trkpt lat="46.32833" lon="6.77157">
        <ele>1692</ele>
        <time>2016-07-03T06:04:30.000Z</time>
      </trkpt>
      <trkpt lat="46.32824" lon="6.77159">
        <ele>1698</ele>
        <time>2016-07-03T06:04:43.000Z</time>
      </trkpt>
      <trkpt lat="46.32824" lon="6.7716">
        <ele>1698</ele>
        <time>2016-07-03T06:04:44.000Z</time>
      </trkpt>
      <trkpt lat="46.32821" lon="6.77172">
        <ele>1698</ele>
        <time>2016-07-03T06:04:59.000Z</time>
      </trkpt>
      <trkpt lat="46.32821" lon="6.77172">
        <ele>1699</ele>
        <time>2016-07-03T06:05:00.000Z</time>
      </trkpt>
      <trkpt lat="46.32813" lon="6.77175">
        <ele>1700</ele>
        <time>2016-07-03T06:05:14.000Z</time>
      </trkpt>
      <trkpt lat="46.32812" lon="6.77176">
        <ele>1701</ele>
        <time>2016-07-03T06:05:15.000Z</time>
      </trkpt>
      <trkpt lat="46.32809" lon="6.77187">
        <ele>1705</ele>
        <time>2016-07-03T06:05:32.000Z</time>
      </trkpt>
      <trkpt lat="46.32809" lon="6.77188">
        <ele>1705</ele>
        <time>2016-07-03T06:05:33.000Z</time>
      </trkpt>
      <trkpt lat="46.328" lon="6.7719">
        <ele>1706</ele>
        <time>2016-07-03T06:05:51.000Z</time>
      </trkpt>
      <trkpt lat="46.328" lon="6.77191">
        <ele>1706</ele>
        <time>2016-07-03T06:05:52.000Z</time>
      </trkpt>
      <trkpt lat="46.32796" lon="6.77202">
        <ele>1708</ele>
        <time>2016-07-03T06:06:06.000Z</time>
      </trkpt>
      <trkpt lat="46.32795" lon="6.77203">
        <ele>1709</ele>
        <time>2016-07-03T06:06:07.000Z</time>
      </trkpt>
      <trkpt lat="46.32789" lon="6.77212">
        <ele>1716</ele>
        <time>2016-07-03T06:06:25.000Z</time>
      </trkpt>
      <trkpt lat="46.32788" lon="6.77212">
        <ele>1716</ele>
        <time>2016-07-03T06:06:26.000Z</time>
      </trkpt>
      <trkpt lat="46.32781" lon="6.7722">
        <ele>1706</ele>
        <time>2016-07-03T06:06:43.000Z</time>
      </trkpt>
      <trkpt lat="46.3278" lon="6.77221">
        <ele>1705</ele>
        <time>2016-07-03T06:06:44.000Z</time>
      </trkpt>
      <trkpt lat="46.32772" lon="6.77225">
        <ele>1706</ele>
        <time>2016-07-03T06:06:54.000Z</time>
      </trkpt>
      <trkpt lat="46.32772" lon="6.77226">
        <ele>1706</ele>
        <time>2016-07-03T06:06:55.000Z</time>
      </trkpt>
      <trkpt lat="46.32764" lon="6.77231">
        <ele>1704</ele>
        <time>2016-07-03T06:07:05.000Z</time>
      </trkpt>
      <trkpt lat="46.32763" lon="6.77233">
        <ele>1703</ele>
        <time>2016-07-03T06:07:06.000Z</time>
      </trkpt>
      <trkpt lat="46.3276" lon="6.77244">
        <ele>1712</ele>
        <time>2016-07-03T06:07:28.000Z</time>
      </trkpt>
      <trkpt lat="46.32759" lon="6.77244">
        <ele>1711</ele>
        <time>2016-07-03T06:07:29.000Z</time>
      </trkpt>
      <trkpt lat="46.32754" lon="6.77254">
        <ele>1720</ele>
        <time>2016-07-03T06:07:51.000Z</time>
      </trkpt>
      <trkpt lat="46.32754" lon="6.77255">
        <ele>1719</ele>
        <time>2016-07-03T06:07:52.000Z</time>
      </trkpt>
      <trkpt lat="46.32753" lon="6.77255">
        <ele>1721</ele>
        <time>2016-07-03T06:07:53.000Z</time>
      </trkpt>
      <trkpt lat="46.32751" lon="6.77266">
        <ele>1727</ele>
        <time>2016-07-03T06:08:19.000Z</time>
      </trkpt>
      <trkpt lat="46.3275" lon="6.77269">
        <ele>1726</ele>
        <time>2016-07-03T06:08:20.000Z</time>
      </trkpt>
      <trkpt lat="46.32753" lon="6.7728">
        <ele>1736</ele>
        <time>2016-07-03T06:08:33.000Z</time>
      </trkpt>
      <trkpt lat="46.32753" lon="6.7728">
        <ele>1736</ele>
        <time>2016-07-03T06:08:34.000Z</time>
      </trkpt>
      <trkpt lat="46.32745" lon="6.77285">
        <ele>1733</ele>
        <time>2016-07-03T06:08:43.000Z</time>
      </trkpt>
      <trkpt lat="46.32745" lon="6.77285">
        <ele>1733</ele>
        <time>2016-07-03T06:08:44.000Z</time>
      </trkpt>
      <trkpt lat="46.32749" lon="6.77296">
        <ele>1746</ele>
        <time>2016-07-03T06:09:07.000Z</time>
      </trkpt>
      <trkpt lat="46.32749" lon="6.77297">
        <ele>1746</ele>
        <time>2016-07-03T06:09:08.000Z</time>
      </trkpt>
      <trkpt lat="46.32753" lon="6.77309">
        <ele>1753</ele>
        <time>2016-07-03T06:09:30.000Z</time>
      </trkpt>
      <trkpt lat="46.32753" lon="6.77309">
        <ele>1754</ele>
        <time>2016-07-03T06:09:31.000Z</time>
      </trkpt>
      <trkpt lat="46.32756" lon="6.7732">
        <ele>1756</ele>
        <time>2016-07-03T06:09:53.000Z</time>
      </trkpt>
      <trkpt lat="46.32758" lon="6.77322">
        <ele>1758</ele>
        <time>2016-07-03T06:09:54.000Z</time>
      </trkpt>
      <trkpt lat="46.32756" lon="6.77334">
        <ele>1748</ele>
        <time>2016-07-03T06:10:06.000Z</time>
      </trkpt>
      <trkpt lat="46.32755" lon="6.77335">
        <ele>1745</ele>
        <time>2016-07-03T06:10:07.000Z</time>
      </trkpt>
      <trkpt lat="46.32755" lon="6.77334">
        <ele>1746</ele>
        <time>2016-07-03T06:10:08.000Z</time>
      </trkpt>
      <trkpt lat="46.32753" lon="6.77336">
        <ele>1741</ele>
        <time>2016-07-03T06:10:09.000Z</time>
      </trkpt>
      <trkpt lat="46.32755" lon="6.77347">
        <ele>1742</ele>
        <time>2016-07-03T06:10:19.000Z</time>
      </trkpt>
      <trkpt lat="46.32756" lon="6.77348">
        <ele>1742</ele>
        <time>2016-07-03T06:10:20.000Z</time>
      </trkpt>
      <trkpt lat="46.32763" lon="6.77354">
        <ele>1746</ele>
        <time>2016-07-03T06:10:29.000Z</time>
      </trkpt>
      <trkpt lat="46.32764" lon="6.77355">
        <ele>1745</ele>
        <time>2016-07-03T06:10:30.000Z</time>
      </trkpt>
      <trkpt lat="46.32767" lon="6.77366">
        <ele>1745</ele>
        <time>2016-07-03T06:10:41.000Z</time>
      </trkpt>
      <trkpt lat="46.32767" lon="6.77368">
        <ele>1745</ele>
        <time>2016-07-03T06:10:42.000Z</time>
      </trkpt>
      <trkpt lat="46.32767" lon="6.77379">
        <ele>1732</ele>
        <time>2016-07-03T06:10:59.000Z</time>
      </trkpt>
      <trkpt lat="46.32768" lon="6.77381">
        <ele>1731</ele>
        <time>2016-07-03T06:11:00.000Z</time>
      </trkpt>
      <trkpt lat="46.32768" lon="6.77388">
        <ele>1719</ele>
        <time>2016-07-03T06:11:16.000Z</time>
      </trkpt>
      <trkpt lat="46.32767" lon="6.77388">
        <ele>1718</ele>
        <time>2016-07-03T06:11:17.000Z</time>
      </trkpt>
      <trkpt lat="46.32766" lon="6.77387">
        <ele>1720</ele>
        <time>2016-07-03T06:11:18.000Z</time>
      </trkpt>
      <trkpt lat="46.32765" lon="6.77392">
        <ele>1729</ele>
        <time>2016-07-03T06:11:42.000Z</time>
      </trkpt>
      <trkpt lat="46.32765" lon="6.77392">
        <ele>1729</ele>
        <time>2016-07-03T06:11:43.000Z</time>
      </trkpt>
      <trkpt lat="46.32766" lon="6.77393">
        <ele>1728</ele>
        <time>2016-07-03T06:11:44.000Z</time>
      </trkpt>
      <trkpt lat="46.32766" lon="6.77393">
        <ele>1729</ele>
        <time>2016-07-03T06:11:45.000Z</time>
      </trkpt>
      <trkpt lat="46.32765" lon="6.77394">
        <ele>1729</ele>
        <time>2016-07-03T06:11:46.000Z</time>
      </trkpt>
      <trkpt lat="46.32764" lon="6.77395">
        <ele>1730</ele>
        <time>2016-07-03T06:11:47.000Z</time>
      </trkpt>
      <trkpt lat="46.32766" lon="6.77404">
        <ele>1730</ele>
        <time>2016-07-03T06:12:03.000Z</time>
      </trkpt>
      <trkpt lat="46.32765" lon="6.77404">
        <ele>1730</ele>
        <time>2016-07-03T06:12:04.000Z</time>
      </trkpt>
      <trkpt lat="46.32764" lon="6.77406">
        <ele>1730</ele>
        <time>2016-07-03T06:12:05.000Z</time>
      </trkpt>
      <trkpt lat="46.32764" lon="6.77404">
        <ele>1735</ele>
        <time>2016-07-03T06:12:06.000Z</time>
      </trkpt>
      <trkpt lat="46.32763" lon="6.77406">
        <ele>1734</ele>
        <time>2016-07-03T06:12:07.000Z</time>
      </trkpt>
      <trkpt lat="46.32769" lon="6.77415">
        <ele>1732</ele>
        <time>2016-07-03T06:12:17.000Z</time>
      </trkpt>
      <trkpt lat="46.32769" lon="6.77416">
        <ele>1732</ele>
        <time>2016-07-03T06:12:18.000Z</time>
      </trkpt>
      <trkpt lat="46.32769" lon="6.77428">
        <ele>1728</ele>
        <time>2016-07-03T06:12:32.000Z</time>
      </trkpt>
      <trkpt lat="46.32771" lon="6.77429">
        <ele>1729</ele>
        <time>2016-07-03T06:12:33.000Z</time>
      </trkpt>
      <trkpt lat="46.32778" lon="6.77435">
        <ele>1734</ele>
        <time>2016-07-03T06:12:58.000Z</time>
      </trkpt>
      <trkpt lat="46.32779" lon="6.77437">
        <ele>1733</ele>
        <time>2016-07-03T06:12:59.000Z</time>
      </trkpt>
      <trkpt lat="46.32779" lon="6.77436">
        <ele>1743</ele>
        <time>2016-07-03T06:13:08.000Z</time>
      </trkpt>
      <trkpt lat="46.32779" lon="6.77438">
        <ele>1741</ele>
        <time>2016-07-03T06:13:09.000Z</time>
      </trkpt>
      <trkpt lat="46.32779" lon="6.77438">
        <ele>1739</ele>
        <time>2016-07-03T06:13:11.000Z</time>
      </trkpt>
      <trkpt lat="46.3278" lon="6.77438">
        <ele>1740</ele>
        <time>2016-07-03T06:13:12.000Z</time>
      </trkpt>
      <trkpt lat="46.32778" lon="6.77451">
        <ele>1749</ele>
        <time>2016-07-03T06:13:39.000Z</time>
      </trkpt>
      <trkpt lat="46.32777" lon="6.77452">
        <ele>1749</ele>
        <time>2016-07-03T06:13:40.000Z</time>
      </trkpt>
      <trkpt lat="46.3277" lon="6.7745">
        <ele>1781</ele>
        <time>2016-07-03T06:14:40.000Z</time>
      </trkpt>
      <trkpt lat="46.3277" lon="6.7745">
        <ele>1781</ele>
        <time>2016-07-03T06:14:41.000Z</time>
      </trkpt>
      <trkpt lat="46.32771" lon="6.77453">
        <ele>1779</ele>
        <time>2016-07-03T06:17:55.000Z</time>
      </trkpt>
      <trkpt lat="46.32771" lon="6.77453">
        <ele>1779</ele>
        <time>2016-07-03T06:17:56.000Z</time>
      </trkpt>
      <trkpt lat="46.32763" lon="6.77451">
        <ele>1781</ele>
        <time>2016-07-03T06:18:08.000Z</time>
      </trkpt>
      <trkpt lat="46.32762" lon="6.77452">
        <ele>1781</ele>
        <time>2016-07-03T06:18:09.000Z</time>
      </trkpt>
      <trkpt lat="46.32753" lon="6.77451">
        <ele>1783</ele>
        <time>2016-07-03T06:18:21.000Z</time>
      </trkpt>
      <trkpt lat="46.32752" lon="6.77452">
        <ele>1783</ele>
        <time>2016-07-03T06:18:22.000Z</time>
      </trkpt>
      <trkpt lat="46.32743" lon="6.77454">
        <ele>1785</ele>
        <time>2016-07-03T06:18:37.000Z</time>
      </trkpt>
      <trkpt lat="46.32742" lon="6.77454">
        <ele>1786</ele>
        <time>2016-07-03T06:18:38.000Z</time>
      </trkpt>
      <trkpt lat="46.32734" lon="6.77452">
        <ele>1791</ele>
        <time>2016-07-03T06:18:48.000Z</time>
      </trkpt>
      <trkpt lat="46.32733" lon="6.77452">
        <ele>1792</ele>
        <time>2016-07-03T06:18:49.000Z</time>
      </trkpt>
      <trkpt lat="46.32726" lon="6.77456">
        <ele>1798</ele>
        <time>2016-07-03T06:19:06.000Z</time>
      </trkpt>
      <trkpt lat="46.32725" lon="6.77456">
        <ele>1799</ele>
        <time>2016-07-03T06:19:07.000Z</time>
      </trkpt>
      <trkpt lat="46.3272" lon="6.77466">
        <ele>1804</ele>
        <time>2016-07-03T06:19:26.000Z</time>
      </trkpt>
      <trkpt lat="46.32719" lon="6.77467">
        <ele>1803</ele>
        <time>2016-07-03T06:19:27.000Z</time>
      </trkpt>
      <trkpt lat="46.32711" lon="6.77471">
        <ele>1805</ele>
        <time>2016-07-03T06:19:43.000Z</time>
      </trkpt>
      <trkpt lat="46.3271" lon="6.7747">
        <ele>1805</ele>
        <time>2016-07-03T06:19:44.000Z</time>
      </trkpt>
      <trkpt lat="46.32701" lon="6.77471">
        <ele>1806</ele>
        <time>2016-07-03T06:19:57.000Z</time>
      </trkpt>
      <trkpt lat="46.327" lon="6.77471">
        <ele>1806</ele>
        <time>2016-07-03T06:19:58.000Z</time>
      </trkpt>
      <trkpt lat="46.32692" lon="6.77469">
        <ele>1814</ele>
        <time>2016-07-03T06:20:20.000Z</time>
      </trkpt>
      <trkpt lat="46.32691" lon="6.77466">
        <ele>1815</ele>
        <time>2016-07-03T06:20:21.000Z</time>
      </trkpt>
      <trkpt lat="46.32693" lon="6.77454">
        <ele>1827</ele>
        <time>2016-07-03T06:20:38.000Z</time>
      </trkpt>
      <trkpt lat="46.32691" lon="6.77452">
        <ele>1825</ele>
        <time>2016-07-03T06:20:39.000Z</time>
      </trkpt>
      <trkpt lat="46.32685" lon="6.77443">
        <ele>1824</ele>
        <time>2016-07-03T06:20:46.000Z</time>
      </trkpt>
      <trkpt lat="46.32685" lon="6.77442">
        <ele>1825</ele>
        <time>2016-07-03T06:20:47.000Z</time>
      </trkpt>
      <trkpt lat="46.32677" lon="6.77435">
        <ele>1824</ele>
        <time>2016-07-03T06:21:01.000Z</time>
      </trkpt>
      <trkpt lat="46.32677" lon="6.77436">
        <ele>1824</ele>
        <time>2016-07-03T06:21:02.000Z</time>
      </trkpt>
      <trkpt lat="46.32668" lon="6.77437">
        <ele>1819</ele>
        <time>2016-07-03T06:21:16.000Z</time>
      </trkpt>
      <trkpt lat="46.32667" lon="6.77437">
        <ele>1819</ele>
        <time>2016-07-03T06:21:17.000Z</time>
      </trkpt>
      <trkpt lat="46.3266" lon="6.7743">
        <ele>1824</ele>
        <time>2016-07-03T06:21:25.000Z</time>
      </trkpt>
      <trkpt lat="46.32659" lon="6.77428">
        <ele>1826</ele>
        <time>2016-07-03T06:21:26.000Z</time>
      </trkpt>
      <trkpt lat="46.32652" lon="6.77422">
        <ele>1828</ele>
        <time>2016-07-03T06:21:41.000Z</time>
      </trkpt>
      <trkpt lat="46.32651" lon="6.77421">
        <ele>1826</ele>
        <time>2016-07-03T06:21:42.000Z</time>
      </trkpt>
      <trkpt lat="46.32645" lon="6.77414">
        <ele>1828</ele>
        <time>2016-07-03T06:21:48.000Z</time>
      </trkpt>
      <trkpt lat="46.32642" lon="6.77412">
        <ele>1828</ele>
        <time>2016-07-03T06:21:49.000Z</time>
      </trkpt>
      <trkpt lat="46.32636" lon="6.77404">
        <ele>1828</ele>
        <time>2016-07-03T06:22:02.000Z</time>
      </trkpt>
      <trkpt lat="46.32635" lon="6.77403">
        <ele>1829</ele>
        <time>2016-07-03T06:22:03.000Z</time>
      </trkpt>
      <trkpt lat="46.32629" lon="6.77394">
        <ele>1832</ele>
        <time>2016-07-03T06:22:13.000Z</time>
      </trkpt>
      <trkpt lat="46.32629" lon="6.77394">
        <ele>1832</ele>
        <time>2016-07-03T06:22:14.000Z</time>
      </trkpt>
      <trkpt lat="46.32623" lon="6.77385">
        <ele>1835</ele>
        <time>2016-07-03T06:22:26.000Z</time>
      </trkpt>
      <trkpt lat="46.32622" lon="6.77385">
        <ele>1835</ele>
        <time>2016-07-03T06:22:27.000Z</time>
      </trkpt>
      <trkpt lat="46.32614" lon="6.77385">
        <ele>1835</ele>
        <time>2016-07-03T06:22:36.000Z</time>
      </trkpt>
      <trkpt lat="46.32613" lon="6.77386">
        <ele>1836</ele>
        <time>2016-07-03T06:22:37.000Z</time>
      </trkpt>
      <trkpt lat="46.32605" lon="6.77391">
        <ele>1837</ele>
        <time>2016-07-03T06:22:48.000Z</time>
      </trkpt>
      <trkpt lat="46.32605" lon="6.77391">
        <ele>1837</ele>
        <time>2016-07-03T06:22:49.000Z</time>
      </trkpt>
      <trkpt lat="46.32598" lon="6.77399">
        <ele>1842</ele>
        <time>2016-07-03T06:23:01.000Z</time>
      </trkpt>
      <trkpt lat="46.32596" lon="6.77398">
        <ele>1842</ele>
        <time>2016-07-03T06:23:02.000Z</time>
      </trkpt>
      <trkpt lat="46.32589" lon="6.774">
        <ele>1841</ele>
        <time>2016-07-03T06:23:08.000Z</time>
      </trkpt>
      <trkpt lat="46.32586" lon="6.77398">
        <ele>1842</ele>
        <time>2016-07-03T06:23:09.000Z</time>
      </trkpt>
      <trkpt lat="46.32579" lon="6.77394">
        <ele>1842</ele>
        <time>2016-07-03T06:23:13.000Z</time>
      </trkpt>
      <trkpt lat="46.32577" lon="6.77394">
        <ele>1842</ele>
        <time>2016-07-03T06:23:14.000Z</time>
      </trkpt>
      <trkpt lat="46.32579" lon="6.77399">
        <ele>1844</ele>
        <time>2016-07-03T06:23:23.000Z</time>
      </trkpt>
      <trkpt lat="46.32584" lon="6.77404">
        <ele>1847</ele>
        <time>2016-07-03T06:23:24.000Z</time>
      </trkpt>
      <trkpt lat="46.32588" lon="6.77414">
        <ele>1851</ele>
        <time>2016-07-03T06:23:35.000Z</time>
      </trkpt>
      <trkpt lat="46.32591" lon="6.77418">
        <ele>1851</ele>
        <time>2016-07-03T06:23:36.000Z</time>
      </trkpt>
      <trkpt lat="46.32591" lon="6.77429">
        <ele>1855</ele>
        <time>2016-07-03T06:23:45.000Z</time>
      </trkpt>
      <trkpt lat="46.32594" lon="6.77433">
        <ele>1856</ele>
        <time>2016-07-03T06:23:46.000Z</time>
      </trkpt>
      <trkpt lat="46.32587" lon="6.77439">
        <ele>1868</ele>
        <time>2016-07-03T06:24:01.000Z</time>
      </trkpt>
      <trkpt lat="46.32585" lon="6.77439">
        <ele>1864</ele>
        <time>2016-07-03T06:24:02.000Z</time>
      </trkpt>
      <trkpt lat="46.32576" lon="6.77439">
        <ele>1857</ele>
        <time>2016-07-03T06:24:12.000Z</time>
      </trkpt>
      <trkpt lat="46.32575" lon="6.77439">
        <ele>1857</ele>
        <time>2016-07-03T06:24:13.000Z</time>
      </trkpt>
      <trkpt lat="46.32568" lon="6.77443">
        <ele>1859</ele>
        <time>2016-07-03T06:24:21.000Z</time>
      </trkpt>
      <trkpt lat="46.32566" lon="6.77444">
        <ele>1859</ele>
        <time>2016-07-03T06:24:22.000Z</time>
      </trkpt>
      <trkpt lat="46.32557" lon="6.77446">
        <ele>1861</ele>
        <time>2016-07-03T06:25:32.000Z</time>
      </trkpt>
      <trkpt lat="46.32556" lon="6.77446">
        <ele>1861</ele>
        <time>2016-07-03T06:25:33.000Z</time>
      </trkpt>
      <trkpt lat="46.32554" lon="6.77445">
        <ele>1863</ele>
        <time>2016-07-03T06:25:37.000Z</time>
      </trkpt>
      <trkpt lat="46.32553" lon="6.77445">
        <ele>1863</ele>
        <time>2016-07-03T06:25:38.000Z</time>
      </trkpt>
      <trkpt lat="46.32554" lon="6.77445">
        <ele>1863</ele>
        <time>2016-07-03T06:25:39.000Z</time>
      </trkpt>
      <trkpt lat="46.32545" lon="6.77444">
        <ele>1862</ele>
        <time>2016-07-03T06:25:45.000Z</time>
      </trkpt>
      <trkpt lat="46.32544" lon="6.77445">
        <ele>1861</ele>
        <time>2016-07-03T06:25:46.000Z</time>
      </trkpt>
      <trkpt lat="46.32536" lon="6.77447">
        <ele>1859</ele>
        <time>2016-07-03T06:25:53.000Z</time>
      </trkpt>
      <trkpt lat="46.32535" lon="6.77447">
        <ele>1859</ele>
        <time>2016-07-03T06:25:54.000Z</time>
      </trkpt>
      <trkpt lat="46.32526" lon="6.77449">
        <ele>1857</ele>
        <time>2016-07-03T06:26:04.000Z</time>
      </trkpt>
      <trkpt lat="46.32525" lon="6.77449">
        <ele>1857</ele>
        <time>2016-07-03T06:26:05.000Z</time>
      </trkpt>
      <trkpt lat="46.32517" lon="6.77452">
        <ele>1857</ele>
        <time>2016-07-03T06:26:15.000Z</time>
      </trkpt>
      <trkpt lat="46.32516" lon="6.77453">
        <ele>1857</ele>
        <time>2016-07-03T06:26:16.000Z</time>
      </trkpt>
      <trkpt lat="46.32508" lon="6.77456">
        <ele>1855</ele>
        <time>2016-07-03T06:26:25.000Z</time>
      </trkpt>
      <trkpt lat="46.32507" lon="6.77456">
        <ele>1855</ele>
        <time>2016-07-03T06:26:26.000Z</time>
      </trkpt>
      <trkpt lat="46.32498" lon="6.77456">
        <ele>1851</ele>
        <time>2016-07-03T06:26:37.000Z</time>
      </trkpt>
      <trkpt lat="46.32497" lon="6.77456">
        <ele>1850</ele>
        <time>2016-07-03T06:26:38.000Z</time>
      </trkpt>
      <trkpt lat="46.32488" lon="6.77458">
        <ele>1847</ele>
        <time>2016-07-03T06:26:51.000Z</time>
      </trkpt>
      <trkpt lat="46.32487" lon="6.77459">
        <ele>1847</ele>
        <time>2016-07-03T06:26:52.000Z</time>
      </trkpt>
      <trkpt lat="46.32479" lon="6.77458">
        <ele>1845</ele>
        <time>2016-07-03T06:27:04.000Z</time>
      </trkpt>
      <trkpt lat="46.32478" lon="6.77458">
        <ele>1845</ele>
        <time>2016-07-03T06:27:05.000Z</time>
      </trkpt>
      <trkpt lat="46.3247" lon="6.77462">
        <ele>1843</ele>
        <time>2016-07-03T06:27:11.000Z</time>
      </trkpt>
      <trkpt lat="46.32469" lon="6.77463">
        <ele>1842</ele>
        <time>2016-07-03T06:27:12.000Z</time>
      </trkpt>
      <trkpt lat="46.32461" lon="6.77464">
        <ele>1840</ele>
        <time>2016-07-03T06:27:20.000Z</time>
      </trkpt>
      <trkpt lat="46.3246" lon="6.77465">
        <ele>1840</ele>
        <time>2016-07-03T06:27:21.000Z</time>
      </trkpt>
      <trkpt lat="46.32451" lon="6.77466">
        <ele>1839</ele>
        <time>2016-07-03T06:27:32.000Z</time>
      </trkpt>
      <trkpt lat="46.32451" lon="6.77466">
        <ele>1838</ele>
        <time>2016-07-03T06:27:33.000Z</time>
      </trkpt>
      <trkpt lat="46.32443" lon="6.77468">
        <ele>1837</ele>
        <time>2016-07-03T06:27:41.000Z</time>
      </trkpt>
      <trkpt lat="46.32442" lon="6.7747">
        <ele>1837</ele>
        <time>2016-07-03T06:27:42.000Z</time>
      </trkpt>
      <trkpt lat="46.32434" lon="6.77474">
        <ele>1836</ele>
        <time>2016-07-03T06:27:53.000Z</time>
      </trkpt>
      <trkpt lat="46.32434" lon="6.77475">
        <ele>1835</ele>
        <time>2016-07-03T06:27:54.000Z</time>
      </trkpt>
      <trkpt lat="46.32426" lon="6.7748">
        <ele>1834</ele>
        <time>2016-07-03T06:28:03.000Z</time>
      </trkpt>
      <trkpt lat="46.32425" lon="6.7748">
        <ele>1833</ele>
        <time>2016-07-03T06:28:04.000Z</time>
      </trkpt>
      <trkpt lat="46.32417" lon="6.7748">
        <ele>1830</ele>
        <time>2016-07-03T06:28:14.000Z</time>
      </trkpt>
      <trkpt lat="46.32416" lon="6.7748">
        <ele>1830</ele>
        <time>2016-07-03T06:28:15.000Z</time>
      </trkpt>
      <trkpt lat="46.32408" lon="6.77483">
        <ele>1825</ele>
        <time>2016-07-03T06:28:27.000Z</time>
      </trkpt>
      <trkpt lat="46.32407" lon="6.77483">
        <ele>1824</ele>
        <time>2016-07-03T06:28:28.000Z</time>
      </trkpt>
      <trkpt lat="46.32399" lon="6.77484">
        <ele>1823</ele>
        <time>2016-07-03T06:28:35.000Z</time>
      </trkpt>
      <trkpt lat="46.32397" lon="6.77485">
        <ele>1823</ele>
        <time>2016-07-03T06:28:36.000Z</time>
      </trkpt>
      <trkpt lat="46.32389" lon="6.77489">
        <ele>1825</ele>
        <time>2016-07-03T06:28:42.000Z</time>
      </trkpt>
      <trkpt lat="46.32388" lon="6.7749">
        <ele>1825</ele>
        <time>2016-07-03T06:28:43.000Z</time>
      </trkpt>
      <trkpt lat="46.3238" lon="6.77493">
        <ele>1824</ele>
        <time>2016-07-03T06:28:50.000Z</time>
      </trkpt>
      <trkpt lat="46.32379" lon="6.77493">
        <ele>1823</ele>
        <time>2016-07-03T06:28:51.000Z</time>
      </trkpt>
      <trkpt lat="46.32371" lon="6.77495">
        <ele>1820</ele>
        <time>2016-07-03T06:29:05.000Z</time>
      </trkpt>
      <trkpt lat="46.3237" lon="6.77496">
        <ele>1820</ele>
        <time>2016-07-03T06:29:06.000Z</time>
      </trkpt>
      <trkpt lat="46.32363" lon="6.77504">
        <ele>1819</ele>
        <time>2016-07-03T06:29:17.000Z</time>
      </trkpt>
      <trkpt lat="46.32362" lon="6.77505">
        <ele>1819</ele>
        <time>2016-07-03T06:29:18.000Z</time>
      </trkpt>
      <trkpt lat="46.32354" lon="6.77508">
        <ele>1817</ele>
        <time>2016-07-03T06:29:31.000Z</time>
      </trkpt>
      <trkpt lat="46.32352" lon="6.77509">
        <ele>1817</ele>
        <time>2016-07-03T06:29:32.000Z</time>
      </trkpt>
      <trkpt lat="46.32344" lon="6.77514">
        <ele>1812</ele>
        <time>2016-07-03T06:29:41.000Z</time>
      </trkpt>
      <trkpt lat="46.32342" lon="6.77515">
        <ele>1812</ele>
        <time>2016-07-03T06:29:42.000Z</time>
      </trkpt>
      <trkpt lat="46.32336" lon="6.77521">
        <ele>1811</ele>
        <time>2016-07-03T06:29:48.000Z</time>
      </trkpt>
      <trkpt lat="46.32334" lon="6.77521">
        <ele>1812</ele>
        <time>2016-07-03T06:29:49.000Z</time>
      </trkpt>
      <trkpt lat="46.32327" lon="6.77526">
        <ele>1813</ele>
        <time>2016-07-03T06:29:55.000Z</time>
      </trkpt>
      <trkpt lat="46.32326" lon="6.77528">
        <ele>1813</ele>
        <time>2016-07-03T06:29:56.000Z</time>
      </trkpt>
      <trkpt lat="46.3232" lon="6.77538">
        <ele>1814</ele>
        <time>2016-07-03T06:30:02.000Z</time>
      </trkpt>
      <trkpt lat="46.32319" lon="6.77539">
        <ele>1814</ele>
        <time>2016-07-03T06:30:03.000Z</time>
      </trkpt>
      <trkpt lat="46.32312" lon="6.77545">
        <ele>1816</ele>
        <time>2016-07-03T06:30:10.000Z</time>
      </trkpt>
      <trkpt lat="46.32311" lon="6.77545">
        <ele>1816</ele>
        <time>2016-07-03T06:30:11.000Z</time>
      </trkpt>
      <trkpt lat="46.32303" lon="6.77547">
        <ele>1815</ele>
        <time>2016-07-03T06:30:22.000Z</time>
      </trkpt>
      <trkpt lat="46.32302" lon="6.77548">
        <ele>1814</ele>
        <time>2016-07-03T06:30:23.000Z</time>
      </trkpt>
      <trkpt lat="46.32302" lon="6.77549">
        <ele>1811</ele>
        <time>2016-07-03T06:33:13.000Z</time>
      </trkpt>
      <trkpt lat="46.32302" lon="6.77549">
        <ele>1811</ele>
        <time>2016-07-03T06:33:14.000Z</time>
      </trkpt>
      <trkpt lat="46.32305" lon="6.77549">
        <ele>1809</ele>
        <time>2016-07-03T06:35:20.000Z</time>
      </trkpt>
      <trkpt lat="46.32305" lon="6.77549">
        <ele>1809</ele>
        <time>2016-07-03T06:35:21.000Z</time>
      </trkpt>
      <trkpt lat="46.32304" lon="6.77549">
        <ele>1807</ele>
        <time>2016-07-03T06:35:53.000Z</time>
      </trkpt>
      <trkpt lat="46.32304" lon="6.77549">
        <ele>1807</ele>
        <time>2016-07-03T06:35:54.000Z</time>
      </trkpt>
      <trkpt lat="46.32302" lon="6.7755">
        <ele>1809</ele>
        <time>2016-07-03T06:36:29.000Z</time>
      </trkpt>
      <trkpt lat="46.32302" lon="6.7755">
        <ele>1809</ele>
        <time>2016-07-03T06:36:30.000Z</time>
      </trkpt>
      <trkpt lat="46.323" lon="6.77562">
        <ele>1809</ele>
        <time>2016-07-03T06:39:25.000Z</time>
      </trkpt>
      <trkpt lat="46.323" lon="6.77563">
        <ele>1809</ele>
        <time>2016-07-03T06:39:26.000Z</time>
      </trkpt>
      <trkpt lat="46.323" lon="6.77574">
        <ele>1809</ele>
        <time>2016-07-03T06:40:00.000Z</time>
      </trkpt>
      <trkpt lat="46.32298" lon="6.77576">
        <ele>1809</ele>
        <time>2016-07-03T06:40:01.000Z</time>
      </trkpt>
      <trkpt lat="46.32292" lon="6.77585">
        <ele>1807</ele>
        <time>2016-07-03T06:40:14.000Z</time>
      </trkpt>
      <trkpt lat="46.32291" lon="6.77585">
        <ele>1808</ele>
        <time>2016-07-03T06:40:15.000Z</time>
      </trkpt>
      <trkpt lat="46.32285" lon="6.77594">
        <ele>1804</ele>
        <time>2016-07-03T06:40:29.000Z</time>
      </trkpt>
      <trkpt lat="46.32284" lon="6.77595">
        <ele>1804</ele>
        <time>2016-07-03T06:40:30.000Z</time>
      </trkpt>
      <trkpt lat="46.32277" lon="6.776">
        <ele>1802</ele>
        <time>2016-07-03T06:40:40.000Z</time>
      </trkpt>
      <trkpt lat="46.32275" lon="6.776">
        <ele>1802</ele>
        <time>2016-07-03T06:40:41.000Z</time>
      </trkpt>
      <trkpt lat="46.32268" lon="6.77605">
        <ele>1800</ele>
        <time>2016-07-03T06:40:50.000Z</time>
      </trkpt>
      <trkpt lat="46.32267" lon="6.77606">
        <ele>1799</ele>
        <time>2016-07-03T06:40:51.000Z</time>
      </trkpt>
      <trkpt lat="46.32258" lon="6.77607">
        <ele>1793</ele>
        <time>2016-07-03T06:40:59.000Z</time>
      </trkpt>
      <trkpt lat="46.32256" lon="6.77607">
        <ele>1792</ele>
        <time>2016-07-03T06:41:00.000Z</time>
      </trkpt>
      <trkpt lat="46.32249" lon="6.7761">
        <ele>1791</ele>
        <time>2016-07-03T06:41:08.000Z</time>
      </trkpt>
      <trkpt lat="46.32247" lon="6.7761">
        <ele>1792</ele>
        <time>2016-07-03T06:41:09.000Z</time>
      </trkpt>
      <trkpt lat="46.32243" lon="6.77621">
        <ele>1788</ele>
        <time>2016-07-03T06:41:28.000Z</time>
      </trkpt>
      <trkpt lat="46.32244" lon="6.77623">
        <ele>1789</ele>
        <time>2016-07-03T06:41:29.000Z</time>
      </trkpt>
      <trkpt lat="46.32244" lon="6.77635">
        <ele>1782</ele>
        <time>2016-07-03T06:41:43.000Z</time>
      </trkpt>
      <trkpt lat="46.32243" lon="6.77636">
        <ele>1782</ele>
        <time>2016-07-03T06:41:44.000Z</time>
      </trkpt>
      <trkpt lat="46.32237" lon="6.77643">
        <ele>1780</ele>
        <time>2016-07-03T06:41:51.000Z</time>
      </trkpt>
      <trkpt lat="46.32235" lon="6.77645">
        <ele>1780</ele>
        <time>2016-07-03T06:41:52.000Z</time>
      </trkpt>
      <trkpt lat="46.32231" lon="6.77653">
        <ele>1782</ele>
        <time>2016-07-03T06:41:56.000Z</time>
      </trkpt>
      <trkpt lat="46.3223" lon="6.77656">
        <ele>1782</ele>
        <time>2016-07-03T06:41:57.000Z</time>
      </trkpt>
      <trkpt lat="46.32224" lon="6.77664">
        <ele>1782</ele>
        <time>2016-07-03T06:42:04.000Z</time>
      </trkpt>
      <trkpt lat="46.32223" lon="6.77666">
        <ele>1781</ele>
        <time>2016-07-03T06:42:05.000Z</time>
      </trkpt>
      <trkpt lat="46.32219" lon="6.77675">
        <ele>1783</ele>
        <time>2016-07-03T06:42:10.000Z</time>
      </trkpt>
      <trkpt lat="46.32219" lon="6.77678">
        <ele>1783</ele>
        <time>2016-07-03T06:42:11.000Z</time>
      </trkpt>
      <trkpt lat="46.32212" lon="6.77685">
        <ele>1785</ele>
        <time>2016-07-03T06:42:21.000Z</time>
      </trkpt>
      <trkpt lat="46.32211" lon="6.77687">
        <ele>1783</ele>
        <time>2016-07-03T06:42:22.000Z</time>
      </trkpt>
      <trkpt lat="46.32202" lon="6.7769">
        <ele>1779</ele>
        <time>2016-07-03T06:42:32.000Z</time>
      </trkpt>
      <trkpt lat="46.32202" lon="6.77692">
        <ele>1777</ele>
        <time>2016-07-03T06:42:33.000Z</time>
      </trkpt>
      <trkpt lat="46.32195" lon="6.77699">
        <ele>1774</ele>
        <time>2016-07-03T06:42:40.000Z</time>
      </trkpt>
      <trkpt lat="46.32194" lon="6.77699">
        <ele>1775</ele>
        <time>2016-07-03T06:42:41.000Z</time>
      </trkpt>
      <trkpt lat="46.32189" lon="6.77709">
        <ele>1770</ele>
        <time>2016-07-03T06:42:53.000Z</time>
      </trkpt>
      <trkpt lat="46.32189" lon="6.7771">
        <ele>1770</ele>
        <time>2016-07-03T06:42:54.000Z</time>
      </trkpt>
      <trkpt lat="46.32191" lon="6.77723">
        <ele>1766</ele>
        <time>2016-07-03T06:43:04.000Z</time>
      </trkpt>
      <trkpt lat="46.32192" lon="6.77724">
        <ele>1765</ele>
        <time>2016-07-03T06:43:05.000Z</time>
      </trkpt>
      <trkpt lat="46.32195" lon="6.77736">
        <ele>1759</ele>
        <time>2016-07-03T06:43:30.000Z</time>
      </trkpt>
      <trkpt lat="46.32194" lon="6.77739">
        <ele>1757</ele>
        <time>2016-07-03T06:43:31.000Z</time>
      </trkpt>
      <trkpt lat="46.32193" lon="6.7775">
        <ele>1754</ele>
        <time>2016-07-03T06:43:38.000Z</time>
      </trkpt>
      <trkpt lat="46.32192" lon="6.77752">
        <ele>1754</ele>
        <time>2016-07-03T06:43:39.000Z</time>
      </trkpt>
      <trkpt lat="46.3219" lon="6.77763">
        <ele>1753</ele>
        <time>2016-07-03T06:43:46.000Z</time>
      </trkpt>
      <trkpt lat="46.3219" lon="6.77765">
        <ele>1753</ele>
        <time>2016-07-03T06:43:47.000Z</time>
      </trkpt>
      <trkpt lat="46.32189" lon="6.77777">
        <ele>1753</ele>
        <time>2016-07-03T06:43:56.000Z</time>
      </trkpt>
      <trkpt lat="46.32188" lon="6.77778">
        <ele>1753</ele>
        <time>2016-07-03T06:43:57.000Z</time>
      </trkpt>
      <trkpt lat="46.32184" lon="6.77789">
        <ele>1747</ele>
        <time>2016-07-03T06:44:11.000Z</time>
      </trkpt>
      <trkpt lat="46.32183" lon="6.7779">
        <ele>1746</ele>
        <time>2016-07-03T06:44:12.000Z</time>
      </trkpt>
      <trkpt lat="46.32174" lon="6.77786">
        <ele>1746</ele>
        <time>2016-07-03T06:44:29.000Z</time>
      </trkpt>
      <trkpt lat="46.32174" lon="6.77784">
        <ele>1746</ele>
        <time>2016-07-03T06:44:30.000Z</time>
      </trkpt>
      <trkpt lat="46.32168" lon="6.77775">
        <ele>1740</ele>
        <time>2016-07-03T06:44:43.000Z</time>
      </trkpt>
      <trkpt lat="46.32167" lon="6.77774">
        <ele>1739</ele>
        <time>2016-07-03T06:44:44.000Z</time>
      </trkpt>
      <trkpt lat="46.32159" lon="6.77776">
        <ele>1734</ele>
        <time>2016-07-03T06:44:58.000Z</time>
      </trkpt>
      <trkpt lat="46.32158" lon="6.77778">
        <ele>1734</ele>
        <time>2016-07-03T06:44:59.000Z</time>
      </trkpt>
      <trkpt lat="46.32152" lon="6.77786">
        <ele>1733</ele>
        <time>2016-07-03T06:45:09.000Z</time>
      </trkpt>
      <trkpt lat="46.32151" lon="6.77786">
        <ele>1732</ele>
        <time>2016-07-03T06:45:10.000Z</time>
      </trkpt>
      <trkpt lat="46.32146" lon="6.77796">
        <ele>1724</ele>
        <time>2016-07-03T06:45:22.000Z</time>
      </trkpt>
      <trkpt lat="46.32145" lon="6.77798">
        <ele>1723</ele>
        <time>2016-07-03T06:45:23.000Z</time>
      </trkpt>
      <trkpt lat="46.32142" lon="6.77809">
        <ele>1724</ele>
        <time>2016-07-03T06:45:32.000Z</time>
      </trkpt>
      <trkpt lat="46.32142" lon="6.7781">
        <ele>1724</ele>
        <time>2016-07-03T06:45:33.000Z</time>
      </trkpt>
      <trkpt lat="46.32137" lon="6.77818">
        <ele>1722</ele>
        <time>2016-07-03T06:45:41.000Z</time>
      </trkpt>
      <trkpt lat="46.32136" lon="6.77821">
        <ele>1722</ele>
        <time>2016-07-03T06:45:42.000Z</time>
      </trkpt>
      <trkpt lat="46.32132" lon="6.7783">
        <ele>1720</ele>
        <time>2016-07-03T06:45:49.000Z</time>
      </trkpt>
      <trkpt lat="46.32131" lon="6.77832">
        <ele>1719</ele>
        <time>2016-07-03T06:45:50.000Z</time>
      </trkpt>
      <trkpt lat="46.32127" lon="6.77843">
        <ele>1720</ele>
        <time>2016-07-03T06:46:02.000Z</time>
      </trkpt>
      <trkpt lat="46.32126" lon="6.77844">
        <ele>1720</ele>
        <time>2016-07-03T06:46:03.000Z</time>
      </trkpt>
      <trkpt lat="46.3212" lon="6.7785">
        <ele>1717</ele>
        <time>2016-07-03T06:46:10.000Z</time>
      </trkpt>
      <trkpt lat="46.32118" lon="6.77852">
        <ele>1717</ele>
        <time>2016-07-03T06:46:11.000Z</time>
      </trkpt>
      <trkpt lat="46.32113" lon="6.77862">
        <ele>1715</ele>
        <time>2016-07-03T06:46:17.000Z</time>
      </trkpt>
      <trkpt lat="46.32112" lon="6.77862">
        <ele>1715</ele>
        <time>2016-07-03T06:46:18.000Z</time>
      </trkpt>
      <trkpt lat="46.32105" lon="6.77868">
        <ele>1708</ele>
        <time>2016-07-03T06:46:28.000Z</time>
      </trkpt>
      <trkpt lat="46.32104" lon="6.77868">
        <ele>1708</ele>
        <time>2016-07-03T06:46:29.000Z</time>
      </trkpt>
      <trkpt lat="46.32098" lon="6.77877">
        <ele>1711</ele>
        <time>2016-07-03T06:46:37.000Z</time>
      </trkpt>
      <trkpt lat="46.32098" lon="6.77879">
        <ele>1709</ele>
        <time>2016-07-03T06:46:38.000Z</time>
      </trkpt>
      <trkpt lat="46.32094" lon="6.7789">
        <ele>1700</ele>
        <time>2016-07-03T06:46:46.000Z</time>
      </trkpt>
      <trkpt lat="46.32093" lon="6.77892">
        <ele>1699</ele>
        <time>2016-07-03T06:46:47.000Z</time>
      </trkpt>
      <trkpt lat="46.32088" lon="6.779">
        <ele>1698</ele>
        <time>2016-07-03T06:46:54.000Z</time>
      </trkpt>
      <trkpt lat="46.32086" lon="6.77901">
        <ele>1697</ele>
        <time>2016-07-03T06:46:55.000Z</time>
      </trkpt>
      <trkpt lat="46.3208" lon="6.77911">
        <ele>1698</ele>
        <time>2016-07-03T06:47:33.000Z</time>
      </trkpt>
      <trkpt lat="46.3208" lon="6.77911">
        <ele>1698</ele>
        <time>2016-07-03T06:47:34.000Z</time>
      </trkpt>
      <trkpt lat="46.32073" lon="6.77918">
        <ele>1693</ele>
        <time>2016-07-03T06:47:44.000Z</time>
      </trkpt>
      <trkpt lat="46.32072" lon="6.77919">
        <ele>1692</ele>
        <time>2016-07-03T06:47:45.000Z</time>
      </trkpt>
      <trkpt lat="46.32064" lon="6.77922">
        <ele>1692</ele>
        <time>2016-07-03T06:48:00.000Z</time>
      </trkpt>
      <trkpt lat="46.32063" lon="6.77923">
        <ele>1690</ele>
        <time>2016-07-03T06:48:01.000Z</time>
      </trkpt>
      <trkpt lat="46.32055" lon="6.77921">
        <ele>1686</ele>
        <time>2016-07-03T06:48:14.000Z</time>
      </trkpt>
      <trkpt lat="46.32054" lon="6.77921">
        <ele>1685</ele>
        <time>2016-07-03T06:48:15.000Z</time>
      </trkpt>
      <trkpt lat="46.32046" lon="6.77923">
        <ele>1685</ele>
        <time>2016-07-03T06:48:25.000Z</time>
      </trkpt>
      <trkpt lat="46.32045" lon="6.77923">
        <ele>1684</ele>
        <time>2016-07-03T06:48:26.000Z</time>
      </trkpt>
      <trkpt lat="46.32036" lon="6.77923">
        <ele>1678</ele>
        <time>2016-07-03T06:48:38.000Z</time>
      </trkpt>
      <trkpt lat="46.32035" lon="6.77924">
        <ele>1678</ele>
        <time>2016-07-03T06:48:39.000Z</time>
      </trkpt>
      <trkpt lat="46.32031" lon="6.77933">
        <ele>1679</ele>
        <time>2016-07-03T06:48:48.000Z</time>
      </trkpt>
      <trkpt lat="46.3203" lon="6.77934">
        <ele>1678</ele>
        <time>2016-07-03T06:48:49.000Z</time>
      </trkpt>
      <trkpt lat="46.32022" lon="6.77935">
        <ele>1671</ele>
        <time>2016-07-03T06:48:59.000Z</time>
      </trkpt>
      <trkpt lat="46.3202" lon="6.77936">
        <ele>1670</ele>
        <time>2016-07-03T06:49:00.000Z</time>
      </trkpt>
      <trkpt lat="46.32014" lon="6.77943">
        <ele>1667</ele>
        <time>2016-07-03T06:49:07.000Z</time>
      </trkpt>
      <trkpt lat="46.32013" lon="6.77943">
        <ele>1666</ele>
        <time>2016-07-03T06:49:08.000Z</time>
      </trkpt>
      <trkpt lat="46.32006" lon="6.7795">
        <ele>1662</ele>
        <time>2016-07-03T06:49:14.000Z</time>
      </trkpt>
      <trkpt lat="46.32004" lon="6.7795">
        <ele>1661</ele>
        <time>2016-07-03T06:49:15.000Z</time>
      </trkpt>
      <trkpt lat="46.31997" lon="6.77958">
        <ele>1659</ele>
        <time>2016-07-03T06:49:22.000Z</time>
      </trkpt>
      <trkpt lat="46.31996" lon="6.77957">
        <ele>1658</ele>
        <time>2016-07-03T06:49:23.000Z</time>
      </trkpt>
      <trkpt lat="46.3199" lon="6.77966">
        <ele>1657</ele>
        <time>2016-07-03T06:49:36.000Z</time>
      </trkpt>
      <trkpt lat="46.31989" lon="6.77965">
        <ele>1656</ele>
        <time>2016-07-03T06:49:37.000Z</time>
      </trkpt>
      <trkpt lat="46.3198" lon="6.77966">
        <ele>1655</ele>
        <time>2016-07-03T06:49:46.000Z</time>
      </trkpt>
      <trkpt lat="46.31978" lon="6.77966">
        <ele>1655</ele>
        <time>2016-07-03T06:49:47.000Z</time>
      </trkpt>
      <trkpt lat="46.3197" lon="6.7797">
        <ele>1655</ele>
        <time>2016-07-03T06:49:56.000Z</time>
      </trkpt>
      <trkpt lat="46.31969" lon="6.7797">
        <ele>1655</ele>
        <time>2016-07-03T06:49:57.000Z</time>
      </trkpt>
      <trkpt lat="46.31963" lon="6.77979">
        <ele>1652</ele>
        <time>2016-07-03T06:50:09.000Z</time>
      </trkpt>
      <trkpt lat="46.31961" lon="6.77981">
        <ele>1651</ele>
        <time>2016-07-03T06:50:10.000Z</time>
      </trkpt>
      <trkpt lat="46.31958" lon="6.77992">
        <ele>1648</ele>
        <time>2016-07-03T06:50:17.000Z</time>
      </trkpt>
      <trkpt lat="46.31958" lon="6.77994">
        <ele>1648</ele>
        <time>2016-07-03T06:50:18.000Z</time>
      </trkpt>
      <trkpt lat="46.31951" lon="6.78002">
        <ele>1645</ele>
        <time>2016-07-03T06:50:26.000Z</time>
      </trkpt>
      <trkpt lat="46.31951" lon="6.78003">
        <ele>1645</ele>
        <time>2016-07-03T06:50:27.000Z</time>
      </trkpt>
      <trkpt lat="46.31952" lon="6.78015">
        <ele>1640</ele>
        <time>2016-07-03T06:50:38.000Z</time>
      </trkpt>
      <trkpt lat="46.31952" lon="6.78017">
        <ele>1640</ele>
        <time>2016-07-03T06:50:39.000Z</time>
      </trkpt>
      <trkpt lat="46.31948" lon="6.78029">
        <ele>1638</ele>
        <time>2016-07-03T06:50:48.000Z</time>
      </trkpt>
      <trkpt lat="46.31948" lon="6.7803">
        <ele>1638</ele>
        <time>2016-07-03T06:50:49.000Z</time>
      </trkpt>
      <trkpt lat="46.31942" lon="6.78038">
        <ele>1640</ele>
        <time>2016-07-03T06:51:03.000Z</time>
      </trkpt>
      <trkpt lat="46.31941" lon="6.78039">
        <ele>1640</ele>
        <time>2016-07-03T06:51:04.000Z</time>
      </trkpt>
      <trkpt lat="46.31933" lon="6.78045">
        <ele>1638</ele>
        <time>2016-07-03T06:51:14.000Z</time>
      </trkpt>
      <trkpt lat="46.31933" lon="6.78046">
        <ele>1636</ele>
        <time>2016-07-03T06:51:15.000Z</time>
      </trkpt>
      <trkpt lat="46.31925" lon="6.78051">
        <ele>1632</ele>
        <time>2016-07-03T06:51:26.000Z</time>
      </trkpt>
      <trkpt lat="46.31925" lon="6.78053">
        <ele>1632</ele>
        <time>2016-07-03T06:51:27.000Z</time>
      </trkpt>
      <trkpt lat="46.31918" lon="6.78059">
        <ele>1628</ele>
        <time>2016-07-03T06:51:37.000Z</time>
      </trkpt>
      <trkpt lat="46.31916" lon="6.7806">
        <ele>1628</ele>
        <time>2016-07-03T06:51:38.000Z</time>
      </trkpt>
      <trkpt lat="46.31909" lon="6.78066">
        <ele>1623</ele>
        <time>2016-07-03T06:51:45.000Z</time>
      </trkpt>
      <trkpt lat="46.31908" lon="6.78067">
        <ele>1622</ele>
        <time>2016-07-03T06:51:46.000Z</time>
      </trkpt>
      <trkpt lat="46.319" lon="6.78071">
        <ele>1622</ele>
        <time>2016-07-03T06:51:56.000Z</time>
      </trkpt>
      <trkpt lat="46.31898" lon="6.78072">
        <ele>1622</ele>
        <time>2016-07-03T06:51:57.000Z</time>
      </trkpt>
      <trkpt lat="46.3189" lon="6.78073">
        <ele>1622</ele>
        <time>2016-07-03T06:52:05.000Z</time>
      </trkpt>
      <trkpt lat="46.31889" lon="6.78074">
        <ele>1623</ele>
        <time>2016-07-03T06:52:06.000Z</time>
      </trkpt>
      <trkpt lat="46.31882" lon="6.7808">
        <ele>1617</ele>
        <time>2016-07-03T06:52:12.000Z</time>
      </trkpt>
      <trkpt lat="46.31881" lon="6.78081">
        <ele>1617</ele>
        <time>2016-07-03T06:52:13.000Z</time>
      </trkpt>
      <trkpt lat="46.31874" lon="6.78087">
        <ele>1614</ele>
        <time>2016-07-03T06:52:22.000Z</time>
      </trkpt>
      <trkpt lat="46.31873" lon="6.78089">
        <ele>1614</ele>
        <time>2016-07-03T06:52:23.000Z</time>
      </trkpt>
      <trkpt lat="46.31866" lon="6.78097">
        <ele>1609</ele>
        <time>2016-07-03T06:52:31.000Z</time>
      </trkpt>
      <trkpt lat="46.31865" lon="6.78097">
        <ele>1609</ele>
        <time>2016-07-03T06:52:32.000Z</time>
      </trkpt>
      <trkpt lat="46.31859" lon="6.78106">
        <ele>1609</ele>
        <time>2016-07-03T06:52:38.000Z</time>
      </trkpt>
      <trkpt lat="46.31858" lon="6.78108">
        <ele>1608</ele>
        <time>2016-07-03T06:52:39.000Z</time>
      </trkpt>
      <trkpt lat="46.31851" lon="6.78115">
        <ele>1608</ele>
        <time>2016-07-03T06:52:44.000Z</time>
      </trkpt>
      <trkpt lat="46.3185" lon="6.78116">
        <ele>1608</ele>
        <time>2016-07-03T06:52:45.000Z</time>
      </trkpt>
      <trkpt lat="46.31842" lon="6.7812">
        <ele>1607</ele>
        <time>2016-07-03T06:52:54.000Z</time>
      </trkpt>
      <trkpt lat="46.31841" lon="6.7812">
        <ele>1609</ele>
        <time>2016-07-03T06:52:55.000Z</time>
      </trkpt>
      <trkpt lat="46.31834" lon="6.78126">
        <ele>1608</ele>
        <time>2016-07-03T06:53:03.000Z</time>
      </trkpt>
      <trkpt lat="46.31834" lon="6.78127">
        <ele>1609</ele>
        <time>2016-07-03T06:53:04.000Z</time>
      </trkpt>
      <trkpt lat="46.31825" lon="6.78129">
        <ele>1602</ele>
        <time>2016-07-03T06:53:11.000Z</time>
      </trkpt>
      <trkpt lat="46.31825" lon="6.7813">
        <ele>1601</ele>
        <time>2016-07-03T06:53:12.000Z</time>
      </trkpt>
      <trkpt lat="46.31819" lon="6.78139">
        <ele>1600</ele>
        <time>2016-07-03T06:53:19.000Z</time>
      </trkpt>
      <trkpt lat="46.31818" lon="6.7814">
        <ele>1601</ele>
        <time>2016-07-03T06:53:20.000Z</time>
      </trkpt>
      <trkpt lat="46.3181" lon="6.78144">
        <ele>1596</ele>
        <time>2016-07-03T06:53:28.000Z</time>
      </trkpt>
      <trkpt lat="46.31809" lon="6.78145">
        <ele>1595</ele>
        <time>2016-07-03T06:53:29.000Z</time>
      </trkpt>
      <trkpt lat="46.31804" lon="6.78155">
        <ele>1593</ele>
        <time>2016-07-03T06:53:38.000Z</time>
      </trkpt>
      <trkpt lat="46.31803" lon="6.78156">
        <ele>1592</ele>
        <time>2016-07-03T06:53:39.000Z</time>
      </trkpt>
      <trkpt lat="46.31797" lon="6.78164">
        <ele>1586</ele>
        <time>2016-07-03T06:53:50.000Z</time>
      </trkpt>
      <trkpt lat="46.31795" lon="6.78165">
        <ele>1586</ele>
        <time>2016-07-03T06:53:51.000Z</time>
      </trkpt>
      <trkpt lat="46.31789" lon="6.78174">
        <ele>1585</ele>
        <time>2016-07-03T06:53:57.000Z</time>
      </trkpt>
      <trkpt lat="46.31788" lon="6.78176">
        <ele>1584</ele>
        <time>2016-07-03T06:53:58.000Z</time>
      </trkpt>
      <trkpt lat="46.31783" lon="6.78185">
        <ele>1580</ele>
        <time>2016-07-03T06:54:06.000Z</time>
      </trkpt>
      <trkpt lat="46.31782" lon="6.78186">
        <ele>1579</ele>
        <time>2016-07-03T06:54:07.000Z</time>
      </trkpt>
      <trkpt lat="46.31779" lon="6.78196">
        <ele>1575</ele>
        <time>2016-07-03T06:54:18.000Z</time>
      </trkpt>
      <trkpt lat="46.31778" lon="6.78197">
        <ele>1575</ele>
        <time>2016-07-03T06:54:19.000Z</time>
      </trkpt>
      <trkpt lat="46.31772" lon="6.78207">
        <ele>1573</ele>
        <time>2016-07-03T06:54:30.000Z</time>
      </trkpt>
      <trkpt lat="46.31771" lon="6.78208">
        <ele>1574</ele>
        <time>2016-07-03T06:54:31.000Z</time>
      </trkpt>
      <trkpt lat="46.31771" lon="6.7822">
        <ele>1573</ele>
        <time>2016-07-03T06:54:40.000Z</time>
      </trkpt>
      <trkpt lat="46.31771" lon="6.78222">
        <ele>1572</ele>
        <time>2016-07-03T06:54:41.000Z</time>
      </trkpt>
      <trkpt lat="46.31769" lon="6.78232">
        <ele>1567</ele>
        <time>2016-07-03T06:54:49.000Z</time>
      </trkpt>
      <trkpt lat="46.31768" lon="6.78234">
        <ele>1566</ele>
        <time>2016-07-03T06:54:50.000Z</time>
      </trkpt>
      <trkpt lat="46.31765" lon="6.78246">
        <ele>1564</ele>
        <time>2016-07-03T06:54:59.000Z</time>
      </trkpt>
      <trkpt lat="46.31765" lon="6.78246">
        <ele>1564</ele>
        <time>2016-07-03T06:55:00.000Z</time>
      </trkpt>
      <trkpt lat="46.31763" lon="6.78259">
        <ele>1564</ele>
        <time>2016-07-03T06:55:11.000Z</time>
      </trkpt>
      <trkpt lat="46.31763" lon="6.7826">
        <ele>1564</ele>
        <time>2016-07-03T06:55:12.000Z</time>
      </trkpt>
      <trkpt lat="46.31762" lon="6.78273">
        <ele>1562</ele>
        <time>2016-07-03T06:55:20.000Z</time>
      </trkpt>
      <trkpt lat="46.31761" lon="6.78274">
        <ele>1562</ele>
        <time>2016-07-03T06:55:21.000Z</time>
      </trkpt>
      <trkpt lat="46.31757" lon="6.78285">
        <ele>1560</ele>
        <time>2016-07-03T06:55:29.000Z</time>
      </trkpt>
      <trkpt lat="46.31758" lon="6.78286">
        <ele>1560</ele>
        <time>2016-07-03T06:55:30.000Z</time>
      </trkpt>
      <trkpt lat="46.31755" lon="6.78297">
        <ele>1558</ele>
        <time>2016-07-03T06:55:37.000Z</time>
      </trkpt>
      <trkpt lat="46.31754" lon="6.78298">
        <ele>1558</ele>
        <time>2016-07-03T06:55:38.000Z</time>
      </trkpt>
      <trkpt lat="46.31749" lon="6.78307">
        <ele>1556</ele>
        <time>2016-07-03T06:55:49.000Z</time>
      </trkpt>
      <trkpt lat="46.31748" lon="6.78309">
        <ele>1556</ele>
        <time>2016-07-03T06:55:50.000Z</time>
      </trkpt>
      <trkpt lat="46.31746" lon="6.7832">
        <ele>1550</ele>
        <time>2016-07-03T06:55:57.000Z</time>
      </trkpt>
      <trkpt lat="46.31745" lon="6.78321">
        <ele>1548</ele>
        <time>2016-07-03T06:55:58.000Z</time>
      </trkpt>
      <trkpt lat="46.31742" lon="6.78332">
        <ele>1547</ele>
        <time>2016-07-03T06:56:04.000Z</time>
      </trkpt>
      <trkpt lat="46.31742" lon="6.78333">
        <ele>1547</ele>
        <time>2016-07-03T06:56:05.000Z</time>
      </trkpt>
      <trkpt lat="46.31734" lon="6.78341">
        <ele>1546</ele>
        <time>2016-07-03T06:56:22.000Z</time>
      </trkpt>
      <trkpt lat="46.31733" lon="6.78341">
        <ele>1546</ele>
        <time>2016-07-03T06:56:23.000Z</time>
      </trkpt>
      <trkpt lat="46.31726" lon="6.78345">
        <ele>1548</ele>
        <time>2016-07-03T06:56:29.000Z</time>
      </trkpt>
      <trkpt lat="46.31723" lon="6.78346">
        <ele>1549</ele>
        <time>2016-07-03T06:56:30.000Z</time>
      </trkpt>
      <trkpt lat="46.31716" lon="6.78354">
        <ele>1547</ele>
        <time>2016-07-03T06:56:38.000Z</time>
      </trkpt>
      <trkpt lat="46.31715" lon="6.78355">
        <ele>1548</ele>
        <time>2016-07-03T06:56:39.000Z</time>
      </trkpt>
      <trkpt lat="46.3171" lon="6.78364">
        <ele>1545</ele>
        <time>2016-07-03T06:56:46.000Z</time>
      </trkpt>
      <trkpt lat="46.31709" lon="6.78365">
        <ele>1545</ele>
        <time>2016-07-03T06:56:47.000Z</time>
      </trkpt>
      <trkpt lat="46.31703" lon="6.78371">
        <ele>1542</ele>
        <time>2016-07-03T06:56:52.000Z</time>
      </trkpt>
      <trkpt lat="46.31701" lon="6.78371">
        <ele>1543</ele>
        <time>2016-07-03T06:56:53.000Z</time>
      </trkpt>
      <trkpt lat="46.31693" lon="6.78373">
        <ele>1540</ele>
        <time>2016-07-03T06:57:00.000Z</time>
      </trkpt>
      <trkpt lat="46.31691" lon="6.78373">
        <ele>1538</ele>
        <time>2016-07-03T06:57:01.000Z</time>
      </trkpt>
      <trkpt lat="46.31684" lon="6.78377">
        <ele>1536</ele>
        <time>2016-07-03T06:57:07.000Z</time>
      </trkpt>
      <trkpt lat="46.31682" lon="6.78377">
        <ele>1536</ele>
        <time>2016-07-03T06:57:08.000Z</time>
      </trkpt>
      <trkpt lat="46.31675" lon="6.78379">
        <ele>1534</ele>
        <time>2016-07-03T06:57:12.000Z</time>
      </trkpt>
      <trkpt lat="46.31673" lon="6.78381">
        <ele>1534</ele>
        <time>2016-07-03T06:57:13.000Z</time>
      </trkpt>
      <trkpt lat="46.31666" lon="6.78387">
        <ele>1535</ele>
        <time>2016-07-03T06:57:18.000Z</time>
      </trkpt>
      <trkpt lat="46.31665" lon="6.78387">
        <ele>1535</ele>
        <time>2016-07-03T06:57:19.000Z</time>
      </trkpt>
      <trkpt lat="46.31661" lon="6.78398">
        <ele>1529</ele>
        <time>2016-07-03T06:57:26.000Z</time>
      </trkpt>
      <trkpt lat="46.3166" lon="6.784">
        <ele>1530</ele>
        <time>2016-07-03T06:57:27.000Z</time>
      </trkpt>
      <trkpt lat="46.31661" lon="6.78413">
        <ele>1530</ele>
        <time>2016-07-03T06:57:35.000Z</time>
      </trkpt>
      <trkpt lat="46.31662" lon="6.78414">
        <ele>1529</ele>
        <time>2016-07-03T06:57:36.000Z</time>
      </trkpt>
      <trkpt lat="46.3167" lon="6.78419">
        <ele>1530</ele>
        <time>2016-07-03T06:57:41.000Z</time>
      </trkpt>
      <trkpt lat="46.31672" lon="6.78419">
        <ele>1530</ele>
        <time>2016-07-03T06:57:42.000Z</time>
      </trkpt>
      <trkpt lat="46.31678" lon="6.78425">
        <ele>1529</ele>
        <time>2016-07-03T06:57:46.000Z</time>
      </trkpt>
      <trkpt lat="46.31679" lon="6.78426">
        <ele>1529</ele>
        <time>2016-07-03T06:57:47.000Z</time>
      </trkpt>
      <trkpt lat="46.31686" lon="6.78434">
        <ele>1530</ele>
        <time>2016-07-03T06:57:56.000Z</time>
      </trkpt>
      <trkpt lat="46.31686" lon="6.78435">
        <ele>1528</ele>
        <time>2016-07-03T06:57:57.000Z</time>
      </trkpt>
      <trkpt lat="46.31695" lon="6.78438">
        <ele>1527</ele>
        <time>2016-07-03T06:58:02.000Z</time>
      </trkpt>
      <trkpt lat="46.31696" lon="6.78438">
        <ele>1527</ele>
        <time>2016-07-03T06:58:03.000Z</time>
      </trkpt>
      <trkpt lat="46.31702" lon="6.78445">
        <ele>1523</ele>
        <time>2016-07-03T06:58:09.000Z</time>
      </trkpt>
      <trkpt lat="46.31703" lon="6.78446">
        <ele>1523</ele>
        <time>2016-07-03T06:58:10.000Z</time>
      </trkpt>
      <trkpt lat="46.31709" lon="6.78454">
        <ele>1525</ele>
        <time>2016-07-03T06:58:15.000Z</time>
      </trkpt>
      <trkpt lat="46.3171" lon="6.78455">
        <ele>1524</ele>
        <time>2016-07-03T06:58:16.000Z</time>
      </trkpt>
      <trkpt lat="46.31717" lon="6.78461">
        <ele>1524</ele>
        <time>2016-07-03T06:58:21.000Z</time>
      </trkpt>
      <trkpt lat="46.31719" lon="6.78463">
        <ele>1527</ele>
        <time>2016-07-03T06:58:22.000Z</time>
      </trkpt>
      <trkpt lat="46.31725" lon="6.78471">
        <ele>1524</ele>
        <time>2016-07-03T06:58:29.000Z</time>
      </trkpt>
      <trkpt lat="46.31726" lon="6.78472">
        <ele>1523</ele>
        <time>2016-07-03T06:58:30.000Z</time>
      </trkpt>
      <trkpt lat="46.31728" lon="6.78484">
        <ele>1518</ele>
        <time>2016-07-03T06:58:38.000Z</time>
      </trkpt>
      <trkpt lat="46.31729" lon="6.78485">
        <ele>1518</ele>
        <time>2016-07-03T06:58:39.000Z</time>
      </trkpt>
      <trkpt lat="46.31731" lon="6.78497">
        <ele>1518</ele>
        <time>2016-07-03T06:58:45.000Z</time>
      </trkpt>
      <trkpt lat="46.3173" lon="6.785">
        <ele>1516</ele>
        <time>2016-07-03T06:58:46.000Z</time>
      </trkpt>
      <trkpt lat="46.31733" lon="6.78512">
        <ele>1515</ele>
        <time>2016-07-03T06:58:53.000Z</time>
      </trkpt>
      <trkpt lat="46.31733" lon="6.78513">
        <ele>1515</ele>
        <time>2016-07-03T06:58:54.000Z</time>
      </trkpt>
      <trkpt lat="46.31734" lon="6.78524">
        <ele>1513</ele>
        <time>2016-07-03T06:59:00.000Z</time>
      </trkpt>
      <trkpt lat="46.31735" lon="6.78526">
        <ele>1513</ele>
        <time>2016-07-03T06:59:01.000Z</time>
      </trkpt>
      <trkpt lat="46.31736" lon="6.78537">
        <ele>1512</ele>
        <time>2016-07-03T06:59:07.000Z</time>
      </trkpt>
      <trkpt lat="46.31737" lon="6.78539">
        <ele>1513</ele>
        <time>2016-07-03T06:59:08.000Z</time>
      </trkpt>
      <trkpt lat="46.31738" lon="6.78552">
        <ele>1510</ele>
        <time>2016-07-03T06:59:15.000Z</time>
      </trkpt>
      <trkpt lat="46.31738" lon="6.78553">
        <ele>1510</ele>
        <time>2016-07-03T06:59:16.000Z</time>
      </trkpt>
      <trkpt lat="46.3173" lon="6.78549">
        <ele>1508</ele>
        <time>2016-07-03T06:59:41.000Z</time>
      </trkpt>
      <trkpt lat="46.31728" lon="6.78547">
        <ele>1508</ele>
        <time>2016-07-03T06:59:42.000Z</time>
      </trkpt>
      <trkpt lat="46.31723" lon="6.78539">
        <ele>1509</ele>
        <time>2016-07-03T06:59:49.000Z</time>
      </trkpt>
      <trkpt lat="46.31722" lon="6.78537">
        <ele>1508</ele>
        <time>2016-07-03T06:59:50.000Z</time>
      </trkpt>
      <trkpt lat="46.31717" lon="6.78529">
        <ele>1503</ele>
        <time>2016-07-03T06:59:57.000Z</time>
      </trkpt>
      <trkpt lat="46.31715" lon="6.78527">
        <ele>1503</ele>
        <time>2016-07-03T06:59:58.000Z</time>
      </trkpt>
      <trkpt lat="46.3171" lon="6.7852">
        <ele>1502</ele>
        <time>2016-07-03T07:00:05.000Z</time>
      </trkpt>
      <trkpt lat="46.31708" lon="6.78518">
        <ele>1502</ele>
        <time>2016-07-03T07:00:06.000Z</time>
      </trkpt>
      <trkpt lat="46.317" lon="6.78516">
        <ele>1496</ele>
        <time>2016-07-03T07:00:15.000Z</time>
      </trkpt>
      <trkpt lat="46.31698" lon="6.78515">
        <ele>1496</ele>
        <time>2016-07-03T07:00:16.000Z</time>
      </trkpt>
      <trkpt lat="46.31689" lon="6.78514">
        <ele>1490</ele>
        <time>2016-07-03T07:00:25.000Z</time>
      </trkpt>
      <trkpt lat="46.31688" lon="6.78514">
        <ele>1490</ele>
        <time>2016-07-03T07:00:26.000Z</time>
      </trkpt>
      <trkpt lat="46.3168" lon="6.78516">
        <ele>1486</ele>
        <time>2016-07-03T07:00:33.000Z</time>
      </trkpt>
      <trkpt lat="46.31678" lon="6.78517">
        <ele>1486</ele>
        <time>2016-07-03T07:00:34.000Z</time>
      </trkpt>
      <trkpt lat="46.3167" lon="6.78522">
        <ele>1485</ele>
        <time>2016-07-03T07:00:40.000Z</time>
      </trkpt>
      <trkpt lat="46.31669" lon="6.78524">
        <ele>1484</ele>
        <time>2016-07-03T07:00:41.000Z</time>
      </trkpt>
      <trkpt lat="46.31665" lon="6.78534">
        <ele>1482</ele>
        <time>2016-07-03T07:00:48.000Z</time>
      </trkpt>
      <trkpt lat="46.31665" lon="6.78536">
        <ele>1482</ele>
        <time>2016-07-03T07:00:49.000Z</time>
      </trkpt>
      <trkpt lat="46.31671" lon="6.78542">
        <ele>1480</ele>
        <time>2016-07-03T07:00:55.000Z</time>
      </trkpt>
      <trkpt lat="46.31672" lon="6.78544">
        <ele>1480</ele>
        <time>2016-07-03T07:00:56.000Z</time>
      </trkpt>
      <trkpt lat="46.3168" lon="6.78547">
        <ele>1478</ele>
        <time>2016-07-03T07:01:01.000Z</time>
      </trkpt>
      <trkpt lat="46.31681" lon="6.78549">
        <ele>1477</ele>
        <time>2016-07-03T07:01:02.000Z</time>
      </trkpt>
      <trkpt lat="46.31686" lon="6.78558">
        <ele>1473</ele>
        <time>2016-07-03T07:01:08.000Z</time>
      </trkpt>
      <trkpt lat="46.31686" lon="6.7856">
        <ele>1473</ele>
        <time>2016-07-03T07:01:09.000Z</time>
      </trkpt>
      <trkpt lat="46.31685" lon="6.78571">
        <ele>1475</ele>
        <time>2016-07-03T07:01:16.000Z</time>
      </trkpt>
      <trkpt lat="46.31685" lon="6.78574">
        <ele>1474</ele>
        <time>2016-07-03T07:01:17.000Z</time>
      </trkpt>
      <trkpt lat="46.31682" lon="6.78585">
        <ele>1471</ele>
        <time>2016-07-03T07:01:24.000Z</time>
      </trkpt>
      <trkpt lat="46.31681" lon="6.78587">
        <ele>1470</ele>
        <time>2016-07-03T07:01:25.000Z</time>
      </trkpt>
      <trkpt lat="46.31677" lon="6.78598">
        <ele>1470</ele>
        <time>2016-07-03T07:01:32.000Z</time>
      </trkpt>
      <trkpt lat="46.31677" lon="6.786">
        <ele>1470</ele>
        <time>2016-07-03T07:01:33.000Z</time>
      </trkpt>
      <trkpt lat="46.31673" lon="6.78611">
        <ele>1467</ele>
        <time>2016-07-03T07:01:40.000Z</time>
      </trkpt>
      <trkpt lat="46.31671" lon="6.78612">
        <ele>1467</ele>
        <time>2016-07-03T07:01:41.000Z</time>
      </trkpt>
      <trkpt lat="46.31666" lon="6.7862">
        <ele>1466</ele>
        <time>2016-07-03T07:01:47.000Z</time>
      </trkpt>
      <trkpt lat="46.31665" lon="6.78621">
        <ele>1468</ele>
        <time>2016-07-03T07:01:48.000Z</time>
      </trkpt>
      <trkpt lat="46.31658" lon="6.78626">
        <ele>1467</ele>
        <time>2016-07-03T07:02:43.000Z</time>
      </trkpt>
      <trkpt lat="46.31656" lon="6.78627">
        <ele>1468</ele>
        <time>2016-07-03T07:02:44.000Z</time>
      </trkpt>
      <trkpt lat="46.31648" lon="6.78632">
        <ele>1463</ele>
        <time>2016-07-03T07:02:50.000Z</time>
      </trkpt>
      <trkpt lat="46.31647" lon="6.78635">
        <ele>1462</ele>
        <time>2016-07-03T07:02:51.000Z</time>
      </trkpt>
      <trkpt lat="46.31648" lon="6.78646">
        <ele>1462</ele>
        <time>2016-07-03T07:02:57.000Z</time>
      </trkpt>
      <trkpt lat="46.31649" lon="6.78647">
        <ele>1461</ele>
        <time>2016-07-03T07:02:58.000Z</time>
      </trkpt>
      <trkpt lat="46.31656" lon="6.78653">
        <ele>1456</ele>
        <time>2016-07-03T07:03:04.000Z</time>
      </trkpt>
      <trkpt lat="46.31657" lon="6.78654">
        <ele>1456</ele>
        <time>2016-07-03T07:03:05.000Z</time>
      </trkpt>
      <trkpt lat="46.31662" lon="6.78663">
        <ele>1456</ele>
        <time>2016-07-03T07:03:12.000Z</time>
      </trkpt>
      <trkpt lat="46.31663" lon="6.78664">
        <ele>1455</ele>
        <time>2016-07-03T07:03:13.000Z</time>
      </trkpt>
      <trkpt lat="46.3167" lon="6.78671">
        <ele>1451</ele>
        <time>2016-07-03T07:03:20.000Z</time>
      </trkpt>
      <trkpt lat="46.31671" lon="6.78672">
        <ele>1450</ele>
        <time>2016-07-03T07:03:21.000Z</time>
      </trkpt>
      <trkpt lat="46.31676" lon="6.78679">
        <ele>1449</ele>
        <time>2016-07-03T07:03:27.000Z</time>
      </trkpt>
      <trkpt lat="46.31677" lon="6.78681">
        <ele>1449</ele>
        <time>2016-07-03T07:03:28.000Z</time>
      </trkpt>
      <trkpt lat="46.3168" lon="6.78693">
        <ele>1447</ele>
        <time>2016-07-03T07:03:34.000Z</time>
      </trkpt>
      <trkpt lat="46.31681" lon="6.78693">
        <ele>1447</ele>
        <time>2016-07-03T07:03:35.000Z</time>
      </trkpt>
      <trkpt lat="46.31681" lon="6.78706">
        <ele>1442</ele>
        <time>2016-07-03T07:03:44.000Z</time>
      </trkpt>
      <trkpt lat="46.3168" lon="6.78707">
        <ele>1442</ele>
        <time>2016-07-03T07:03:45.000Z</time>
      </trkpt>
      <trkpt lat="46.31674" lon="6.78716">
        <ele>1439</ele>
        <time>2016-07-03T07:03:52.000Z</time>
      </trkpt>
      <trkpt lat="46.31674" lon="6.78718">
        <ele>1439</ele>
        <time>2016-07-03T07:03:53.000Z</time>
      </trkpt>
      <trkpt lat="46.31669" lon="6.78729">
        <ele>1435</ele>
        <time>2016-07-03T07:04:06.000Z</time>
      </trkpt>
      <trkpt lat="46.31669" lon="6.7873">
        <ele>1434</ele>
        <time>2016-07-03T07:04:07.000Z</time>
      </trkpt>
      <trkpt lat="46.31664" lon="6.7874">
        <ele>1434</ele>
        <time>2016-07-03T07:04:17.000Z</time>
      </trkpt>
      <trkpt lat="46.31664" lon="6.78741">
        <ele>1434</ele>
        <time>2016-07-03T07:04:18.000Z</time>
      </trkpt>
      <trkpt lat="46.31656" lon="6.78747">
        <ele>1431</ele>
        <time>2016-07-03T07:04:26.000Z</time>
      </trkpt>
      <trkpt lat="46.31655" lon="6.78748">
        <ele>1431</ele>
        <time>2016-07-03T07:04:27.000Z</time>
      </trkpt>
      <trkpt lat="46.31656" lon="6.78744">
        <ele>1420</ele>
        <time>2016-07-03T07:04:51.000Z</time>
      </trkpt>
      <trkpt lat="46.31656" lon="6.78744">
        <ele>1420</ele>
        <time>2016-07-03T07:04:52.000Z</time>
      </trkpt>
      <trkpt lat="46.31657" lon="6.78744">
        <ele>1418</ele>
        <time>2016-07-03T07:05:22.000Z</time>
      </trkpt>
      <trkpt lat="46.31657" lon="6.78744">
        <ele>1418</ele>
        <time>2016-07-03T07:05:23.000Z</time>
      </trkpt>
      <trkpt lat="46.3165" lon="6.78737">
        <ele>1415</ele>
        <time>2016-07-03T07:05:34.000Z</time>
      </trkpt>
      <trkpt lat="46.31648" lon="6.78736">
        <ele>1415</ele>
        <time>2016-07-03T07:05:35.000Z</time>
      </trkpt>
      <trkpt lat="46.31641" lon="6.78731">
        <ele>1415</ele>
        <time>2016-07-03T07:05:42.000Z</time>
      </trkpt>
      <trkpt lat="46.31639" lon="6.7873">
        <ele>1416</ele>
        <time>2016-07-03T07:05:43.000Z</time>
      </trkpt>
      <trkpt lat="46.31632" lon="6.78725">
        <ele>1410</ele>
        <time>2016-07-03T07:05:53.000Z</time>
      </trkpt>
      <trkpt lat="46.31631" lon="6.78723">
        <ele>1410</ele>
        <time>2016-07-03T07:05:54.000Z</time>
      </trkpt>
      <trkpt lat="46.31623" lon="6.78718">
        <ele>1405</ele>
        <time>2016-07-03T07:06:03.000Z</time>
      </trkpt>
      <trkpt lat="46.31623" lon="6.78718">
        <ele>1405</ele>
        <time>2016-07-03T07:06:04.000Z</time>
      </trkpt>
      <trkpt lat="46.31616" lon="6.7871">
        <ele>1402</ele>
        <time>2016-07-03T07:06:13.000Z</time>
      </trkpt>
      <trkpt lat="46.31615" lon="6.78709">
        <ele>1402</ele>
        <time>2016-07-03T07:06:14.000Z</time>
      </trkpt>
      <trkpt lat="46.31609" lon="6.787">
        <ele>1399</ele>
        <time>2016-07-03T07:06:22.000Z</time>
      </trkpt>
      <trkpt lat="46.31609" lon="6.78699">
        <ele>1398</ele>
        <time>2016-07-03T07:06:23.000Z</time>
      </trkpt>
      <trkpt lat="46.316" lon="6.78695">
        <ele>1396</ele>
        <time>2016-07-03T07:06:30.000Z</time>
      </trkpt>
      <trkpt lat="46.316" lon="6.78695">
        <ele>1397</ele>
        <time>2016-07-03T07:06:31.000Z</time>
      </trkpt>
      <trkpt lat="46.31591" lon="6.7869">
        <ele>1395</ele>
        <time>2016-07-03T07:06:39.000Z</time>
      </trkpt>
      <trkpt lat="46.3159" lon="6.78691">
        <ele>1395</ele>
        <time>2016-07-03T07:06:40.000Z</time>
      </trkpt>
      <trkpt lat="46.31582" lon="6.78686">
        <ele>1395</ele>
        <time>2016-07-03T07:06:46.000Z</time>
      </trkpt>
      <trkpt lat="46.31581" lon="6.78684">
        <ele>1395</ele>
        <time>2016-07-03T07:06:47.000Z</time>
      </trkpt>
      <trkpt lat="46.31574" lon="6.78678">
        <ele>1392</ele>
        <time>2016-07-03T07:06:54.000Z</time>
      </trkpt>
      <trkpt lat="46.31573" lon="6.78677">
        <ele>1392</ele>
        <time>2016-07-03T07:06:55.000Z</time>
      </trkpt>
      <trkpt lat="46.31566" lon="6.7867">
        <ele>1388</ele>
        <time>2016-07-03T07:07:02.000Z</time>
      </trkpt>
      <trkpt lat="46.31565" lon="6.78668">
        <ele>1388</ele>
        <time>2016-07-03T07:07:03.000Z</time>
      </trkpt>
      <trkpt lat="46.31557" lon="6.78663">
        <ele>1386</ele>
        <time>2016-07-03T07:07:10.000Z</time>
      </trkpt>
      <trkpt lat="46.31556" lon="6.78662">
        <ele>1386</ele>
        <time>2016-07-03T07:07:11.000Z</time>
      </trkpt>
      <trkpt lat="46.31549" lon="6.78655">
        <ele>1386</ele>
        <time>2016-07-03T07:07:18.000Z</time>
      </trkpt>
      <trkpt lat="46.31549" lon="6.78654">
        <ele>1386</ele>
        <time>2016-07-03T07:07:19.000Z</time>
      </trkpt>
      <trkpt lat="46.31543" lon="6.78647">
        <ele>1385</ele>
        <time>2016-07-03T07:07:25.000Z</time>
      </trkpt>
      <trkpt lat="46.31541" lon="6.78645">
        <ele>1386</ele>
        <time>2016-07-03T07:07:26.000Z</time>
      </trkpt>
      <trkpt lat="46.31534" lon="6.78639">
        <ele>1384</ele>
        <time>2016-07-03T07:07:33.000Z</time>
      </trkpt>
      <trkpt lat="46.31533" lon="6.78638">
        <ele>1384</ele>
        <time>2016-07-03T07:07:34.000Z</time>
      </trkpt>
      <trkpt lat="46.31525" lon="6.78635">
        <ele>1383</ele>
        <time>2016-07-03T07:07:41.000Z</time>
      </trkpt>
      <trkpt lat="46.31524" lon="6.78634">
        <ele>1383</ele>
        <time>2016-07-03T07:07:42.000Z</time>
      </trkpt>
      <trkpt lat="46.31516" lon="6.7863">
        <ele>1381</ele>
        <time>2016-07-03T07:07:48.000Z</time>
      </trkpt>
      <trkpt lat="46.31514" lon="6.78629">
        <ele>1381</ele>
        <time>2016-07-03T07:07:49.000Z</time>
      </trkpt>
      <trkpt lat="46.31508" lon="6.78622">
        <ele>1382</ele>
        <time>2016-07-03T07:07:56.000Z</time>
      </trkpt>
      <trkpt lat="46.31506" lon="6.78621">
        <ele>1382</ele>
        <time>2016-07-03T07:07:57.000Z</time>
      </trkpt>
      <trkpt lat="46.31499" lon="6.78616">
        <ele>1378</ele>
        <time>2016-07-03T07:08:04.000Z</time>
      </trkpt>
      <trkpt lat="46.31498" lon="6.78615">
        <ele>1377</ele>
        <time>2016-07-03T07:08:05.000Z</time>
      </trkpt>
      <trkpt lat="46.3149" lon="6.78613">
        <ele>1374</ele>
        <time>2016-07-03T07:08:12.000Z</time>
      </trkpt>
      <trkpt lat="46.31489" lon="6.78613">
        <ele>1374</ele>
        <time>2016-07-03T07:08:13.000Z</time>
      </trkpt>
      <trkpt lat="46.3148" lon="6.78611">
        <ele>1371</ele>
        <time>2016-07-03T07:08:20.000Z</time>
      </trkpt>
      <trkpt lat="46.31479" lon="6.78611">
        <ele>1371</ele>
        <time>2016-07-03T07:08:21.000Z</time>
      </trkpt>
      <trkpt lat="46.3147" lon="6.78614">
        <ele>1372</ele>
        <time>2016-07-03T07:08:26.000Z</time>
      </trkpt>
      <trkpt lat="46.31469" lon="6.78615">
        <ele>1371</ele>
        <time>2016-07-03T07:08:27.000Z</time>
      </trkpt>
      <trkpt lat="46.31461" lon="6.78615">
        <ele>1371</ele>
        <time>2016-07-03T07:08:32.000Z</time>
      </trkpt>
      <trkpt lat="46.31459" lon="6.78614">
        <ele>1370</ele>
        <time>2016-07-03T07:08:33.000Z</time>
      </trkpt>
      <trkpt lat="46.31452" lon="6.7861">
        <ele>1366</ele>
        <time>2016-07-03T07:08:41.000Z</time>
      </trkpt>
      <trkpt lat="46.3145" lon="6.7861">
        <ele>1366</ele>
        <time>2016-07-03T07:08:42.000Z</time>
      </trkpt>
      <trkpt lat="46.31443" lon="6.78603">
        <ele>1362</ele>
        <time>2016-07-03T07:08:51.000Z</time>
      </trkpt>
      <trkpt lat="46.31441" lon="6.78602">
        <ele>1361</ele>
        <time>2016-07-03T07:08:52.000Z</time>
      </trkpt>
      <trkpt lat="46.31433" lon="6.78598">
        <ele>1360</ele>
        <time>2016-07-03T07:08:59.000Z</time>
      </trkpt>
      <trkpt lat="46.31432" lon="6.78598">
        <ele>1360</ele>
        <time>2016-07-03T07:09:00.000Z</time>
      </trkpt>
      <trkpt lat="46.31423" lon="6.78596">
        <ele>1358</ele>
        <time>2016-07-03T07:09:06.000Z</time>
      </trkpt>
      <trkpt lat="46.31422" lon="6.78596">
        <ele>1357</ele>
        <time>2016-07-03T07:09:07.000Z</time>
      </trkpt>
      <trkpt lat="46.31416" lon="6.78592">
        <ele>1355</ele>
        <time>2016-07-03T07:09:13.000Z</time>
      </trkpt>
      <trkpt lat="46.31414" lon="6.78591">
        <ele>1355</ele>
        <time>2016-07-03T07:09:14.000Z</time>
      </trkpt>
      <trkpt lat="46.31406" lon="6.78591">
        <ele>1353</ele>
        <time>2016-07-03T07:09:20.000Z</time>
      </trkpt>
      <trkpt lat="46.31404" lon="6.78591">
        <ele>1352</ele>
        <time>2016-07-03T07:09:21.000Z</time>
      </trkpt>
      <trkpt lat="46.31396" lon="6.78592">
        <ele>1341</ele>
        <time>2016-07-03T07:09:34.000Z</time>
      </trkpt>
      <trkpt lat="46.31394" lon="6.78592">
        <ele>1342</ele>
        <time>2016-07-03T07:09:35.000Z</time>
      </trkpt>
      <trkpt lat="46.31386" lon="6.78591">
        <ele>1340</ele>
        <time>2016-07-03T07:09:40.000Z</time>
      </trkpt>
      <trkpt lat="46.31385" lon="6.78591">
        <ele>1340</ele>
        <time>2016-07-03T07:09:41.000Z</time>
      </trkpt>
      <trkpt lat="46.31377" lon="6.78589">
        <ele>1339</ele>
        <time>2016-07-03T07:09:50.000Z</time>
      </trkpt>
      <trkpt lat="46.31376" lon="6.78589">
        <ele>1338</ele>
        <time>2016-07-03T07:09:51.000Z</time>
      </trkpt>
      <trkpt lat="46.31367" lon="6.78586">
        <ele>1336</ele>
        <time>2016-07-03T07:09:58.000Z</time>
      </trkpt>
      <trkpt lat="46.31366" lon="6.78586">
        <ele>1337</ele>
        <time>2016-07-03T07:09:59.000Z</time>
      </trkpt>
      <trkpt lat="46.31359" lon="6.78588">
        <ele>1338</ele>
        <time>2016-07-03T07:10:06.000Z</time>
      </trkpt>
      <trkpt lat="46.31357" lon="6.78588">
        <ele>1340</ele>
        <time>2016-07-03T07:10:07.000Z</time>
      </trkpt>
      <trkpt lat="46.31349" lon="6.78589">
        <ele>1342</ele>
        <time>2016-07-03T07:10:14.000Z</time>
      </trkpt>
      <trkpt lat="46.31347" lon="6.78589">
        <ele>1342</ele>
        <time>2016-07-03T07:10:15.000Z</time>
      </trkpt>
      <trkpt lat="46.31339" lon="6.7859">
        <ele>1342</ele>
        <time>2016-07-03T07:10:21.000Z</time>
      </trkpt>
      <trkpt lat="46.31338" lon="6.78591">
        <ele>1341</ele>
        <time>2016-07-03T07:10:22.000Z</time>
      </trkpt>
      <trkpt lat="46.3133" lon="6.78591">
        <ele>1338</ele>
        <time>2016-07-03T07:10:31.000Z</time>
      </trkpt>
      <trkpt lat="46.31328" lon="6.78591">
        <ele>1338</ele>
        <time>2016-07-03T07:10:32.000Z</time>
      </trkpt>
      <trkpt lat="46.3132" lon="6.7859">
        <ele>1337</ele>
        <time>2016-07-03T07:10:40.000Z</time>
      </trkpt>
      <trkpt lat="46.31319" lon="6.7859">
        <ele>1337</ele>
        <time>2016-07-03T07:10:41.000Z</time>
      </trkpt>
      <trkpt lat="46.31311" lon="6.78588">
        <ele>1333</ele>
        <time>2016-07-03T07:10:51.000Z</time>
      </trkpt>
      <trkpt lat="46.31309" lon="6.78588">
        <ele>1333</ele>
        <time>2016-07-03T07:10:52.000Z</time>
      </trkpt>
      <trkpt lat="46.31302" lon="6.78593">
        <ele>1332</ele>
        <time>2016-07-03T07:10:59.000Z</time>
      </trkpt>
      <trkpt lat="46.31301" lon="6.78594">
        <ele>1332</ele>
        <time>2016-07-03T07:11:00.000Z</time>
      </trkpt>
      <trkpt lat="46.31306" lon="6.78592">
        <ele>1327</ele>
        <time>2016-07-03T07:11:22.000Z</time>
      </trkpt>
      <trkpt lat="46.31306" lon="6.78592">
        <ele>1328</ele>
        <time>2016-07-03T07:11:23.000Z</time>
      </trkpt>
      <trkpt lat="46.31306" lon="6.78591">
        <ele>1328</ele>
        <time>2016-07-03T07:11:24.000Z</time>
      </trkpt>
      <trkpt lat="46.31313" lon="6.78588">
        <ele>1324</ele>
        <time>2016-07-03T07:12:11.000Z</time>
      </trkpt>
      <trkpt lat="46.31313" lon="6.78587">
        <ele>1324</ele>
        <time>2016-07-03T07:12:12.000Z</time>
      </trkpt>
      <trkpt lat="46.3131" lon="6.78586">
        <ele>1324</ele>
        <time>2016-07-03T07:14:16.000Z</time>
      </trkpt>
      <trkpt lat="46.3131" lon="6.78586">
        <ele>1324</ele>
        <time>2016-07-03T07:14:17.000Z</time>
      </trkpt>
      <trkpt lat="46.31303" lon="6.78586">
        <ele>1332</ele>
        <time>2016-07-03T07:17:22.000Z</time>
      </trkpt>
      <trkpt lat="46.31303" lon="6.78586">
        <ele>1332</ele>
        <time>2016-07-03T07:17:23.000Z</time>
      </trkpt>
      <trkpt lat="46.31304" lon="6.78584">
        <ele>1332</ele>
        <time>2016-07-03T07:18:54.000Z</time>
      </trkpt>
      <trkpt lat="46.31303" lon="6.78584">
        <ele>1332</ele>
        <time>2016-07-03T07:18:55.000Z</time>
      </trkpt>
      <trkpt lat="46.31303" lon="6.78584">
        <ele>1333</ele>
        <time>2016-07-03T07:18:56.000Z</time>
      </trkpt>
      <trkpt lat="46.31303" lon="6.78584">
        <ele>1333</ele>
        <time>2016-07-03T07:18:57.000Z</time>
      </trkpt>
      <trkpt lat="46.31303" lon="6.78583">
        <ele>1334</ele>
        <time>2016-07-03T07:18:58.000Z</time>
      </trkpt>
      <trkpt lat="46.31301" lon="6.78582">
        <ele>1333</ele>
        <time>2016-07-03T07:19:53.000Z</time>
      </trkpt>
      <trkpt lat="46.31301" lon="6.78582">
        <ele>1333</ele>
        <time>2016-07-03T07:19:54.000Z</time>
      </trkpt>
      <trkpt lat="46.31301" lon="6.78583">
        <ele>1332</ele>
        <time>2016-07-03T07:20:09.000Z</time>
      </trkpt>
      <trkpt lat="46.31301" lon="6.78583">
        <ele>1332</ele>
        <time>2016-07-03T07:20:10.000Z</time>
      </trkpt>
      <trkpt lat="46.31292" lon="6.7858">
        <ele>1332</ele>
        <time>2016-07-03T07:21:03.000Z</time>
      </trkpt>
      <trkpt lat="46.3129" lon="6.78578">
        <ele>1333</ele>
        <time>2016-07-03T07:21:04.000Z</time>
      </trkpt>
      <trkpt lat="46.31282" lon="6.78576">
        <ele>1333</ele>
        <time>2016-07-03T07:21:10.000Z</time>
      </trkpt>
      <trkpt lat="46.31281" lon="6.78575">
        <ele>1333</ele>
        <time>2016-07-03T07:21:11.000Z</time>
      </trkpt>
      <trkpt lat="46.31273" lon="6.78571">
        <ele>1336</ele>
        <time>2016-07-03T07:21:17.000Z</time>
      </trkpt>
      <trkpt lat="46.31272" lon="6.7857">
        <ele>1335</ele>
        <time>2016-07-03T07:21:18.000Z</time>
      </trkpt>
      <trkpt lat="46.31264" lon="6.78572">
        <ele>1334</ele>
        <time>2016-07-03T07:21:26.000Z</time>
      </trkpt>
      <trkpt lat="46.31262" lon="6.78568">
        <ele>1337</ele>
        <time>2016-07-03T07:21:27.000Z</time>
      </trkpt>
      <trkpt lat="46.31254" lon="6.78563">
        <ele>1330</ele>
        <time>2016-07-03T07:21:35.000Z</time>
      </trkpt>
      <trkpt lat="46.31253" lon="6.78565">
        <ele>1330</ele>
        <time>2016-07-03T07:21:36.000Z</time>
      </trkpt>
      <trkpt lat="46.31245" lon="6.78561">
        <ele>1331</ele>
        <time>2016-07-03T07:21:46.000Z</time>
      </trkpt>
      <trkpt lat="46.31244" lon="6.78559">
        <ele>1333</ele>
        <time>2016-07-03T07:21:47.000Z</time>
      </trkpt>
      <trkpt lat="46.31236" lon="6.78557">
        <ele>1334</ele>
        <time>2016-07-03T07:21:51.000Z</time>
      </trkpt>
      <trkpt lat="46.31234" lon="6.78556">
        <ele>1334</ele>
        <time>2016-07-03T07:21:52.000Z</time>
      </trkpt>
      <trkpt lat="46.31228" lon="6.78563">
        <ele>1330</ele>
        <time>2016-07-03T07:21:59.000Z</time>
      </trkpt>
      <trkpt lat="46.31227" lon="6.78567">
        <ele>1328</ele>
        <time>2016-07-03T07:22:00.000Z</time>
      </trkpt>
      <trkpt lat="46.31219" lon="6.78562">
        <ele>1325</ele>
        <time>2016-07-03T07:22:07.000Z</time>
      </trkpt>
      <trkpt lat="46.31217" lon="6.78561">
        <ele>1323</ele>
        <time>2016-07-03T07:22:08.000Z</time>
      </trkpt>
      <trkpt lat="46.31209" lon="6.78563">
        <ele>1322</ele>
        <time>2016-07-03T07:22:16.000Z</time>
      </trkpt>
      <trkpt lat="46.31208" lon="6.78565">
        <ele>1323</ele>
        <time>2016-07-03T07:22:17.000Z</time>
      </trkpt>
      <trkpt lat="46.312" lon="6.7856">
        <ele>1327</ele>
        <time>2016-07-03T07:22:23.000Z</time>
      </trkpt>
      <trkpt lat="46.31198" lon="6.78559">
        <ele>1327</ele>
        <time>2016-07-03T07:22:24.000Z</time>
      </trkpt>
      <trkpt lat="46.31191" lon="6.78557">
        <ele>1325</ele>
        <time>2016-07-03T07:22:30.000Z</time>
      </trkpt>
      <trkpt lat="46.31189" lon="6.78555">
        <ele>1326</ele>
        <time>2016-07-03T07:22:31.000Z</time>
      </trkpt>
      <trkpt lat="46.31183" lon="6.78545">
        <ele>1321</ele>
        <time>2016-07-03T07:22:38.000Z</time>
      </trkpt>
      <trkpt lat="46.31181" lon="6.78543">
        <ele>1323</ele>
        <time>2016-07-03T07:22:39.000Z</time>
      </trkpt>
      <trkpt lat="46.31172" lon="6.78545">
        <ele>1317</ele>
        <time>2016-07-03T07:22:45.000Z</time>
      </trkpt>
      <trkpt lat="46.31171" lon="6.78547">
        <ele>1317</ele>
        <time>2016-07-03T07:22:46.000Z</time>
      </trkpt>
      <trkpt lat="46.31165" lon="6.78544">
        <ele>1325</ele>
        <time>2016-07-03T07:22:51.000Z</time>
      </trkpt>
      <trkpt lat="46.31162" lon="6.78544">
        <ele>1325</ele>
        <time>2016-07-03T07:22:52.000Z</time>
      </trkpt>
      <trkpt lat="46.31156" lon="6.78544">
        <ele>1323</ele>
        <time>2016-07-03T07:22:54.000Z</time>
      </trkpt>
      <trkpt lat="46.31153" lon="6.78546">
        <ele>1323</ele>
        <time>2016-07-03T07:22:55.000Z</time>
      </trkpt>
      <trkpt lat="46.31146" lon="6.78553">
        <ele>1321</ele>
        <time>2016-07-03T07:23:01.000Z</time>
      </trkpt>
      <trkpt lat="46.31146" lon="6.78555">
        <ele>1320</ele>
        <time>2016-07-03T07:23:02.000Z</time>
      </trkpt>
      <trkpt lat="46.31139" lon="6.78561">
        <ele>1316</ele>
        <time>2016-07-03T07:23:09.000Z</time>
      </trkpt>
      <trkpt lat="46.31138" lon="6.7856">
        <ele>1316</ele>
        <time>2016-07-03T07:23:10.000Z</time>
      </trkpt>
      <trkpt lat="46.3113" lon="6.78565">
        <ele>1311</ele>
        <time>2016-07-03T07:23:17.000Z</time>
      </trkpt>
      <trkpt lat="46.31129" lon="6.78566">
        <ele>1311</ele>
        <time>2016-07-03T07:23:18.000Z</time>
      </trkpt>
      <trkpt lat="46.3112" lon="6.78563">
        <ele>1310</ele>
        <time>2016-07-03T07:23:25.000Z</time>
      </trkpt>
      <trkpt lat="46.31118" lon="6.78563">
        <ele>1309</ele>
        <time>2016-07-03T07:23:26.000Z</time>
      </trkpt>
      <trkpt lat="46.3111" lon="6.78562">
        <ele>1306</ele>
        <time>2016-07-03T07:23:32.000Z</time>
      </trkpt>
      <trkpt lat="46.31109" lon="6.78563">
        <ele>1307</ele>
        <time>2016-07-03T07:23:33.000Z</time>
      </trkpt>
      <trkpt lat="46.311" lon="6.78563">
        <ele>1306</ele>
        <time>2016-07-03T07:23:39.000Z</time>
      </trkpt>
      <trkpt lat="46.31098" lon="6.78561">
        <ele>1305</ele>
        <time>2016-07-03T07:23:40.000Z</time>
      </trkpt>
      <trkpt lat="46.31089" lon="6.78563">
        <ele>1303</ele>
        <time>2016-07-03T07:23:48.000Z</time>
      </trkpt>
      <trkpt lat="46.31088" lon="6.78564">
        <ele>1302</ele>
        <time>2016-07-03T07:23:49.000Z</time>
      </trkpt>
      <trkpt lat="46.31081" lon="6.78572">
        <ele>1295</ele>
        <time>2016-07-03T07:23:55.000Z</time>
      </trkpt>
      <trkpt lat="46.3108" lon="6.78575">
        <ele>1295</ele>
        <time>2016-07-03T07:23:56.000Z</time>
      </trkpt>
      <trkpt lat="46.31073" lon="6.78573">
        <ele>1296</ele>
        <time>2016-07-03T07:24:00.000Z</time>
      </trkpt>
      <trkpt lat="46.3107" lon="6.78573">
        <ele>1294</ele>
        <time>2016-07-03T07:24:01.000Z</time>
      </trkpt>
      <trkpt lat="46.31063" lon="6.78577">
        <ele>1290</ele>
        <time>2016-07-03T07:24:06.000Z</time>
      </trkpt>
      <trkpt lat="46.31061" lon="6.78578">
        <ele>1291</ele>
        <time>2016-07-03T07:24:07.000Z</time>
      </trkpt>
      <trkpt lat="46.31053" lon="6.78574">
        <ele>1290</ele>
        <time>2016-07-03T07:24:12.000Z</time>
      </trkpt>
      <trkpt lat="46.31052" lon="6.78573">
        <ele>1291</ele>
        <time>2016-07-03T07:24:13.000Z</time>
      </trkpt>
      <trkpt lat="46.31045" lon="6.78567">
        <ele>1293</ele>
        <time>2016-07-03T07:24:23.000Z</time>
      </trkpt>
      <trkpt lat="46.31044" lon="6.78566">
        <ele>1291</ele>
        <time>2016-07-03T07:24:24.000Z</time>
      </trkpt>
      <trkpt lat="46.31036" lon="6.78561">
        <ele>1292</ele>
        <time>2016-07-03T07:24:34.000Z</time>
      </trkpt>
      <trkpt lat="46.31034" lon="6.78562">
        <ele>1291</ele>
        <time>2016-07-03T07:24:35.000Z</time>
      </trkpt>
      <trkpt lat="46.31027" lon="6.7857">
        <ele>1283</ele>
        <time>2016-07-03T07:24:39.000Z</time>
      </trkpt>
      <trkpt lat="46.31025" lon="6.78571">
        <ele>1282</ele>
        <time>2016-07-03T07:24:40.000Z</time>
      </trkpt>
      <trkpt lat="46.31018" lon="6.78566">
        <ele>1281</ele>
        <time>2016-07-03T07:24:43.000Z</time>
      </trkpt>
      <trkpt lat="46.31016" lon="6.78567">
        <ele>1281</ele>
        <time>2016-07-03T07:24:44.000Z</time>
      </trkpt>
      <trkpt lat="46.31007" lon="6.78565">
        <ele>1277</ele>
        <time>2016-07-03T07:24:51.000Z</time>
      </trkpt>
      <trkpt lat="46.31007" lon="6.78567">
        <ele>1276</ele>
        <time>2016-07-03T07:24:52.000Z</time>
      </trkpt>
      <trkpt lat="46.31001" lon="6.78573">
        <ele>1274</ele>
        <time>2016-07-03T07:25:04.000Z</time>
      </trkpt>
      <trkpt lat="46.31" lon="6.78575">
        <ele>1274</ele>
        <time>2016-07-03T07:25:05.000Z</time>
      </trkpt>
      <trkpt lat="46.30993" lon="6.78582">
        <ele>1275</ele>
        <time>2016-07-03T07:25:12.000Z</time>
      </trkpt>
      <trkpt lat="46.30991" lon="6.78582">
        <ele>1273</ele>
        <time>2016-07-03T07:25:13.000Z</time>
      </trkpt>
      <trkpt lat="46.30986" lon="6.78593">
        <ele>1273</ele>
        <time>2016-07-03T07:25:20.000Z</time>
      </trkpt>
      <trkpt lat="46.30986" lon="6.78594">
        <ele>1274</ele>
        <time>2016-07-03T07:25:21.000Z</time>
      </trkpt>
      <trkpt lat="46.3098" lon="6.786">
        <ele>1273</ele>
        <time>2016-07-03T07:25:26.000Z</time>
      </trkpt>
      <trkpt lat="46.30978" lon="6.78602">
        <ele>1272</ele>
        <time>2016-07-03T07:25:27.000Z</time>
      </trkpt>
      <trkpt lat="46.30977" lon="6.78614">
        <ele>1272</ele>
        <time>2016-07-03T07:25:33.000Z</time>
      </trkpt>
      <trkpt lat="46.30975" lon="6.78616">
        <ele>1273</ele>
        <time>2016-07-03T07:25:34.000Z</time>
      </trkpt>
      <trkpt lat="46.30975" lon="6.78625">
        <ele>1277</ele>
        <time>2016-07-03T07:25:38.000Z</time>
      </trkpt>
      <trkpt lat="46.30974" lon="6.78629">
        <ele>1274</ele>
        <time>2016-07-03T07:25:39.000Z</time>
      </trkpt>
      <trkpt lat="46.30974" lon="6.78641">
        <ele>1272</ele>
        <time>2016-07-03T07:25:44.000Z</time>
      </trkpt>
      <trkpt lat="46.30973" lon="6.78643">
        <ele>1270</ele>
        <time>2016-07-03T07:25:45.000Z</time>
      </trkpt>
      <trkpt lat="46.30969" lon="6.78654">
        <ele>1261</ele>
        <time>2016-07-03T07:25:51.000Z</time>
      </trkpt>
      <trkpt lat="46.30968" lon="6.78656">
        <ele>1261</ele>
        <time>2016-07-03T07:25:52.000Z</time>
      </trkpt>
      <trkpt lat="46.30964" lon="6.78667">
        <ele>1258</ele>
        <time>2016-07-03T07:25:58.000Z</time>
      </trkpt>
      <trkpt lat="46.30963" lon="6.78669">
        <ele>1259</ele>
        <time>2016-07-03T07:25:59.000Z</time>
      </trkpt>
      <trkpt lat="46.30962" lon="6.78681">
        <ele>1259</ele>
        <time>2016-07-03T07:26:04.000Z</time>
      </trkpt>
      <trkpt lat="46.30961" lon="6.78685">
        <ele>1258</ele>
        <time>2016-07-03T07:26:05.000Z</time>
      </trkpt>
      <trkpt lat="46.30954" lon="6.78693">
        <ele>1256</ele>
        <time>2016-07-03T07:26:11.000Z</time>
      </trkpt>
      <trkpt lat="46.30952" lon="6.78693">
        <ele>1255</ele>
        <time>2016-07-03T07:26:12.000Z</time>
      </trkpt>
      <trkpt lat="46.30943" lon="6.7869">
        <ele>1250</ele>
        <time>2016-07-03T07:26:17.000Z</time>
      </trkpt>
      <trkpt lat="46.30941" lon="6.78689">
        <ele>1249</ele>
        <time>2016-07-03T07:26:18.000Z</time>
      </trkpt>
      <trkpt lat="46.30935" lon="6.78693">
        <ele>1251</ele>
        <time>2016-07-03T07:26:23.000Z</time>
      </trkpt>
      <trkpt lat="46.30933" lon="6.78694">
        <ele>1250</ele>
        <time>2016-07-03T07:26:24.000Z</time>
      </trkpt>
      <trkpt lat="46.30926" lon="6.78696">
        <ele>1253</ele>
        <time>2016-07-03T07:26:30.000Z</time>
      </trkpt>
      <trkpt lat="46.30924" lon="6.78697">
        <ele>1252</ele>
        <time>2016-07-03T07:26:31.000Z</time>
      </trkpt>
      <trkpt lat="46.30918" lon="6.78704">
        <ele>1254</ele>
        <time>2016-07-03T07:26:37.000Z</time>
      </trkpt>
      <trkpt lat="46.30916" lon="6.78705">
        <ele>1255</ele>
        <time>2016-07-03T07:26:38.000Z</time>
      </trkpt>
      <trkpt lat="46.30909" lon="6.78711">
        <ele>1256</ele>
        <time>2016-07-03T07:26:43.000Z</time>
      </trkpt>
      <trkpt lat="46.30905" lon="6.78711">
        <ele>1256</ele>
        <time>2016-07-03T07:26:44.000Z</time>
      </trkpt>
      <trkpt lat="46.30897" lon="6.78716">
        <ele>1250</ele>
        <time>2016-07-03T07:26:50.000Z</time>
      </trkpt>
      <trkpt lat="46.30896" lon="6.78717">
        <ele>1249</ele>
        <time>2016-07-03T07:26:51.000Z</time>
      </trkpt>
      <trkpt lat="46.30888" lon="6.78722">
        <ele>1248</ele>
        <time>2016-07-03T07:26:56.000Z</time>
      </trkpt>
      <trkpt lat="46.30887" lon="6.78723">
        <ele>1250</ele>
        <time>2016-07-03T07:26:57.000Z</time>
      </trkpt>
      <trkpt lat="46.3088" lon="6.7873">
        <ele>1248</ele>
        <time>2016-07-03T07:27:03.000Z</time>
      </trkpt>
      <trkpt lat="46.30878" lon="6.7873">
        <ele>1247</ele>
        <time>2016-07-03T07:27:04.000Z</time>
      </trkpt>
      <trkpt lat="46.30875" lon="6.78741">
        <ele>1246</ele>
        <time>2016-07-03T07:27:09.000Z</time>
      </trkpt>
      <trkpt lat="46.30874" lon="6.78742">
        <ele>1245</ele>
        <time>2016-07-03T07:27:10.000Z</time>
      </trkpt>
      <trkpt lat="46.30867" lon="6.78747">
        <ele>1245</ele>
        <time>2016-07-03T07:27:15.000Z</time>
      </trkpt>
      <trkpt lat="46.30866" lon="6.78749">
        <ele>1244</ele>
        <time>2016-07-03T07:27:16.000Z</time>
      </trkpt>
      <trkpt lat="46.30857" lon="6.78753">
        <ele>1244</ele>
        <time>2016-07-03T07:27:22.000Z</time>
      </trkpt>
      <trkpt lat="46.30857" lon="6.78756">
        <ele>1244</ele>
        <time>2016-07-03T07:27:23.000Z</time>
      </trkpt>
      <trkpt lat="46.30848" lon="6.78757">
        <ele>1243</ele>
        <time>2016-07-03T07:27:31.000Z</time>
      </trkpt>
      <trkpt lat="46.30847" lon="6.78762">
        <ele>1242</ele>
        <time>2016-07-03T07:27:32.000Z</time>
      </trkpt>
      <trkpt lat="46.30839" lon="6.78765">
        <ele>1240</ele>
        <time>2016-07-03T07:27:37.000Z</time>
      </trkpt>
      <trkpt lat="46.30837" lon="6.78766">
        <ele>1238</ele>
        <time>2016-07-03T07:27:38.000Z</time>
      </trkpt>
      <trkpt lat="46.30831" lon="6.78774">
        <ele>1246</ele>
        <time>2016-07-03T07:27:44.000Z</time>
      </trkpt>
      <trkpt lat="46.3083" lon="6.78775">
        <ele>1246</ele>
        <time>2016-07-03T07:27:45.000Z</time>
      </trkpt>
      <trkpt lat="46.30825" lon="6.78783">
        <ele>1241</ele>
        <time>2016-07-03T07:27:49.000Z</time>
      </trkpt>
      <trkpt lat="46.30823" lon="6.78785">
        <ele>1239</ele>
        <time>2016-07-03T07:27:50.000Z</time>
      </trkpt>
      <trkpt lat="46.30817" lon="6.78792">
        <ele>1238</ele>
        <time>2016-07-03T07:27:54.000Z</time>
      </trkpt>
      <trkpt lat="46.30816" lon="6.78793">
        <ele>1238</ele>
        <time>2016-07-03T07:27:55.000Z</time>
      </trkpt>
      <trkpt lat="46.3081" lon="6.78801">
        <ele>1236</ele>
        <time>2016-07-03T07:28:08.000Z</time>
      </trkpt>
      <trkpt lat="46.30809" lon="6.78802">
        <ele>1234</ele>
        <time>2016-07-03T07:28:09.000Z</time>
      </trkpt>
      <trkpt lat="46.30802" lon="6.7881">
        <ele>1232</ele>
        <time>2016-07-03T07:28:16.000Z</time>
      </trkpt>
      <trkpt lat="46.308" lon="6.78812">
        <ele>1233</ele>
        <time>2016-07-03T07:28:17.000Z</time>
      </trkpt>
      <trkpt lat="46.30794" lon="6.7882">
        <ele>1232</ele>
        <time>2016-07-03T07:28:23.000Z</time>
      </trkpt>
      <trkpt lat="46.30793" lon="6.78821">
        <ele>1232</ele>
        <time>2016-07-03T07:28:24.000Z</time>
      </trkpt>
      <trkpt lat="46.30786" lon="6.78827">
        <ele>1229</ele>
        <time>2016-07-03T07:28:30.000Z</time>
      </trkpt>
      <trkpt lat="46.30785" lon="6.78828">
        <ele>1229</ele>
        <time>2016-07-03T07:28:31.000Z</time>
      </trkpt>
      <trkpt lat="46.30779" lon="6.78836">
        <ele>1231</ele>
        <time>2016-07-03T07:28:37.000Z</time>
      </trkpt>
      <trkpt lat="46.30777" lon="6.78838">
        <ele>1232</ele>
        <time>2016-07-03T07:28:38.000Z</time>
      </trkpt>
      <trkpt lat="46.30769" lon="6.7884">
        <ele>1238</ele>
        <time>2016-07-03T07:28:54.000Z</time>
      </trkpt>
      <trkpt lat="46.30766" lon="6.78836">
        <ele>1237</ele>
        <time>2016-07-03T07:28:55.000Z</time>
      </trkpt>
      <trkpt lat="46.30759" lon="6.78841">
        <ele>1234</ele>
        <time>2016-07-03T07:29:01.000Z</time>
      </trkpt>
      <trkpt lat="46.30756" lon="6.7884">
        <ele>1235</ele>
        <time>2016-07-03T07:29:02.000Z</time>
      </trkpt>
      <trkpt lat="46.30748" lon="6.78841">
        <ele>1240</ele>
        <time>2016-07-03T07:29:09.000Z</time>
      </trkpt>
      <trkpt lat="46.30746" lon="6.7884">
        <ele>1238</ele>
        <time>2016-07-03T07:29:10.000Z</time>
      </trkpt>
      <trkpt lat="46.30738" lon="6.78843">
        <ele>1238</ele>
        <time>2016-07-03T07:29:18.000Z</time>
      </trkpt>
      <trkpt lat="46.30736" lon="6.78844">
        <ele>1240</ele>
        <time>2016-07-03T07:29:19.000Z</time>
      </trkpt>
      <trkpt lat="46.30728" lon="6.78848">
        <ele>1238</ele>
        <time>2016-07-03T07:29:24.000Z</time>
      </trkpt>
      <trkpt lat="46.30727" lon="6.78849">
        <ele>1238</ele>
        <time>2016-07-03T07:29:25.000Z</time>
      </trkpt>
      <trkpt lat="46.30719" lon="6.78852">
        <ele>1229</ele>
        <time>2016-07-03T07:29:32.000Z</time>
      </trkpt>
      <trkpt lat="46.30717" lon="6.78852">
        <ele>1228</ele>
        <time>2016-07-03T07:29:33.000Z</time>
      </trkpt>
      <trkpt lat="46.30709" lon="6.7886">
        <ele>1230</ele>
        <time>2016-07-03T07:29:40.000Z</time>
      </trkpt>
      <trkpt lat="46.30709" lon="6.7886">
        <ele>1230</ele>
        <time>2016-07-03T07:29:41.000Z</time>
      </trkpt>
      <trkpt lat="46.30701" lon="6.78856">
        <ele>1231</ele>
        <time>2016-07-03T07:29:44.000Z</time>
      </trkpt>
      <trkpt lat="46.307" lon="6.78855">
        <ele>1232</ele>
        <time>2016-07-03T07:29:45.000Z</time>
      </trkpt>
      <trkpt lat="46.30692" lon="6.78857">
        <ele>1228</ele>
        <time>2016-07-03T07:29:51.000Z</time>
      </trkpt>
      <trkpt lat="46.30689" lon="6.78856">
        <ele>1227</ele>
        <time>2016-07-03T07:29:52.000Z</time>
      </trkpt>
      <trkpt lat="46.3068" lon="6.78856">
        <ele>1232</ele>
        <time>2016-07-03T07:29:59.000Z</time>
      </trkpt>
      <trkpt lat="46.30677" lon="6.78856">
        <ele>1233</ele>
        <time>2016-07-03T07:30:00.000Z</time>
      </trkpt>
      <trkpt lat="46.3067" lon="6.78864">
        <ele>1230</ele>
        <time>2016-07-03T07:30:06.000Z</time>
      </trkpt>
      <trkpt lat="46.30668" lon="6.78864">
        <ele>1230</ele>
        <time>2016-07-03T07:30:07.000Z</time>
      </trkpt>
      <trkpt lat="46.30661" lon="6.78873">
        <ele>1229</ele>
        <time>2016-07-03T07:30:13.000Z</time>
      </trkpt>
      <trkpt lat="46.30659" lon="6.78874">
        <ele>1228</ele>
        <time>2016-07-03T07:30:14.000Z</time>
      </trkpt>
      <trkpt lat="46.30654" lon="6.78885">
        <ele>1223</ele>
        <time>2016-07-03T07:30:22.000Z</time>
      </trkpt>
      <trkpt lat="46.30651" lon="6.78884">
        <ele>1221</ele>
        <time>2016-07-03T07:30:23.000Z</time>
      </trkpt>
      <trkpt lat="46.30642" lon="6.78886">
        <ele>1219</ele>
        <time>2016-07-03T07:30:27.000Z</time>
      </trkpt>
      <trkpt lat="46.30641" lon="6.78887">
        <ele>1219</ele>
        <time>2016-07-03T07:30:28.000Z</time>
      </trkpt>
      <trkpt lat="46.30633" lon="6.7889">
        <ele>1218</ele>
        <time>2016-07-03T07:30:32.000Z</time>
      </trkpt>
      <trkpt lat="46.30631" lon="6.78891">
        <ele>1218</ele>
        <time>2016-07-03T07:30:33.000Z</time>
      </trkpt>
      <trkpt lat="46.30623" lon="6.78894">
        <ele>1216</ele>
        <time>2016-07-03T07:30:38.000Z</time>
      </trkpt>
      <trkpt lat="46.30622" lon="6.78896">
        <ele>1216</ele>
        <time>2016-07-03T07:30:39.000Z</time>
      </trkpt>
      <trkpt lat="46.30615" lon="6.78902">
        <ele>1217</ele>
        <time>2016-07-03T07:30:46.000Z</time>
      </trkpt>
      <trkpt lat="46.30614" lon="6.78904">
        <ele>1217</ele>
        <time>2016-07-03T07:30:47.000Z</time>
      </trkpt>
      <trkpt lat="46.30607" lon="6.78908">
        <ele>1217</ele>
        <time>2016-07-03T07:30:53.000Z</time>
      </trkpt>
      <trkpt lat="46.30605" lon="6.78909">
        <ele>1217</ele>
        <time>2016-07-03T07:30:54.000Z</time>
      </trkpt>
      <trkpt lat="46.30598" lon="6.78914">
        <ele>1215</ele>
        <time>2016-07-03T07:31:00.000Z</time>
      </trkpt>
      <trkpt lat="46.30596" lon="6.78915">
        <ele>1214</ele>
        <time>2016-07-03T07:31:01.000Z</time>
      </trkpt>
      <trkpt lat="46.3059" lon="6.78921">
        <ele>1212</ele>
        <time>2016-07-03T07:31:06.000Z</time>
      </trkpt>
      <trkpt lat="46.30589" lon="6.78923">
        <ele>1212</ele>
        <time>2016-07-03T07:31:07.000Z</time>
      </trkpt>
      <trkpt lat="46.30582" lon="6.78926">
        <ele>1209</ele>
        <time>2016-07-03T07:31:11.000Z</time>
      </trkpt>
      <trkpt lat="46.3058" lon="6.78927">
        <ele>1209</ele>
        <time>2016-07-03T07:31:12.000Z</time>
      </trkpt>
      <trkpt lat="46.30574" lon="6.78931">
        <ele>1207</ele>
        <time>2016-07-03T07:31:17.000Z</time>
      </trkpt>
      <trkpt lat="46.30571" lon="6.78932">
        <ele>1206</ele>
        <time>2016-07-03T07:31:18.000Z</time>
      </trkpt>
      <trkpt lat="46.30564" lon="6.78938">
        <ele>1202</ele>
        <time>2016-07-03T07:31:26.000Z</time>
      </trkpt>
      <trkpt lat="46.30562" lon="6.78939">
        <ele>1202</ele>
        <time>2016-07-03T07:31:27.000Z</time>
      </trkpt>
      <trkpt lat="46.30555" lon="6.78941">
        <ele>1204</ele>
        <time>2016-07-03T07:31:34.000Z</time>
      </trkpt>
      <trkpt lat="46.30553" lon="6.78941">
        <ele>1205</ele>
        <time>2016-07-03T07:31:35.000Z</time>
      </trkpt>
      <trkpt lat="46.30546" lon="6.78942">
        <ele>1206</ele>
        <time>2016-07-03T07:31:42.000Z</time>
      </trkpt>
      <trkpt lat="46.30544" lon="6.78941">
        <ele>1206</ele>
        <time>2016-07-03T07:31:43.000Z</time>
      </trkpt>
      <trkpt lat="46.30536" lon="6.78935">
        <ele>1204</ele>
        <time>2016-07-03T07:31:48.000Z</time>
      </trkpt>
      <trkpt lat="46.30535" lon="6.78935">
        <ele>1205</ele>
        <time>2016-07-03T07:31:49.000Z</time>
      </trkpt>
      <trkpt lat="46.30526" lon="6.78931">
        <ele>1207</ele>
        <time>2016-07-03T07:31:56.000Z</time>
      </trkpt>
      <trkpt lat="46.30526" lon="6.78931">
        <ele>1208</ele>
        <time>2016-07-03T07:31:57.000Z</time>
      </trkpt>
      <trkpt lat="46.30519" lon="6.78925">
        <ele>1207</ele>
        <time>2016-07-03T07:32:04.000Z</time>
      </trkpt>
      <trkpt lat="46.30517" lon="6.78924">
        <ele>1206</ele>
        <time>2016-07-03T07:32:05.000Z</time>
      </trkpt>
      <trkpt lat="46.30509" lon="6.78919">
        <ele>1206</ele>
        <time>2016-07-03T07:32:11.000Z</time>
      </trkpt>
      <trkpt lat="46.30508" lon="6.78918">
        <ele>1207</ele>
        <time>2016-07-03T07:32:12.000Z</time>
      </trkpt>
      <trkpt lat="46.305" lon="6.78918">
        <ele>1208</ele>
        <time>2016-07-03T07:32:17.000Z</time>
      </trkpt>
      <trkpt lat="46.30499" lon="6.78917">
        <ele>1208</ele>
        <time>2016-07-03T07:32:18.000Z</time>
      </trkpt>
      <trkpt lat="46.3049" lon="6.78917">
        <ele>1205</ele>
        <time>2016-07-03T07:32:24.000Z</time>
      </trkpt>
      <trkpt lat="46.30488" lon="6.78917">
        <ele>1205</ele>
        <time>2016-07-03T07:32:25.000Z</time>
      </trkpt>
      <trkpt lat="46.30479" lon="6.78914">
        <ele>1205</ele>
        <time>2016-07-03T07:32:32.000Z</time>
      </trkpt>
      <trkpt lat="46.30477" lon="6.78915">
        <ele>1205</ele>
        <time>2016-07-03T07:32:33.000Z</time>
      </trkpt>
      <trkpt lat="46.30469" lon="6.78919">
        <ele>1206</ele>
        <time>2016-07-03T07:32:40.000Z</time>
      </trkpt>
      <trkpt lat="46.30466" lon="6.7892">
        <ele>1204</ele>
        <time>2016-07-03T07:32:41.000Z</time>
      </trkpt>
      <trkpt lat="46.30457" lon="6.78919">
        <ele>1206</ele>
        <time>2016-07-03T07:32:46.000Z</time>
      </trkpt>
      <trkpt lat="46.30455" lon="6.78919">
        <ele>1206</ele>
        <time>2016-07-03T07:32:47.000Z</time>
      </trkpt>
      <trkpt lat="46.30447" lon="6.7892">
        <ele>1201</ele>
        <time>2016-07-03T07:32:53.000Z</time>
      </trkpt>
      <trkpt lat="46.30445" lon="6.78919">
        <ele>1198</ele>
        <time>2016-07-03T07:32:54.000Z</time>
      </trkpt>
      <trkpt lat="46.30438" lon="6.78916">
        <ele>1197</ele>
        <time>2016-07-03T07:32:58.000Z</time>
      </trkpt>
      <trkpt lat="46.30436" lon="6.78915">
        <ele>1196</ele>
        <time>2016-07-03T07:32:59.000Z</time>
      </trkpt>
      <trkpt lat="46.30428" lon="6.78913">
        <ele>1195</ele>
        <time>2016-07-03T07:33:04.000Z</time>
      </trkpt>
      <trkpt lat="46.30427" lon="6.78913">
        <ele>1194</ele>
        <time>2016-07-03T07:33:05.000Z</time>
      </trkpt>
      <trkpt lat="46.30419" lon="6.78912">
        <ele>1194</ele>
        <time>2016-07-03T07:33:09.000Z</time>
      </trkpt>
      <trkpt lat="46.30416" lon="6.78912">
        <ele>1193</ele>
        <time>2016-07-03T07:33:10.000Z</time>
      </trkpt>
      <trkpt lat="46.30408" lon="6.78912">
        <ele>1192</ele>
        <time>2016-07-03T07:33:14.000Z</time>
      </trkpt>
      <trkpt lat="46.30407" lon="6.78913">
        <ele>1192</ele>
        <time>2016-07-03T07:33:15.000Z</time>
      </trkpt>
      <trkpt lat="46.30399" lon="6.78913">
        <ele>1189</ele>
        <time>2016-07-03T07:33:20.000Z</time>
      </trkpt>
      <trkpt lat="46.30397" lon="6.78913">
        <ele>1190</ele>
        <time>2016-07-03T07:33:21.000Z</time>
      </trkpt>
      <trkpt lat="46.30389" lon="6.78916">
        <ele>1191</ele>
        <time>2016-07-03T07:33:25.000Z</time>
      </trkpt>
      <trkpt lat="46.30388" lon="6.78916">
        <ele>1190</ele>
        <time>2016-07-03T07:33:26.000Z</time>
      </trkpt>
      <trkpt lat="46.30379" lon="6.7892">
        <ele>1191</ele>
        <time>2016-07-03T07:33:33.000Z</time>
      </trkpt>
      <trkpt lat="46.30378" lon="6.78921">
        <ele>1192</ele>
        <time>2016-07-03T07:33:34.000Z</time>
      </trkpt>
      <trkpt lat="46.30371" lon="6.78924">
        <ele>1192</ele>
        <time>2016-07-03T07:33:38.000Z</time>
      </trkpt>
      <trkpt lat="46.30369" lon="6.78925">
        <ele>1192</ele>
        <time>2016-07-03T07:33:39.000Z</time>
      </trkpt>
      <trkpt lat="46.3036" lon="6.78928">
        <ele>1192</ele>
        <time>2016-07-03T07:33:48.000Z</time>
      </trkpt>
      <trkpt lat="46.3036" lon="6.78928">
        <ele>1192</ele>
        <time>2016-07-03T07:33:49.000Z</time>
      </trkpt>
      <trkpt lat="46.30352" lon="6.78924">
        <ele>1193</ele>
        <time>2016-07-03T07:33:56.000Z</time>
      </trkpt>
      <trkpt lat="46.30351" lon="6.78924">
        <ele>1192</ele>
        <time>2016-07-03T07:33:57.000Z</time>
      </trkpt>
      <trkpt lat="46.30343" lon="6.78922">
        <ele>1187</ele>
        <time>2016-07-03T07:34:04.000Z</time>
      </trkpt>
      <trkpt lat="46.30342" lon="6.78922">
        <ele>1188</ele>
        <time>2016-07-03T07:34:05.000Z</time>
      </trkpt>
      <trkpt lat="46.30333" lon="6.7892">
        <ele>1187</ele>
        <time>2016-07-03T07:34:12.000Z</time>
      </trkpt>
      <trkpt lat="46.30332" lon="6.7892">
        <ele>1188</ele>
        <time>2016-07-03T07:34:13.000Z</time>
      </trkpt>
      <trkpt lat="46.30324" lon="6.78924">
        <ele>1188</ele>
        <time>2016-07-03T07:34:18.000Z</time>
      </trkpt>
      <trkpt lat="46.30323" lon="6.78923">
        <ele>1186</ele>
        <time>2016-07-03T07:34:19.000Z</time>
      </trkpt>
      <trkpt lat="46.30314" lon="6.78921">
        <ele>1183</ele>
        <time>2016-07-03T07:34:26.000Z</time>
      </trkpt>
      <trkpt lat="46.30313" lon="6.7892">
        <ele>1182</ele>
        <time>2016-07-03T07:34:27.000Z</time>
      </trkpt>
      <trkpt lat="46.30305" lon="6.78918">
        <ele>1180</ele>
        <time>2016-07-03T07:34:33.000Z</time>
      </trkpt>
      <trkpt lat="46.30303" lon="6.78918">
        <ele>1180</ele>
        <time>2016-07-03T07:34:34.000Z</time>
      </trkpt>
      <trkpt lat="46.30295" lon="6.78915">
        <ele>1176</ele>
        <time>2016-07-03T07:34:45.000Z</time>
      </trkpt>
      <trkpt lat="46.30293" lon="6.78915">
        <ele>1176</ele>
        <time>2016-07-03T07:34:46.000Z</time>
      </trkpt>
      <trkpt lat="46.30287" lon="6.78909">
        <ele>1167</ele>
        <time>2016-07-03T07:34:52.000Z</time>
      </trkpt>
      <trkpt lat="46.30285" lon="6.78907">
        <ele>1165</ele>
        <time>2016-07-03T07:34:53.000Z</time>
      </trkpt>
      <trkpt lat="46.30276" lon="6.78907">
        <ele>1159</ele>
        <time>2016-07-03T07:34:59.000Z</time>
      </trkpt>
      <trkpt lat="46.30275" lon="6.78908">
        <ele>1159</ele>
        <time>2016-07-03T07:35:00.000Z</time>
      </trkpt>
      <trkpt lat="46.30266" lon="6.78912">
        <ele>1157</ele>
        <time>2016-07-03T07:35:04.000Z</time>
      </trkpt>
      <trkpt lat="46.30264" lon="6.78913">
        <ele>1158</ele>
        <time>2016-07-03T07:35:05.000Z</time>
      </trkpt>
      <trkpt lat="46.30256" lon="6.78915">
        <ele>1155</ele>
        <time>2016-07-03T07:35:10.000Z</time>
      </trkpt>
      <trkpt lat="46.30254" lon="6.78916">
        <ele>1157</ele>
        <time>2016-07-03T07:35:11.000Z</time>
      </trkpt>
      <trkpt lat="46.30245" lon="6.78919">
        <ele>1159</ele>
        <time>2016-07-03T07:35:16.000Z</time>
      </trkpt>
      <trkpt lat="46.30244" lon="6.78919">
        <ele>1158</ele>
        <time>2016-07-03T07:35:17.000Z</time>
      </trkpt>
      <trkpt lat="46.30235" lon="6.78921">
        <ele>1158</ele>
        <time>2016-07-03T07:35:22.000Z</time>
      </trkpt>
      <trkpt lat="46.30233" lon="6.78921">
        <ele>1157</ele>
        <time>2016-07-03T07:35:23.000Z</time>
      </trkpt>
      <trkpt lat="46.30224" lon="6.78921">
        <ele>1157</ele>
        <time>2016-07-03T07:35:28.000Z</time>
      </trkpt>
      <trkpt lat="46.30223" lon="6.78921">
        <ele>1158</ele>
        <time>2016-07-03T07:35:29.000Z</time>
      </trkpt>
      <trkpt lat="46.30215" lon="6.78924">
        <ele>1163</ele>
        <time>2016-07-03T07:35:33.000Z</time>
      </trkpt>
      <trkpt lat="46.30213" lon="6.78926">
        <ele>1164</ele>
        <time>2016-07-03T07:35:34.000Z</time>
      </trkpt>
      <trkpt lat="46.30206" lon="6.78928">
        <ele>1164</ele>
        <time>2016-07-03T07:35:40.000Z</time>
      </trkpt>
      <trkpt lat="46.30204" lon="6.78927">
        <ele>1164</ele>
        <time>2016-07-03T07:35:41.000Z</time>
      </trkpt>
      <trkpt lat="46.30195" lon="6.78924">
        <ele>1163</ele>
        <time>2016-07-03T07:35:46.000Z</time>
      </trkpt>
      <trkpt lat="46.30194" lon="6.78924">
        <ele>1163</ele>
        <time>2016-07-03T07:35:47.000Z</time>
      </trkpt>
      <trkpt lat="46.30185" lon="6.78925">
        <ele>1165</ele>
        <time>2016-07-03T07:35:53.000Z</time>
      </trkpt>
      <trkpt lat="46.30183" lon="6.78924">
        <ele>1166</ele>
        <time>2016-07-03T07:35:54.000Z</time>
      </trkpt>
      <trkpt lat="46.30174" lon="6.78923">
        <ele>1169</ele>
        <time>2016-07-03T07:35:59.000Z</time>
      </trkpt>
      <trkpt lat="46.30174" lon="6.78923">
        <ele>1167</ele>
        <time>2016-07-03T07:36:00.000Z</time>
      </trkpt>
      <trkpt lat="46.30167" lon="6.78924">
        <ele>1163</ele>
        <time>2016-07-03T07:36:06.000Z</time>
      </trkpt>
      <trkpt lat="46.30164" lon="6.78926">
        <ele>1163</ele>
        <time>2016-07-03T07:36:07.000Z</time>
      </trkpt>
      <trkpt lat="46.30158" lon="6.78932">
        <ele>1162</ele>
        <time>2016-07-03T07:36:12.000Z</time>
      </trkpt>
      <trkpt lat="46.30156" lon="6.78933">
        <ele>1162</ele>
        <time>2016-07-03T07:36:13.000Z</time>
      </trkpt>
      <trkpt lat="46.30148" lon="6.78937">
        <ele>1157</ele>
        <time>2016-07-03T07:36:20.000Z</time>
      </trkpt>
      <trkpt lat="46.30146" lon="6.78938">
        <ele>1157</ele>
        <time>2016-07-03T07:36:21.000Z</time>
      </trkpt>
      <trkpt lat="46.30138" lon="6.78942">
        <ele>1155</ele>
        <time>2016-07-03T07:36:26.000Z</time>
      </trkpt>
      <trkpt lat="46.30137" lon="6.78944">
        <ele>1155</ele>
        <time>2016-07-03T07:36:27.000Z</time>
      </trkpt>
      <trkpt lat="46.3013" lon="6.78949">
        <ele>1153</ele>
        <time>2016-07-03T07:36:32.000Z</time>
      </trkpt>
      <trkpt lat="46.30128" lon="6.7895">
        <ele>1153</ele>
        <time>2016-07-03T07:36:33.000Z</time>
      </trkpt>
      <trkpt lat="46.3012" lon="6.78954">
        <ele>1153</ele>
        <time>2016-07-03T07:36:38.000Z</time>
      </trkpt>
      <trkpt lat="46.30119" lon="6.78954">
        <ele>1151</ele>
        <time>2016-07-03T07:36:39.000Z</time>
      </trkpt>
      <trkpt lat="46.30111" lon="6.78958">
        <ele>1144</ele>
        <time>2016-07-03T07:36:47.000Z</time>
      </trkpt>
      <trkpt lat="46.30109" lon="6.7896">
        <ele>1145</ele>
        <time>2016-07-03T07:36:48.000Z</time>
      </trkpt>
      <trkpt lat="46.30101" lon="6.78964">
        <ele>1141</ele>
        <time>2016-07-03T07:36:54.000Z</time>
      </trkpt>
      <trkpt lat="46.30099" lon="6.78964">
        <ele>1141</ele>
        <time>2016-07-03T07:36:55.000Z</time>
      </trkpt>
      <trkpt lat="46.30092" lon="6.78966">
        <ele>1141</ele>
        <time>2016-07-03T07:36:59.000Z</time>
      </trkpt>
      <trkpt lat="46.3009" lon="6.78969">
        <ele>1143</ele>
        <time>2016-07-03T07:37:00.000Z</time>
      </trkpt>
      <trkpt lat="46.30082" lon="6.78973">
        <ele>1142</ele>
        <time>2016-07-03T07:37:06.000Z</time>
      </trkpt>
      <trkpt lat="46.30081" lon="6.78972">
        <ele>1142</ele>
        <time>2016-07-03T07:37:07.000Z</time>
      </trkpt>
      <trkpt lat="46.30072" lon="6.78975">
        <ele>1144</ele>
        <time>2016-07-03T07:37:13.000Z</time>
      </trkpt>
      <trkpt lat="46.3007" lon="6.78974">
        <ele>1144</ele>
        <time>2016-07-03T07:37:14.000Z</time>
      </trkpt>
      <trkpt lat="46.30064" lon="6.78978">
        <ele>1146</ele>
        <time>2016-07-03T07:37:19.000Z</time>
      </trkpt>
      <trkpt lat="46.30061" lon="6.78979">
        <ele>1147</ele>
        <time>2016-07-03T07:37:20.000Z</time>
      </trkpt>
      <trkpt lat="46.30053" lon="6.78979">
        <ele>1148</ele>
        <time>2016-07-03T07:37:27.000Z</time>
      </trkpt>
      <trkpt lat="46.30051" lon="6.7898">
        <ele>1147</ele>
        <time>2016-07-03T07:37:28.000Z</time>
      </trkpt>
      <trkpt lat="46.30043" lon="6.78978">
        <ele>1146</ele>
        <time>2016-07-03T07:37:33.000Z</time>
      </trkpt>
      <trkpt lat="46.30041" lon="6.78978">
        <ele>1146</ele>
        <time>2016-07-03T07:37:34.000Z</time>
      </trkpt>
      <trkpt lat="46.30033" lon="6.78979">
        <ele>1147</ele>
        <time>2016-07-03T07:37:40.000Z</time>
      </trkpt>
      <trkpt lat="46.3003" lon="6.78978">
        <ele>1148</ele>
        <time>2016-07-03T07:37:41.000Z</time>
      </trkpt>
      <trkpt lat="46.30023" lon="6.78979">
        <ele>1137</ele>
        <time>2016-07-03T07:37:50.000Z</time>
      </trkpt>
      <trkpt lat="46.30021" lon="6.78979">
        <ele>1137</ele>
        <time>2016-07-03T07:37:51.000Z</time>
      </trkpt>
      <trkpt lat="46.30013" lon="6.78982">
        <ele>1140</ele>
        <time>2016-07-03T07:37:57.000Z</time>
      </trkpt>
      <trkpt lat="46.30012" lon="6.78983">
        <ele>1140</ele>
        <time>2016-07-03T07:37:58.000Z</time>
      </trkpt>
      <trkpt lat="46.30003" lon="6.78983">
        <ele>1139</ele>
        <time>2016-07-03T07:38:04.000Z</time>
      </trkpt>
      <trkpt lat="46.30002" lon="6.78981">
        <ele>1137</ele>
        <time>2016-07-03T07:38:05.000Z</time>
      </trkpt>
      <trkpt lat="46.29994" lon="6.78982">
        <ele>1132</ele>
        <time>2016-07-03T07:38:12.000Z</time>
      </trkpt>
      <trkpt lat="46.29993" lon="6.78981">
        <ele>1132</ele>
        <time>2016-07-03T07:38:13.000Z</time>
      </trkpt>
      <trkpt lat="46.29985" lon="6.78981">
        <ele>1131</ele>
        <time>2016-07-03T07:38:20.000Z</time>
      </trkpt>
      <trkpt lat="46.29983" lon="6.78981">
        <ele>1129</ele>
        <time>2016-07-03T07:38:21.000Z</time>
      </trkpt>
      <trkpt lat="46.29974" lon="6.78979">
        <ele>1125</ele>
        <time>2016-07-03T07:38:28.000Z</time>
      </trkpt>
      <trkpt lat="46.29972" lon="6.7898">
        <ele>1123</ele>
        <time>2016-07-03T07:38:29.000Z</time>
      </trkpt>
      <trkpt lat="46.29963" lon="6.78982">
        <ele>1126</ele>
        <time>2016-07-03T07:38:34.000Z</time>
      </trkpt>
      <trkpt lat="46.29962" lon="6.78982">
        <ele>1125</ele>
        <time>2016-07-03T07:38:35.000Z</time>
      </trkpt>
      <trkpt lat="46.29954" lon="6.78979">
        <ele>1131</ele>
        <time>2016-07-03T07:38:43.000Z</time>
      </trkpt>
      <trkpt lat="46.29953" lon="6.78979">
        <ele>1131</ele>
        <time>2016-07-03T07:38:44.000Z</time>
      </trkpt>
      <trkpt lat="46.29946" lon="6.78982">
        <ele>1136</ele>
        <time>2016-07-03T07:38:49.000Z</time>
      </trkpt>
      <trkpt lat="46.29944" lon="6.78982">
        <ele>1138</ele>
        <time>2016-07-03T07:38:50.000Z</time>
      </trkpt>
      <trkpt lat="46.29937" lon="6.78975">
        <ele>1136</ele>
        <time>2016-07-03T07:38:56.000Z</time>
      </trkpt>
      <trkpt lat="46.29934" lon="6.78974">
        <ele>1138</ele>
        <time>2016-07-03T07:38:57.000Z</time>
      </trkpt>
      <trkpt lat="46.29926" lon="6.78972">
        <ele>1142</ele>
        <time>2016-07-03T07:39:02.000Z</time>
      </trkpt>
      <trkpt lat="46.29924" lon="6.78972">
        <ele>1144</ele>
        <time>2016-07-03T07:39:03.000Z</time>
      </trkpt>
      <trkpt lat="46.29917" lon="6.78968">
        <ele>1146</ele>
        <time>2016-07-03T07:39:07.000Z</time>
      </trkpt>
      <trkpt lat="46.29915" lon="6.78968">
        <ele>1145</ele>
        <time>2016-07-03T07:39:08.000Z</time>
      </trkpt>
      <trkpt lat="46.29908" lon="6.78967">
        <ele>1150</ele>
        <time>2016-07-03T07:39:12.000Z</time>
      </trkpt>
      <trkpt lat="46.29906" lon="6.78964">
        <ele>1152</ele>
        <time>2016-07-03T07:39:13.000Z</time>
      </trkpt>
      <trkpt lat="46.29898" lon="6.78961">
        <ele>1150</ele>
        <time>2016-07-03T07:39:18.000Z</time>
      </trkpt>
      <trkpt lat="46.29897" lon="6.7896">
        <ele>1150</ele>
        <time>2016-07-03T07:39:19.000Z</time>
      </trkpt>
      <trkpt lat="46.2989" lon="6.78957">
        <ele>1149</ele>
        <time>2016-07-03T07:39:24.000Z</time>
      </trkpt>
      <trkpt lat="46.29888" lon="6.78955">
        <ele>1147</ele>
        <time>2016-07-03T07:39:25.000Z</time>
      </trkpt>
      <trkpt lat="46.2988" lon="6.78955">
        <ele>1145</ele>
        <time>2016-07-03T07:39:30.000Z</time>
      </trkpt>
      <trkpt lat="46.29879" lon="6.78955">
        <ele>1147</ele>
        <time>2016-07-03T07:39:31.000Z</time>
      </trkpt>
      <trkpt lat="46.29871" lon="6.78951">
        <ele>1136</ele>
        <time>2016-07-03T07:39:39.000Z</time>
      </trkpt>
      <trkpt lat="46.29869" lon="6.7895">
        <ele>1137</ele>
        <time>2016-07-03T07:39:40.000Z</time>
      </trkpt>
      <trkpt lat="46.29861" lon="6.78948">
        <ele>1128</ele>
        <time>2016-07-03T07:39:49.000Z</time>
      </trkpt>
      <trkpt lat="46.2986" lon="6.78949">
        <ele>1128</ele>
        <time>2016-07-03T07:39:50.000Z</time>
      </trkpt>
      <trkpt lat="46.29851" lon="6.78949">
        <ele>1125</ele>
        <time>2016-07-03T07:39:56.000Z</time>
      </trkpt>
      <trkpt lat="46.2985" lon="6.78947">
        <ele>1125</ele>
        <time>2016-07-03T07:39:57.000Z</time>
      </trkpt>
      <trkpt lat="46.29842" lon="6.78947">
        <ele>1122</ele>
        <time>2016-07-03T07:40:02.000Z</time>
      </trkpt>
      <trkpt lat="46.2984" lon="6.78947">
        <ele>1121</ele>
        <time>2016-07-03T07:40:03.000Z</time>
      </trkpt>
      <trkpt lat="46.29831" lon="6.78944">
        <ele>1119</ele>
        <time>2016-07-03T07:40:09.000Z</time>
      </trkpt>
      <trkpt lat="46.2983" lon="6.78944">
        <ele>1118</ele>
        <time>2016-07-03T07:40:10.000Z</time>
      </trkpt>
      <trkpt lat="46.29827" lon="6.78944">
        <ele>1118</ele>
        <time>2016-07-03T07:40:13.000Z</time>
      </trkpt>
      <trkpt lat="46.29829" lon="6.78944">
        <ele>1115</ele>
        <time>2016-07-03T07:40:14.000Z</time>
      </trkpt>
      <trkpt lat="46.2983" lon="6.78944">
        <ele>1112</ele>
        <time>2016-07-03T07:40:48.000Z</time>
      </trkpt>
      <trkpt lat="46.2983" lon="6.78943">
        <ele>1111</ele>
        <time>2016-07-03T07:40:49.000Z</time>
      </trkpt>
      <trkpt lat="46.29829" lon="6.78944">
        <ele>1111</ele>
        <time>2016-07-03T07:44:14.000Z</time>
      </trkpt>
      <trkpt lat="46.29829" lon="6.78944">
        <ele>1111</ele>
        <time>2016-07-03T07:44:15.000Z</time>
      </trkpt>
      <trkpt lat="46.29828" lon="6.7895">
        <ele>1112</ele>
        <time>2016-07-03T07:47:59.000Z</time>
      </trkpt>
      <trkpt lat="46.29828" lon="6.7895">
        <ele>1112</ele>
        <time>2016-07-03T07:48:00.000Z</time>
      </trkpt>
      <trkpt lat="46.2982" lon="6.78946">
        <ele>1112</ele>
        <time>2016-07-03T07:48:31.000Z</time>
      </trkpt>
      <trkpt lat="46.29819" lon="6.78947">
        <ele>1112</ele>
        <time>2016-07-03T07:48:32.000Z</time>
      </trkpt>
      <trkpt lat="46.2981" lon="6.78948">
        <ele>1110</ele>
        <time>2016-07-03T07:48:38.000Z</time>
      </trkpt>
      <trkpt lat="46.29809" lon="6.78948">
        <ele>1110</ele>
        <time>2016-07-03T07:48:39.000Z</time>
      </trkpt>
      <trkpt lat="46.29801" lon="6.78953">
        <ele>1106</ele>
        <time>2016-07-03T07:48:51.000Z</time>
      </trkpt>
      <trkpt lat="46.298" lon="6.78953">
        <ele>1105</ele>
        <time>2016-07-03T07:48:52.000Z</time>
      </trkpt>
      <trkpt lat="46.29793" lon="6.78956">
        <ele>1103</ele>
        <time>2016-07-03T07:48:58.000Z</time>
      </trkpt>
      <trkpt lat="46.29791" lon="6.78957">
        <ele>1103</ele>
        <time>2016-07-03T07:48:59.000Z</time>
      </trkpt>
      <trkpt lat="46.29784" lon="6.7896">
        <ele>1103</ele>
        <time>2016-07-03T07:49:05.000Z</time>
      </trkpt>
      <trkpt lat="46.29782" lon="6.78961">
        <ele>1103</ele>
        <time>2016-07-03T07:49:06.000Z</time>
      </trkpt>
      <trkpt lat="46.29775" lon="6.78965">
        <ele>1104</ele>
        <time>2016-07-03T07:49:11.000Z</time>
      </trkpt>
      <trkpt lat="46.29773" lon="6.78966">
        <ele>1105</ele>
        <time>2016-07-03T07:49:12.000Z</time>
      </trkpt>
      <trkpt lat="46.29765" lon="6.7897">
        <ele>1107</ele>
        <time>2016-07-03T07:49:19.000Z</time>
      </trkpt>
      <trkpt lat="46.29763" lon="6.78969">
        <ele>1107</ele>
        <time>2016-07-03T07:49:20.000Z</time>
      </trkpt>
      <trkpt lat="46.29756" lon="6.78967">
        <ele>1107</ele>
        <time>2016-07-03T07:49:24.000Z</time>
      </trkpt>
      <trkpt lat="46.29754" lon="6.78965">
        <ele>1108</ele>
        <time>2016-07-03T07:49:25.000Z</time>
      </trkpt>
      <trkpt lat="46.29747" lon="6.78959">
        <ele>1107</ele>
        <time>2016-07-03T07:49:30.000Z</time>
      </trkpt>
      <trkpt lat="46.29746" lon="6.78958">
        <ele>1107</ele>
        <time>2016-07-03T07:49:31.000Z</time>
      </trkpt>
      <trkpt lat="46.2974" lon="6.78951">
        <ele>1102</ele>
        <time>2016-07-03T07:49:39.000Z</time>
      </trkpt>
      <trkpt lat="46.29738" lon="6.7895">
        <ele>1102</ele>
        <time>2016-07-03T07:49:40.000Z</time>
      </trkpt>
      <trkpt lat="46.29733" lon="6.7894">
        <ele>1099</ele>
        <time>2016-07-03T07:49:47.000Z</time>
      </trkpt>
      <trkpt lat="46.29733" lon="6.78939">
        <ele>1098</ele>
        <time>2016-07-03T07:49:48.000Z</time>
      </trkpt>
      <trkpt lat="46.29725" lon="6.78938">
        <ele>1094</ele>
        <time>2016-07-03T07:49:58.000Z</time>
      </trkpt>
      <trkpt lat="46.29722" lon="6.78936">
        <ele>1094</ele>
        <time>2016-07-03T07:50:00.000Z</time>
      </trkpt>
      <trkpt lat="46.29716" lon="6.78926">
        <ele>1098</ele>
        <time>2016-07-03T07:50:05.000Z</time>
      </trkpt>
      <trkpt lat="46.29716" lon="6.78925">
        <ele>1097</ele>
        <time>2016-07-03T07:50:06.000Z</time>
      </trkpt>
      <trkpt lat="46.29708" lon="6.78922">
        <ele>1095</ele>
        <time>2016-07-03T07:50:12.000Z</time>
      </trkpt>
      <trkpt lat="46.29707" lon="6.78921">
        <ele>1095</ele>
        <time>2016-07-03T07:50:13.000Z</time>
      </trkpt>
      <trkpt lat="46.29699" lon="6.78923">
        <ele>1090</ele>
        <time>2016-07-03T07:50:21.000Z</time>
      </trkpt>
      <trkpt lat="46.29698" lon="6.78924">
        <ele>1089</ele>
        <time>2016-07-03T07:50:22.000Z</time>
      </trkpt>
      <trkpt lat="46.2969" lon="6.7892">
        <ele>1090</ele>
        <time>2016-07-03T07:50:28.000Z</time>
      </trkpt>
      <trkpt lat="46.29689" lon="6.7892">
        <ele>1089</ele>
        <time>2016-07-03T07:50:29.000Z</time>
      </trkpt>
      <trkpt lat="46.29681" lon="6.78917">
        <ele>1086</ele>
        <time>2016-07-03T07:50:36.000Z</time>
      </trkpt>
      <trkpt lat="46.2968" lon="6.78916">
        <ele>1086</ele>
        <time>2016-07-03T07:50:37.000Z</time>
      </trkpt>
      <trkpt lat="46.29673" lon="6.7891">
        <ele>1086</ele>
        <time>2016-07-03T07:50:43.000Z</time>
      </trkpt>
      <trkpt lat="46.29671" lon="6.7891">
        <ele>1086</ele>
        <time>2016-07-03T07:50:44.000Z</time>
      </trkpt>
      <trkpt lat="46.29663" lon="6.78906">
        <ele>1089</ele>
        <time>2016-07-03T07:50:53.000Z</time>
      </trkpt>
      <trkpt lat="46.2966" lon="6.78906">
        <ele>1090</ele>
        <time>2016-07-03T07:50:54.000Z</time>
      </trkpt>
      <trkpt lat="46.29652" lon="6.78902">
        <ele>1087</ele>
        <time>2016-07-03T07:51:01.000Z</time>
      </trkpt>
      <trkpt lat="46.2965" lon="6.78902">
        <ele>1088</ele>
        <time>2016-07-03T07:51:02.000Z</time>
      </trkpt>
      <trkpt lat="46.29643" lon="6.78895">
        <ele>1086</ele>
        <time>2016-07-03T07:51:08.000Z</time>
      </trkpt>
      <trkpt lat="46.29642" lon="6.78894">
        <ele>1087</ele>
        <time>2016-07-03T07:51:09.000Z</time>
      </trkpt>
      <trkpt lat="46.29635" lon="6.7889">
        <ele>1086</ele>
        <time>2016-07-03T07:51:14.000Z</time>
      </trkpt>
      <trkpt lat="46.29633" lon="6.78888">
        <ele>1086</ele>
        <time>2016-07-03T07:51:15.000Z</time>
      </trkpt>
      <trkpt lat="46.29627" lon="6.78884">
        <ele>1083</ele>
        <time>2016-07-03T07:51:21.000Z</time>
      </trkpt>
      <trkpt lat="46.29625" lon="6.78883">
        <ele>1084</ele>
        <time>2016-07-03T07:51:22.000Z</time>
      </trkpt>
      <trkpt lat="46.29617" lon="6.78879">
        <ele>1081</ele>
        <time>2016-07-03T07:51:29.000Z</time>
      </trkpt>
      <trkpt lat="46.29615" lon="6.78878">
        <ele>1080</ele>
        <time>2016-07-03T07:51:30.000Z</time>
      </trkpt>
      <trkpt lat="46.29607" lon="6.78875">
        <ele>1081</ele>
        <time>2016-07-03T07:51:35.000Z</time>
      </trkpt>
      <trkpt lat="46.29606" lon="6.78874">
        <ele>1082</ele>
        <time>2016-07-03T07:51:36.000Z</time>
      </trkpt>
      <trkpt lat="46.29598" lon="6.78869">
        <ele>1080</ele>
        <time>2016-07-03T07:51:40.000Z</time>
      </trkpt>
      <trkpt lat="46.29598" lon="6.78868">
        <ele>1080</ele>
        <time>2016-07-03T07:51:41.000Z</time>
      </trkpt>
      <trkpt lat="46.2959" lon="6.78864">
        <ele>1081</ele>
        <time>2016-07-03T07:51:47.000Z</time>
      </trkpt>
      <trkpt lat="46.29589" lon="6.78862">
        <ele>1081</ele>
        <time>2016-07-03T07:51:48.000Z</time>
      </trkpt>
      <trkpt lat="46.29582" lon="6.78858">
        <ele>1082</ele>
        <time>2016-07-03T07:51:54.000Z</time>
      </trkpt>
      <trkpt lat="46.29581" lon="6.78857">
        <ele>1082</ele>
        <time>2016-07-03T07:51:55.000Z</time>
      </trkpt>
      <trkpt lat="46.29575" lon="6.78851">
        <ele>1081</ele>
        <time>2016-07-03T07:52:02.000Z</time>
      </trkpt>
      <trkpt lat="46.29573" lon="6.7885">
        <ele>1081</ele>
        <time>2016-07-03T07:52:03.000Z</time>
      </trkpt>
      <trkpt lat="46.29565" lon="6.78847">
        <ele>1081</ele>
        <time>2016-07-03T07:52:09.000Z</time>
      </trkpt>
      <trkpt lat="46.29564" lon="6.78847">
        <ele>1081</ele>
        <time>2016-07-03T07:52:10.000Z</time>
      </trkpt>
      <trkpt lat="46.29556" lon="6.78841">
        <ele>1082</ele>
        <time>2016-07-03T07:52:16.000Z</time>
      </trkpt>
      <trkpt lat="46.29556" lon="6.7884">
        <ele>1080</ele>
        <time>2016-07-03T07:52:17.000Z</time>
      </trkpt>
      <trkpt lat="46.2955" lon="6.78831">
        <ele>1080</ele>
        <time>2016-07-03T07:52:36.000Z</time>
      </trkpt>
      <trkpt lat="46.29549" lon="6.7883">
        <ele>1080</ele>
        <time>2016-07-03T07:52:37.000Z</time>
      </trkpt>
      <trkpt lat="46.29542" lon="6.78824">
        <ele>1079</ele>
        <time>2016-07-03T07:52:44.000Z</time>
      </trkpt>
      <trkpt lat="46.29541" lon="6.78823">
        <ele>1078</ele>
        <time>2016-07-03T07:52:45.000Z</time>
      </trkpt>
      <trkpt lat="46.29544" lon="6.7882">
        <ele>1080</ele>
        <time>2016-07-03T07:53:57.000Z</time>
      </trkpt>
      <trkpt lat="46.29544" lon="6.78821">
        <ele>1080</ele>
        <time>2016-07-03T07:53:58.000Z</time>
      </trkpt>
      <trkpt lat="46.29545" lon="6.7882">
        <ele>1080</ele>
        <time>2016-07-03T07:54:02.000Z</time>
      </trkpt>
      <trkpt lat="46.29545" lon="6.7882">
        <ele>1080</ele>
        <time>2016-07-03T07:54:03.000Z</time>
      </trkpt>
      <trkpt lat="46.29544" lon="6.78816">
        <ele>1077</ele>
        <time>2016-07-03T08:06:05.000Z</time>
      </trkpt>
      <trkpt lat="46.29545" lon="6.78816">
        <ele>1077</ele>
        <time>2016-07-03T08:06:06.000Z</time>
      </trkpt>
      <trkpt lat="46.29542" lon="6.78818">
        <ele>1075</ele>
        <time>2016-07-03T08:06:58.000Z</time>
      </trkpt>
      <trkpt lat="46.29542" lon="6.78818">
        <ele>1075</ele>
        <time>2016-07-03T08:06:59.000Z</time>
      </trkpt>
      <trkpt lat="46.29546" lon="6.78806">
        <ele>1077</ele>
        <time>2016-07-03T08:07:48.000Z</time>
      </trkpt>
      <trkpt lat="46.29547" lon="6.78805">
        <ele>1076</ele>
        <time>2016-07-03T08:07:49.000Z</time>
      </trkpt>
      <trkpt lat="46.29551" lon="6.78795">
        <ele>1077</ele>
        <time>2016-07-03T08:07:56.000Z</time>
      </trkpt>
      <trkpt lat="46.29552" lon="6.78793">
        <ele>1077</ele>
        <time>2016-07-03T08:07:57.000Z</time>
      </trkpt>
      <trkpt lat="46.29558" lon="6.78784">
        <ele>1081</ele>
        <time>2016-07-03T08:08:02.000Z</time>
      </trkpt>
      <trkpt lat="46.2956" lon="6.78782">
        <ele>1080</ele>
        <time>2016-07-03T08:08:03.000Z</time>
      </trkpt>
      <trkpt lat="46.29562" lon="6.7877">
        <ele>1083</ele>
        <time>2016-07-03T08:08:09.000Z</time>
      </trkpt>
      <trkpt lat="46.29562" lon="6.78768">
        <ele>1085</ele>
        <time>2016-07-03T08:08:10.000Z</time>
      </trkpt>
      <trkpt lat="46.29562" lon="6.78757">
        <ele>1083</ele>
        <time>2016-07-03T08:08:15.000Z</time>
      </trkpt>
      <trkpt lat="46.29563" lon="6.78755">
        <ele>1083</ele>
        <time>2016-07-03T08:08:16.000Z</time>
      </trkpt>
      <trkpt lat="46.29565" lon="6.78742">
        <ele>1082</ele>
        <time>2016-07-03T08:08:22.000Z</time>
      </trkpt>
      <trkpt lat="46.29565" lon="6.78741">
        <ele>1081</ele>
        <time>2016-07-03T08:08:23.000Z</time>
      </trkpt>
      <trkpt lat="46.29565" lon="6.7873">
        <ele>1080</ele>
        <time>2016-07-03T08:08:29.000Z</time>
      </trkpt>
      <trkpt lat="46.29565" lon="6.78728">
        <ele>1081</ele>
        <time>2016-07-03T08:08:30.000Z</time>
      </trkpt>
      <trkpt lat="46.29566" lon="6.78715">
        <ele>1079</ele>
        <time>2016-07-03T08:08:36.000Z</time>
      </trkpt>
      <trkpt lat="46.29566" lon="6.78714">
        <ele>1079</ele>
        <time>2016-07-03T08:08:37.000Z</time>
      </trkpt>
      <trkpt lat="46.29567" lon="6.78702">
        <ele>1076</ele>
        <time>2016-07-03T08:08:43.000Z</time>
      </trkpt>
      <trkpt lat="46.29568" lon="6.787">
        <ele>1077</ele>
        <time>2016-07-03T08:08:44.000Z</time>
      </trkpt>
      <trkpt lat="46.29567" lon="6.78688">
        <ele>1077</ele>
        <time>2016-07-03T08:08:50.000Z</time>
      </trkpt>
      <trkpt lat="46.29566" lon="6.78686">
        <ele>1077</ele>
        <time>2016-07-03T08:08:51.000Z</time>
      </trkpt>
      <trkpt lat="46.29562" lon="6.78676">
        <ele>1073</ele>
        <time>2016-07-03T08:08:59.000Z</time>
      </trkpt>
      <trkpt lat="46.29562" lon="6.78674">
        <ele>1072</ele>
        <time>2016-07-03T08:09:00.000Z</time>
      </trkpt>
      <trkpt lat="46.29558" lon="6.78664">
        <ele>1070</ele>
        <time>2016-07-03T08:09:07.000Z</time>
      </trkpt>
      <trkpt lat="46.29559" lon="6.78662">
        <ele>1070</ele>
        <time>2016-07-03T08:09:08.000Z</time>
      </trkpt>
      <trkpt lat="46.29559" lon="6.78651">
        <ele>1068</ele>
        <time>2016-07-03T08:09:13.000Z</time>
      </trkpt>
      <trkpt lat="46.2956" lon="6.78649">
        <ele>1068</ele>
        <time>2016-07-03T08:09:14.000Z</time>
      </trkpt>
      <trkpt lat="46.29559" lon="6.78636">
        <ele>1070</ele>
        <time>2016-07-03T08:09:23.000Z</time>
      </trkpt>
      <trkpt lat="46.2956" lon="6.78634">
        <ele>1071</ele>
        <time>2016-07-03T08:09:24.000Z</time>
      </trkpt>
      <trkpt lat="46.29561" lon="6.78621">
        <ele>1070</ele>
        <time>2016-07-03T08:09:31.000Z</time>
      </trkpt>
      <trkpt lat="46.29561" lon="6.78619">
        <ele>1071</ele>
        <time>2016-07-03T08:09:32.000Z</time>
      </trkpt>
      <trkpt lat="46.29556" lon="6.78609">
        <ele>1070</ele>
        <time>2016-07-03T08:09:38.000Z</time>
      </trkpt>
      <trkpt lat="46.29555" lon="6.78608">
        <ele>1069</ele>
        <time>2016-07-03T08:09:39.000Z</time>
      </trkpt>
      <trkpt lat="46.29556" lon="6.78596">
        <ele>1070</ele>
        <time>2016-07-03T08:09:45.000Z</time>
      </trkpt>
      <trkpt lat="46.29556" lon="6.78595">
        <ele>1071</ele>
        <time>2016-07-03T08:09:46.000Z</time>
      </trkpt>
      <trkpt lat="46.29554" lon="6.78583">
        <ele>1071</ele>
        <time>2016-07-03T08:09:54.000Z</time>
      </trkpt>
      <trkpt lat="46.29555" lon="6.78581">
        <ele>1072</ele>
        <time>2016-07-03T08:09:55.000Z</time>
      </trkpt>
      <trkpt lat="46.29555" lon="6.78569">
        <ele>1070</ele>
        <time>2016-07-03T08:10:08.000Z</time>
      </trkpt>
      <trkpt lat="46.29556" lon="6.78568">
        <ele>1071</ele>
        <time>2016-07-03T08:10:09.000Z</time>
      </trkpt>
      <trkpt lat="46.29557" lon="6.78555">
        <ele>1073</ele>
        <time>2016-07-03T08:10:15.000Z</time>
      </trkpt>
      <trkpt lat="46.29559" lon="6.78551">
        <ele>1075</ele>
        <time>2016-07-03T08:10:16.000Z</time>
      </trkpt>
      <trkpt lat="46.29557" lon="6.78538">
        <ele>1071</ele>
        <time>2016-07-03T08:10:27.000Z</time>
      </trkpt>
      <trkpt lat="46.29556" lon="6.78537">
        <ele>1071</ele>
        <time>2016-07-03T08:10:28.000Z</time>
      </trkpt>
      <trkpt lat="46.29555" lon="6.78525">
        <ele>1068</ele>
        <time>2016-07-03T08:10:37.000Z</time>
      </trkpt>
      <trkpt lat="46.29555" lon="6.78523">
        <ele>1067</ele>
        <time>2016-07-03T08:10:38.000Z</time>
      </trkpt>
      <trkpt lat="46.29551" lon="6.78512">
        <ele>1065</ele>
        <time>2016-07-03T08:10:47.000Z</time>
      </trkpt>
      <trkpt lat="46.29551" lon="6.7851">
        <ele>1065</ele>
        <time>2016-07-03T08:10:48.000Z</time>
      </trkpt>
      <trkpt lat="46.29553" lon="6.78503">
        <ele>1072</ele>
        <time>2016-07-03T08:20:23.000Z</time>
      </trkpt>
      <trkpt lat="46.29553" lon="6.78503">
        <ele>1072</ele>
        <time>2016-07-03T08:20:24.000Z</time>
      </trkpt>
      <trkpt lat="46.29554" lon="6.78506">
        <ele>1074</ele>
        <time>2016-07-03T08:22:09.000Z</time>
      </trkpt>
      <trkpt lat="46.29554" lon="6.78506">
        <ele>1074</ele>
        <time>2016-07-03T08:22:10.000Z</time>
      </trkpt>
      <trkpt lat="46.29545" lon="6.78507">
        <ele>1072</ele>
        <time>2016-07-03T08:22:15.000Z</time>
      </trkpt>
      <trkpt lat="46.29545" lon="6.78507">
        <ele>1073</ele>
        <time>2016-07-03T08:22:16.000Z</time>
      </trkpt>
      <trkpt lat="46.29537" lon="6.78507">
        <ele>1068</ele>
        <time>2016-07-03T08:22:23.000Z</time>
      </trkpt>
      <trkpt lat="46.29535" lon="6.78507">
        <ele>1066</ele>
        <time>2016-07-03T08:22:24.000Z</time>
      </trkpt>
      <trkpt lat="46.29528" lon="6.78504">
        <ele>1064</ele>
        <time>2016-07-03T08:22:45.000Z</time>
      </trkpt>
      <trkpt lat="46.29527" lon="6.78505">
        <ele>1064</ele>
        <time>2016-07-03T08:22:46.000Z</time>
      </trkpt>
      <trkpt lat="46.29526" lon="6.78506">
        <ele>1062</ele>
        <time>2016-07-03T08:25:35.000Z</time>
      </trkpt>
      <trkpt lat="46.29526" lon="6.78506">
        <ele>1062</ele>
        <time>2016-07-03T08:25:36.000Z</time>
      </trkpt>
      <trkpt lat="46.29534" lon="6.78509">
        <ele>1066</ele>
        <time>2016-07-03T08:25:46.000Z</time>
      </trkpt>
      <trkpt lat="46.29535" lon="6.7851">
        <ele>1065</ele>
        <time>2016-07-03T08:25:47.000Z</time>
      </trkpt>
      <trkpt lat="46.29543" lon="6.78514">
        <ele>1069</ele>
        <time>2016-07-03T08:25:55.000Z</time>
      </trkpt>
      <trkpt lat="46.29544" lon="6.78514">
        <ele>1069</ele>
        <time>2016-07-03T08:25:56.000Z</time>
      </trkpt>
      <trkpt lat="46.29551" lon="6.78521">
        <ele>1069</ele>
        <time>2016-07-03T08:26:07.000Z</time>
      </trkpt>
      <trkpt lat="46.29551" lon="6.78523">
        <ele>1069</ele>
        <time>2016-07-03T08:26:08.000Z</time>
      </trkpt>
      <trkpt lat="46.29553" lon="6.78533">
        <ele>1072</ele>
        <time>2016-07-03T08:26:15.000Z</time>
      </trkpt>
      <trkpt lat="46.29552" lon="6.78536">
        <ele>1071</ele>
        <time>2016-07-03T08:26:16.000Z</time>
      </trkpt>
      <trkpt lat="46.29552" lon="6.78548">
        <ele>1074</ele>
        <time>2016-07-03T08:26:23.000Z</time>
      </trkpt>
      <trkpt lat="46.29552" lon="6.78549">
        <ele>1074</ele>
        <time>2016-07-03T08:26:24.000Z</time>
      </trkpt>
      <trkpt lat="46.29554" lon="6.78561">
        <ele>1078</ele>
        <time>2016-07-03T08:26:33.000Z</time>
      </trkpt>
      <trkpt lat="46.29555" lon="6.78563">
        <ele>1077</ele>
        <time>2016-07-03T08:26:34.000Z</time>
      </trkpt>
      <trkpt lat="46.29558" lon="6.78574">
        <ele>1076</ele>
        <time>2016-07-03T08:26:40.000Z</time>
      </trkpt>
      <trkpt lat="46.29559" lon="6.78577">
        <ele>1075</ele>
        <time>2016-07-03T08:26:41.000Z</time>
      </trkpt>
      <trkpt lat="46.29556" lon="6.78587">
        <ele>1077</ele>
        <time>2016-07-03T08:26:48.000Z</time>
      </trkpt>
      <trkpt lat="46.29556" lon="6.78589">
        <ele>1079</ele>
        <time>2016-07-03T08:26:49.000Z</time>
      </trkpt>
      <trkpt lat="46.29557" lon="6.78599">
        <ele>1079</ele>
        <time>2016-07-03T08:26:55.000Z</time>
      </trkpt>
      <trkpt lat="46.29557" lon="6.78602">
        <ele>1079</ele>
        <time>2016-07-03T08:26:56.000Z</time>
      </trkpt>
      <trkpt lat="46.29557" lon="6.78612">
        <ele>1078</ele>
        <time>2016-07-03T08:27:01.000Z</time>
      </trkpt>
      <trkpt lat="46.29557" lon="6.78615">
        <ele>1078</ele>
        <time>2016-07-03T08:27:02.000Z</time>
      </trkpt>
      <trkpt lat="46.29559" lon="6.78627">
        <ele>1076</ele>
        <time>2016-07-03T08:27:11.000Z</time>
      </trkpt>
      <trkpt lat="46.29559" lon="6.78629">
        <ele>1075</ele>
        <time>2016-07-03T08:27:12.000Z</time>
      </trkpt>
      <trkpt lat="46.29562" lon="6.78639">
        <ele>1080</ele>
        <time>2016-07-03T08:27:19.000Z</time>
      </trkpt>
      <trkpt lat="46.29561" lon="6.78642">
        <ele>1078</ele>
        <time>2016-07-03T08:27:20.000Z</time>
      </trkpt>
      <trkpt lat="46.29559" lon="6.78654">
        <ele>1077</ele>
        <time>2016-07-03T08:27:26.000Z</time>
      </trkpt>
      <trkpt lat="46.29558" lon="6.78656">
        <ele>1077</ele>
        <time>2016-07-03T08:27:27.000Z</time>
      </trkpt>
      <trkpt lat="46.29562" lon="6.78666">
        <ele>1080</ele>
        <time>2016-07-03T08:27:33.000Z</time>
      </trkpt>
      <trkpt lat="46.29561" lon="6.78668">
        <ele>1079</ele>
        <time>2016-07-03T08:27:34.000Z</time>
      </trkpt>
      <trkpt lat="46.29561" lon="6.78681">
        <ele>1080</ele>
        <time>2016-07-03T08:27:41.000Z</time>
      </trkpt>
      <trkpt lat="46.29561" lon="6.78685">
        <ele>1080</ele>
        <time>2016-07-03T08:27:42.000Z</time>
      </trkpt>
      <trkpt lat="46.29563" lon="6.78696">
        <ele>1084</ele>
        <time>2016-07-03T08:27:50.000Z</time>
      </trkpt>
      <trkpt lat="46.29563" lon="6.78699">
        <ele>1084</ele>
        <time>2016-07-03T08:27:51.000Z</time>
      </trkpt>
      <trkpt lat="46.29565" lon="6.78711">
        <ele>1086</ele>
        <time>2016-07-03T08:28:00.000Z</time>
      </trkpt>
      <trkpt lat="46.29564" lon="6.78712">
        <ele>1085</ele>
        <time>2016-07-03T08:28:01.000Z</time>
      </trkpt>
      <trkpt lat="46.29563" lon="6.78721">
        <ele>1083</ele>
        <time>2016-07-03T08:28:06.000Z</time>
      </trkpt>
      <trkpt lat="46.29561" lon="6.78725">
        <ele>1085</ele>
        <time>2016-07-03T08:28:07.000Z</time>
      </trkpt>
      <trkpt lat="46.29557" lon="6.78737">
        <ele>1087</ele>
        <time>2016-07-03T08:28:11.000Z</time>
      </trkpt>
      <trkpt lat="46.29557" lon="6.78739">
        <ele>1087</ele>
        <time>2016-07-03T08:28:12.000Z</time>
      </trkpt>
      <trkpt lat="46.29556" lon="6.7875">
        <ele>1083</ele>
        <time>2016-07-03T08:28:17.000Z</time>
      </trkpt>
      <trkpt lat="46.29555" lon="6.78752">
        <ele>1083</ele>
        <time>2016-07-03T08:28:18.000Z</time>
      </trkpt>
      <trkpt lat="46.29553" lon="6.78764">
        <ele>1084</ele>
        <time>2016-07-03T08:28:25.000Z</time>
      </trkpt>
      <trkpt lat="46.29553" lon="6.78765">
        <ele>1084</ele>
        <time>2016-07-03T08:28:26.000Z</time>
      </trkpt>
      <trkpt lat="46.29553" lon="6.78777">
        <ele>1085</ele>
        <time>2016-07-03T08:28:32.000Z</time>
      </trkpt>
      <trkpt lat="46.29553" lon="6.7878">
        <ele>1085</ele>
        <time>2016-07-03T08:28:33.000Z</time>
      </trkpt>
      <trkpt lat="46.29549" lon="6.78791">
        <ele>1083</ele>
        <time>2016-07-03T08:28:39.000Z</time>
      </trkpt>
      <trkpt lat="46.29549" lon="6.78795">
        <ele>1084</ele>
        <time>2016-07-03T08:28:40.000Z</time>
      </trkpt>
      <trkpt lat="46.29547" lon="6.78804">
        <ele>1084</ele>
        <time>2016-07-03T08:28:46.000Z</time>
      </trkpt>
      <trkpt lat="46.29543" lon="6.78805">
        <ele>1081</ele>
        <time>2016-07-03T08:28:47.000Z</time>
      </trkpt>
      <trkpt lat="46.2954" lon="6.78816">
        <ele>1076</ele>
        <time>2016-07-03T08:28:54.000Z</time>
      </trkpt>
      <trkpt lat="46.2954" lon="6.78818">
        <ele>1076</ele>
        <time>2016-07-03T08:28:55.000Z</time>
      </trkpt>
      <trkpt lat="46.29536" lon="6.78827">
        <ele>1074</ele>
        <time>2016-07-03T08:29:01.000Z</time>
      </trkpt>
      <trkpt lat="46.29536" lon="6.7883">
        <ele>1074</ele>
        <time>2016-07-03T08:29:02.000Z</time>
      </trkpt>
      <trkpt lat="46.29535" lon="6.78841">
        <ele>1072</ele>
        <time>2016-07-03T08:29:10.000Z</time>
      </trkpt>
      <trkpt lat="46.29532" lon="6.78843">
        <ele>1072</ele>
        <time>2016-07-03T08:29:11.000Z</time>
      </trkpt>
      <trkpt lat="46.2953" lon="6.78854">
        <ele>1071</ele>
        <time>2016-07-03T08:29:20.000Z</time>
      </trkpt>
      <trkpt lat="46.29528" lon="6.78858">
        <ele>1072</ele>
        <time>2016-07-03T08:29:21.000Z</time>
      </trkpt>
      <trkpt lat="46.29527" lon="6.78869">
        <ele>1073</ele>
        <time>2016-07-03T08:29:25.000Z</time>
      </trkpt>
      <trkpt lat="46.29526" lon="6.78872">
        <ele>1073</ele>
        <time>2016-07-03T08:29:26.000Z</time>
      </trkpt>
      <trkpt lat="46.29524" lon="6.78884">
        <ele>1073</ele>
        <time>2016-07-03T08:29:32.000Z</time>
      </trkpt>
      <trkpt lat="46.29524" lon="6.78885">
        <ele>1074</ele>
        <time>2016-07-03T08:29:33.000Z</time>
      </trkpt>
      <trkpt lat="46.29521" lon="6.78896">
        <ele>1076</ele>
        <time>2016-07-03T08:29:39.000Z</time>
      </trkpt>
      <trkpt lat="46.29521" lon="6.78897">
        <ele>1076</ele>
        <time>2016-07-03T08:29:40.000Z</time>
      </trkpt>
      <trkpt lat="46.29519" lon="6.78908">
        <ele>1076</ele>
        <time>2016-07-03T08:29:45.000Z</time>
      </trkpt>
      <trkpt lat="46.29519" lon="6.7891">
        <ele>1076</ele>
        <time>2016-07-03T08:29:46.000Z</time>
      </trkpt>
      <trkpt lat="46.29516" lon="6.7892">
        <ele>1077</ele>
        <time>2016-07-03T08:29:52.000Z</time>
      </trkpt>
      <trkpt lat="46.29514" lon="6.78922">
        <ele>1077</ele>
        <time>2016-07-03T08:29:53.000Z</time>
      </trkpt>
      <trkpt lat="46.29511" lon="6.78932">
        <ele>1075</ele>
        <time>2016-07-03T08:29:58.000Z</time>
      </trkpt>
      <trkpt lat="46.2951" lon="6.78934">
        <ele>1074</ele>
        <time>2016-07-03T08:29:59.000Z</time>
      </trkpt>
      <trkpt lat="46.29508" lon="6.78945">
        <ele>1075</ele>
        <time>2016-07-03T08:30:05.000Z</time>
      </trkpt>
      <trkpt lat="46.29508" lon="6.78947">
        <ele>1074</ele>
        <time>2016-07-03T08:30:06.000Z</time>
      </trkpt>
      <trkpt lat="46.2951" lon="6.78959">
        <ele>1076</ele>
        <time>2016-07-03T08:30:13.000Z</time>
      </trkpt>
      <trkpt lat="46.29509" lon="6.7896">
        <ele>1076</ele>
        <time>2016-07-03T08:30:14.000Z</time>
      </trkpt>
      <trkpt lat="46.29507" lon="6.78971">
        <ele>1076</ele>
        <time>2016-07-03T08:30:20.000Z</time>
      </trkpt>
      <trkpt lat="46.29507" lon="6.78973">
        <ele>1076</ele>
        <time>2016-07-03T08:30:21.000Z</time>
      </trkpt>
      <trkpt lat="46.29507" lon="6.78984">
        <ele>1076</ele>
        <time>2016-07-03T08:30:28.000Z</time>
      </trkpt>
      <trkpt lat="46.29507" lon="6.78986">
        <ele>1077</ele>
        <time>2016-07-03T08:30:29.000Z</time>
      </trkpt>
      <trkpt lat="46.29506" lon="6.78997">
        <ele>1079</ele>
        <time>2016-07-03T08:30:36.000Z</time>
      </trkpt>
      <trkpt lat="46.29506" lon="6.78999">
        <ele>1079</ele>
        <time>2016-07-03T08:30:37.000Z</time>
      </trkpt>
      <trkpt lat="46.29501" lon="6.79008">
        <ele>1075</ele>
        <time>2016-07-03T08:30:41.000Z</time>
      </trkpt>
      <trkpt lat="46.29498" lon="6.79011">
        <ele>1073</ele>
        <time>2016-07-03T08:30:42.000Z</time>
      </trkpt>
      <trkpt lat="46.29501" lon="6.79023">
        <ele>1078</ele>
        <time>2016-07-03T08:30:49.000Z</time>
      </trkpt>
      <trkpt lat="46.29501" lon="6.79025">
        <ele>1077</ele>
        <time>2016-07-03T08:30:50.000Z</time>
      </trkpt>
      <trkpt lat="46.29501" lon="6.79037">
        <ele>1077</ele>
        <time>2016-07-03T08:30:55.000Z</time>
      </trkpt>
      <trkpt lat="46.29502" lon="6.79038">
        <ele>1079</ele>
        <time>2016-07-03T08:30:56.000Z</time>
      </trkpt>
      <trkpt lat="46.29503" lon="6.79051">
        <ele>1081</ele>
        <time>2016-07-03T08:31:03.000Z</time>
      </trkpt>
      <trkpt lat="46.29502" lon="6.79053">
        <ele>1079</ele>
        <time>2016-07-03T08:31:04.000Z</time>
      </trkpt>
      <trkpt lat="46.29497" lon="6.79062">
        <ele>1077</ele>
        <time>2016-07-03T08:31:10.000Z</time>
      </trkpt>
      <trkpt lat="46.29497" lon="6.79064">
        <ele>1077</ele>
        <time>2016-07-03T08:31:11.000Z</time>
      </trkpt>
      <trkpt lat="46.29494" lon="6.79076">
        <ele>1077</ele>
        <time>2016-07-03T08:31:17.000Z</time>
      </trkpt>
      <trkpt lat="46.29494" lon="6.79078">
        <ele>1077</ele>
        <time>2016-07-03T08:31:18.000Z</time>
      </trkpt>
      <trkpt lat="46.29494" lon="6.79088">
        <ele>1076</ele>
        <time>2016-07-03T08:31:25.000Z</time>
      </trkpt>
      <trkpt lat="46.29493" lon="6.79091">
        <ele>1076</ele>
        <time>2016-07-03T08:31:26.000Z</time>
      </trkpt>
      <trkpt lat="46.29491" lon="6.791">
        <ele>1075</ele>
        <time>2016-07-03T08:31:32.000Z</time>
      </trkpt>
      <trkpt lat="46.29489" lon="6.79103">
        <ele>1075</ele>
        <time>2016-07-03T08:31:33.000Z</time>
      </trkpt>
      <trkpt lat="46.29486" lon="6.79114">
        <ele>1077</ele>
        <time>2016-07-03T08:31:40.000Z</time>
      </trkpt>
      <trkpt lat="46.29485" lon="6.79116">
        <ele>1076</ele>
        <time>2016-07-03T08:31:41.000Z</time>
      </trkpt>
      <trkpt lat="46.29481" lon="6.79128">
        <ele>1078</ele>
        <time>2016-07-03T08:31:47.000Z</time>
      </trkpt>
      <trkpt lat="46.29481" lon="6.79129">
        <ele>1077</ele>
        <time>2016-07-03T08:31:48.000Z</time>
      </trkpt>
      <trkpt lat="46.29476" lon="6.79139">
        <ele>1077</ele>
        <time>2016-07-03T08:31:55.000Z</time>
      </trkpt>
      <trkpt lat="46.29476" lon="6.79143">
        <ele>1075</ele>
        <time>2016-07-03T08:31:56.000Z</time>
      </trkpt>
      <trkpt lat="46.29475" lon="6.79153">
        <ele>1079</ele>
        <time>2016-07-03T08:32:01.000Z</time>
      </trkpt>
      <trkpt lat="46.29472" lon="6.79157">
        <ele>1079</ele>
        <time>2016-07-03T08:32:02.000Z</time>
      </trkpt>
      <trkpt lat="46.2947" lon="6.79168">
        <ele>1081</ele>
        <time>2016-07-03T08:32:09.000Z</time>
      </trkpt>
      <trkpt lat="46.29469" lon="6.79171">
        <ele>1081</ele>
        <time>2016-07-03T08:32:10.000Z</time>
      </trkpt>
      <trkpt lat="46.29466" lon="6.79182">
        <ele>1079</ele>
        <time>2016-07-03T08:32:18.000Z</time>
      </trkpt>
      <trkpt lat="46.29466" lon="6.79183">
        <ele>1078</ele>
        <time>2016-07-03T08:32:19.000Z</time>
      </trkpt>
      <trkpt lat="46.29462" lon="6.79194">
        <ele>1079</ele>
        <time>2016-07-03T08:32:26.000Z</time>
      </trkpt>
      <trkpt lat="46.2946" lon="6.79195">
        <ele>1079</ele>
        <time>2016-07-03T08:32:27.000Z</time>
      </trkpt>
      <trkpt lat="46.29454" lon="6.79204">
        <ele>1081</ele>
        <time>2016-07-03T08:32:33.000Z</time>
      </trkpt>
      <trkpt lat="46.29454" lon="6.79206">
        <ele>1081</ele>
        <time>2016-07-03T08:32:34.000Z</time>
      </trkpt>
      <trkpt lat="46.2945" lon="6.79215">
        <ele>1079</ele>
        <time>2016-07-03T08:32:45.000Z</time>
      </trkpt>
      <trkpt lat="46.2945" lon="6.79219">
        <ele>1079</ele>
        <time>2016-07-03T08:32:46.000Z</time>
      </trkpt>
      <trkpt lat="46.29445" lon="6.79228">
        <ele>1078</ele>
        <time>2016-07-03T08:32:52.000Z</time>
      </trkpt>
      <trkpt lat="46.29444" lon="6.7923">
        <ele>1078</ele>
        <time>2016-07-03T08:32:53.000Z</time>
      </trkpt>
      <trkpt lat="46.29438" lon="6.79239">
        <ele>1078</ele>
        <time>2016-07-03T08:32:59.000Z</time>
      </trkpt>
      <trkpt lat="46.29437" lon="6.7924">
        <ele>1079</ele>
        <time>2016-07-03T08:33:00.000Z</time>
      </trkpt>
      <trkpt lat="46.2943" lon="6.79247">
        <ele>1080</ele>
        <time>2016-07-03T08:33:07.000Z</time>
      </trkpt>
      <trkpt lat="46.29429" lon="6.79248">
        <ele>1079</ele>
        <time>2016-07-03T08:33:08.000Z</time>
      </trkpt>
      <trkpt lat="46.29425" lon="6.79258">
        <ele>1078</ele>
        <time>2016-07-03T08:33:13.000Z</time>
      </trkpt>
      <trkpt lat="46.29424" lon="6.7926">
        <ele>1078</ele>
        <time>2016-07-03T08:33:14.000Z</time>
      </trkpt>
      <trkpt lat="46.2942" lon="6.79269">
        <ele>1077</ele>
        <time>2016-07-03T08:33:20.000Z</time>
      </trkpt>
      <trkpt lat="46.29418" lon="6.7927">
        <ele>1079</ele>
        <time>2016-07-03T08:33:21.000Z</time>
      </trkpt>
      <trkpt lat="46.29415" lon="6.79281">
        <ele>1078</ele>
        <time>2016-07-03T08:33:27.000Z</time>
      </trkpt>
      <trkpt lat="46.29414" lon="6.79282">
        <ele>1078</ele>
        <time>2016-07-03T08:33:28.000Z</time>
      </trkpt>
      <trkpt lat="46.29409" lon="6.7929">
        <ele>1079</ele>
        <time>2016-07-03T08:33:33.000Z</time>
      </trkpt>
      <trkpt lat="46.29408" lon="6.79292">
        <ele>1079</ele>
        <time>2016-07-03T08:33:34.000Z</time>
      </trkpt>
      <trkpt lat="46.29403" lon="6.79303">
        <ele>1078</ele>
        <time>2016-07-03T08:33:41.000Z</time>
      </trkpt>
      <trkpt lat="46.29403" lon="6.79304">
        <ele>1078</ele>
        <time>2016-07-03T08:33:42.000Z</time>
      </trkpt>
      <trkpt lat="46.294" lon="6.79315">
        <ele>1076</ele>
        <time>2016-07-03T08:33:47.000Z</time>
      </trkpt>
      <trkpt lat="46.29398" lon="6.79318">
        <ele>1076</ele>
        <time>2016-07-03T08:33:48.000Z</time>
      </trkpt>
      <trkpt lat="46.29391" lon="6.79323">
        <ele>1079</ele>
        <time>2016-07-03T08:33:55.000Z</time>
      </trkpt>
      <trkpt lat="46.2939" lon="6.79327">
        <ele>1079</ele>
        <time>2016-07-03T08:33:56.000Z</time>
      </trkpt>
      <trkpt lat="46.29385" lon="6.79337">
        <ele>1079</ele>
        <time>2016-07-03T08:34:02.000Z</time>
      </trkpt>
      <trkpt lat="46.29385" lon="6.79338">
        <ele>1079</ele>
        <time>2016-07-03T08:34:03.000Z</time>
      </trkpt>
      <trkpt lat="46.2938" lon="6.79348">
        <ele>1080</ele>
        <time>2016-07-03T08:34:10.000Z</time>
      </trkpt>
      <trkpt lat="46.2938" lon="6.79349">
        <ele>1081</ele>
        <time>2016-07-03T08:34:11.000Z</time>
      </trkpt>
      <trkpt lat="46.29374" lon="6.79357">
        <ele>1075</ele>
        <time>2016-07-03T08:34:17.000Z</time>
      </trkpt>
      <trkpt lat="46.29374" lon="6.7936">
        <ele>1075</ele>
        <time>2016-07-03T08:34:18.000Z</time>
      </trkpt>
      <trkpt lat="46.29369" lon="6.79371">
        <ele>1076</ele>
        <time>2016-07-03T08:34:24.000Z</time>
      </trkpt>
      <trkpt lat="46.29368" lon="6.79371">
        <ele>1074</ele>
        <time>2016-07-03T08:34:25.000Z</time>
      </trkpt>
      <trkpt lat="46.29359" lon="6.79372">
        <ele>1076</ele>
        <time>2016-07-03T08:34:33.000Z</time>
      </trkpt>
      <trkpt lat="46.29359" lon="6.79373">
        <ele>1075</ele>
        <time>2016-07-03T08:34:34.000Z</time>
      </trkpt>
      <trkpt lat="46.29354" lon="6.79363">
        <ele>1077</ele>
        <time>2016-07-03T08:35:36.000Z</time>
      </trkpt>
      <trkpt lat="46.29353" lon="6.79362">
        <ele>1076</ele>
        <time>2016-07-03T08:35:37.000Z</time>
      </trkpt>
      <trkpt lat="46.29345" lon="6.79358">
        <ele>1073</ele>
        <time>2016-07-03T08:35:42.000Z</time>
      </trkpt>
      <trkpt lat="46.29344" lon="6.79358">
        <ele>1072</ele>
        <time>2016-07-03T08:35:43.000Z</time>
      </trkpt>
      <trkpt lat="46.29335" lon="6.79356">
        <ele>1070</ele>
        <time>2016-07-03T08:35:48.000Z</time>
      </trkpt>
      <trkpt lat="46.29333" lon="6.79355">
        <ele>1069</ele>
        <time>2016-07-03T08:35:49.000Z</time>
      </trkpt>
      <trkpt lat="46.29327" lon="6.79347">
        <ele>1076</ele>
        <time>2016-07-03T08:35:54.000Z</time>
      </trkpt>
      <trkpt lat="46.29325" lon="6.79345">
        <ele>1075</ele>
        <time>2016-07-03T08:35:55.000Z</time>
      </trkpt>
      <trkpt lat="46.29318" lon="6.79343">
        <ele>1075</ele>
        <time>2016-07-03T08:36:01.000Z</time>
      </trkpt>
      <trkpt lat="46.29317" lon="6.79342">
        <ele>1076</ele>
        <time>2016-07-03T08:36:02.000Z</time>
      </trkpt>
      <trkpt lat="46.29308" lon="6.79347">
        <ele>1072</ele>
        <time>2016-07-03T08:36:08.000Z</time>
      </trkpt>
      <trkpt lat="46.29307" lon="6.79345">
        <ele>1073</ele>
        <time>2016-07-03T08:36:09.000Z</time>
      </trkpt>
      <trkpt lat="46.29298" lon="6.79344">
        <ele>1069</ele>
        <time>2016-07-03T08:36:15.000Z</time>
      </trkpt>
      <trkpt lat="46.29297" lon="6.79344">
        <ele>1068</ele>
        <time>2016-07-03T08:36:16.000Z</time>
      </trkpt>
      <trkpt lat="46.29289" lon="6.7934">
        <ele>1070</ele>
        <time>2016-07-03T08:36:24.000Z</time>
      </trkpt>
      <trkpt lat="46.29288" lon="6.79339">
        <ele>1070</ele>
        <time>2016-07-03T08:36:25.000Z</time>
      </trkpt>
      <trkpt lat="46.29279" lon="6.79336">
        <ele>1067</ele>
        <time>2016-07-03T08:36:30.000Z</time>
      </trkpt>
      <trkpt lat="46.29278" lon="6.79334">
        <ele>1066</ele>
        <time>2016-07-03T08:36:31.000Z</time>
      </trkpt>
      <trkpt lat="46.29269" lon="6.79333">
        <ele>1068</ele>
        <time>2016-07-03T08:36:37.000Z</time>
      </trkpt>
      <trkpt lat="46.29268" lon="6.79332">
        <ele>1068</ele>
        <time>2016-07-03T08:36:38.000Z</time>
      </trkpt>
      <trkpt lat="46.29259" lon="6.79329">
        <ele>1064</ele>
        <time>2016-07-03T08:36:43.000Z</time>
      </trkpt>
      <trkpt lat="46.29259" lon="6.79327">
        <ele>1066</ele>
        <time>2016-07-03T08:36:44.000Z</time>
      </trkpt>
      <trkpt lat="46.2925" lon="6.79327">
        <ele>1068</ele>
        <time>2016-07-03T08:36:50.000Z</time>
      </trkpt>
      <trkpt lat="46.29249" lon="6.79327">
        <ele>1068</ele>
        <time>2016-07-03T08:36:51.000Z</time>
      </trkpt>
      <trkpt lat="46.29241" lon="6.79326">
        <ele>1067</ele>
        <time>2016-07-03T08:36:57.000Z</time>
      </trkpt>
      <trkpt lat="46.2924" lon="6.79324">
        <ele>1066</ele>
        <time>2016-07-03T08:36:58.000Z</time>
      </trkpt>
      <trkpt lat="46.29231" lon="6.79322">
        <ele>1062</ele>
        <time>2016-07-03T08:37:03.000Z</time>
      </trkpt>
      <trkpt lat="46.2923" lon="6.7932">
        <ele>1062</ele>
        <time>2016-07-03T08:37:04.000Z</time>
      </trkpt>
      <trkpt lat="46.29224" lon="6.79315">
        <ele>1062</ele>
        <time>2016-07-03T08:37:10.000Z</time>
      </trkpt>
      <trkpt lat="46.29222" lon="6.79314">
        <ele>1062</ele>
        <time>2016-07-03T08:37:11.000Z</time>
      </trkpt>
      <trkpt lat="46.29216" lon="6.79309">
        <ele>1060</ele>
        <time>2016-07-03T08:37:16.000Z</time>
      </trkpt>
      <trkpt lat="46.29214" lon="6.79308">
        <ele>1061</ele>
        <time>2016-07-03T08:37:17.000Z</time>
      </trkpt>
      <trkpt lat="46.29209" lon="6.79302">
        <ele>1061</ele>
        <time>2016-07-03T08:37:21.000Z</time>
      </trkpt>
      <trkpt lat="46.29207" lon="6.793">
        <ele>1061</ele>
        <time>2016-07-03T08:37:22.000Z</time>
      </trkpt>
      <trkpt lat="46.29201" lon="6.79291">
        <ele>1063</ele>
        <time>2016-07-03T08:37:27.000Z</time>
      </trkpt>
      <trkpt lat="46.292" lon="6.79291">
        <ele>1063</ele>
        <time>2016-07-03T08:37:28.000Z</time>
      </trkpt>
      <trkpt lat="46.29192" lon="6.79295">
        <ele>1057</ele>
        <time>2016-07-03T08:37:34.000Z</time>
      </trkpt>
      <trkpt lat="46.29191" lon="6.79294">
        <ele>1056</ele>
        <time>2016-07-03T08:37:35.000Z</time>
      </trkpt>
      <trkpt lat="46.29185" lon="6.79287">
        <ele>1055</ele>
        <time>2016-07-03T08:37:40.000Z</time>
      </trkpt>
      <trkpt lat="46.29183" lon="6.79286">
        <ele>1056</ele>
        <time>2016-07-03T08:37:41.000Z</time>
      </trkpt>
      <trkpt lat="46.29174" lon="6.79287">
        <ele>1055</ele>
        <time>2016-07-03T08:37:47.000Z</time>
      </trkpt>
      <trkpt lat="46.29173" lon="6.79287">
        <ele>1055</ele>
        <time>2016-07-03T08:37:48.000Z</time>
      </trkpt>
      <trkpt lat="46.29165" lon="6.79286">
        <ele>1056</ele>
        <time>2016-07-03T08:37:54.000Z</time>
      </trkpt>
      <trkpt lat="46.29163" lon="6.79283">
        <ele>1057</ele>
        <time>2016-07-03T08:37:55.000Z</time>
      </trkpt>
      <trkpt lat="46.29156" lon="6.79279">
        <ele>1057</ele>
        <time>2016-07-03T08:38:00.000Z</time>
      </trkpt>
      <trkpt lat="46.29155" lon="6.79278">
        <ele>1057</ele>
        <time>2016-07-03T08:38:01.000Z</time>
      </trkpt>
      <trkpt lat="46.29147" lon="6.79275">
        <ele>1056</ele>
        <time>2016-07-03T08:38:06.000Z</time>
      </trkpt>
      <trkpt lat="46.29147" lon="6.79269">
        <ele>1059</ele>
        <time>2016-07-03T08:38:07.000Z</time>
      </trkpt>
      <trkpt lat="46.2914" lon="6.79263">
        <ele>1062</ele>
        <time>2016-07-03T08:38:12.000Z</time>
      </trkpt>
      <trkpt lat="46.29139" lon="6.79263">
        <ele>1062</ele>
        <time>2016-07-03T08:38:13.000Z</time>
      </trkpt>
      <trkpt lat="46.2913" lon="6.79268">
        <ele>1060</ele>
        <time>2016-07-03T08:38:19.000Z</time>
      </trkpt>
      <trkpt lat="46.29129" lon="6.79269">
        <ele>1059</ele>
        <time>2016-07-03T08:38:20.000Z</time>
      </trkpt>
      <trkpt lat="46.29123" lon="6.79277">
        <ele>1054</ele>
        <time>2016-07-03T08:38:24.000Z</time>
      </trkpt>
      <trkpt lat="46.29122" lon="6.79279">
        <ele>1054</ele>
        <time>2016-07-03T08:38:25.000Z</time>
      </trkpt>
      <trkpt lat="46.29116" lon="6.79289">
        <ele>1057</ele>
        <time>2016-07-03T08:38:31.000Z</time>
      </trkpt>
      <trkpt lat="46.29115" lon="6.79291">
        <ele>1057</ele>
        <time>2016-07-03T08:38:32.000Z</time>
      </trkpt>
      <trkpt lat="46.2911" lon="6.79301">
        <ele>1057</ele>
        <time>2016-07-03T08:38:38.000Z</time>
      </trkpt>
      <trkpt lat="46.29109" lon="6.79303">
        <ele>1056</ele>
        <time>2016-07-03T08:38:39.000Z</time>
      </trkpt>
      <trkpt lat="46.29105" lon="6.79314">
        <ele>1056</ele>
        <time>2016-07-03T08:38:46.000Z</time>
      </trkpt>
      <trkpt lat="46.29104" lon="6.79315">
        <ele>1056</ele>
        <time>2016-07-03T08:38:47.000Z</time>
      </trkpt>
      <trkpt lat="46.29105" lon="6.79327">
        <ele>1053</ele>
        <time>2016-07-03T08:38:51.000Z</time>
      </trkpt>
      <trkpt lat="46.29106" lon="6.79329">
        <ele>1053</ele>
        <time>2016-07-03T08:38:52.000Z</time>
      </trkpt>
      <trkpt lat="46.29104" lon="6.79342">
        <ele>1051</ele>
        <time>2016-07-03T08:38:58.000Z</time>
      </trkpt>
      <trkpt lat="46.29105" lon="6.79343">
        <ele>1050</ele>
        <time>2016-07-03T08:38:59.000Z</time>
      </trkpt>
      <trkpt lat="46.29108" lon="6.79354">
        <ele>1053</ele>
        <time>2016-07-03T08:39:03.000Z</time>
      </trkpt>
      <trkpt lat="46.29109" lon="6.79355">
        <ele>1053</ele>
        <time>2016-07-03T08:39:04.000Z</time>
      </trkpt>
      <trkpt lat="46.29114" lon="6.79366">
        <ele>1052</ele>
        <time>2016-07-03T08:39:11.000Z</time>
      </trkpt>
      <trkpt lat="46.29116" lon="6.79368">
        <ele>1053</ele>
        <time>2016-07-03T08:39:12.000Z</time>
      </trkpt>
      <trkpt lat="46.29118" lon="6.7938">
        <ele>1052</ele>
        <time>2016-07-03T08:39:20.000Z</time>
      </trkpt>
      <trkpt lat="46.29119" lon="6.79381">
        <ele>1051</ele>
        <time>2016-07-03T08:39:21.000Z</time>
      </trkpt>
      <trkpt lat="46.29122" lon="6.79393">
        <ele>1053</ele>
        <time>2016-07-03T08:39:26.000Z</time>
      </trkpt>
      <trkpt lat="46.29123" lon="6.79397">
        <ele>1055</ele>
        <time>2016-07-03T08:39:27.000Z</time>
      </trkpt>
      <trkpt lat="46.29123" lon="6.79409">
        <ele>1058</ele>
        <time>2016-07-03T08:39:33.000Z</time>
      </trkpt>
      <trkpt lat="46.29123" lon="6.7941">
        <ele>1059</ele>
        <time>2016-07-03T08:39:34.000Z</time>
      </trkpt>
      <trkpt lat="46.29122" lon="6.79421">
        <ele>1056</ele>
        <time>2016-07-03T08:39:42.000Z</time>
      </trkpt>
      <trkpt lat="46.2912" lon="6.79423">
        <ele>1056</ele>
        <time>2016-07-03T08:39:43.000Z</time>
      </trkpt>
      <trkpt lat="46.29116" lon="6.79432">
        <ele>1056</ele>
        <time>2016-07-03T08:39:50.000Z</time>
      </trkpt>
      <trkpt lat="46.29115" lon="6.79435">
        <ele>1054</ele>
        <time>2016-07-03T08:39:51.000Z</time>
      </trkpt>
      <trkpt lat="46.29112" lon="6.79446">
        <ele>1055</ele>
        <time>2016-07-03T08:39:57.000Z</time>
      </trkpt>
      <trkpt lat="46.29111" lon="6.79448">
        <ele>1055</ele>
        <time>2016-07-03T08:39:58.000Z</time>
      </trkpt>
      <trkpt lat="46.29107" lon="6.79459">
        <ele>1056</ele>
        <time>2016-07-03T08:40:03.000Z</time>
      </trkpt>
      <trkpt lat="46.29105" lon="6.79461">
        <ele>1055</ele>
        <time>2016-07-03T08:40:04.000Z</time>
      </trkpt>
      <trkpt lat="46.291" lon="6.79469">
        <ele>1056</ele>
        <time>2016-07-03T08:40:09.000Z</time>
      </trkpt>
      <trkpt lat="46.29099" lon="6.79471">
        <ele>1057</ele>
        <time>2016-07-03T08:40:10.000Z</time>
      </trkpt>
      <trkpt lat="46.29097" lon="6.79483">
        <ele>1059</ele>
        <time>2016-07-03T08:40:17.000Z</time>
      </trkpt>
      <trkpt lat="46.29097" lon="6.79485">
        <ele>1061</ele>
        <time>2016-07-03T08:40:18.000Z</time>
      </trkpt>
      <trkpt lat="46.29091" lon="6.79493">
        <ele>1061</ele>
        <time>2016-07-03T08:40:23.000Z</time>
      </trkpt>
      <trkpt lat="46.29091" lon="6.79495">
        <ele>1061</ele>
        <time>2016-07-03T08:40:24.000Z</time>
      </trkpt>
      <trkpt lat="46.29084" lon="6.79503">
        <ele>1057</ele>
        <time>2016-07-03T08:40:30.000Z</time>
      </trkpt>
      <trkpt lat="46.2908" lon="6.79505">
        <ele>1056</ele>
        <time>2016-07-03T08:40:31.000Z</time>
      </trkpt>
      <trkpt lat="46.29073" lon="6.7951">
        <ele>1051</ele>
        <time>2016-07-03T08:40:36.000Z</time>
      </trkpt>
      <trkpt lat="46.29071" lon="6.79512">
        <ele>1049</ele>
        <time>2016-07-03T08:40:37.000Z</time>
      </trkpt>
      <trkpt lat="46.29064" lon="6.79519">
        <ele>1046</ele>
        <time>2016-07-03T08:40:43.000Z</time>
      </trkpt>
      <trkpt lat="46.29064" lon="6.79522">
        <ele>1048</ele>
        <time>2016-07-03T08:40:44.000Z</time>
      </trkpt>
      <trkpt lat="46.29062" lon="6.79533">
        <ele>1050</ele>
        <time>2016-07-03T08:40:50.000Z</time>
      </trkpt>
      <trkpt lat="46.29061" lon="6.79536">
        <ele>1051</ele>
        <time>2016-07-03T08:40:51.000Z</time>
      </trkpt>
      <trkpt lat="46.29062" lon="6.79548">
        <ele>1054</ele>
        <time>2016-07-03T08:40:56.000Z</time>
      </trkpt>
      <trkpt lat="46.29062" lon="6.79549">
        <ele>1053</ele>
        <time>2016-07-03T08:40:57.000Z</time>
      </trkpt>
      <trkpt lat="46.2906" lon="6.7956">
        <ele>1053</ele>
        <time>2016-07-03T08:41:03.000Z</time>
      </trkpt>
      <trkpt lat="46.2906" lon="6.79563">
        <ele>1053</ele>
        <time>2016-07-03T08:41:04.000Z</time>
      </trkpt>
      <trkpt lat="46.29058" lon="6.79574">
        <ele>1053</ele>
        <time>2016-07-03T08:41:09.000Z</time>
      </trkpt>
      <trkpt lat="46.29057" lon="6.79578">
        <ele>1055</ele>
        <time>2016-07-03T08:41:10.000Z</time>
      </trkpt>
      <trkpt lat="46.29053" lon="6.79588">
        <ele>1055</ele>
        <time>2016-07-03T08:41:17.000Z</time>
      </trkpt>
      <trkpt lat="46.29051" lon="6.79589">
        <ele>1055</ele>
        <time>2016-07-03T08:41:18.000Z</time>
      </trkpt>
      <trkpt lat="46.29048" lon="6.79601">
        <ele>1059</ele>
        <time>2016-07-03T08:41:23.000Z</time>
      </trkpt>
      <trkpt lat="46.2905" lon="6.79603">
        <ele>1059</ele>
        <time>2016-07-03T08:41:24.000Z</time>
      </trkpt>
      <trkpt lat="46.29045" lon="6.79613">
        <ele>1055</ele>
        <time>2016-07-03T08:41:32.000Z</time>
      </trkpt>
      <trkpt lat="46.29044" lon="6.79613">
        <ele>1054</ele>
        <time>2016-07-03T08:41:33.000Z</time>
      </trkpt>
      <trkpt lat="46.29037" lon="6.7962">
        <ele>1055</ele>
        <time>2016-07-03T08:41:37.000Z</time>
      </trkpt>
      <trkpt lat="46.29036" lon="6.79621">
        <ele>1055</ele>
        <time>2016-07-03T08:41:38.000Z</time>
      </trkpt>
      <trkpt lat="46.29028" lon="6.79623">
        <ele>1056</ele>
        <time>2016-07-03T08:41:48.000Z</time>
      </trkpt>
      <trkpt lat="46.29026" lon="6.79623">
        <ele>1055</ele>
        <time>2016-07-03T08:41:49.000Z</time>
      </trkpt>
      <trkpt lat="46.29018" lon="6.79627">
        <ele>1061</ele>
        <time>2016-07-03T08:41:57.000Z</time>
      </trkpt>
      <trkpt lat="46.29017" lon="6.79626">
        <ele>1060</ele>
        <time>2016-07-03T08:41:58.000Z</time>
      </trkpt>
      <trkpt lat="46.29009" lon="6.79631">
        <ele>1059</ele>
        <time>2016-07-03T08:42:05.000Z</time>
      </trkpt>
      <trkpt lat="46.29008" lon="6.79631">
        <ele>1059</ele>
        <time>2016-07-03T08:42:06.000Z</time>
      </trkpt>
      <trkpt lat="46.29001" lon="6.79635">
        <ele>1060</ele>
        <time>2016-07-03T08:42:09.000Z</time>
      </trkpt>
      <trkpt lat="46.28998" lon="6.79637">
        <ele>1060</ele>
        <time>2016-07-03T08:42:10.000Z</time>
      </trkpt>
      <trkpt lat="46.2899" lon="6.79638">
        <ele>1058</ele>
        <time>2016-07-03T08:42:19.000Z</time>
      </trkpt>
      <trkpt lat="46.28989" lon="6.79639">
        <ele>1058</ele>
        <time>2016-07-03T08:42:20.000Z</time>
      </trkpt>
      <trkpt lat="46.28981" lon="6.7964">
        <ele>1057</ele>
        <time>2016-07-03T08:42:23.000Z</time>
      </trkpt>
      <trkpt lat="46.28979" lon="6.7964">
        <ele>1056</ele>
        <time>2016-07-03T08:42:24.000Z</time>
      </trkpt>
      <trkpt lat="46.28971" lon="6.79642">
        <ele>1058</ele>
        <time>2016-07-03T08:42:33.000Z</time>
      </trkpt>
      <trkpt lat="46.28969" lon="6.79644">
        <ele>1057</ele>
        <time>2016-07-03T08:42:34.000Z</time>
      </trkpt>
      <trkpt lat="46.28962" lon="6.7965">
        <ele>1057</ele>
        <time>2016-07-03T08:42:38.000Z</time>
      </trkpt>
      <trkpt lat="46.2896" lon="6.79653">
        <ele>1057</ele>
        <time>2016-07-03T08:42:39.000Z</time>
      </trkpt>
      <trkpt lat="46.28955" lon="6.7966">
        <ele>1058</ele>
        <time>2016-07-03T08:42:43.000Z</time>
      </trkpt>
      <trkpt lat="46.28953" lon="6.79661">
        <ele>1057</ele>
        <time>2016-07-03T08:42:44.000Z</time>
      </trkpt>
      <trkpt lat="46.28947" lon="6.79671">
        <ele>1059</ele>
        <time>2016-07-03T08:42:49.000Z</time>
      </trkpt>
      <trkpt lat="46.28946" lon="6.79673">
        <ele>1058</ele>
        <time>2016-07-03T08:42:50.000Z</time>
      </trkpt>
      <trkpt lat="46.28944" lon="6.79685">
        <ele>1059</ele>
        <time>2016-07-03T08:42:56.000Z</time>
      </trkpt>
      <trkpt lat="46.28944" lon="6.79688">
        <ele>1060</ele>
        <time>2016-07-03T08:42:57.000Z</time>
      </trkpt>
      <trkpt lat="46.28944" lon="6.79699">
        <ele>1059</ele>
        <time>2016-07-03T08:43:02.000Z</time>
      </trkpt>
      <trkpt lat="46.28943" lon="6.79701">
        <ele>1058</ele>
        <time>2016-07-03T08:43:03.000Z</time>
      </trkpt>
      <trkpt lat="46.28944" lon="6.79712">
        <ele>1055</ele>
        <time>2016-07-03T08:43:09.000Z</time>
      </trkpt>
      <trkpt lat="46.28945" lon="6.79714">
        <ele>1056</ele>
        <time>2016-07-03T08:43:10.000Z</time>
      </trkpt>
      <trkpt lat="46.28939" lon="6.79724">
        <ele>1052</ele>
        <time>2016-07-03T08:43:17.000Z</time>
      </trkpt>
      <trkpt lat="46.28938" lon="6.79726">
        <ele>1051</ele>
        <time>2016-07-03T08:43:18.000Z</time>
      </trkpt>
      <trkpt lat="46.28936" lon="6.79737">
        <ele>1055</ele>
        <time>2016-07-03T08:43:24.000Z</time>
      </trkpt>
      <trkpt lat="46.28935" lon="6.79741">
        <ele>1056</ele>
        <time>2016-07-03T08:43:25.000Z</time>
      </trkpt>
      <trkpt lat="46.2893" lon="6.7975">
        <ele>1057</ele>
        <time>2016-07-03T08:43:31.000Z</time>
      </trkpt>
      <trkpt lat="46.28929" lon="6.79752">
        <ele>1055</ele>
        <time>2016-07-03T08:43:32.000Z</time>
      </trkpt>
      <trkpt lat="46.28927" lon="6.79763">
        <ele>1054</ele>
        <time>2016-07-03T08:43:37.000Z</time>
      </trkpt>
      <trkpt lat="46.28926" lon="6.79765">
        <ele>1054</ele>
        <time>2016-07-03T08:43:38.000Z</time>
      </trkpt>
      <trkpt lat="46.28922" lon="6.79774">
        <ele>1058</ele>
        <time>2016-07-03T08:43:43.000Z</time>
      </trkpt>
      <trkpt lat="46.28919" lon="6.79775">
        <ele>1059</ele>
        <time>2016-07-03T08:43:44.000Z</time>
      </trkpt>
      <trkpt lat="46.28913" lon="6.79782">
        <ele>1058</ele>
        <time>2016-07-03T08:43:50.000Z</time>
      </trkpt>
      <trkpt lat="46.28911" lon="6.79785">
        <ele>1058</ele>
        <time>2016-07-03T08:43:51.000Z</time>
      </trkpt>
      <trkpt lat="46.28904" lon="6.7979">
        <ele>1060</ele>
        <time>2016-07-03T08:43:57.000Z</time>
      </trkpt>
      <trkpt lat="46.28902" lon="6.79791">
        <ele>1060</ele>
        <time>2016-07-03T08:43:58.000Z</time>
      </trkpt>
      <trkpt lat="46.28895" lon="6.79798">
        <ele>1064</ele>
        <time>2016-07-03T08:44:04.000Z</time>
      </trkpt>
      <trkpt lat="46.28894" lon="6.79799">
        <ele>1065</ele>
        <time>2016-07-03T08:44:05.000Z</time>
      </trkpt>
      <trkpt lat="46.28887" lon="6.79805">
        <ele>1066</ele>
        <time>2016-07-03T08:44:10.000Z</time>
      </trkpt>
      <trkpt lat="46.28885" lon="6.79805">
        <ele>1066</ele>
        <time>2016-07-03T08:44:11.000Z</time>
      </trkpt>
      <trkpt lat="46.2888" lon="6.79814">
        <ele>1066</ele>
        <time>2016-07-03T08:44:20.000Z</time>
      </trkpt>
      <trkpt lat="46.28877" lon="6.79813">
        <ele>1064</ele>
        <time>2016-07-03T08:44:21.000Z</time>
      </trkpt>
      <trkpt lat="46.2887" lon="6.79816">
        <ele>1063</ele>
        <time>2016-07-03T08:44:27.000Z</time>
      </trkpt>
      <trkpt lat="46.28868" lon="6.79815">
        <ele>1064</ele>
        <time>2016-07-03T08:44:28.000Z</time>
      </trkpt>
      <trkpt lat="46.28859" lon="6.79817">
        <ele>1067</ele>
        <time>2016-07-03T08:44:32.000Z</time>
      </trkpt>
      <trkpt lat="46.28858" lon="6.79817">
        <ele>1067</ele>
        <time>2016-07-03T08:44:33.000Z</time>
      </trkpt>
      <trkpt lat="46.2885" lon="6.7982">
        <ele>1066</ele>
        <time>2016-07-03T08:44:37.000Z</time>
      </trkpt>
      <trkpt lat="46.28848" lon="6.79822">
        <ele>1067</ele>
        <time>2016-07-03T08:44:38.000Z</time>
      </trkpt>
      <trkpt lat="46.2884" lon="6.79826">
        <ele>1066</ele>
        <time>2016-07-03T08:44:41.000Z</time>
      </trkpt>
      <trkpt lat="46.28839" lon="6.79822">
        <ele>1062</ele>
        <time>2016-07-03T08:44:42.000Z</time>
      </trkpt>
      <trkpt lat="46.28831" lon="6.79828">
        <ele>1064</ele>
        <time>2016-07-03T08:44:52.000Z</time>
      </trkpt>
      <trkpt lat="46.28831" lon="6.7983">
        <ele>1065</ele>
        <time>2016-07-03T08:44:53.000Z</time>
      </trkpt>
      <trkpt lat="46.28826" lon="6.79841">
        <ele>1062</ele>
        <time>2016-07-03T08:45:00.000Z</time>
      </trkpt>
      <trkpt lat="46.28826" lon="6.79842">
        <ele>1062</ele>
        <time>2016-07-03T08:45:01.000Z</time>
      </trkpt>
      <trkpt lat="46.28823" lon="6.79852">
        <ele>1064</ele>
        <time>2016-07-03T08:45:06.000Z</time>
      </trkpt>
      <trkpt lat="46.28822" lon="6.79854">
        <ele>1064</ele>
        <time>2016-07-03T08:45:07.000Z</time>
      </trkpt>
      <trkpt lat="46.28826" lon="6.79865">
        <ele>1064</ele>
        <time>2016-07-03T08:45:12.000Z</time>
      </trkpt>
      <trkpt lat="46.28828" lon="6.79867">
        <ele>1068</ele>
        <time>2016-07-03T08:45:13.000Z</time>
      </trkpt>
      <trkpt lat="46.28832" lon="6.79879">
        <ele>1065</ele>
        <time>2016-07-03T08:45:20.000Z</time>
      </trkpt>
      <trkpt lat="46.2883" lon="6.79881">
        <ele>1062</ele>
        <time>2016-07-03T08:45:21.000Z</time>
      </trkpt>
      <trkpt lat="46.28833" lon="6.79891">
        <ele>1061</ele>
        <time>2016-07-03T08:45:26.000Z</time>
      </trkpt>
      <trkpt lat="46.28836" lon="6.79893">
        <ele>1063</ele>
        <time>2016-07-03T08:45:27.000Z</time>
      </trkpt>
      <trkpt lat="46.2884" lon="6.79903">
        <ele>1062</ele>
        <time>2016-07-03T08:45:32.000Z</time>
      </trkpt>
      <trkpt lat="46.28842" lon="6.79904">
        <ele>1064</ele>
        <time>2016-07-03T08:45:33.000Z</time>
      </trkpt>
      <trkpt lat="46.28845" lon="6.79914">
        <ele>1066</ele>
        <time>2016-07-03T08:45:38.000Z</time>
      </trkpt>
      <trkpt lat="46.28844" lon="6.79917">
        <ele>1063</ele>
        <time>2016-07-03T08:45:39.000Z</time>
      </trkpt>
      <trkpt lat="46.28845" lon="6.79929">
        <ele>1061</ele>
        <time>2016-07-03T08:45:45.000Z</time>
      </trkpt>
      <trkpt lat="46.28845" lon="6.79932">
        <ele>1061</ele>
        <time>2016-07-03T08:45:46.000Z</time>
      </trkpt>
      <trkpt lat="46.2885" lon="6.7994">
        <ele>1064</ele>
        <time>2016-07-03T08:45:51.000Z</time>
      </trkpt>
      <trkpt lat="46.28852" lon="6.79941">
        <ele>1065</ele>
        <time>2016-07-03T08:45:52.000Z</time>
      </trkpt>
      <trkpt lat="46.28854" lon="6.79951">
        <ele>1067</ele>
        <time>2016-07-03T08:46:04.000Z</time>
      </trkpt>
      <trkpt lat="46.28854" lon="6.79951">
        <ele>1067</ele>
        <time>2016-07-03T08:46:05.000Z</time>
      </trkpt>
      <trkpt lat="46.28855" lon="6.79952">
        <ele>1068</ele>
        <time>2016-07-03T08:46:06.000Z</time>
      </trkpt>
      <trkpt lat="46.2886" lon="6.7996">
        <ele>1065</ele>
        <time>2016-07-03T08:46:13.000Z</time>
      </trkpt>
      <trkpt lat="46.28861" lon="6.79962">
        <ele>1065</ele>
        <time>2016-07-03T08:46:14.000Z</time>
      </trkpt>
      <trkpt lat="46.28862" lon="6.79974">
        <ele>1065</ele>
        <time>2016-07-03T08:46:22.000Z</time>
      </trkpt>
      <trkpt lat="46.28862" lon="6.79974">
        <ele>1065</ele>
        <time>2016-07-03T08:46:23.000Z</time>
      </trkpt>
      <trkpt lat="46.28864" lon="6.79974">
        <ele>1065</ele>
        <time>2016-07-03T08:46:24.000Z</time>
      </trkpt>
      <trkpt lat="46.28864" lon="6.79987">
        <ele>1062</ele>
        <time>2016-07-03T08:46:54.000Z</time>
      </trkpt>
      <trkpt lat="46.28865" lon="6.79988">
        <ele>1062</ele>
        <time>2016-07-03T08:46:55.000Z</time>
      </trkpt>
      <trkpt lat="46.28868" lon="6.79999">
        <ele>1063</ele>
        <time>2016-07-03T08:47:02.000Z</time>
      </trkpt>
      <trkpt lat="46.28868" lon="6.8">
        <ele>1063</ele>
        <time>2016-07-03T08:47:03.000Z</time>
      </trkpt>
      <trkpt lat="46.28869" lon="6.80013">
        <ele>1058</ele>
        <time>2016-07-03T08:47:12.000Z</time>
      </trkpt>
      <trkpt lat="46.28868" lon="6.80014">
        <ele>1057</ele>
        <time>2016-07-03T08:47:13.000Z</time>
      </trkpt>
      <trkpt lat="46.28865" lon="6.80025">
        <ele>1056</ele>
        <time>2016-07-03T08:47:20.000Z</time>
      </trkpt>
      <trkpt lat="46.28864" lon="6.80028">
        <ele>1057</ele>
        <time>2016-07-03T08:47:21.000Z</time>
      </trkpt>
      <trkpt lat="46.28865" lon="6.80041">
        <ele>1057</ele>
        <time>2016-07-03T08:47:27.000Z</time>
      </trkpt>
      <trkpt lat="46.28863" lon="6.80042">
        <ele>1056</ele>
        <time>2016-07-03T08:47:28.000Z</time>
      </trkpt>
      <trkpt lat="46.2886" lon="6.80053">
        <ele>1058</ele>
        <time>2016-07-03T08:47:35.000Z</time>
      </trkpt>
      <trkpt lat="46.28859" lon="6.80055">
        <ele>1057</ele>
        <time>2016-07-03T08:47:36.000Z</time>
      </trkpt>
      <trkpt lat="46.28854" lon="6.80065">
        <ele>1054</ele>
        <time>2016-07-03T08:47:42.000Z</time>
      </trkpt>
      <trkpt lat="46.28854" lon="6.80068">
        <ele>1054</ele>
        <time>2016-07-03T08:47:43.000Z</time>
      </trkpt>
      <trkpt lat="46.28853" lon="6.8008">
        <ele>1054</ele>
        <time>2016-07-03T08:47:49.000Z</time>
      </trkpt>
      <trkpt lat="46.28853" lon="6.80082">
        <ele>1054</ele>
        <time>2016-07-03T08:47:50.000Z</time>
      </trkpt>
      <trkpt lat="46.28852" lon="6.80095">
        <ele>1055</ele>
        <time>2016-07-03T08:47:57.000Z</time>
      </trkpt>
      <trkpt lat="46.28851" lon="6.80097">
        <ele>1055</ele>
        <time>2016-07-03T08:47:58.000Z</time>
      </trkpt>
      <trkpt lat="46.28849" lon="6.80109">
        <ele>1056</ele>
        <time>2016-07-03T08:48:05.000Z</time>
      </trkpt>
      <trkpt lat="46.28848" lon="6.80111">
        <ele>1055</ele>
        <time>2016-07-03T08:48:06.000Z</time>
      </trkpt>
      <trkpt lat="46.28846" lon="6.80124">
        <ele>1055</ele>
        <time>2016-07-03T08:48:13.000Z</time>
      </trkpt>
      <trkpt lat="46.28847" lon="6.80125">
        <ele>1055</ele>
        <time>2016-07-03T08:48:14.000Z</time>
      </trkpt>
      <trkpt lat="46.28846" lon="6.80136">
        <ele>1052</ele>
        <time>2016-07-03T08:48:18.000Z</time>
      </trkpt>
      <trkpt lat="46.28845" lon="6.80138">
        <ele>1052</ele>
        <time>2016-07-03T08:48:19.000Z</time>
      </trkpt>
      <trkpt lat="46.28846" lon="6.80151">
        <ele>1057</ele>
        <time>2016-07-03T08:48:25.000Z</time>
      </trkpt>
      <trkpt lat="46.28846" lon="6.80153">
        <ele>1057</ele>
        <time>2016-07-03T08:48:26.000Z</time>
      </trkpt>
      <trkpt lat="46.28847" lon="6.80166">
        <ele>1057</ele>
        <time>2016-07-03T08:48:31.000Z</time>
      </trkpt>
      <trkpt lat="46.28847" lon="6.80167">
        <ele>1057</ele>
        <time>2016-07-03T08:48:32.000Z</time>
      </trkpt>
      <trkpt lat="46.28847" lon="6.80179">
        <ele>1061</ele>
        <time>2016-07-03T08:48:37.000Z</time>
      </trkpt>
      <trkpt lat="46.28846" lon="6.80181">
        <ele>1061</ele>
        <time>2016-07-03T08:48:38.000Z</time>
      </trkpt>
      <trkpt lat="46.28846" lon="6.80194">
        <ele>1063</ele>
        <time>2016-07-03T08:48:44.000Z</time>
      </trkpt>
      <trkpt lat="46.28846" lon="6.80196">
        <ele>1063</ele>
        <time>2016-07-03T08:48:45.000Z</time>
      </trkpt>
      <trkpt lat="46.28849" lon="6.80206">
        <ele>1067</ele>
        <time>2016-07-03T08:48:50.000Z</time>
      </trkpt>
      <trkpt lat="46.28849" lon="6.8021">
        <ele>1065</ele>
        <time>2016-07-03T08:48:51.000Z</time>
      </trkpt>
      <trkpt lat="46.28848" lon="6.80222">
        <ele>1061</ele>
        <time>2016-07-03T08:48:58.000Z</time>
      </trkpt>
      <trkpt lat="46.28847" lon="6.80223">
        <ele>1061</ele>
        <time>2016-07-03T08:48:59.000Z</time>
      </trkpt>
      <trkpt lat="46.2885" lon="6.80233">
        <ele>1063</ele>
        <time>2016-07-03T08:49:03.000Z</time>
      </trkpt>
      <trkpt lat="46.2885" lon="6.80236">
        <ele>1064</ele>
        <time>2016-07-03T08:49:04.000Z</time>
      </trkpt>
      <trkpt lat="46.28847" lon="6.80247">
        <ele>1062</ele>
        <time>2016-07-03T08:49:12.000Z</time>
      </trkpt>
      <trkpt lat="46.28847" lon="6.80251">
        <ele>1063</ele>
        <time>2016-07-03T08:49:13.000Z</time>
      </trkpt>
      <trkpt lat="46.28846" lon="6.80264">
        <ele>1060</ele>
        <time>2016-07-03T08:49:18.000Z</time>
      </trkpt>
      <trkpt lat="46.28846" lon="6.80265">
        <ele>1060</ele>
        <time>2016-07-03T08:49:19.000Z</time>
      </trkpt>
      <trkpt lat="46.28847" lon="6.80276">
        <ele>1057</ele>
        <time>2016-07-03T08:49:26.000Z</time>
      </trkpt>
      <trkpt lat="46.28847" lon="6.8028">
        <ele>1058</ele>
        <time>2016-07-03T08:49:27.000Z</time>
      </trkpt>
      <trkpt lat="46.28849" lon="6.80292">
        <ele>1060</ele>
        <time>2016-07-03T08:49:32.000Z</time>
      </trkpt>
      <trkpt lat="46.2885" lon="6.80296">
        <ele>1061</ele>
        <time>2016-07-03T08:49:33.000Z</time>
      </trkpt>
      <trkpt lat="46.28851" lon="6.80308">
        <ele>1066</ele>
        <time>2016-07-03T08:49:39.000Z</time>
      </trkpt>
      <trkpt lat="46.28851" lon="6.80311">
        <ele>1067</ele>
        <time>2016-07-03T08:49:40.000Z</time>
      </trkpt>
      <trkpt lat="46.28853" lon="6.80323">
        <ele>1069</ele>
        <time>2016-07-03T08:49:46.000Z</time>
      </trkpt>
      <trkpt lat="46.28854" lon="6.80325">
        <ele>1069</ele>
        <time>2016-07-03T08:49:47.000Z</time>
      </trkpt>
      <trkpt lat="46.28854" lon="6.80337">
        <ele>1068</ele>
        <time>2016-07-03T08:49:53.000Z</time>
      </trkpt>
      <trkpt lat="46.28854" lon="6.80339">
        <ele>1068</ele>
        <time>2016-07-03T08:49:54.000Z</time>
      </trkpt>
      <trkpt lat="46.28855" lon="6.8035">
        <ele>1065</ele>
        <time>2016-07-03T08:49:59.000Z</time>
      </trkpt>
      <trkpt lat="46.28853" lon="6.80352">
        <ele>1065</ele>
        <time>2016-07-03T08:50:00.000Z</time>
      </trkpt>
      <trkpt lat="46.28855" lon="6.80363">
        <ele>1066</ele>
        <time>2016-07-03T08:50:06.000Z</time>
      </trkpt>
      <trkpt lat="46.28856" lon="6.80365">
        <ele>1069</ele>
        <time>2016-07-03T08:50:07.000Z</time>
      </trkpt>
      <trkpt lat="46.28855" lon="6.80377">
        <ele>1068</ele>
        <time>2016-07-03T08:50:12.000Z</time>
      </trkpt>
      <trkpt lat="46.28854" lon="6.80379">
        <ele>1064</ele>
        <time>2016-07-03T08:50:13.000Z</time>
      </trkpt>
      <trkpt lat="46.28852" lon="6.8039">
        <ele>1064</ele>
        <time>2016-07-03T08:50:19.000Z</time>
      </trkpt>
      <trkpt lat="46.28852" lon="6.80391">
        <ele>1064</ele>
        <time>2016-07-03T08:50:20.000Z</time>
      </trkpt>
      <trkpt lat="46.28852" lon="6.80403">
        <ele>1064</ele>
        <time>2016-07-03T08:50:26.000Z</time>
      </trkpt>
      <trkpt lat="46.28852" lon="6.80406">
        <ele>1065</ele>
        <time>2016-07-03T08:50:27.000Z</time>
      </trkpt>
      <trkpt lat="46.28851" lon="6.80418">
        <ele>1066</ele>
        <time>2016-07-03T08:50:33.000Z</time>
      </trkpt>
      <trkpt lat="46.2885" lon="6.80421">
        <ele>1067</ele>
        <time>2016-07-03T08:50:34.000Z</time>
      </trkpt>
      <trkpt lat="46.28849" lon="6.80432">
        <ele>1069</ele>
        <time>2016-07-03T08:50:39.000Z</time>
      </trkpt>
      <trkpt lat="46.28849" lon="6.80434">
        <ele>1069</ele>
        <time>2016-07-03T08:50:40.000Z</time>
      </trkpt>
      <trkpt lat="46.28841" lon="6.80439">
        <ele>1066</ele>
        <time>2016-07-03T08:50:45.000Z</time>
      </trkpt>
      <trkpt lat="46.2884" lon="6.8044">
        <ele>1068</ele>
        <time>2016-07-03T08:50:46.000Z</time>
      </trkpt>
      <trkpt lat="46.28833" lon="6.80446">
        <ele>1068</ele>
        <time>2016-07-03T08:50:53.000Z</time>
      </trkpt>
      <trkpt lat="46.28831" lon="6.80447">
        <ele>1068</ele>
        <time>2016-07-03T08:50:54.000Z</time>
      </trkpt>
      <trkpt lat="46.28825" lon="6.80454">
        <ele>1069</ele>
        <time>2016-07-03T08:50:59.000Z</time>
      </trkpt>
      <trkpt lat="46.28824" lon="6.80455">
        <ele>1069</ele>
        <time>2016-07-03T08:51:00.000Z</time>
      </trkpt>
      <trkpt lat="46.28816" lon="6.80462">
        <ele>1074</ele>
        <time>2016-07-03T08:51:06.000Z</time>
      </trkpt>
      <trkpt lat="46.28815" lon="6.80461">
        <ele>1073</ele>
        <time>2016-07-03T08:51:07.000Z</time>
      </trkpt>
      <trkpt lat="46.28807" lon="6.80459">
        <ele>1070</ele>
        <time>2016-07-03T08:51:11.000Z</time>
      </trkpt>
      <trkpt lat="46.28805" lon="6.80457">
        <ele>1069</ele>
        <time>2016-07-03T08:51:12.000Z</time>
      </trkpt>
      <trkpt lat="46.28797" lon="6.80454">
        <ele>1068</ele>
        <time>2016-07-03T08:51:22.000Z</time>
      </trkpt>
      <trkpt lat="46.28795" lon="6.80453">
        <ele>1068</ele>
        <time>2016-07-03T08:51:23.000Z</time>
      </trkpt>
      <trkpt lat="46.28787" lon="6.80454">
        <ele>1066</ele>
        <time>2016-07-03T08:51:28.000Z</time>
      </trkpt>
      <trkpt lat="46.28785" lon="6.80453">
        <ele>1066</ele>
        <time>2016-07-03T08:51:29.000Z</time>
      </trkpt>
      <trkpt lat="46.28777" lon="6.8046">
        <ele>1061</ele>
        <time>2016-07-03T08:51:36.000Z</time>
      </trkpt>
      <trkpt lat="46.28777" lon="6.80462">
        <ele>1061</ele>
        <time>2016-07-03T08:51:37.000Z</time>
      </trkpt>
      <trkpt lat="46.2877" lon="6.80467">
        <ele>1068</ele>
        <time>2016-07-03T08:51:43.000Z</time>
      </trkpt>
      <trkpt lat="46.28768" lon="6.80471">
        <ele>1065</ele>
        <time>2016-07-03T08:51:44.000Z</time>
      </trkpt>
      <trkpt lat="46.28763" lon="6.80479">
        <ele>1065</ele>
        <time>2016-07-03T08:51:50.000Z</time>
      </trkpt>
      <trkpt lat="46.28762" lon="6.80481">
        <ele>1066</ele>
        <time>2016-07-03T08:51:51.000Z</time>
      </trkpt>
      <trkpt lat="46.28758" lon="6.80491">
        <ele>1068</ele>
        <time>2016-07-03T08:51:59.000Z</time>
      </trkpt>
      <trkpt lat="46.28758" lon="6.80492">
        <ele>1068</ele>
        <time>2016-07-03T08:52:00.000Z</time>
      </trkpt>
      <trkpt lat="46.2876" lon="6.80504">
        <ele>1071</ele>
        <time>2016-07-03T08:52:07.000Z</time>
      </trkpt>
      <trkpt lat="46.2876" lon="6.80505">
        <ele>1070</ele>
        <time>2016-07-03T08:52:08.000Z</time>
      </trkpt>
      <trkpt lat="46.28762" lon="6.80516">
        <ele>1065</ele>
        <time>2016-07-03T08:52:15.000Z</time>
      </trkpt>
      <trkpt lat="46.28762" lon="6.80519">
        <ele>1066</ele>
        <time>2016-07-03T08:52:16.000Z</time>
      </trkpt>
      <trkpt lat="46.28768" lon="6.80526">
        <ele>1067</ele>
        <time>2016-07-03T08:52:21.000Z</time>
      </trkpt>
      <trkpt lat="46.28769" lon="6.80529">
        <ele>1067</ele>
        <time>2016-07-03T08:52:22.000Z</time>
      </trkpt>
      <trkpt lat="46.28773" lon="6.80538">
        <ele>1075</ele>
        <time>2016-07-03T08:52:28.000Z</time>
      </trkpt>
      <trkpt lat="46.28771" lon="6.80541">
        <ele>1075</ele>
        <time>2016-07-03T08:52:29.000Z</time>
      </trkpt>
      <trkpt lat="46.2877" lon="6.80554">
        <ele>1075</ele>
        <time>2016-07-03T08:52:35.000Z</time>
      </trkpt>
      <trkpt lat="46.28769" lon="6.80555">
        <ele>1073</ele>
        <time>2016-07-03T08:52:36.000Z</time>
      </trkpt>
      <trkpt lat="46.2877" lon="6.80567">
        <ele>1074</ele>
        <time>2016-07-03T08:52:45.000Z</time>
      </trkpt>
      <trkpt lat="46.28771" lon="6.80569">
        <ele>1075</ele>
        <time>2016-07-03T08:52:46.000Z</time>
      </trkpt>
      <trkpt lat="46.28774" lon="6.80581">
        <ele>1072</ele>
        <time>2016-07-03T08:52:51.000Z</time>
      </trkpt>
      <trkpt lat="46.28775" lon="6.80583">
        <ele>1074</ele>
        <time>2016-07-03T08:52:52.000Z</time>
      </trkpt>
      <trkpt lat="46.28778" lon="6.80593">
        <ele>1077</ele>
        <time>2016-07-03T08:52:57.000Z</time>
      </trkpt>
      <trkpt lat="46.28778" lon="6.80596">
        <ele>1076</ele>
        <time>2016-07-03T08:52:58.000Z</time>
      </trkpt>
      <trkpt lat="46.28779" lon="6.80607">
        <ele>1077</ele>
        <time>2016-07-03T08:53:05.000Z</time>
      </trkpt>
      <trkpt lat="46.28776" lon="6.80609">
        <ele>1074</ele>
        <time>2016-07-03T08:53:06.000Z</time>
      </trkpt>
      <trkpt lat="46.28771" lon="6.80619">
        <ele>1072</ele>
        <time>2016-07-03T08:53:11.000Z</time>
      </trkpt>
      <trkpt lat="46.28769" lon="6.80619">
        <ele>1071</ele>
        <time>2016-07-03T08:53:12.000Z</time>
      </trkpt>
      <trkpt lat="46.28768" lon="6.80631">
        <ele>1070</ele>
        <time>2016-07-03T08:53:18.000Z</time>
      </trkpt>
      <trkpt lat="46.28767" lon="6.80632">
        <ele>1070</ele>
        <time>2016-07-03T08:53:19.000Z</time>
      </trkpt>
      <trkpt lat="46.28764" lon="6.80644">
        <ele>1071</ele>
        <time>2016-07-03T08:53:26.000Z</time>
      </trkpt>
      <trkpt lat="46.28765" lon="6.80646">
        <ele>1071</ele>
        <time>2016-07-03T08:53:27.000Z</time>
      </trkpt>
      <trkpt lat="46.2876" lon="6.80657">
        <ele>1072</ele>
        <time>2016-07-03T08:53:34.000Z</time>
      </trkpt>
      <trkpt lat="46.28759" lon="6.80658">
        <ele>1072</ele>
        <time>2016-07-03T08:53:35.000Z</time>
      </trkpt>
      <trkpt lat="46.28753" lon="6.80666">
        <ele>1073</ele>
        <time>2016-07-03T08:53:40.000Z</time>
      </trkpt>
      <trkpt lat="46.28752" lon="6.80666">
        <ele>1072</ele>
        <time>2016-07-03T08:53:41.000Z</time>
      </trkpt>
      <trkpt lat="46.28744" lon="6.80673">
        <ele>1073</ele>
        <time>2016-07-03T08:53:47.000Z</time>
      </trkpt>
      <trkpt lat="46.28743" lon="6.80674">
        <ele>1072</ele>
        <time>2016-07-03T08:53:48.000Z</time>
      </trkpt>
      <trkpt lat="46.28739" lon="6.80685">
        <ele>1074</ele>
        <time>2016-07-03T08:53:55.000Z</time>
      </trkpt>
      <trkpt lat="46.28737" lon="6.80686">
        <ele>1073</ele>
        <time>2016-07-03T08:53:56.000Z</time>
      </trkpt>
      <trkpt lat="46.2873" lon="6.80692">
        <ele>1074</ele>
        <time>2016-07-03T08:54:01.000Z</time>
      </trkpt>
      <trkpt lat="46.28729" lon="6.80694">
        <ele>1075</ele>
        <time>2016-07-03T08:54:02.000Z</time>
      </trkpt>
      <trkpt lat="46.28721" lon="6.80699">
        <ele>1073</ele>
        <time>2016-07-03T08:54:10.000Z</time>
      </trkpt>
      <trkpt lat="46.2872" lon="6.807">
        <ele>1072</ele>
        <time>2016-07-03T08:54:11.000Z</time>
      </trkpt>
      <trkpt lat="46.28713" lon="6.80693">
        <ele>1069</ele>
        <time>2016-07-03T08:54:32.000Z</time>
      </trkpt>
      <trkpt lat="46.28712" lon="6.80691">
        <ele>1070</ele>
        <time>2016-07-03T08:54:33.000Z</time>
      </trkpt>
      <trkpt lat="46.28707" lon="6.80681">
        <ele>1070</ele>
        <time>2016-07-03T08:54:37.000Z</time>
      </trkpt>
      <trkpt lat="46.28705" lon="6.80681">
        <ele>1069</ele>
        <time>2016-07-03T08:54:38.000Z</time>
      </trkpt>
      <trkpt lat="46.28698" lon="6.80674">
        <ele>1070</ele>
        <time>2016-07-03T08:54:42.000Z</time>
      </trkpt>
      <trkpt lat="46.28696" lon="6.80672">
        <ele>1070</ele>
        <time>2016-07-03T08:54:43.000Z</time>
      </trkpt>
      <trkpt lat="46.28693" lon="6.80661">
        <ele>1067</ele>
        <time>2016-07-03T08:54:48.000Z</time>
      </trkpt>
      <trkpt lat="46.28693" lon="6.80658">
        <ele>1068</ele>
        <time>2016-07-03T08:54:49.000Z</time>
      </trkpt>
      <trkpt lat="46.28692" lon="6.80646">
        <ele>1071</ele>
        <time>2016-07-03T08:54:55.000Z</time>
      </trkpt>
      <trkpt lat="46.28693" lon="6.80644">
        <ele>1071</ele>
        <time>2016-07-03T08:54:56.000Z</time>
      </trkpt>
      <trkpt lat="46.28686" lon="6.80635">
        <ele>1071</ele>
        <time>2016-07-03T08:55:02.000Z</time>
      </trkpt>
      <trkpt lat="46.28686" lon="6.80634">
        <ele>1070</ele>
        <time>2016-07-03T08:55:03.000Z</time>
      </trkpt>
      <trkpt lat="46.28681" lon="6.80625">
        <ele>1069</ele>
        <time>2016-07-03T08:55:08.000Z</time>
      </trkpt>
      <trkpt lat="46.28679" lon="6.80624">
        <ele>1069</ele>
        <time>2016-07-03T08:55:09.000Z</time>
      </trkpt>
      <trkpt lat="46.28673" lon="6.80614">
        <ele>1073</ele>
        <time>2016-07-03T08:55:16.000Z</time>
      </trkpt>
      <trkpt lat="46.28672" lon="6.80613">
        <ele>1073</ele>
        <time>2016-07-03T08:55:17.000Z</time>
      </trkpt>
      <trkpt lat="46.28666" lon="6.80605">
        <ele>1074</ele>
        <time>2016-07-03T08:55:25.000Z</time>
      </trkpt>
      <trkpt lat="46.28665" lon="6.80605">
        <ele>1074</ele>
        <time>2016-07-03T08:55:26.000Z</time>
      </trkpt>
      <trkpt lat="46.28659" lon="6.80598">
        <ele>1076</ele>
        <time>2016-07-03T08:55:31.000Z</time>
      </trkpt>
      <trkpt lat="46.28658" lon="6.80597">
        <ele>1075</ele>
        <time>2016-07-03T08:55:32.000Z</time>
      </trkpt>
      <trkpt lat="46.2865" lon="6.8059">
        <ele>1076</ele>
        <time>2016-07-03T08:55:38.000Z</time>
      </trkpt>
      <trkpt lat="46.2865" lon="6.80589">
        <ele>1077</ele>
        <time>2016-07-03T08:55:39.000Z</time>
      </trkpt>
      <trkpt lat="46.28644" lon="6.8058">
        <ele>1077</ele>
        <time>2016-07-03T08:55:47.000Z</time>
      </trkpt>
      <trkpt lat="46.28644" lon="6.80578">
        <ele>1077</ele>
        <time>2016-07-03T08:55:48.000Z</time>
      </trkpt>
      <trkpt lat="46.28637" lon="6.80572">
        <ele>1076</ele>
        <time>2016-07-03T08:55:53.000Z</time>
      </trkpt>
      <trkpt lat="46.28635" lon="6.80571">
        <ele>1073</ele>
        <time>2016-07-03T08:55:54.000Z</time>
      </trkpt>
      <trkpt lat="46.28629" lon="6.80562">
        <ele>1079</ele>
        <time>2016-07-03T08:56:01.000Z</time>
      </trkpt>
      <trkpt lat="46.28628" lon="6.80561">
        <ele>1079</ele>
        <time>2016-07-03T08:56:02.000Z</time>
      </trkpt>
      <trkpt lat="46.28621" lon="6.80552">
        <ele>1077</ele>
        <time>2016-07-03T08:56:08.000Z</time>
      </trkpt>
      <trkpt lat="46.28621" lon="6.80551">
        <ele>1080</ele>
        <time>2016-07-03T08:56:09.000Z</time>
      </trkpt>
      <trkpt lat="46.28616" lon="6.80543">
        <ele>1083</ele>
        <time>2016-07-03T08:56:14.000Z</time>
      </trkpt>
      <trkpt lat="46.28615" lon="6.80542">
        <ele>1083</ele>
        <time>2016-07-03T08:56:15.000Z</time>
      </trkpt>
      <trkpt lat="46.28608" lon="6.80535">
        <ele>1084</ele>
        <time>2016-07-03T08:56:23.000Z</time>
      </trkpt>
      <trkpt lat="46.28607" lon="6.80535">
        <ele>1084</ele>
        <time>2016-07-03T08:56:24.000Z</time>
      </trkpt>
      <trkpt lat="46.28601" lon="6.80528">
        <ele>1082</ele>
        <time>2016-07-03T08:56:29.000Z</time>
      </trkpt>
      <trkpt lat="46.28599" lon="6.80527">
        <ele>1083</ele>
        <time>2016-07-03T08:56:30.000Z</time>
      </trkpt>
      <trkpt lat="46.28592" lon="6.80519">
        <ele>1084</ele>
        <time>2016-07-03T08:56:37.000Z</time>
      </trkpt>
      <trkpt lat="46.28592" lon="6.80518">
        <ele>1084</ele>
        <time>2016-07-03T08:56:38.000Z</time>
      </trkpt>
      <trkpt lat="46.28586" lon="6.80509">
        <ele>1087</ele>
        <time>2016-07-03T08:56:45.000Z</time>
      </trkpt>
      <trkpt lat="46.28585" lon="6.80509">
        <ele>1086</ele>
        <time>2016-07-03T08:56:46.000Z</time>
      </trkpt>
      <trkpt lat="46.28579" lon="6.80499">
        <ele>1089</ele>
        <time>2016-07-03T08:56:54.000Z</time>
      </trkpt>
      <trkpt lat="46.28579" lon="6.80497">
        <ele>1092</ele>
        <time>2016-07-03T08:56:55.000Z</time>
      </trkpt>
      <trkpt lat="46.2857" lon="6.80497">
        <ele>1090</ele>
        <time>2016-07-03T08:57:02.000Z</time>
      </trkpt>
      <trkpt lat="46.28569" lon="6.80498">
        <ele>1091</ele>
        <time>2016-07-03T08:57:03.000Z</time>
      </trkpt>
      <trkpt lat="46.28561" lon="6.805">
        <ele>1091</ele>
        <time>2016-07-03T08:57:09.000Z</time>
      </trkpt>
      <trkpt lat="46.2856" lon="6.80501">
        <ele>1091</ele>
        <time>2016-07-03T08:57:10.000Z</time>
      </trkpt>
      <trkpt lat="46.28552" lon="6.805">
        <ele>1093</ele>
        <time>2016-07-03T08:57:16.000Z</time>
      </trkpt>
      <trkpt lat="46.28551" lon="6.80501">
        <ele>1093</ele>
        <time>2016-07-03T08:57:17.000Z</time>
      </trkpt>
      <trkpt lat="46.28543" lon="6.80496">
        <ele>1089</ele>
        <time>2016-07-03T08:57:24.000Z</time>
      </trkpt>
      <trkpt lat="46.28542" lon="6.80496">
        <ele>1090</ele>
        <time>2016-07-03T08:57:25.000Z</time>
      </trkpt>
      <trkpt lat="46.28534" lon="6.80492">
        <ele>1091</ele>
        <time>2016-07-03T08:57:31.000Z</time>
      </trkpt>
      <trkpt lat="46.28533" lon="6.80492">
        <ele>1091</ele>
        <time>2016-07-03T08:57:32.000Z</time>
      </trkpt>
      <trkpt lat="46.28525" lon="6.8049">
        <ele>1095</ele>
        <time>2016-07-03T08:57:41.000Z</time>
      </trkpt>
      <trkpt lat="46.28523" lon="6.8049">
        <ele>1096</ele>
        <time>2016-07-03T08:57:42.000Z</time>
      </trkpt>
      <trkpt lat="46.28515" lon="6.80491">
        <ele>1094</ele>
        <time>2016-07-03T08:57:48.000Z</time>
      </trkpt>
      <trkpt lat="46.28514" lon="6.80491">
        <ele>1095</ele>
        <time>2016-07-03T08:57:49.000Z</time>
      </trkpt>
      <trkpt lat="46.28506" lon="6.80496">
        <ele>1100</ele>
        <time>2016-07-03T08:57:57.000Z</time>
      </trkpt>
      <trkpt lat="46.28505" lon="6.80496">
        <ele>1099</ele>
        <time>2016-07-03T08:57:58.000Z</time>
      </trkpt>
      <trkpt lat="46.285" lon="6.80506">
        <ele>1101</ele>
        <time>2016-07-03T08:58:04.000Z</time>
      </trkpt>
      <trkpt lat="46.28498" lon="6.80505">
        <ele>1102</ele>
        <time>2016-07-03T08:58:05.000Z</time>
      </trkpt>
      <trkpt lat="46.28489" lon="6.80508">
        <ele>1103</ele>
        <time>2016-07-03T08:58:11.000Z</time>
      </trkpt>
      <trkpt lat="46.28487" lon="6.80509">
        <ele>1101</ele>
        <time>2016-07-03T08:58:12.000Z</time>
      </trkpt>
      <trkpt lat="46.28482" lon="6.80517">
        <ele>1104</ele>
        <time>2016-07-03T08:58:21.000Z</time>
      </trkpt>
      <trkpt lat="46.28481" lon="6.80518">
        <ele>1103</ele>
        <time>2016-07-03T08:58:22.000Z</time>
      </trkpt>
      <trkpt lat="46.28473" lon="6.80521">
        <ele>1101</ele>
        <time>2016-07-03T08:58:31.000Z</time>
      </trkpt>
      <trkpt lat="46.28472" lon="6.80522">
        <ele>1102</ele>
        <time>2016-07-03T08:58:32.000Z</time>
      </trkpt>
      <trkpt lat="46.28464" lon="6.80527">
        <ele>1102</ele>
        <time>2016-07-03T08:58:37.000Z</time>
      </trkpt>
      <trkpt lat="46.28463" lon="6.80529">
        <ele>1102</ele>
        <time>2016-07-03T08:58:38.000Z</time>
      </trkpt>
      <trkpt lat="46.28456" lon="6.80537">
        <ele>1102</ele>
        <time>2016-07-03T08:58:44.000Z</time>
      </trkpt>
      <trkpt lat="46.28456" lon="6.80539">
        <ele>1102</ele>
        <time>2016-07-03T08:58:45.000Z</time>
      </trkpt>
      <trkpt lat="46.28452" lon="6.80549">
        <ele>1101</ele>
        <time>2016-07-03T08:58:53.000Z</time>
      </trkpt>
      <trkpt lat="46.28447" lon="6.80547">
        <ele>1101</ele>
        <time>2016-07-03T08:58:54.000Z</time>
      </trkpt>
      <trkpt lat="46.28439" lon="6.80546">
        <ele>1102</ele>
        <time>2016-07-03T08:59:03.000Z</time>
      </trkpt>
      <trkpt lat="46.28437" lon="6.80548">
        <ele>1101</ele>
        <time>2016-07-03T08:59:04.000Z</time>
      </trkpt>
      <trkpt lat="46.2843" lon="6.80552">
        <ele>1106</ele>
        <time>2016-07-03T08:59:12.000Z</time>
      </trkpt>
      <trkpt lat="46.28428" lon="6.80553">
        <ele>1108</ele>
        <time>2016-07-03T08:59:13.000Z</time>
      </trkpt>
      <trkpt lat="46.28421" lon="6.80559">
        <ele>1115</ele>
        <time>2016-07-03T08:59:23.000Z</time>
      </trkpt>
      <trkpt lat="46.28419" lon="6.80559">
        <ele>1115</ele>
        <time>2016-07-03T08:59:24.000Z</time>
      </trkpt>
      <trkpt lat="46.28413" lon="6.80567">
        <ele>1119</ele>
        <time>2016-07-03T08:59:30.000Z</time>
      </trkpt>
      <trkpt lat="46.28411" lon="6.80572">
        <ele>1120</ele>
        <time>2016-07-03T08:59:31.000Z</time>
      </trkpt>
      <trkpt lat="46.28402" lon="6.80569">
        <ele>1116</ele>
        <time>2016-07-03T08:59:38.000Z</time>
      </trkpt>
      <trkpt lat="46.28402" lon="6.80569">
        <ele>1117</ele>
        <time>2016-07-03T08:59:39.000Z</time>
      </trkpt>
      <trkpt lat="46.28398" lon="6.80558">
        <ele>1121</ele>
        <time>2016-07-03T08:59:55.000Z</time>
      </trkpt>
      <trkpt lat="46.28397" lon="6.80556">
        <ele>1122</ele>
        <time>2016-07-03T08:59:56.000Z</time>
      </trkpt>
      <trkpt lat="46.28396" lon="6.80545">
        <ele>1120</ele>
        <time>2016-07-03T09:00:03.000Z</time>
      </trkpt>
      <trkpt lat="46.28398" lon="6.80543">
        <ele>1120</ele>
        <time>2016-07-03T09:00:04.000Z</time>
      </trkpt>
      <trkpt lat="46.28398" lon="6.80544">
        <ele>1119</ele>
        <time>2016-07-03T09:01:02.000Z</time>
      </trkpt>
      <trkpt lat="46.28398" lon="6.80544">
        <ele>1119</ele>
        <time>2016-07-03T09:01:03.000Z</time>
      </trkpt>
      <trkpt lat="46.28394" lon="6.80546">
        <ele>1120</ele>
        <time>2016-07-03T09:02:02.000Z</time>
      </trkpt>
      <trkpt lat="46.28394" lon="6.80546">
        <ele>1120</ele>
        <time>2016-07-03T09:02:03.000Z</time>
      </trkpt>
      <trkpt lat="46.28393" lon="6.80535">
        <ele>1118</ele>
        <time>2016-07-03T09:02:11.000Z</time>
      </trkpt>
      <trkpt lat="46.28394" lon="6.80533">
        <ele>1116</ele>
        <time>2016-07-03T09:02:12.000Z</time>
      </trkpt>
      <trkpt lat="46.28397" lon="6.8052">
        <ele>1117</ele>
        <time>2016-07-03T09:02:20.000Z</time>
      </trkpt>
      <trkpt lat="46.28397" lon="6.80519">
        <ele>1117</ele>
        <time>2016-07-03T09:02:21.000Z</time>
      </trkpt>
      <trkpt lat="46.284" lon="6.80507">
        <ele>1120</ele>
        <time>2016-07-03T09:02:31.000Z</time>
      </trkpt>
      <trkpt lat="46.28401" lon="6.80507">
        <ele>1119</ele>
        <time>2016-07-03T09:02:32.000Z</time>
      </trkpt>
      <trkpt lat="46.28403" lon="6.80495">
        <ele>1119</ele>
        <time>2016-07-03T09:02:44.000Z</time>
      </trkpt>
      <trkpt lat="46.28403" lon="6.80494">
        <ele>1120</ele>
        <time>2016-07-03T09:02:45.000Z</time>
      </trkpt>
      <trkpt lat="46.28409" lon="6.80484">
        <ele>1124</ele>
        <time>2016-07-03T09:02:54.000Z</time>
      </trkpt>
      <trkpt lat="46.28411" lon="6.80485">
        <ele>1125</ele>
        <time>2016-07-03T09:02:55.000Z</time>
      </trkpt>
      <trkpt lat="46.28416" lon="6.80475">
        <ele>1131</ele>
        <time>2016-07-03T09:03:09.000Z</time>
      </trkpt>
      <trkpt lat="46.28415" lon="6.80473">
        <ele>1132</ele>
        <time>2016-07-03T09:03:10.000Z</time>
      </trkpt>
      <trkpt lat="46.2841" lon="6.80463">
        <ele>1135</ele>
        <time>2016-07-03T09:03:13.000Z</time>
      </trkpt>
      <trkpt lat="46.2841" lon="6.80454">
        <ele>1134</ele>
        <time>2016-07-03T09:03:14.000Z</time>
      </trkpt>
      <trkpt lat="46.28414" lon="6.80456">
        <ele>1135</ele>
        <time>2016-07-03T09:03:15.000Z</time>
      </trkpt>
      <trkpt lat="46.28414" lon="6.80455">
        <ele>1134</ele>
        <time>2016-07-03T09:03:16.000Z</time>
      </trkpt>
      <trkpt lat="46.28413" lon="6.80451">
        <ele>1135</ele>
        <time>2016-07-03T09:03:17.000Z</time>
      </trkpt>
      <trkpt lat="46.28407" lon="6.80451">
        <ele>1138</ele>
        <time>2016-07-03T09:03:24.000Z</time>
      </trkpt>
      <trkpt lat="46.28407" lon="6.80451">
        <ele>1139</ele>
        <time>2016-07-03T09:03:25.000Z</time>
      </trkpt>
      <trkpt lat="46.28407" lon="6.8045">
        <ele>1140</ele>
        <time>2016-07-03T09:03:26.000Z</time>
      </trkpt>
      <trkpt lat="46.28399" lon="6.80452">
        <ele>1145</ele>
        <time>2016-07-03T09:03:31.000Z</time>
      </trkpt>
      <trkpt lat="46.28395" lon="6.80452">
        <ele>1145</ele>
        <time>2016-07-03T09:03:32.000Z</time>
      </trkpt>
      <trkpt lat="46.28387" lon="6.80451">
        <ele>1150</ele>
        <time>2016-07-03T09:03:44.000Z</time>
      </trkpt>
      <trkpt lat="46.28386" lon="6.80451">
        <ele>1150</ele>
        <time>2016-07-03T09:03:45.000Z</time>
      </trkpt>
      <trkpt lat="46.28381" lon="6.80446">
        <ele>1151</ele>
        <time>2016-07-03T09:04:16.000Z</time>
      </trkpt>
      <trkpt lat="46.28381" lon="6.80448">
        <ele>1153</ele>
        <time>2016-07-03T09:04:17.000Z</time>
      </trkpt>
      <trkpt lat="46.28376" lon="6.80449">
        <ele>1152</ele>
        <time>2016-07-03T09:04:18.000Z</time>
      </trkpt>
      <trkpt lat="46.2837" lon="6.8045">
        <ele>1164</ele>
        <time>2016-07-03T09:05:20.000Z</time>
      </trkpt>
      <trkpt lat="46.28367" lon="6.80456">
        <ele>1168</ele>
        <time>2016-07-03T09:05:21.000Z</time>
      </trkpt>
      <trkpt lat="46.28361" lon="6.80463">
        <ele>1169</ele>
        <time>2016-07-03T09:05:23.000Z</time>
      </trkpt>
      <trkpt lat="46.28354" lon="6.80466">
        <ele>1167</ele>
        <time>2016-07-03T09:05:24.000Z</time>
      </trkpt>
      <trkpt lat="46.28361" lon="6.80473">
        <ele>1177</ele>
        <time>2016-07-03T09:05:28.000Z</time>
      </trkpt>
      <trkpt lat="46.28363" lon="6.80476">
        <ele>1179</ele>
        <time>2016-07-03T09:05:29.000Z</time>
      </trkpt>
      <trkpt lat="46.28355" lon="6.80476">
        <ele>1160</ele>
        <time>2016-07-03T09:05:46.000Z</time>
      </trkpt>
      <trkpt lat="46.28353" lon="6.80476">
        <ele>1158</ele>
        <time>2016-07-03T09:05:47.000Z</time>
      </trkpt>
      <trkpt lat="46.28356" lon="6.80487">
        <ele>1154</ele>
        <time>2016-07-03T09:06:01.000Z</time>
      </trkpt>
      <trkpt lat="46.28356" lon="6.80489">
        <ele>1154</ele>
        <time>2016-07-03T09:06:02.000Z</time>
      </trkpt>
      <trkpt lat="46.28358" lon="6.80499">
        <ele>1152</ele>
        <time>2016-07-03T09:06:13.000Z</time>
      </trkpt>
      <trkpt lat="46.2836" lon="6.80501">
        <ele>1153</ele>
        <time>2016-07-03T09:06:14.000Z</time>
      </trkpt>
      <trkpt lat="46.28361" lon="6.80512">
        <ele>1155</ele>
        <time>2016-07-03T09:06:26.000Z</time>
      </trkpt>
      <trkpt lat="46.28361" lon="6.80513">
        <ele>1154</ele>
        <time>2016-07-03T09:06:27.000Z</time>
      </trkpt>
      <trkpt lat="46.28354" lon="6.80518">
        <ele>1150</ele>
        <time>2016-07-03T09:06:39.000Z</time>
      </trkpt>
      <trkpt lat="46.28353" lon="6.80519">
        <ele>1149</ele>
        <time>2016-07-03T09:06:40.000Z</time>
      </trkpt>
      <trkpt lat="46.28348" lon="6.80526">
        <ele>1148</ele>
        <time>2016-07-03T09:06:50.000Z</time>
      </trkpt>
      <trkpt lat="46.28345" lon="6.80527">
        <ele>1148</ele>
        <time>2016-07-03T09:06:51.000Z</time>
      </trkpt>
      <trkpt lat="46.28338" lon="6.80534">
        <ele>1149</ele>
        <time>2016-07-03T09:07:04.000Z</time>
      </trkpt>
      <trkpt lat="46.28336" lon="6.80533">
        <ele>1149</ele>
        <time>2016-07-03T09:07:05.000Z</time>
      </trkpt>
      <trkpt lat="46.28328" lon="6.8054">
        <ele>1150</ele>
        <time>2016-07-03T09:07:15.000Z</time>
      </trkpt>
      <trkpt lat="46.28328" lon="6.80541">
        <ele>1150</ele>
        <time>2016-07-03T09:07:16.000Z</time>
      </trkpt>
      <trkpt lat="46.28326" lon="6.80553">
        <ele>1156</ele>
        <time>2016-07-03T09:07:27.000Z</time>
      </trkpt>
      <trkpt lat="46.28329" lon="6.80557">
        <ele>1157</ele>
        <time>2016-07-03T09:07:28.000Z</time>
      </trkpt>
      <trkpt lat="46.28322" lon="6.80563">
        <ele>1158</ele>
        <time>2016-07-03T09:07:38.000Z</time>
      </trkpt>
      <trkpt lat="46.28321" lon="6.80563">
        <ele>1158</ele>
        <time>2016-07-03T09:07:39.000Z</time>
      </trkpt>
      <trkpt lat="46.28313" lon="6.80568">
        <ele>1161</ele>
        <time>2016-07-03T09:07:50.000Z</time>
      </trkpt>
      <trkpt lat="46.28312" lon="6.80568">
        <ele>1163</ele>
        <time>2016-07-03T09:07:51.000Z</time>
      </trkpt>
      <trkpt lat="46.28313" lon="6.80556">
        <ele>1167</ele>
        <time>2016-07-03T09:08:13.000Z</time>
      </trkpt>
      <trkpt lat="46.28313" lon="6.80555">
        <ele>1167</ele>
        <time>2016-07-03T09:08:14.000Z</time>
      </trkpt>
      <trkpt lat="46.28314" lon="6.80543">
        <ele>1171</ele>
        <time>2016-07-03T09:08:27.000Z</time>
      </trkpt>
      <trkpt lat="46.28314" lon="6.80542">
        <ele>1171</ele>
        <time>2016-07-03T09:08:28.000Z</time>
      </trkpt>
      <trkpt lat="46.28312" lon="6.80532">
        <ele>1167</ele>
        <time>2016-07-03T09:08:38.000Z</time>
      </trkpt>
      <trkpt lat="46.28311" lon="6.80532">
        <ele>1168</ele>
        <time>2016-07-03T09:08:39.000Z</time>
      </trkpt>
      <trkpt lat="46.28313" lon="6.8053">
        <ele>1170</ele>
        <time>2016-07-03T09:08:51.000Z</time>
      </trkpt>
      <trkpt lat="46.28313" lon="6.8053">
        <ele>1170</ele>
        <time>2016-07-03T09:08:52.000Z</time>
      </trkpt>
      <trkpt lat="46.28311" lon="6.80518">
        <ele>1170</ele>
        <time>2016-07-03T09:09:01.000Z</time>
      </trkpt>
      <trkpt lat="46.28314" lon="6.80517">
        <ele>1175</ele>
        <time>2016-07-03T09:09:02.000Z</time>
      </trkpt>
      <trkpt lat="46.28312" lon="6.80505">
        <ele>1175</ele>
        <time>2016-07-03T09:09:12.000Z</time>
      </trkpt>
      <trkpt lat="46.28311" lon="6.80504">
        <ele>1175</ele>
        <time>2016-07-03T09:09:13.000Z</time>
      </trkpt>
      <trkpt lat="46.28309" lon="6.80492">
        <ele>1175</ele>
        <time>2016-07-03T09:09:26.000Z</time>
      </trkpt>
      <trkpt lat="46.28309" lon="6.80491">
        <ele>1174</ele>
        <time>2016-07-03T09:09:27.000Z</time>
      </trkpt>
      <trkpt lat="46.28305" lon="6.80479">
        <ele>1176</ele>
        <time>2016-07-03T09:09:44.000Z</time>
      </trkpt>
      <trkpt lat="46.28306" lon="6.80478">
        <ele>1176</ele>
        <time>2016-07-03T09:09:45.000Z</time>
      </trkpt>
      <trkpt lat="46.283" lon="6.8047">
        <ele>1183</ele>
        <time>2016-07-03T09:09:57.000Z</time>
      </trkpt>
      <trkpt lat="46.28298" lon="6.80469">
        <ele>1182</ele>
        <time>2016-07-03T09:09:58.000Z</time>
      </trkpt>
      <trkpt lat="46.28291" lon="6.80467">
        <ele>1181</ele>
        <time>2016-07-03T09:10:06.000Z</time>
      </trkpt>
      <trkpt lat="46.28289" lon="6.80467">
        <ele>1181</ele>
        <time>2016-07-03T09:10:07.000Z</time>
      </trkpt>
      <trkpt lat="46.28285" lon="6.80463">
        <ele>1179</ele>
        <time>2016-07-03T09:10:42.000Z</time>
      </trkpt>
      <trkpt lat="46.28281" lon="6.80455">
        <ele>1180</ele>
        <time>2016-07-03T09:10:43.000Z</time>
      </trkpt>
      <trkpt lat="46.28282" lon="6.80443">
        <ele>1185</ele>
        <time>2016-07-03T09:10:48.000Z</time>
      </trkpt>
      <trkpt lat="46.28281" lon="6.80441">
        <ele>1183</ele>
        <time>2016-07-03T09:10:49.000Z</time>
      </trkpt>
      <trkpt lat="46.28281" lon="6.80431">
        <ele>1183</ele>
        <time>2016-07-03T09:10:53.000Z</time>
      </trkpt>
      <trkpt lat="46.28282" lon="6.80428">
        <ele>1182</ele>
        <time>2016-07-03T09:10:54.000Z</time>
      </trkpt>
      <trkpt lat="46.28279" lon="6.80416">
        <ele>1186</ele>
        <time>2016-07-03T09:11:02.000Z</time>
      </trkpt>
      <trkpt lat="46.28279" lon="6.80414">
        <ele>1187</ele>
        <time>2016-07-03T09:11:03.000Z</time>
      </trkpt>
      <trkpt lat="46.28282" lon="6.80403">
        <ele>1197</ele>
        <time>2016-07-03T09:11:14.000Z</time>
      </trkpt>
      <trkpt lat="46.28283" lon="6.80402">
        <ele>1197</ele>
        <time>2016-07-03T09:11:15.000Z</time>
      </trkpt>
      <trkpt lat="46.28285" lon="6.80391">
        <ele>1197</ele>
        <time>2016-07-03T09:11:23.000Z</time>
      </trkpt>
      <trkpt lat="46.28287" lon="6.80389">
        <ele>1198</ele>
        <time>2016-07-03T09:11:24.000Z</time>
      </trkpt>
      <trkpt lat="46.2828" lon="6.80382">
        <ele>1197</ele>
        <time>2016-07-03T09:12:01.000Z</time>
      </trkpt>
      <trkpt lat="46.28279" lon="6.80381">
        <ele>1198</ele>
        <time>2016-07-03T09:12:02.000Z</time>
      </trkpt>
      <trkpt lat="46.28276" lon="6.8038">
        <ele>1197</ele>
        <time>2016-07-03T09:12:04.000Z</time>
      </trkpt>
      <trkpt lat="46.28275" lon="6.8038">
        <ele>1197</ele>
        <time>2016-07-03T09:12:05.000Z</time>
      </trkpt>
      <trkpt lat="46.28275" lon="6.8038">
        <ele>1198</ele>
        <time>2016-07-03T09:12:06.000Z</time>
      </trkpt>
      <trkpt lat="46.2827" lon="6.80371">
        <ele>1199</ele>
        <time>2016-07-03T09:12:14.000Z</time>
      </trkpt>
      <trkpt lat="46.28269" lon="6.80371">
        <ele>1198</ele>
        <time>2016-07-03T09:12:15.000Z</time>
      </trkpt>
      <trkpt lat="46.28263" lon="6.80362">
        <ele>1201</ele>
        <time>2016-07-03T09:12:26.000Z</time>
      </trkpt>
      <trkpt lat="46.28261" lon="6.80362">
        <ele>1201</ele>
        <time>2016-07-03T09:12:27.000Z</time>
      </trkpt>
      <trkpt lat="46.28254" lon="6.80354">
        <ele>1202</ele>
        <time>2016-07-03T09:12:39.000Z</time>
      </trkpt>
      <trkpt lat="46.28253" lon="6.80353">
        <ele>1203</ele>
        <time>2016-07-03T09:12:40.000Z</time>
      </trkpt>
      <trkpt lat="46.28248" lon="6.80343">
        <ele>1208</ele>
        <time>2016-07-03T09:13:20.000Z</time>
      </trkpt>
      <trkpt lat="46.28247" lon="6.80342">
        <ele>1208</ele>
        <time>2016-07-03T09:13:21.000Z</time>
      </trkpt>
      <trkpt lat="46.28243" lon="6.80331">
        <ele>1212</ele>
        <time>2016-07-03T09:13:30.000Z</time>
      </trkpt>
      <trkpt lat="46.28244" lon="6.80329">
        <ele>1212</ele>
        <time>2016-07-03T09:13:31.000Z</time>
      </trkpt>
      <trkpt lat="46.28235" lon="6.80329">
        <ele>1221</ele>
        <time>2016-07-03T09:13:41.000Z</time>
      </trkpt>
      <trkpt lat="46.28233" lon="6.8033">
        <ele>1221</ele>
        <time>2016-07-03T09:13:42.000Z</time>
      </trkpt>
      <trkpt lat="46.28224" lon="6.80326">
        <ele>1216</ele>
        <time>2016-07-03T09:13:51.000Z</time>
      </trkpt>
      <trkpt lat="46.28222" lon="6.80325">
        <ele>1216</ele>
        <time>2016-07-03T09:13:52.000Z</time>
      </trkpt>
      <trkpt lat="46.28219" lon="6.80315">
        <ele>1218</ele>
        <time>2016-07-03T09:14:18.000Z</time>
      </trkpt>
      <trkpt lat="46.28218" lon="6.80313">
        <ele>1218</ele>
        <time>2016-07-03T09:14:19.000Z</time>
      </trkpt>
      <trkpt lat="46.28217" lon="6.803">
        <ele>1224</ele>
        <time>2016-07-03T09:14:40.000Z</time>
      </trkpt>
      <trkpt lat="46.28215" lon="6.803">
        <ele>1224</ele>
        <time>2016-07-03T09:14:41.000Z</time>
      </trkpt>
      <trkpt lat="46.28209" lon="6.80297">
        <ele>1226</ele>
        <time>2016-07-03T09:14:51.000Z</time>
      </trkpt>
      <trkpt lat="46.28206" lon="6.80295">
        <ele>1226</ele>
        <time>2016-07-03T09:14:52.000Z</time>
      </trkpt>
      <trkpt lat="46.282" lon="6.8029">
        <ele>1232</ele>
        <time>2016-07-03T09:15:01.000Z</time>
      </trkpt>
      <trkpt lat="46.28198" lon="6.80288">
        <ele>1230</ele>
        <time>2016-07-03T09:15:02.000Z</time>
      </trkpt>
      <trkpt lat="46.2819" lon="6.80284">
        <ele>1229</ele>
        <time>2016-07-03T09:15:11.000Z</time>
      </trkpt>
      <trkpt lat="46.28189" lon="6.80283">
        <ele>1228</ele>
        <time>2016-07-03T09:15:12.000Z</time>
      </trkpt>
      <trkpt lat="46.28181" lon="6.8028">
        <ele>1229</ele>
        <time>2016-07-03T09:15:49.000Z</time>
      </trkpt>
      <trkpt lat="46.2818" lon="6.80278">
        <ele>1229</ele>
        <time>2016-07-03T09:15:50.000Z</time>
      </trkpt>
      <trkpt lat="46.28171" lon="6.80275">
        <ele>1231</ele>
        <time>2016-07-03T09:15:58.000Z</time>
      </trkpt>
      <trkpt lat="46.2817" lon="6.80275">
        <ele>1232</ele>
        <time>2016-07-03T09:15:59.000Z</time>
      </trkpt>
      <trkpt lat="46.28164" lon="6.80267">
        <ele>1249</ele>
        <time>2016-07-03T09:17:32.000Z</time>
      </trkpt>
      <trkpt lat="46.28162" lon="6.80267">
        <ele>1248</ele>
        <time>2016-07-03T09:17:33.000Z</time>
      </trkpt>
      <trkpt lat="46.28156" lon="6.80261">
        <ele>1247</ele>
        <time>2016-07-03T09:17:41.000Z</time>
      </trkpt>
      <trkpt lat="46.28154" lon="6.80258">
        <ele>1246</ele>
        <time>2016-07-03T09:17:42.000Z</time>
      </trkpt>
      <trkpt lat="46.28153" lon="6.80246">
        <ele>1247</ele>
        <time>2016-07-03T09:17:58.000Z</time>
      </trkpt>
      <trkpt lat="46.28152" lon="6.80245">
        <ele>1248</ele>
        <time>2016-07-03T09:17:59.000Z</time>
      </trkpt>
      <trkpt lat="46.28149" lon="6.80239">
        <ele>1248</ele>
        <time>2016-07-03T09:18:32.000Z</time>
      </trkpt>
      <trkpt lat="46.28145" lon="6.80234">
        <ele>1250</ele>
        <time>2016-07-03T09:18:33.000Z</time>
      </trkpt>
      <trkpt lat="46.28141" lon="6.80229">
        <ele>1248</ele>
        <time>2016-07-03T09:18:35.000Z</time>
      </trkpt>
      <trkpt lat="46.28137" lon="6.80226">
        <ele>1247</ele>
        <time>2016-07-03T09:18:36.000Z</time>
      </trkpt>
      <trkpt lat="46.2813" lon="6.80223">
        <ele>1247</ele>
        <time>2016-07-03T09:18:38.000Z</time>
      </trkpt>
      <trkpt lat="46.28127" lon="6.80221">
        <ele>1246</ele>
        <time>2016-07-03T09:18:39.000Z</time>
      </trkpt>
      <trkpt lat="46.28121" lon="6.80218">
        <ele>1252</ele>
        <time>2016-07-03T09:18:48.000Z</time>
      </trkpt>
      <trkpt lat="46.28118" lon="6.80218">
        <ele>1251</ele>
        <time>2016-07-03T09:18:49.000Z</time>
      </trkpt>
      <trkpt lat="46.2811" lon="6.80222">
        <ele>1256</ele>
        <time>2016-07-03T09:19:29.000Z</time>
      </trkpt>
      <trkpt lat="46.28108" lon="6.80221">
        <ele>1257</ele>
        <time>2016-07-03T09:19:30.000Z</time>
      </trkpt>
      <trkpt lat="46.28101" lon="6.80226">
        <ele>1261</ele>
        <time>2016-07-03T09:19:40.000Z</time>
      </trkpt>
      <trkpt lat="46.28101" lon="6.8023">
        <ele>1264</ele>
        <time>2016-07-03T09:19:41.000Z</time>
      </trkpt>
      <trkpt lat="46.28094" lon="6.80234">
        <ele>1269</ele>
        <time>2016-07-03T09:19:49.000Z</time>
      </trkpt>
      <trkpt lat="46.28092" lon="6.80235">
        <ele>1271</ele>
        <time>2016-07-03T09:19:50.000Z</time>
      </trkpt>
      <trkpt lat="46.28084" lon="6.80239">
        <ele>1277</ele>
        <time>2016-07-03T09:19:57.000Z</time>
      </trkpt>
      <trkpt lat="46.28083" lon="6.8024">
        <ele>1277</ele>
        <time>2016-07-03T09:19:58.000Z</time>
      </trkpt>
      <trkpt lat="46.28076" lon="6.80241">
        <ele>1274</ele>
        <time>2016-07-03T09:20:13.000Z</time>
      </trkpt>
      <trkpt lat="46.28076" lon="6.80241">
        <ele>1274</ele>
        <time>2016-07-03T09:20:14.000Z</time>
      </trkpt>
      <trkpt lat="46.28077" lon="6.80243">
        <ele>1275</ele>
        <time>2016-07-03T09:20:15.000Z</time>
      </trkpt>
      <trkpt lat="46.28077" lon="6.80255">
        <ele>1274</ele>
        <time>2016-07-03T09:20:23.000Z</time>
      </trkpt>
      <trkpt lat="46.28078" lon="6.80256">
        <ele>1274</ele>
        <time>2016-07-03T09:20:24.000Z</time>
      </trkpt>
      <trkpt lat="46.28081" lon="6.80268">
        <ele>1273</ele>
        <time>2016-07-03T09:20:29.000Z</time>
      </trkpt>
      <trkpt lat="46.28081" lon="6.8027">
        <ele>1273</ele>
        <time>2016-07-03T09:20:30.000Z</time>
      </trkpt>
      <trkpt lat="46.28082" lon="6.80282">
        <ele>1275</ele>
        <time>2016-07-03T09:20:39.000Z</time>
      </trkpt>
      <trkpt lat="46.28084" lon="6.80282">
        <ele>1278</ele>
        <time>2016-07-03T09:20:40.000Z</time>
      </trkpt>
      <trkpt lat="46.28083" lon="6.80295">
        <ele>1275</ele>
        <time>2016-07-03T09:20:52.000Z</time>
      </trkpt>
      <trkpt lat="46.28084" lon="6.80296">
        <ele>1275</ele>
        <time>2016-07-03T09:20:53.000Z</time>
      </trkpt>
      <trkpt lat="46.28082" lon="6.80308">
        <ele>1273</ele>
        <time>2016-07-03T09:21:03.000Z</time>
      </trkpt>
      <trkpt lat="46.28082" lon="6.80311">
        <ele>1275</ele>
        <time>2016-07-03T09:21:04.000Z</time>
      </trkpt>
      <trkpt lat="46.28081" lon="6.80322">
        <ele>1283</ele>
        <time>2016-07-03T09:21:30.000Z</time>
      </trkpt>
      <trkpt lat="46.2808" lon="6.80324">
        <ele>1281</ele>
        <time>2016-07-03T09:21:31.000Z</time>
      </trkpt>
      <trkpt lat="46.2808" lon="6.80325">
        <ele>1279</ele>
        <time>2016-07-03T09:22:03.000Z</time>
      </trkpt>
      <trkpt lat="46.2808" lon="6.80324">
        <ele>1279</ele>
        <time>2016-07-03T09:22:04.000Z</time>
      </trkpt>
      <trkpt lat="46.28075" lon="6.80324">
        <ele>1280</ele>
        <time>2016-07-03T09:30:22.000Z</time>
      </trkpt>
      <trkpt lat="46.28075" lon="6.80324">
        <ele>1280</ele>
        <time>2016-07-03T09:30:23.000Z</time>
      </trkpt>
      <trkpt lat="46.28069" lon="6.8033">
        <ele>1274</ele>
        <time>2016-07-03T10:27:16.000Z</time>
      </trkpt>
      <trkpt lat="46.28069" lon="6.8033">
        <ele>1274</ele>
        <time>2016-07-03T10:27:17.000Z</time>
      </trkpt>
      <trkpt lat="46.28069" lon="6.80329">
        <ele>1275</ele>
        <time>2016-07-03T10:27:23.000Z</time>
      </trkpt>
      <trkpt lat="46.28069" lon="6.80329">
        <ele>1275</ele>
        <time>2016-07-03T10:27:24.000Z</time>
      </trkpt>
      <trkpt lat="46.28076" lon="6.80326">
        <ele>1276</ele>
        <time>2016-07-03T10:31:15.000Z</time>
      </trkpt>
      <trkpt lat="46.28076" lon="6.80326">
        <ele>1276</ele>
        <time>2016-07-03T10:31:16.000Z</time>
      </trkpt>
      <trkpt lat="46.28074" lon="6.80327">
        <ele>1275</ele>
        <time>2016-07-03T10:32:06.000Z</time>
      </trkpt>
      <trkpt lat="46.28074" lon="6.80327">
        <ele>1275</ele>
        <time>2016-07-03T10:32:07.000Z</time>
      </trkpt>
      <trkpt lat="46.28077" lon="6.80338">
        <ele>1278</ele>
        <time>2016-07-03T10:35:10.000Z</time>
      </trkpt>
      <trkpt lat="46.28077" lon="6.8034">
        <ele>1278</ele>
        <time>2016-07-03T10:35:11.000Z</time>
      </trkpt>
      <trkpt lat="46.28074" lon="6.80352">
        <ele>1279</ele>
        <time>2016-07-03T10:35:22.000Z</time>
      </trkpt>
      <trkpt lat="46.28073" lon="6.80353">
        <ele>1279</ele>
        <time>2016-07-03T10:35:23.000Z</time>
      </trkpt>
      <trkpt lat="46.28067" lon="6.80361">
        <ele>1277</ele>
        <time>2016-07-03T10:35:32.000Z</time>
      </trkpt>
      <trkpt lat="46.28065" lon="6.80363">
        <ele>1276</ele>
        <time>2016-07-03T10:35:33.000Z</time>
      </trkpt>
      <trkpt lat="46.28061" lon="6.80373">
        <ele>1274</ele>
        <time>2016-07-03T10:35:41.000Z</time>
      </trkpt>
      <trkpt lat="46.2806" lon="6.80374">
        <ele>1274</ele>
        <time>2016-07-03T10:35:42.000Z</time>
      </trkpt>
      <trkpt lat="46.28056" lon="6.80384">
        <ele>1272</ele>
        <time>2016-07-03T10:35:53.000Z</time>
      </trkpt>
      <trkpt lat="46.28056" lon="6.80385">
        <ele>1272</ele>
        <time>2016-07-03T10:35:54.000Z</time>
      </trkpt>
      <trkpt lat="46.28049" lon="6.80393">
        <ele>1275</ele>
        <time>2016-07-03T10:36:01.000Z</time>
      </trkpt>
      <trkpt lat="46.28048" lon="6.80394">
        <ele>1275</ele>
        <time>2016-07-03T10:36:02.000Z</time>
      </trkpt>
      <trkpt lat="46.28043" lon="6.80404">
        <ele>1276</ele>
        <time>2016-07-03T10:36:13.000Z</time>
      </trkpt>
      <trkpt lat="46.28042" lon="6.80407">
        <ele>1277</ele>
        <time>2016-07-03T10:36:14.000Z</time>
      </trkpt>
      <trkpt lat="46.28036" lon="6.80415">
        <ele>1275</ele>
        <time>2016-07-03T10:36:23.000Z</time>
      </trkpt>
      <trkpt lat="46.28034" lon="6.80416">
        <ele>1274</ele>
        <time>2016-07-03T10:36:24.000Z</time>
      </trkpt>
      <trkpt lat="46.28032" lon="6.80429">
        <ele>1274</ele>
        <time>2016-07-03T10:36:36.000Z</time>
      </trkpt>
      <trkpt lat="46.28032" lon="6.80429">
        <ele>1275</ele>
        <time>2016-07-03T10:36:37.000Z</time>
      </trkpt>
      <trkpt lat="46.28028" lon="6.80436">
        <ele>1275</ele>
        <time>2016-07-03T10:37:01.000Z</time>
      </trkpt>
      <trkpt lat="46.28024" lon="6.80436">
        <ele>1272</ele>
        <time>2016-07-03T10:37:02.000Z</time>
      </trkpt>
      <trkpt lat="46.28017" lon="6.80437">
        <ele>1273</ele>
        <time>2016-07-03T10:37:06.000Z</time>
      </trkpt>
      <trkpt lat="46.28015" lon="6.80436">
        <ele>1272</ele>
        <time>2016-07-03T10:37:07.000Z</time>
      </trkpt>
      <trkpt lat="46.28006" lon="6.80434">
        <ele>1273</ele>
        <time>2016-07-03T10:37:13.000Z</time>
      </trkpt>
      <trkpt lat="46.28005" lon="6.80434">
        <ele>1275</ele>
        <time>2016-07-03T10:37:14.000Z</time>
      </trkpt>
      <trkpt lat="46.27997" lon="6.80432">
        <ele>1276</ele>
        <time>2016-07-03T10:37:22.000Z</time>
      </trkpt>
      <trkpt lat="46.27995" lon="6.80433">
        <ele>1276</ele>
        <time>2016-07-03T10:37:23.000Z</time>
      </trkpt>
      <trkpt lat="46.27987" lon="6.80432">
        <ele>1278</ele>
        <time>2016-07-03T10:37:31.000Z</time>
      </trkpt>
      <trkpt lat="46.27986" lon="6.80431">
        <ele>1277</ele>
        <time>2016-07-03T10:37:32.000Z</time>
      </trkpt>
      <trkpt lat="46.2798" lon="6.80438">
        <ele>1276</ele>
        <time>2016-07-03T10:37:41.000Z</time>
      </trkpt>
      <trkpt lat="46.2798" lon="6.80438">
        <ele>1276</ele>
        <time>2016-07-03T10:37:42.000Z</time>
      </trkpt>
      <trkpt lat="46.2798" lon="6.8044">
        <ele>1276</ele>
        <time>2016-07-03T10:37:43.000Z</time>
      </trkpt>
      <trkpt lat="46.27977" lon="6.80449">
        <ele>1278</ele>
        <time>2016-07-03T10:37:56.000Z</time>
      </trkpt>
      <trkpt lat="46.27974" lon="6.8045">
        <ele>1278</ele>
        <time>2016-07-03T10:37:57.000Z</time>
      </trkpt>
      <trkpt lat="46.27967" lon="6.80452">
        <ele>1276</ele>
        <time>2016-07-03T10:38:06.000Z</time>
      </trkpt>
      <trkpt lat="46.27968" lon="6.80451">
        <ele>1280</ele>
        <time>2016-07-03T10:38:07.000Z</time>
      </trkpt>
      <trkpt lat="46.27968" lon="6.8045">
        <ele>1281</ele>
        <time>2016-07-03T10:38:08.000Z</time>
      </trkpt>
      <trkpt lat="46.27962" lon="6.80443">
        <ele>1285</ele>
        <time>2016-07-03T10:38:22.000Z</time>
      </trkpt>
      <trkpt lat="46.27959" lon="6.8044">
        <ele>1284</ele>
        <time>2016-07-03T10:38:23.000Z</time>
      </trkpt>
      <trkpt lat="46.27951" lon="6.80435">
        <ele>1283</ele>
        <time>2016-07-03T10:38:27.000Z</time>
      </trkpt>
      <trkpt lat="46.2795" lon="6.80436">
        <ele>1283</ele>
        <time>2016-07-03T10:38:28.000Z</time>
      </trkpt>
      <trkpt lat="46.27943" lon="6.80432">
        <ele>1288</ele>
        <time>2016-07-03T10:38:37.000Z</time>
      </trkpt>
      <trkpt lat="46.27942" lon="6.8043">
        <ele>1288</ele>
        <time>2016-07-03T10:38:38.000Z</time>
      </trkpt>
      <trkpt lat="46.27934" lon="6.80425">
        <ele>1298</ele>
        <time>2016-07-03T10:38:48.000Z</time>
      </trkpt>
      <trkpt lat="46.27932" lon="6.80427">
        <ele>1296</ele>
        <time>2016-07-03T10:38:49.000Z</time>
      </trkpt>
      <trkpt lat="46.27925" lon="6.8042">
        <ele>1301</ele>
        <time>2016-07-03T10:38:59.000Z</time>
      </trkpt>
      <trkpt lat="46.27924" lon="6.8042">
        <ele>1301</ele>
        <time>2016-07-03T10:39:00.000Z</time>
      </trkpt>
      <trkpt lat="46.27917" lon="6.80411">
        <ele>1293</ele>
        <time>2016-07-03T10:40:04.000Z</time>
      </trkpt>
      <trkpt lat="46.27916" lon="6.80411">
        <ele>1293</ele>
        <time>2016-07-03T10:40:05.000Z</time>
      </trkpt>
      <trkpt lat="46.27921" lon="6.80406">
        <ele>1294</ele>
        <time>2016-07-03T10:40:22.000Z</time>
      </trkpt>
      <trkpt lat="46.27924" lon="6.80405">
        <ele>1296</ele>
        <time>2016-07-03T10:40:23.000Z</time>
      </trkpt>
      <trkpt lat="46.27929" lon="6.80397">
        <ele>1300</ele>
        <time>2016-07-03T10:40:37.000Z</time>
      </trkpt>
      <trkpt lat="46.27932" lon="6.80396">
        <ele>1300</ele>
        <time>2016-07-03T10:40:38.000Z</time>
      </trkpt>
      <trkpt lat="46.27935" lon="6.80388">
        <ele>1297</ele>
        <time>2016-07-03T10:40:42.000Z</time>
      </trkpt>
      <trkpt lat="46.27935" lon="6.80387">
        <ele>1298</ele>
        <time>2016-07-03T10:40:43.000Z</time>
      </trkpt>
      <trkpt lat="46.27936" lon="6.80384">
        <ele>1298</ele>
        <time>2016-07-03T10:40:44.000Z</time>
      </trkpt>
      <trkpt lat="46.27942" lon="6.80376">
        <ele>1298</ele>
        <time>2016-07-03T10:40:52.000Z</time>
      </trkpt>
      <trkpt lat="46.27943" lon="6.80376">
        <ele>1299</ele>
        <time>2016-07-03T10:40:53.000Z</time>
      </trkpt>
      <trkpt lat="46.27952" lon="6.80373">
        <ele>1302</ele>
        <time>2016-07-03T10:40:58.000Z</time>
      </trkpt>
      <trkpt lat="46.27954" lon="6.80372">
        <ele>1303</ele>
        <time>2016-07-03T10:40:59.000Z</time>
      </trkpt>
      <trkpt lat="46.27957" lon="6.8036">
        <ele>1304</ele>
        <time>2016-07-03T10:41:11.000Z</time>
      </trkpt>
      <trkpt lat="46.27956" lon="6.80358">
        <ele>1305</ele>
        <time>2016-07-03T10:41:12.000Z</time>
      </trkpt>
      <trkpt lat="46.27958" lon="6.80349">
        <ele>1307</ele>
        <time>2016-07-03T10:41:24.000Z</time>
      </trkpt>
      <trkpt lat="46.27962" lon="6.80347">
        <ele>1308</ele>
        <time>2016-07-03T10:41:25.000Z</time>
      </trkpt>
      <trkpt lat="46.27964" lon="6.80335">
        <ele>1311</ele>
        <time>2016-07-03T10:41:37.000Z</time>
      </trkpt>
      <trkpt lat="46.27964" lon="6.80335">
        <ele>1311</ele>
        <time>2016-07-03T10:41:38.000Z</time>
      </trkpt>
      <trkpt lat="46.27968" lon="6.80323">
        <ele>1316</ele>
        <time>2016-07-03T10:42:00.000Z</time>
      </trkpt>
      <trkpt lat="46.27966" lon="6.80322">
        <ele>1314</ele>
        <time>2016-07-03T10:42:01.000Z</time>
      </trkpt>
      <trkpt lat="46.27971" lon="6.80312">
        <ele>1319</ele>
        <time>2016-07-03T10:42:13.000Z</time>
      </trkpt>
      <trkpt lat="46.27971" lon="6.80311">
        <ele>1319</ele>
        <time>2016-07-03T10:42:14.000Z</time>
      </trkpt>
      <trkpt lat="46.27967" lon="6.80301">
        <ele>1323</ele>
        <time>2016-07-03T10:42:28.000Z</time>
      </trkpt>
      <trkpt lat="46.27966" lon="6.803">
        <ele>1323</ele>
        <time>2016-07-03T10:42:29.000Z</time>
      </trkpt>
      <trkpt lat="46.27968" lon="6.80288">
        <ele>1328</ele>
        <time>2016-07-03T10:42:53.000Z</time>
      </trkpt>
      <trkpt lat="46.27968" lon="6.80288">
        <ele>1328</ele>
        <time>2016-07-03T10:42:54.000Z</time>
      </trkpt>
      <trkpt lat="46.27966" lon="6.80288">
        <ele>1328</ele>
        <time>2016-07-03T10:43:00.000Z</time>
      </trkpt>
      <trkpt lat="46.27966" lon="6.80288">
        <ele>1328</ele>
        <time>2016-07-03T10:43:01.000Z</time>
      </trkpt>
      <trkpt lat="46.27961" lon="6.80279">
        <ele>1327</ele>
        <time>2016-07-03T10:43:16.000Z</time>
      </trkpt>
      <trkpt lat="46.27961" lon="6.80279">
        <ele>1327</ele>
        <time>2016-07-03T10:43:17.000Z</time>
      </trkpt>
      <trkpt lat="46.27961" lon="6.80278">
        <ele>1329</ele>
        <time>2016-07-03T10:43:27.000Z</time>
      </trkpt>
      <trkpt lat="46.27961" lon="6.80278">
        <ele>1329</ele>
        <time>2016-07-03T10:43:28.000Z</time>
      </trkpt>
      <trkpt lat="46.27961" lon="6.80266">
        <ele>1331</ele>
        <time>2016-07-03T10:43:48.000Z</time>
      </trkpt>
      <trkpt lat="46.27961" lon="6.80264">
        <ele>1331</ele>
        <time>2016-07-03T10:43:49.000Z</time>
      </trkpt>
      <trkpt lat="46.27959" lon="6.80251">
        <ele>1332</ele>
        <time>2016-07-03T10:43:59.000Z</time>
      </trkpt>
      <trkpt lat="46.27958" lon="6.8025">
        <ele>1332</ele>
        <time>2016-07-03T10:44:00.000Z</time>
      </trkpt>
      <trkpt lat="46.27959" lon="6.80238">
        <ele>1336</ele>
        <time>2016-07-03T10:44:12.000Z</time>
      </trkpt>
      <trkpt lat="46.2796" lon="6.80236">
        <ele>1338</ele>
        <time>2016-07-03T10:44:13.000Z</time>
      </trkpt>
      <trkpt lat="46.27955" lon="6.80227">
        <ele>1336</ele>
        <time>2016-07-03T10:44:20.000Z</time>
      </trkpt>
      <trkpt lat="46.27954" lon="6.80226">
        <ele>1335</ele>
        <time>2016-07-03T10:44:21.000Z</time>
      </trkpt>
      <trkpt lat="46.27949" lon="6.80217">
        <ele>1335</ele>
        <time>2016-07-03T10:44:28.000Z</time>
      </trkpt>
      <trkpt lat="46.27948" lon="6.80215">
        <ele>1336</ele>
        <time>2016-07-03T10:44:29.000Z</time>
      </trkpt>
      <trkpt lat="46.27944" lon="6.80206">
        <ele>1345</ele>
        <time>2016-07-03T10:45:09.000Z</time>
      </trkpt>
      <trkpt lat="46.27945" lon="6.80203">
        <ele>1347</ele>
        <time>2016-07-03T10:45:10.000Z</time>
      </trkpt>
      <trkpt lat="46.27938" lon="6.80195">
        <ele>1344</ele>
        <time>2016-07-03T10:45:14.000Z</time>
      </trkpt>
      <trkpt lat="46.27937" lon="6.80193">
        <ele>1344</ele>
        <time>2016-07-03T10:45:15.000Z</time>
      </trkpt>
      <trkpt lat="46.27932" lon="6.80183">
        <ele>1348</ele>
        <time>2016-07-03T10:45:22.000Z</time>
      </trkpt>
      <trkpt lat="46.27932" lon="6.80182">
        <ele>1347</ele>
        <time>2016-07-03T10:45:23.000Z</time>
      </trkpt>
      <trkpt lat="46.27928" lon="6.8017">
        <ele>1350</ele>
        <time>2016-07-03T10:45:34.000Z</time>
      </trkpt>
      <trkpt lat="46.27928" lon="6.80169">
        <ele>1350</ele>
        <time>2016-07-03T10:45:35.000Z</time>
      </trkpt>
      <trkpt lat="46.27922" lon="6.8016">
        <ele>1346</ele>
        <time>2016-07-03T10:45:44.000Z</time>
      </trkpt>
      <trkpt lat="46.27921" lon="6.80159">
        <ele>1345</ele>
        <time>2016-07-03T10:45:45.000Z</time>
      </trkpt>
      <trkpt lat="46.27916" lon="6.80149">
        <ele>1348</ele>
        <time>2016-07-03T10:45:54.000Z</time>
      </trkpt>
      <trkpt lat="46.27915" lon="6.80148">
        <ele>1346</ele>
        <time>2016-07-03T10:45:55.000Z</time>
      </trkpt>
      <trkpt lat="46.27907" lon="6.80143">
        <ele>1344</ele>
        <time>2016-07-03T10:46:10.000Z</time>
      </trkpt>
      <trkpt lat="46.27904" lon="6.80142">
        <ele>1340</ele>
        <time>2016-07-03T10:46:11.000Z</time>
      </trkpt>
      <trkpt lat="46.27898" lon="6.80134">
        <ele>1339</ele>
        <time>2016-07-03T10:46:18.000Z</time>
      </trkpt>
      <trkpt lat="46.27897" lon="6.80132">
        <ele>1339</ele>
        <time>2016-07-03T10:46:19.000Z</time>
      </trkpt>
      <trkpt lat="46.27889" lon="6.80127">
        <ele>1345</ele>
        <time>2016-07-03T10:46:26.000Z</time>
      </trkpt>
      <trkpt lat="46.27887" lon="6.80127">
        <ele>1345</ele>
        <time>2016-07-03T10:46:27.000Z</time>
      </trkpt>
      <trkpt lat="46.2788" lon="6.80124">
        <ele>1345</ele>
        <time>2016-07-03T10:46:33.000Z</time>
      </trkpt>
      <trkpt lat="46.27878" lon="6.80124">
        <ele>1344</ele>
        <time>2016-07-03T10:46:34.000Z</time>
      </trkpt>
      <trkpt lat="46.2787" lon="6.80123">
        <ele>1341</ele>
        <time>2016-07-03T10:46:38.000Z</time>
      </trkpt>
      <trkpt lat="46.27868" lon="6.80122">
        <ele>1343</ele>
        <time>2016-07-03T10:46:39.000Z</time>
      </trkpt>
      <trkpt lat="46.27867" lon="6.80123">
        <ele>1346</ele>
        <time>2016-07-03T10:46:41.000Z</time>
      </trkpt>
      <trkpt lat="46.27866" lon="6.80125">
        <ele>1345</ele>
        <time>2016-07-03T10:46:42.000Z</time>
      </trkpt>
      <trkpt lat="46.27865" lon="6.80126">
        <ele>1345</ele>
        <time>2016-07-03T10:46:43.000Z</time>
      </trkpt>
      <trkpt lat="46.27867" lon="6.80131">
        <ele>1348</ele>
        <time>2016-07-03T10:46:47.000Z</time>
      </trkpt>
      <trkpt lat="46.27868" lon="6.80132">
        <ele>1349</ele>
        <time>2016-07-03T10:46:48.000Z</time>
      </trkpt>
      <trkpt lat="46.27865" lon="6.80129">
        <ele>1351</ele>
        <time>2016-07-03T10:48:54.000Z</time>
      </trkpt>
      <trkpt lat="46.27865" lon="6.80129">
        <ele>1350</ele>
        <time>2016-07-03T10:48:55.000Z</time>
      </trkpt>
      <trkpt lat="46.27864" lon="6.80142">
        <ele>1351</ele>
        <time>2016-07-03T10:49:27.000Z</time>
      </trkpt>
      <trkpt lat="46.27864" lon="6.80142">
        <ele>1351</ele>
        <time>2016-07-03T10:49:28.000Z</time>
      </trkpt>
      <trkpt lat="46.27867" lon="6.8015">
        <ele>1352</ele>
        <time>2016-07-03T10:49:31.000Z</time>
      </trkpt>
      <trkpt lat="46.27867" lon="6.8015">
        <ele>1355</ele>
        <time>2016-07-03T10:49:32.000Z</time>
      </trkpt>
      <trkpt lat="46.27867" lon="6.80151">
        <ele>1356</ele>
        <time>2016-07-03T10:49:33.000Z</time>
      </trkpt>
      <trkpt lat="46.27868" lon="6.80153">
        <ele>1356</ele>
        <time>2016-07-03T10:49:34.000Z</time>
      </trkpt>
      <trkpt lat="46.27873" lon="6.80164">
        <ele>1362</ele>
        <time>2016-07-03T10:49:40.000Z</time>
      </trkpt>
      <trkpt lat="46.27875" lon="6.80164">
        <ele>1362</ele>
        <time>2016-07-03T10:49:41.000Z</time>
      </trkpt>
      <trkpt lat="46.27877" lon="6.80176">
        <ele>1368</ele>
        <time>2016-07-03T10:49:46.000Z</time>
      </trkpt>
      <trkpt lat="46.27879" lon="6.8018">
        <ele>1366</ele>
        <time>2016-07-03T10:49:47.000Z</time>
      </trkpt>
      <trkpt lat="46.27877" lon="6.80192">
        <ele>1367</ele>
        <time>2016-07-03T10:49:56.000Z</time>
      </trkpt>
      <trkpt lat="46.27877" lon="6.80195">
        <ele>1366</ele>
        <time>2016-07-03T10:49:57.000Z</time>
      </trkpt>
      <trkpt lat="46.27877" lon="6.80208">
        <ele>1363</ele>
        <time>2016-07-03T10:50:11.000Z</time>
      </trkpt>
      <trkpt lat="46.27878" lon="6.80209">
        <ele>1366</ele>
        <time>2016-07-03T10:50:12.000Z</time>
      </trkpt>
      <trkpt lat="46.27879" lon="6.8022">
        <ele>1367</ele>
        <time>2016-07-03T10:50:21.000Z</time>
      </trkpt>
      <trkpt lat="46.27879" lon="6.80224">
        <ele>1367</ele>
        <time>2016-07-03T10:50:22.000Z</time>
      </trkpt>
      <trkpt lat="46.27871" lon="6.80217">
        <ele>1366</ele>
        <time>2016-07-03T10:50:27.000Z</time>
      </trkpt>
      <trkpt lat="46.27869" lon="6.80219">
        <ele>1366</ele>
        <time>2016-07-03T10:50:28.000Z</time>
      </trkpt>
      <trkpt lat="46.27867" lon="6.80229">
        <ele>1367</ele>
        <time>2016-07-03T10:50:36.000Z</time>
      </trkpt>
      <trkpt lat="46.27877" lon="6.80225">
        <ele>1365</ele>
        <time>2016-07-03T10:50:37.000Z</time>
      </trkpt>
      <trkpt lat="46.2788" lon="6.80221">
        <ele>1365</ele>
        <time>2016-07-03T10:50:38.000Z</time>
      </trkpt>
      <trkpt lat="46.27887" lon="6.80227">
        <ele>1366</ele>
        <time>2016-07-03T10:50:39.000Z</time>
      </trkpt>
      <trkpt lat="46.27884" lon="6.80232">
        <ele>1364</ele>
        <time>2016-07-03T10:50:42.000Z</time>
      </trkpt>
      <trkpt lat="46.27881" lon="6.80238">
        <ele>1364</ele>
        <time>2016-07-03T10:50:43.000Z</time>
      </trkpt>
      <trkpt lat="46.2788" lon="6.80246">
        <ele>1362</ele>
        <time>2016-07-03T10:50:44.000Z</time>
      </trkpt>
      <trkpt lat="46.27872" lon="6.80253">
        <ele>1359</ele>
        <time>2016-07-03T10:50:45.000Z</time>
      </trkpt>
      <trkpt lat="46.27876" lon="6.80259">
        <ele>1362</ele>
        <time>2016-07-03T10:50:49.000Z</time>
      </trkpt>
      <trkpt lat="46.2788" lon="6.80261">
        <ele>1363</ele>
        <time>2016-07-03T10:50:50.000Z</time>
      </trkpt>
      <trkpt lat="46.27877" lon="6.80272">
        <ele>1367</ele>
        <time>2016-07-03T10:50:59.000Z</time>
      </trkpt>
      <trkpt lat="46.27877" lon="6.80273">
        <ele>1368</ele>
        <time>2016-07-03T10:51:00.000Z</time>
      </trkpt>
      <trkpt lat="46.27882" lon="6.80282">
        <ele>1370</ele>
        <time>2016-07-03T10:51:48.000Z</time>
      </trkpt>
      <trkpt lat="46.27882" lon="6.80282">
        <ele>1371</ele>
        <time>2016-07-03T10:51:49.000Z</time>
      </trkpt>
      <trkpt lat="46.27883" lon="6.80282">
        <ele>1373</ele>
        <time>2016-07-03T10:51:50.000Z</time>
      </trkpt>
      <trkpt lat="46.27876" lon="6.8029">
        <ele>1372</ele>
        <time>2016-07-03T10:52:01.000Z</time>
      </trkpt>
      <trkpt lat="46.27875" lon="6.8029">
        <ele>1372</ele>
        <time>2016-07-03T10:52:02.000Z</time>
      </trkpt>
      <trkpt lat="46.27871" lon="6.80289">
        <ele>1372</ele>
        <time>2016-07-03T10:53:14.000Z</time>
      </trkpt>
      <trkpt lat="46.27865" lon="6.80285">
        <ele>1372</ele>
        <time>2016-07-03T10:53:15.000Z</time>
      </trkpt>
      <trkpt lat="46.27857" lon="6.80288">
        <ele>1373</ele>
        <time>2016-07-03T10:53:17.000Z</time>
      </trkpt>
      <trkpt lat="46.27848" lon="6.80295">
        <ele>1368</ele>
        <time>2016-07-03T10:53:18.000Z</time>
      </trkpt>
      <trkpt lat="46.27841" lon="6.80299">
        <ele>1364</ele>
        <time>2016-07-03T10:53:20.000Z</time>
      </trkpt>
      <trkpt lat="46.27838" lon="6.80302">
        <ele>1360</ele>
        <time>2016-07-03T10:53:21.000Z</time>
      </trkpt>
      <trkpt lat="46.27832" lon="6.80306">
        <ele>1361</ele>
        <time>2016-07-03T10:53:24.000Z</time>
      </trkpt>
      <trkpt lat="46.2783" lon="6.80308">
        <ele>1360</ele>
        <time>2016-07-03T10:53:25.000Z</time>
      </trkpt>
      <trkpt lat="46.27825" lon="6.80311">
        <ele>1362</ele>
        <time>2016-07-03T10:53:29.000Z</time>
      </trkpt>
      <trkpt lat="46.27825" lon="6.80312">
        <ele>1363</ele>
        <time>2016-07-03T10:53:30.000Z</time>
      </trkpt>
      <trkpt lat="46.27823" lon="6.80311">
        <ele>1368</ele>
        <time>2016-07-03T10:54:09.000Z</time>
      </trkpt>
      <trkpt lat="46.27823" lon="6.80311">
        <ele>1368</ele>
        <time>2016-07-03T10:54:10.000Z</time>
      </trkpt>
      <trkpt lat="46.27815" lon="6.80312">
        <ele>1365</ele>
        <time>2016-07-03T10:54:12.000Z</time>
      </trkpt>
      <trkpt lat="46.27813" lon="6.80313">
        <ele>1364</ele>
        <time>2016-07-03T10:54:13.000Z</time>
      </trkpt>
      <trkpt lat="46.27805" lon="6.80318">
        <ele>1368</ele>
        <time>2016-07-03T10:54:23.000Z</time>
      </trkpt>
      <trkpt lat="46.27805" lon="6.80319">
        <ele>1370</ele>
        <time>2016-07-03T10:54:24.000Z</time>
      </trkpt>
      <trkpt lat="46.27798" lon="6.80324">
        <ele>1372</ele>
        <time>2016-07-03T10:54:49.000Z</time>
      </trkpt>
      <trkpt lat="46.27797" lon="6.80327">
        <ele>1374</ele>
        <time>2016-07-03T10:54:50.000Z</time>
      </trkpt>
      <trkpt lat="46.27792" lon="6.80337">
        <ele>1379</ele>
        <time>2016-07-03T10:55:08.000Z</time>
      </trkpt>
      <trkpt lat="46.27793" lon="6.80339">
        <ele>1381</ele>
        <time>2016-07-03T10:55:09.000Z</time>
      </trkpt>
      <trkpt lat="46.27789" lon="6.80349">
        <ele>1388</ele>
        <time>2016-07-03T10:55:22.000Z</time>
      </trkpt>
      <trkpt lat="46.27787" lon="6.8035">
        <ele>1387</ele>
        <time>2016-07-03T10:55:23.000Z</time>
      </trkpt>
      <trkpt lat="46.27787" lon="6.80352">
        <ele>1388</ele>
        <time>2016-07-03T10:55:25.000Z</time>
      </trkpt>
      <trkpt lat="46.27787" lon="6.80352">
        <ele>1389</ele>
        <time>2016-07-03T10:55:26.000Z</time>
      </trkpt>
      <trkpt lat="46.27785" lon="6.80353">
        <ele>1388</ele>
        <time>2016-07-03T10:55:27.000Z</time>
      </trkpt>
      <trkpt lat="46.27783" lon="6.80364">
        <ele>1375</ele>
        <time>2016-07-03T10:55:55.000Z</time>
      </trkpt>
      <trkpt lat="46.27784" lon="6.80366">
        <ele>1376</ele>
        <time>2016-07-03T10:55:56.000Z</time>
      </trkpt>
      <trkpt lat="46.27786" lon="6.80378">
        <ele>1374</ele>
        <time>2016-07-03T10:56:38.000Z</time>
      </trkpt>
      <trkpt lat="46.27786" lon="6.80379">
        <ele>1373</ele>
        <time>2016-07-03T10:56:39.000Z</time>
      </trkpt>
      <trkpt lat="46.27787" lon="6.8038">
        <ele>1371</ele>
        <time>2016-07-03T10:56:58.000Z</time>
      </trkpt>
      <trkpt lat="46.27787" lon="6.8038">
        <ele>1371</ele>
        <time>2016-07-03T10:56:59.000Z</time>
      </trkpt>
      <trkpt lat="46.27787" lon="6.80377">
        <ele>1370</ele>
        <time>2016-07-03T10:57:00.000Z</time>
      </trkpt>
      <trkpt lat="46.27785" lon="6.80379">
        <ele>1370</ele>
        <time>2016-07-03T10:57:02.000Z</time>
      </trkpt>
      <trkpt lat="46.27781" lon="6.8038">
        <ele>1368</ele>
        <time>2016-07-03T10:57:03.000Z</time>
      </trkpt>
      <trkpt lat="46.27779" lon="6.8038">
        <ele>1365</ele>
        <time>2016-07-03T10:57:04.000Z</time>
      </trkpt>
      <trkpt lat="46.27779" lon="6.80381">
        <ele>1365</ele>
        <time>2016-07-03T10:57:05.000Z</time>
      </trkpt>
      <trkpt lat="46.27775" lon="6.80392">
        <ele>1364</ele>
        <time>2016-07-03T10:57:19.000Z</time>
      </trkpt>
      <trkpt lat="46.27774" lon="6.80392">
        <ele>1363</ele>
        <time>2016-07-03T10:57:20.000Z</time>
      </trkpt>
      <trkpt lat="46.27778" lon="6.80403">
        <ele>1352</ele>
        <time>2016-07-03T10:58:10.000Z</time>
      </trkpt>
      <trkpt lat="46.27776" lon="6.80405">
        <ele>1353</ele>
        <time>2016-07-03T10:58:11.000Z</time>
      </trkpt>
      <trkpt lat="46.27773" lon="6.80414">
        <ele>1354</ele>
        <time>2016-07-03T10:58:15.000Z</time>
      </trkpt>
      <trkpt lat="46.27773" lon="6.80417">
        <ele>1354</ele>
        <time>2016-07-03T10:58:16.000Z</time>
      </trkpt>
      <trkpt lat="46.27769" lon="6.80428">
        <ele>1350</ele>
        <time>2016-07-03T10:58:24.000Z</time>
      </trkpt>
      <trkpt lat="46.2777" lon="6.8043">
        <ele>1349</ele>
        <time>2016-07-03T10:58:25.000Z</time>
      </trkpt>
      <trkpt lat="46.27764" lon="6.80437">
        <ele>1343</ele>
        <time>2016-07-03T10:58:39.000Z</time>
      </trkpt>
      <trkpt lat="46.27761" lon="6.80438">
        <ele>1344</ele>
        <time>2016-07-03T10:58:40.000Z</time>
      </trkpt>
      <trkpt lat="46.27757" lon="6.80447">
        <ele>1352</ele>
        <time>2016-07-03T10:58:48.000Z</time>
      </trkpt>
      <trkpt lat="46.27755" lon="6.80448">
        <ele>1351</ele>
        <time>2016-07-03T10:58:49.000Z</time>
      </trkpt>
      <trkpt lat="46.27749" lon="6.80439">
        <ele>1345</ele>
        <time>2016-07-03T11:00:00.000Z</time>
      </trkpt>
      <trkpt lat="46.27752" lon="6.80436">
        <ele>1346</ele>
        <time>2016-07-03T11:00:01.000Z</time>
      </trkpt>
      <trkpt lat="46.27753" lon="6.80423">
        <ele>1348</ele>
        <time>2016-07-03T11:00:07.000Z</time>
      </trkpt>
      <trkpt lat="46.27753" lon="6.80422">
        <ele>1348</ele>
        <time>2016-07-03T11:00:08.000Z</time>
      </trkpt>
      <trkpt lat="46.27745" lon="6.80414">
        <ele>1350</ele>
        <time>2016-07-03T11:00:14.000Z</time>
      </trkpt>
      <trkpt lat="46.27743" lon="6.80411">
        <ele>1350</ele>
        <time>2016-07-03T11:00:15.000Z</time>
      </trkpt>
      <trkpt lat="46.27737" lon="6.80401">
        <ele>1365</ele>
        <time>2016-07-03T11:00:30.000Z</time>
      </trkpt>
      <trkpt lat="46.27738" lon="6.804">
        <ele>1365</ele>
        <time>2016-07-03T11:00:31.000Z</time>
      </trkpt>
      <trkpt lat="46.27737" lon="6.80387">
        <ele>1370</ele>
        <time>2016-07-03T11:00:47.000Z</time>
      </trkpt>
      <trkpt lat="46.27737" lon="6.80386">
        <ele>1370</ele>
        <time>2016-07-03T11:00:48.000Z</time>
      </trkpt>
      <trkpt lat="46.27728" lon="6.80383">
        <ele>1369</ele>
        <time>2016-07-03T11:01:01.000Z</time>
      </trkpt>
      <trkpt lat="46.27728" lon="6.80383">
        <ele>1367</ele>
        <time>2016-07-03T11:01:02.000Z</time>
      </trkpt>
      <trkpt lat="46.2772" lon="6.80391">
        <ele>1373</ele>
        <time>2016-07-03T11:01:28.000Z</time>
      </trkpt>
      <trkpt lat="46.27721" lon="6.80393">
        <ele>1374</ele>
        <time>2016-07-03T11:01:29.000Z</time>
      </trkpt>
      <trkpt lat="46.27715" lon="6.80398">
        <ele>1375</ele>
        <time>2016-07-03T11:01:35.000Z</time>
      </trkpt>
      <trkpt lat="46.27713" lon="6.80397">
        <ele>1375</ele>
        <time>2016-07-03T11:01:36.000Z</time>
      </trkpt>
      <trkpt lat="46.27706" lon="6.804">
        <ele>1375</ele>
        <time>2016-07-03T11:02:00.000Z</time>
      </trkpt>
      <trkpt lat="46.27704" lon="6.80402">
        <ele>1373</ele>
        <time>2016-07-03T11:02:01.000Z</time>
      </trkpt>
      <trkpt lat="46.27701" lon="6.80414">
        <ele>1372</ele>
        <time>2016-07-03T11:02:15.000Z</time>
      </trkpt>
      <trkpt lat="46.27701" lon="6.80414">
        <ele>1372</ele>
        <time>2016-07-03T11:02:16.000Z</time>
      </trkpt>
      <trkpt lat="46.27701" lon="6.80414">
        <ele>1370</ele>
        <time>2016-07-03T11:02:17.000Z</time>
      </trkpt>
      <trkpt lat="46.27694" lon="6.80415">
        <ele>1369</ele>
        <time>2016-07-03T11:02:23.000Z</time>
      </trkpt>
      <trkpt lat="46.27692" lon="6.80415">
        <ele>1368</ele>
        <time>2016-07-03T11:02:24.000Z</time>
      </trkpt>
      <trkpt lat="46.27685" lon="6.80421">
        <ele>1380</ele>
        <time>2016-07-03T11:02:36.000Z</time>
      </trkpt>
      <trkpt lat="46.27684" lon="6.80422">
        <ele>1378</ele>
        <time>2016-07-03T11:02:37.000Z</time>
      </trkpt>
      <trkpt lat="46.27675" lon="6.80427">
        <ele>1376</ele>
        <time>2016-07-03T11:02:53.000Z</time>
      </trkpt>
      <trkpt lat="46.27674" lon="6.80424">
        <ele>1375</ele>
        <time>2016-07-03T11:02:54.000Z</time>
      </trkpt>
      <trkpt lat="46.27674" lon="6.80425">
        <ele>1375</ele>
        <time>2016-07-03T11:02:56.000Z</time>
      </trkpt>
      <trkpt lat="46.27675" lon="6.80424">
        <ele>1376</ele>
        <time>2016-07-03T11:02:57.000Z</time>
      </trkpt>
      <trkpt lat="46.27674" lon="6.80422">
        <ele>1382</ele>
        <time>2016-07-03T11:03:03.000Z</time>
      </trkpt>
      <trkpt lat="46.27674" lon="6.80422">
        <ele>1383</ele>
        <time>2016-07-03T11:03:04.000Z</time>
      </trkpt>
      <trkpt lat="46.27666" lon="6.80421">
        <ele>1392</ele>
        <time>2016-07-03T11:03:17.000Z</time>
      </trkpt>
      <trkpt lat="46.27665" lon="6.80421">
        <ele>1391</ele>
        <time>2016-07-03T11:03:18.000Z</time>
      </trkpt>
      <trkpt lat="46.27665" lon="6.80421">
        <ele>1391</ele>
        <time>2016-07-03T11:03:19.000Z</time>
      </trkpt>
      <trkpt lat="46.27665" lon="6.80421">
        <ele>1391</ele>
        <time>2016-07-03T11:03:20.000Z</time>
      </trkpt>
      <trkpt lat="46.27665" lon="6.80422">
        <ele>1392</ele>
        <time>2016-07-03T11:03:21.000Z</time>
      </trkpt>
      <trkpt lat="46.27657" lon="6.80423">
        <ele>1398</ele>
        <time>2016-07-03T11:03:33.000Z</time>
      </trkpt>
      <trkpt lat="46.27655" lon="6.80423">
        <ele>1398</ele>
        <time>2016-07-03T11:03:34.000Z</time>
      </trkpt>
      <trkpt lat="46.27649" lon="6.80423">
        <ele>1393</ele>
        <time>2016-07-03T11:03:36.000Z</time>
      </trkpt>
      <trkpt lat="46.27643" lon="6.80423">
        <ele>1389</ele>
        <time>2016-07-03T11:03:37.000Z</time>
      </trkpt>
      <trkpt lat="46.27635" lon="6.80424">
        <ele>1387</ele>
        <time>2016-07-03T11:03:50.000Z</time>
      </trkpt>
      <trkpt lat="46.27634" lon="6.80424">
        <ele>1386</ele>
        <time>2016-07-03T11:03:51.000Z</time>
      </trkpt>
      <trkpt lat="46.27626" lon="6.80422">
        <ele>1380</ele>
        <time>2016-07-03T11:03:58.000Z</time>
      </trkpt>
      <trkpt lat="46.27623" lon="6.80423">
        <ele>1377</ele>
        <time>2016-07-03T11:03:59.000Z</time>
      </trkpt>
      <trkpt lat="46.27616" lon="6.80429">
        <ele>1379</ele>
        <time>2016-07-03T11:04:34.000Z</time>
      </trkpt>
      <trkpt lat="46.27614" lon="6.80431">
        <ele>1381</ele>
        <time>2016-07-03T11:04:35.000Z</time>
      </trkpt>
      <trkpt lat="46.27611" lon="6.80442">
        <ele>1384</ele>
        <time>2016-07-03T11:04:40.000Z</time>
      </trkpt>
      <trkpt lat="46.2761" lon="6.80445">
        <ele>1385</ele>
        <time>2016-07-03T11:04:41.000Z</time>
      </trkpt>
      <trkpt lat="46.27603" lon="6.80453">
        <ele>1384</ele>
        <time>2016-07-03T11:04:46.000Z</time>
      </trkpt>
      <trkpt lat="46.27601" lon="6.80454">
        <ele>1382</ele>
        <time>2016-07-03T11:04:47.000Z</time>
      </trkpt>
      <trkpt lat="46.27597" lon="6.80465">
        <ele>1381</ele>
        <time>2016-07-03T11:05:02.000Z</time>
      </trkpt>
      <trkpt lat="46.27595" lon="6.80466">
        <ele>1382</ele>
        <time>2016-07-03T11:05:03.000Z</time>
      </trkpt>
      <trkpt lat="46.27591" lon="6.80477">
        <ele>1387</ele>
        <time>2016-07-03T11:05:21.000Z</time>
      </trkpt>
      <trkpt lat="46.27591" lon="6.80478">
        <ele>1387</ele>
        <time>2016-07-03T11:05:22.000Z</time>
      </trkpt>
      <trkpt lat="46.27584" lon="6.80487">
        <ele>1390</ele>
        <time>2016-07-03T11:05:44.000Z</time>
      </trkpt>
      <trkpt lat="46.27583" lon="6.80488">
        <ele>1389</ele>
        <time>2016-07-03T11:05:45.000Z</time>
      </trkpt>
      <trkpt lat="46.2758" lon="6.805">
        <ele>1395</ele>
        <time>2016-07-03T11:05:52.000Z</time>
      </trkpt>
      <trkpt lat="46.27577" lon="6.80501">
        <ele>1392</ele>
        <time>2016-07-03T11:05:53.000Z</time>
      </trkpt>
      <trkpt lat="46.27572" lon="6.80508">
        <ele>1392</ele>
        <time>2016-07-03T11:06:00.000Z</time>
      </trkpt>
      <trkpt lat="46.2757" lon="6.8051">
        <ele>1391</ele>
        <time>2016-07-03T11:06:01.000Z</time>
      </trkpt>
      <trkpt lat="46.27565" lon="6.80515">
        <ele>1387</ele>
        <time>2016-07-03T11:06:08.000Z</time>
      </trkpt>
      <trkpt lat="46.27566" lon="6.80514">
        <ele>1384</ele>
        <time>2016-07-03T11:06:09.000Z</time>
      </trkpt>
      <trkpt lat="46.27564" lon="6.80516">
        <ele>1383</ele>
        <time>2016-07-03T11:06:10.000Z</time>
      </trkpt>
      <trkpt lat="46.27559" lon="6.8052">
        <ele>1402</ele>
        <time>2016-07-03T11:07:03.000Z</time>
      </trkpt>
      <trkpt lat="46.27557" lon="6.80519">
        <ele>1401</ele>
        <time>2016-07-03T11:07:04.000Z</time>
      </trkpt>
      <trkpt lat="46.27557" lon="6.80519">
        <ele>1403</ele>
        <time>2016-07-03T11:07:05.000Z</time>
      </trkpt>
      <trkpt lat="46.27554" lon="6.8052">
        <ele>1404</ele>
        <time>2016-07-03T11:07:06.000Z</time>
      </trkpt>
      <trkpt lat="46.27548" lon="6.80526">
        <ele>1411</ele>
        <time>2016-07-03T11:07:15.000Z</time>
      </trkpt>
      <trkpt lat="46.27546" lon="6.80527">
        <ele>1412</ele>
        <time>2016-07-03T11:07:16.000Z</time>
      </trkpt>
      <trkpt lat="46.2754" lon="6.80535">
        <ele>1417</ele>
        <time>2016-07-03T11:07:26.000Z</time>
      </trkpt>
      <trkpt lat="46.27539" lon="6.80536">
        <ele>1416</ele>
        <time>2016-07-03T11:07:27.000Z</time>
      </trkpt>
      <trkpt lat="46.27531" lon="6.80541">
        <ele>1415</ele>
        <time>2016-07-03T11:07:49.000Z</time>
      </trkpt>
      <trkpt lat="46.27528" lon="6.80544">
        <ele>1413</ele>
        <time>2016-07-03T11:07:50.000Z</time>
      </trkpt>
      <trkpt lat="46.27523" lon="6.8055">
        <ele>1413</ele>
        <time>2016-07-03T11:07:54.000Z</time>
      </trkpt>
      <trkpt lat="46.2752" lon="6.8055">
        <ele>1414</ele>
        <time>2016-07-03T11:07:55.000Z</time>
      </trkpt>
      <trkpt lat="46.27514" lon="6.80556">
        <ele>1415</ele>
        <time>2016-07-03T11:07:59.000Z</time>
      </trkpt>
      <trkpt lat="46.27512" lon="6.80558">
        <ele>1418</ele>
        <time>2016-07-03T11:08:00.000Z</time>
      </trkpt>
      <trkpt lat="46.27503" lon="6.8056">
        <ele>1417</ele>
        <time>2016-07-03T11:08:14.000Z</time>
      </trkpt>
      <trkpt lat="46.27503" lon="6.80559">
        <ele>1419</ele>
        <time>2016-07-03T11:08:15.000Z</time>
      </trkpt>
      <trkpt lat="46.27503" lon="6.8056">
        <ele>1420</ele>
        <time>2016-07-03T11:08:16.000Z</time>
      </trkpt>
      <trkpt lat="46.27498" lon="6.80567">
        <ele>1424</ele>
        <time>2016-07-03T11:08:31.000Z</time>
      </trkpt>
      <trkpt lat="46.27495" lon="6.80569">
        <ele>1422</ele>
        <time>2016-07-03T11:08:32.000Z</time>
      </trkpt>
      <trkpt lat="46.27493" lon="6.8058">
        <ele>1426</ele>
        <time>2016-07-03T11:08:42.000Z</time>
      </trkpt>
      <trkpt lat="46.27492" lon="6.80582">
        <ele>1426</ele>
        <time>2016-07-03T11:08:43.000Z</time>
      </trkpt>
      <trkpt lat="46.27486" lon="6.80589">
        <ele>1424</ele>
        <time>2016-07-03T11:09:06.000Z</time>
      </trkpt>
      <trkpt lat="46.27485" lon="6.80591">
        <ele>1424</ele>
        <time>2016-07-03T11:09:07.000Z</time>
      </trkpt>
      <trkpt lat="46.27479" lon="6.80601">
        <ele>1423</ele>
        <time>2016-07-03T11:09:12.000Z</time>
      </trkpt>
      <trkpt lat="46.27479" lon="6.80604">
        <ele>1424</ele>
        <time>2016-07-03T11:09:13.000Z</time>
      </trkpt>
      <trkpt lat="46.27471" lon="6.80607">
        <ele>1417</ele>
        <time>2016-07-03T11:09:20.000Z</time>
      </trkpt>
      <trkpt lat="46.2747" lon="6.80609">
        <ele>1416</ele>
        <time>2016-07-03T11:09:21.000Z</time>
      </trkpt>
      <trkpt lat="46.27462" lon="6.80615">
        <ele>1419</ele>
        <time>2016-07-03T11:09:57.000Z</time>
      </trkpt>
      <trkpt lat="46.27461" lon="6.80614">
        <ele>1419</ele>
        <time>2016-07-03T11:09:58.000Z</time>
      </trkpt>
      <trkpt lat="46.27458" lon="6.80625">
        <ele>1418</ele>
        <time>2016-07-03T11:10:16.000Z</time>
      </trkpt>
      <trkpt lat="46.27455" lon="6.80626">
        <ele>1419</ele>
        <time>2016-07-03T11:10:17.000Z</time>
      </trkpt>
      <trkpt lat="46.27443" lon="6.80625">
        <ele>1413</ele>
        <time>2016-07-03T11:10:18.000Z</time>
      </trkpt>
      <trkpt lat="46.27438" lon="6.80625">
        <ele>1413</ele>
        <time>2016-07-03T11:10:26.000Z</time>
      </trkpt>
      <trkpt lat="46.27431" lon="6.80624">
        <ele>1412</ele>
        <time>2016-07-03T11:10:27.000Z</time>
      </trkpt>
      <trkpt lat="46.27424" lon="6.80622">
        <ele>1412</ele>
        <time>2016-07-03T11:10:30.000Z</time>
      </trkpt>
      <trkpt lat="46.27421" lon="6.8062">
        <ele>1414</ele>
        <time>2016-07-03T11:10:31.000Z</time>
      </trkpt>
      <trkpt lat="46.27414" lon="6.80626">
        <ele>1424</ele>
        <time>2016-07-03T11:10:43.000Z</time>
      </trkpt>
      <trkpt lat="46.27412" lon="6.80626">
        <ele>1424</ele>
        <time>2016-07-03T11:10:44.000Z</time>
      </trkpt>
      <trkpt lat="46.2741" lon="6.80632">
        <ele>1433</ele>
        <time>2016-07-03T11:11:43.000Z</time>
      </trkpt>
      <trkpt lat="46.2741" lon="6.80632">
        <ele>1433</ele>
        <time>2016-07-03T11:11:44.000Z</time>
      </trkpt>
      <trkpt lat="46.27401" lon="6.80632">
        <ele>1436</ele>
        <time>2016-07-03T11:12:20.000Z</time>
      </trkpt>
      <trkpt lat="46.27401" lon="6.80632">
        <ele>1436</ele>
        <time>2016-07-03T11:12:21.000Z</time>
      </trkpt>
      <trkpt lat="46.27392" lon="6.80632">
        <ele>1442</ele>
        <time>2016-07-03T11:12:28.000Z</time>
      </trkpt>
      <trkpt lat="46.27389" lon="6.80633">
        <ele>1441</ele>
        <time>2016-07-03T11:12:29.000Z</time>
      </trkpt>
      <trkpt lat="46.27381" lon="6.80632">
        <ele>1445</ele>
        <time>2016-07-03T11:12:34.000Z</time>
      </trkpt>
      <trkpt lat="46.27378" lon="6.80632">
        <ele>1445</ele>
        <time>2016-07-03T11:12:35.000Z</time>
      </trkpt>
      <trkpt lat="46.27378" lon="6.8063">
        <ele>1445</ele>
        <time>2016-07-03T11:12:36.000Z</time>
      </trkpt>
      <trkpt lat="46.27378" lon="6.8063">
        <ele>1445</ele>
        <time>2016-07-03T11:12:37.000Z</time>
      </trkpt>
      <trkpt lat="46.27385" lon="6.80634">
        <ele>1454</ele>
        <time>2016-07-03T11:15:45.000Z</time>
      </trkpt>
      <trkpt lat="46.27385" lon="6.80633">
        <ele>1454</ele>
        <time>2016-07-03T11:15:46.000Z</time>
      </trkpt>
      <trkpt lat="46.27377" lon="6.80632">
        <ele>1457</ele>
        <time>2016-07-03T11:15:51.000Z</time>
      </trkpt>
      <trkpt lat="46.27374" lon="6.8063">
        <ele>1459</ele>
        <time>2016-07-03T11:15:52.000Z</time>
      </trkpt>
      <trkpt lat="46.27369" lon="6.80624">
        <ele>1462</ele>
        <time>2016-07-03T11:16:00.000Z</time>
      </trkpt>
      <trkpt lat="46.27362" lon="6.80617">
        <ele>1459</ele>
        <time>2016-07-03T11:16:01.000Z</time>
      </trkpt>
      <trkpt lat="46.27355" lon="6.80615">
        <ele>1462</ele>
        <time>2016-07-03T11:16:08.000Z</time>
      </trkpt>
      <trkpt lat="46.27353" lon="6.80614">
        <ele>1463</ele>
        <time>2016-07-03T11:16:09.000Z</time>
      </trkpt>
      <trkpt lat="46.27352" lon="6.80614">
        <ele>1466</ele>
        <time>2016-07-03T11:16:13.000Z</time>
      </trkpt>
      <trkpt lat="46.27352" lon="6.80614">
        <ele>1469</ele>
        <time>2016-07-03T11:16:14.000Z</time>
      </trkpt>
      <trkpt lat="46.27353" lon="6.80618">
        <ele>1470</ele>
        <time>2016-07-03T11:16:22.000Z</time>
      </trkpt>
      <trkpt lat="46.27353" lon="6.80618">
        <ele>1470</ele>
        <time>2016-07-03T11:16:23.000Z</time>
      </trkpt>
      <trkpt lat="46.27345" lon="6.80619">
        <ele>1469</ele>
        <time>2016-07-03T11:16:28.000Z</time>
      </trkpt>
      <trkpt lat="46.27342" lon="6.80621">
        <ele>1464</ele>
        <time>2016-07-03T11:16:29.000Z</time>
      </trkpt>
      <trkpt lat="46.27336" lon="6.80626">
        <ele>1466</ele>
        <time>2016-07-03T11:17:11.000Z</time>
      </trkpt>
      <trkpt lat="46.27333" lon="6.80628">
        <ele>1461</ele>
        <time>2016-07-03T11:17:12.000Z</time>
      </trkpt>
      <trkpt lat="46.27326" lon="6.80633">
        <ele>1463</ele>
        <time>2016-07-03T11:17:37.000Z</time>
      </trkpt>
      <trkpt lat="46.27324" lon="6.80634">
        <ele>1464</ele>
        <time>2016-07-03T11:17:38.000Z</time>
      </trkpt>
      <trkpt lat="46.27316" lon="6.80632">
        <ele>1479</ele>
        <time>2016-07-03T11:17:54.000Z</time>
      </trkpt>
      <trkpt lat="46.27314" lon="6.80631">
        <ele>1478</ele>
        <time>2016-07-03T11:17:55.000Z</time>
      </trkpt>
      <trkpt lat="46.27306" lon="6.80631">
        <ele>1479</ele>
        <time>2016-07-03T11:18:25.000Z</time>
      </trkpt>
      <trkpt lat="46.27304" lon="6.80632">
        <ele>1478</ele>
        <time>2016-07-03T11:18:26.000Z</time>
      </trkpt>
      <trkpt lat="46.27297" lon="6.8063">
        <ele>1477</ele>
        <time>2016-07-03T11:18:29.000Z</time>
      </trkpt>
      <trkpt lat="46.27294" lon="6.80629">
        <ele>1474</ele>
        <time>2016-07-03T11:18:30.000Z</time>
      </trkpt>
      <trkpt lat="46.27289" lon="6.80627">
        <ele>1469</ele>
        <time>2016-07-03T11:18:31.000Z</time>
      </trkpt>
      <trkpt lat="46.27285" lon="6.80625">
        <ele>1466</ele>
        <time>2016-07-03T11:18:32.000Z</time>
      </trkpt>
      <trkpt lat="46.27277" lon="6.80626">
        <ele>1474</ele>
        <time>2016-07-03T11:18:40.000Z</time>
      </trkpt>
      <trkpt lat="46.27276" lon="6.80627">
        <ele>1473</ele>
        <time>2016-07-03T11:18:41.000Z</time>
      </trkpt>
      <trkpt lat="46.2727" lon="6.80635">
        <ele>1482</ele>
        <time>2016-07-03T11:18:58.000Z</time>
      </trkpt>
      <trkpt lat="46.27269" lon="6.80636">
        <ele>1481</ele>
        <time>2016-07-03T11:18:59.000Z</time>
      </trkpt>
      <trkpt lat="46.27263" lon="6.80643">
        <ele>1491</ele>
        <time>2016-07-03T11:19:12.000Z</time>
      </trkpt>
      <trkpt lat="46.27262" lon="6.80644">
        <ele>1491</ele>
        <time>2016-07-03T11:19:13.000Z</time>
      </trkpt>
      <trkpt lat="46.27255" lon="6.80651">
        <ele>1496</ele>
        <time>2016-07-03T11:19:27.000Z</time>
      </trkpt>
      <trkpt lat="46.27253" lon="6.80652">
        <ele>1495</ele>
        <time>2016-07-03T11:19:28.000Z</time>
      </trkpt>
      <trkpt lat="46.27248" lon="6.80661">
        <ele>1499</ele>
        <time>2016-07-03T11:20:06.000Z</time>
      </trkpt>
      <trkpt lat="46.27247" lon="6.80662">
        <ele>1498</ele>
        <time>2016-07-03T11:20:07.000Z</time>
      </trkpt>
      <trkpt lat="46.27238" lon="6.80665">
        <ele>1496</ele>
        <time>2016-07-03T11:20:12.000Z</time>
      </trkpt>
      <trkpt lat="46.27237" lon="6.80667">
        <ele>1498</ele>
        <time>2016-07-03T11:20:13.000Z</time>
      </trkpt>
      <trkpt lat="46.2723" lon="6.80674">
        <ele>1498</ele>
        <time>2016-07-03T11:20:18.000Z</time>
      </trkpt>
      <trkpt lat="46.27228" lon="6.80675">
        <ele>1497</ele>
        <time>2016-07-03T11:20:19.000Z</time>
      </trkpt>
      <trkpt lat="46.27222" lon="6.80684">
        <ele>1501</ele>
        <time>2016-07-03T11:20:26.000Z</time>
      </trkpt>
      <trkpt lat="46.27223" lon="6.80688">
        <ele>1503</ele>
        <time>2016-07-03T11:20:27.000Z</time>
      </trkpt>
      <trkpt lat="46.27214" lon="6.80687">
        <ele>1501</ele>
        <time>2016-07-03T11:20:34.000Z</time>
      </trkpt>
      <trkpt lat="46.27211" lon="6.80687">
        <ele>1498</ele>
        <time>2016-07-03T11:20:35.000Z</time>
      </trkpt>
      <trkpt lat="46.27207" lon="6.80698">
        <ele>1505</ele>
        <time>2016-07-03T11:20:45.000Z</time>
      </trkpt>
      <trkpt lat="46.27208" lon="6.807">
        <ele>1506</ele>
        <time>2016-07-03T11:20:46.000Z</time>
      </trkpt>
      <trkpt lat="46.272" lon="6.80705">
        <ele>1506</ele>
        <time>2016-07-03T11:21:00.000Z</time>
      </trkpt>
      <trkpt lat="46.272" lon="6.80706">
        <ele>1505</ele>
        <time>2016-07-03T11:21:01.000Z</time>
      </trkpt>
      <trkpt lat="46.27199" lon="6.80718">
        <ele>1510</ele>
        <time>2016-07-03T11:21:11.000Z</time>
      </trkpt>
      <trkpt lat="46.272" lon="6.8072">
        <ele>1512</ele>
        <time>2016-07-03T11:21:12.000Z</time>
      </trkpt>
      <trkpt lat="46.27193" lon="6.80719">
        <ele>1521</ele>
        <time>2016-07-03T11:21:40.000Z</time>
      </trkpt>
      <trkpt lat="46.27189" lon="6.80721">
        <ele>1517</ele>
        <time>2016-07-03T11:21:41.000Z</time>
      </trkpt>
      <trkpt lat="46.27181" lon="6.80727">
        <ele>1521</ele>
        <time>2016-07-03T11:21:49.000Z</time>
      </trkpt>
      <trkpt lat="46.2718" lon="6.80727">
        <ele>1522</ele>
        <time>2016-07-03T11:21:50.000Z</time>
      </trkpt>
      <trkpt lat="46.27174" lon="6.80727">
        <ele>1517</ele>
        <time>2016-07-03T11:21:52.000Z</time>
      </trkpt>
      <trkpt lat="46.27171" lon="6.80728">
        <ele>1515</ele>
        <time>2016-07-03T11:21:53.000Z</time>
      </trkpt>
      <trkpt lat="46.27167" lon="6.80738">
        <ele>1509</ele>
        <time>2016-07-03T11:21:57.000Z</time>
      </trkpt>
      <trkpt lat="46.27167" lon="6.8074">
        <ele>1509</ele>
        <time>2016-07-03T11:21:58.000Z</time>
      </trkpt>
      <trkpt lat="46.27166" lon="6.80752">
        <ele>1512</ele>
        <time>2016-07-03T11:22:04.000Z</time>
      </trkpt>
      <trkpt lat="46.27167" lon="6.80754">
        <ele>1511</ele>
        <time>2016-07-03T11:22:05.000Z</time>
      </trkpt>
      <trkpt lat="46.27163" lon="6.80765">
        <ele>1514</ele>
        <time>2016-07-03T11:22:14.000Z</time>
      </trkpt>
      <trkpt lat="46.27164" lon="6.80768">
        <ele>1515</ele>
        <time>2016-07-03T11:22:15.000Z</time>
      </trkpt>
      <trkpt lat="46.2716" lon="6.80756">
        <ele>1519</ele>
        <time>2016-07-03T11:22:30.000Z</time>
      </trkpt>
      <trkpt lat="46.27161" lon="6.80756">
        <ele>1520</ele>
        <time>2016-07-03T11:22:31.000Z</time>
      </trkpt>
      <trkpt lat="46.27152" lon="6.80754">
        <ele>1524</ele>
        <time>2016-07-03T11:22:47.000Z</time>
      </trkpt>
      <trkpt lat="46.27151" lon="6.80753">
        <ele>1523</ele>
        <time>2016-07-03T11:22:48.000Z</time>
      </trkpt>
      <trkpt lat="46.27145" lon="6.8076">
        <ele>1526</ele>
        <time>2016-07-03T11:23:21.000Z</time>
      </trkpt>
      <trkpt lat="46.27143" lon="6.80761">
        <ele>1525</ele>
        <time>2016-07-03T11:23:22.000Z</time>
      </trkpt>
      <trkpt lat="46.27135" lon="6.80764">
        <ele>1526</ele>
        <time>2016-07-03T11:23:40.000Z</time>
      </trkpt>
      <trkpt lat="46.27134" lon="6.80764">
        <ele>1526</ele>
        <time>2016-07-03T11:23:41.000Z</time>
      </trkpt>
      <trkpt lat="46.27126" lon="6.8076">
        <ele>1528</ele>
        <time>2016-07-03T11:24:33.000Z</time>
      </trkpt>
      <trkpt lat="46.27122" lon="6.80761">
        <ele>1528</ele>
        <time>2016-07-03T11:24:34.000Z</time>
      </trkpt>
      <trkpt lat="46.27117" lon="6.80765">
        <ele>1529</ele>
        <time>2016-07-03T11:24:35.000Z</time>
      </trkpt>
      <trkpt lat="46.27112" lon="6.80765">
        <ele>1532</ele>
        <time>2016-07-03T11:24:36.000Z</time>
      </trkpt>
      <trkpt lat="46.27108" lon="6.80774">
        <ele>1535</ele>
        <time>2016-07-03T11:24:38.000Z</time>
      </trkpt>
      <trkpt lat="46.27102" lon="6.80776">
        <ele>1533</ele>
        <time>2016-07-03T11:24:39.000Z</time>
      </trkpt>
      <trkpt lat="46.27096" lon="6.80783">
        <ele>1539</ele>
        <time>2016-07-03T11:24:46.000Z</time>
      </trkpt>
      <trkpt lat="46.27093" lon="6.80783">
        <ele>1537</ele>
        <time>2016-07-03T11:24:47.000Z</time>
      </trkpt>
      <trkpt lat="46.27086" lon="6.8079">
        <ele>1536</ele>
        <time>2016-07-03T11:25:30.000Z</time>
      </trkpt>
      <trkpt lat="46.27086" lon="6.80791">
        <ele>1536</ele>
        <time>2016-07-03T11:25:31.000Z</time>
      </trkpt>
      <trkpt lat="46.27087" lon="6.80801">
        <ele>1539</ele>
        <time>2016-07-03T11:25:44.000Z</time>
      </trkpt>
      <trkpt lat="46.27086" lon="6.80804">
        <ele>1542</ele>
        <time>2016-07-03T11:25:45.000Z</time>
      </trkpt>
      <trkpt lat="46.27085" lon="6.80813">
        <ele>1545</ele>
        <time>2016-07-03T11:25:50.000Z</time>
      </trkpt>
      <trkpt lat="46.27086" lon="6.80823">
        <ele>1546</ele>
        <time>2016-07-03T11:25:51.000Z</time>
      </trkpt>
      <trkpt lat="46.27086" lon="6.80812">
        <ele>1544</ele>
        <time>2016-07-03T11:26:00.000Z</time>
      </trkpt>
      <trkpt lat="46.27087" lon="6.8081">
        <ele>1544</ele>
        <time>2016-07-03T11:26:01.000Z</time>
      </trkpt>
      <trkpt lat="46.27081" lon="6.80818">
        <ele>1547</ele>
        <time>2016-07-03T11:26:16.000Z</time>
      </trkpt>
      <trkpt lat="46.2708" lon="6.80818">
        <ele>1547</ele>
        <time>2016-07-03T11:26:17.000Z</time>
      </trkpt>
      <trkpt lat="46.27076" lon="6.80827">
        <ele>1547</ele>
        <time>2016-07-03T11:26:31.000Z</time>
      </trkpt>
      <trkpt lat="46.27074" lon="6.80829">
        <ele>1547</ele>
        <time>2016-07-03T11:26:32.000Z</time>
      </trkpt>
      <trkpt lat="46.27069" lon="6.80838">
        <ele>1551</ele>
        <time>2016-07-03T11:26:36.000Z</time>
      </trkpt>
      <trkpt lat="46.27067" lon="6.80842">
        <ele>1552</ele>
        <time>2016-07-03T11:26:37.000Z</time>
      </trkpt>
      <trkpt lat="46.27061" lon="6.8085">
        <ele>1558</ele>
        <time>2016-07-03T11:26:41.000Z</time>
      </trkpt>
      <trkpt lat="46.27061" lon="6.80852">
        <ele>1560</ele>
        <time>2016-07-03T11:26:42.000Z</time>
      </trkpt>
      <trkpt lat="46.27061" lon="6.80855">
        <ele>1561</ele>
        <time>2016-07-03T11:26:44.000Z</time>
      </trkpt>
      <trkpt lat="46.27061" lon="6.80856">
        <ele>1560</ele>
        <time>2016-07-03T11:26:45.000Z</time>
      </trkpt>
      <trkpt lat="46.2706" lon="6.80857">
        <ele>1562</ele>
        <time>2016-07-03T11:26:46.000Z</time>
      </trkpt>
      <trkpt lat="46.27052" lon="6.8086">
        <ele>1561</ele>
        <time>2016-07-03T11:27:16.000Z</time>
      </trkpt>
      <trkpt lat="46.27051" lon="6.80859">
        <ele>1559</ele>
        <time>2016-07-03T11:27:17.000Z</time>
      </trkpt>
      <trkpt lat="46.27042" lon="6.8086">
        <ele>1556</ele>
        <time>2016-07-03T11:27:26.000Z</time>
      </trkpt>
      <trkpt lat="46.27042" lon="6.8086">
        <ele>1556</ele>
        <time>2016-07-03T11:27:27.000Z</time>
      </trkpt>
      <trkpt lat="46.27034" lon="6.80855">
        <ele>1561</ele>
        <time>2016-07-03T11:27:45.000Z</time>
      </trkpt>
      <trkpt lat="46.27033" lon="6.80854">
        <ele>1560</ele>
        <time>2016-07-03T11:27:46.000Z</time>
      </trkpt>
      <trkpt lat="46.27025" lon="6.80855">
        <ele>1559</ele>
        <time>2016-07-03T11:27:55.000Z</time>
      </trkpt>
      <trkpt lat="46.27024" lon="6.80858">
        <ele>1559</ele>
        <time>2016-07-03T11:27:56.000Z</time>
      </trkpt>
      <trkpt lat="46.27029" lon="6.80867">
        <ele>1565</ele>
        <time>2016-07-03T11:31:43.000Z</time>
      </trkpt>
      <trkpt lat="46.2703" lon="6.8087">
        <ele>1562</ele>
        <time>2016-07-03T11:31:44.000Z</time>
      </trkpt>
      <trkpt lat="46.27023" lon="6.80876">
        <ele>1566</ele>
        <time>2016-07-03T11:31:56.000Z</time>
      </trkpt>
      <trkpt lat="46.27022" lon="6.80879">
        <ele>1565</ele>
        <time>2016-07-03T11:31:57.000Z</time>
      </trkpt>
      <trkpt lat="46.2702" lon="6.80891">
        <ele>1564</ele>
        <time>2016-07-03T11:32:08.000Z</time>
      </trkpt>
      <trkpt lat="46.27019" lon="6.80892">
        <ele>1566</ele>
        <time>2016-07-03T11:32:09.000Z</time>
      </trkpt>
      <trkpt lat="46.27011" lon="6.80897">
        <ele>1561</ele>
        <time>2016-07-03T11:32:18.000Z</time>
      </trkpt>
      <trkpt lat="46.27008" lon="6.80896">
        <ele>1562</ele>
        <time>2016-07-03T11:32:19.000Z</time>
      </trkpt>
      <trkpt lat="46.27003" lon="6.80905">
        <ele>1557</ele>
        <time>2016-07-03T11:32:45.000Z</time>
      </trkpt>
      <trkpt lat="46.27001" lon="6.80904">
        <ele>1558</ele>
        <time>2016-07-03T11:32:46.000Z</time>
      </trkpt>
      <trkpt lat="46.26995" lon="6.80914">
        <ele>1560</ele>
        <time>2016-07-03T11:32:52.000Z</time>
      </trkpt>
      <trkpt lat="46.26994" lon="6.80915">
        <ele>1561</ele>
        <time>2016-07-03T11:32:53.000Z</time>
      </trkpt>
      <trkpt lat="46.26988" lon="6.80922">
        <ele>1568</ele>
        <time>2016-07-03T11:32:59.000Z</time>
      </trkpt>
      <trkpt lat="46.26985" lon="6.80921">
        <ele>1568</ele>
        <time>2016-07-03T11:33:00.000Z</time>
      </trkpt>
      <trkpt lat="46.26977" lon="6.80921">
        <ele>1564</ele>
        <time>2016-07-03T11:33:07.000Z</time>
      </trkpt>
      <trkpt lat="46.26975" lon="6.80921">
        <ele>1564</ele>
        <time>2016-07-03T11:33:08.000Z</time>
      </trkpt>
      <trkpt lat="46.26967" lon="6.80926">
        <ele>1566</ele>
        <time>2016-07-03T11:33:22.000Z</time>
      </trkpt>
      <trkpt lat="46.26966" lon="6.80927">
        <ele>1566</ele>
        <time>2016-07-03T11:33:23.000Z</time>
      </trkpt>
      <trkpt lat="46.26958" lon="6.80931">
        <ele>1568</ele>
        <time>2016-07-03T11:33:39.000Z</time>
      </trkpt>
      <trkpt lat="46.26958" lon="6.80931">
        <ele>1567</ele>
        <time>2016-07-03T11:33:40.000Z</time>
      </trkpt>
      <trkpt lat="46.26958" lon="6.8093">
        <ele>1567</ele>
        <time>2016-07-03T11:33:43.000Z</time>
      </trkpt>
      <trkpt lat="46.26958" lon="6.8093">
        <ele>1567</ele>
        <time>2016-07-03T11:33:44.000Z</time>
      </trkpt>
      <trkpt lat="46.26954" lon="6.8094">
        <ele>1567</ele>
        <time>2016-07-03T11:33:55.000Z</time>
      </trkpt>
      <trkpt lat="46.26953" lon="6.80941">
        <ele>1567</ele>
        <time>2016-07-03T11:33:56.000Z</time>
      </trkpt>
      <trkpt lat="46.26948" lon="6.80949">
        <ele>1574</ele>
        <time>2016-07-03T11:34:04.000Z</time>
      </trkpt>
      <trkpt lat="46.26946" lon="6.80951">
        <ele>1575</ele>
        <time>2016-07-03T11:34:05.000Z</time>
      </trkpt>
      <trkpt lat="46.2694" lon="6.8096">
        <ele>1570</ele>
        <time>2016-07-03T11:34:23.000Z</time>
      </trkpt>
      <trkpt lat="46.26939" lon="6.8096">
        <ele>1569</ele>
        <time>2016-07-03T11:34:24.000Z</time>
      </trkpt>
      <trkpt lat="46.26932" lon="6.80966">
        <ele>1581</ele>
        <time>2016-07-03T11:34:42.000Z</time>
      </trkpt>
      <trkpt lat="46.2693" lon="6.80967">
        <ele>1581</ele>
        <time>2016-07-03T11:34:43.000Z</time>
      </trkpt>
      <trkpt lat="46.26921" lon="6.80966">
        <ele>1587</ele>
        <time>2016-07-03T11:34:49.000Z</time>
      </trkpt>
      <trkpt lat="46.2692" lon="6.80969">
        <ele>1586</ele>
        <time>2016-07-03T11:34:50.000Z</time>
      </trkpt>
      <trkpt lat="46.26913" lon="6.80972">
        <ele>1597</ele>
        <time>2016-07-03T11:35:01.000Z</time>
      </trkpt>
      <trkpt lat="46.26911" lon="6.80971">
        <ele>1598</ele>
        <time>2016-07-03T11:35:02.000Z</time>
      </trkpt>
      <trkpt lat="46.26911" lon="6.80984">
        <ele>1599</ele>
        <time>2016-07-03T11:35:13.000Z</time>
      </trkpt>
      <trkpt lat="46.26908" lon="6.80984">
        <ele>1597</ele>
        <time>2016-07-03T11:35:14.000Z</time>
      </trkpt>
      <trkpt lat="46.26901" lon="6.80978">
        <ele>1601</ele>
        <time>2016-07-03T11:36:29.000Z</time>
      </trkpt>
      <trkpt lat="46.269" lon="6.80977">
        <ele>1601</ele>
        <time>2016-07-03T11:36:30.000Z</time>
      </trkpt>
      <trkpt lat="46.26893" lon="6.80976">
        <ele>1599</ele>
        <time>2016-07-03T11:36:35.000Z</time>
      </trkpt>
      <trkpt lat="46.26887" lon="6.80975">
        <ele>1591</ele>
        <time>2016-07-03T11:36:36.000Z</time>
      </trkpt>
      <trkpt lat="46.26888" lon="6.80963">
        <ele>1602</ele>
        <time>2016-07-03T11:37:01.000Z</time>
      </trkpt>
      <trkpt lat="46.26886" lon="6.8096">
        <ele>1601</ele>
        <time>2016-07-03T11:37:02.000Z</time>
      </trkpt>
      <trkpt lat="46.26883" lon="6.80949">
        <ele>1601</ele>
        <time>2016-07-03T11:37:10.000Z</time>
      </trkpt>
      <trkpt lat="46.26882" lon="6.80948">
        <ele>1599</ele>
        <time>2016-07-03T11:37:11.000Z</time>
      </trkpt>
      <trkpt lat="46.26879" lon="6.80936">
        <ele>1604</ele>
        <time>2016-07-03T11:37:20.000Z</time>
      </trkpt>
      <trkpt lat="46.26879" lon="6.80935">
        <ele>1605</ele>
        <time>2016-07-03T11:37:21.000Z</time>
      </trkpt>
      <trkpt lat="46.26873" lon="6.80927">
        <ele>1600</ele>
        <time>2016-07-03T11:37:33.000Z</time>
      </trkpt>
      <trkpt lat="46.26873" lon="6.80925">
        <ele>1599</ele>
        <time>2016-07-03T11:37:34.000Z</time>
      </trkpt>
      <trkpt lat="46.26867" lon="6.80916">
        <ele>1596</ele>
        <time>2016-07-03T11:37:41.000Z</time>
      </trkpt>
      <trkpt lat="46.26866" lon="6.80914">
        <ele>1595</ele>
        <time>2016-07-03T11:37:42.000Z</time>
      </trkpt>
      <trkpt lat="46.26865" lon="6.80902">
        <ele>1598</ele>
        <time>2016-07-03T11:37:58.000Z</time>
      </trkpt>
      <trkpt lat="46.26865" lon="6.80901">
        <ele>1598</ele>
        <time>2016-07-03T11:37:59.000Z</time>
      </trkpt>
      <trkpt lat="46.2686" lon="6.80891">
        <ele>1603</ele>
        <time>2016-07-03T11:38:14.000Z</time>
      </trkpt>
      <trkpt lat="46.26859" lon="6.8089">
        <ele>1603</ele>
        <time>2016-07-03T11:38:15.000Z</time>
      </trkpt>
      <trkpt lat="46.26855" lon="6.8088">
        <ele>1610</ele>
        <time>2016-07-03T11:38:25.000Z</time>
      </trkpt>
      <trkpt lat="46.26854" lon="6.8088">
        <ele>1610</ele>
        <time>2016-07-03T11:38:26.000Z</time>
      </trkpt>
      <trkpt lat="46.26853" lon="6.80868">
        <ele>1616</ele>
        <time>2016-07-03T11:38:37.000Z</time>
      </trkpt>
      <trkpt lat="46.26846" lon="6.80869">
        <ele>1615</ele>
        <time>2016-07-03T11:38:38.000Z</time>
      </trkpt>
      <trkpt lat="46.26846" lon="6.80858">
        <ele>1614</ele>
        <time>2016-07-03T11:38:52.000Z</time>
      </trkpt>
      <trkpt lat="46.26848" lon="6.80853">
        <ele>1610</ele>
        <time>2016-07-03T11:38:53.000Z</time>
      </trkpt>
      <trkpt lat="46.26852" lon="6.80843">
        <ele>1603</ele>
        <time>2016-07-03T11:39:04.000Z</time>
      </trkpt>
      <trkpt lat="46.26851" lon="6.80839">
        <ele>1599</ele>
        <time>2016-07-03T11:39:05.000Z</time>
      </trkpt>
      <trkpt lat="46.26852" lon="6.80827">
        <ele>1606</ele>
        <time>2016-07-03T11:39:19.000Z</time>
      </trkpt>
      <trkpt lat="46.26852" lon="6.80825">
        <ele>1606</ele>
        <time>2016-07-03T11:39:20.000Z</time>
      </trkpt>
      <trkpt lat="46.26848" lon="6.80817">
        <ele>1604</ele>
        <time>2016-07-03T11:39:28.000Z</time>
      </trkpt>
      <trkpt lat="46.26846" lon="6.80816">
        <ele>1603</ele>
        <time>2016-07-03T11:39:29.000Z</time>
      </trkpt>
      <trkpt lat="46.26847" lon="6.80803">
        <ele>1608</ele>
        <time>2016-07-03T11:39:47.000Z</time>
      </trkpt>
      <trkpt lat="46.26847" lon="6.80801">
        <ele>1608</ele>
        <time>2016-07-03T11:39:48.000Z</time>
      </trkpt>
      <trkpt lat="46.26847" lon="6.80789">
        <ele>1614</ele>
        <time>2016-07-03T11:40:05.000Z</time>
      </trkpt>
      <trkpt lat="46.26845" lon="6.80788">
        <ele>1614</ele>
        <time>2016-07-03T11:40:06.000Z</time>
      </trkpt>
      <trkpt lat="46.26842" lon="6.80776">
        <ele>1612</ele>
        <time>2016-07-03T11:40:16.000Z</time>
      </trkpt>
      <trkpt lat="46.26842" lon="6.80775">
        <ele>1611</ele>
        <time>2016-07-03T11:40:17.000Z</time>
      </trkpt>
      <trkpt lat="46.26848" lon="6.80768">
        <ele>1614</ele>
        <time>2016-07-03T11:40:25.000Z</time>
      </trkpt>
      <trkpt lat="46.26849" lon="6.80766">
        <ele>1614</ele>
        <time>2016-07-03T11:40:26.000Z</time>
      </trkpt>
      <trkpt lat="46.26853" lon="6.80757">
        <ele>1612</ele>
        <time>2016-07-03T11:40:34.000Z</time>
      </trkpt>
      <trkpt lat="46.26855" lon="6.80756">
        <ele>1611</ele>
        <time>2016-07-03T11:40:35.000Z</time>
      </trkpt>
      <trkpt lat="46.26855" lon="6.80744">
        <ele>1613</ele>
        <time>2016-07-03T11:40:49.000Z</time>
      </trkpt>
      <trkpt lat="46.26855" lon="6.80742">
        <ele>1613</ele>
        <time>2016-07-03T11:40:50.000Z</time>
      </trkpt>
      <trkpt lat="46.26858" lon="6.8073">
        <ele>1621</ele>
        <time>2016-07-03T11:41:09.000Z</time>
      </trkpt>
      <trkpt lat="46.26858" lon="6.80729">
        <ele>1621</ele>
        <time>2016-07-03T11:41:10.000Z</time>
      </trkpt>
      <trkpt lat="46.26853" lon="6.8072">
        <ele>1624</ele>
        <time>2016-07-03T11:41:24.000Z</time>
      </trkpt>
      <trkpt lat="46.26853" lon="6.8072">
        <ele>1626</ele>
        <time>2016-07-03T11:41:25.000Z</time>
      </trkpt>
      <trkpt lat="46.26851" lon="6.80719">
        <ele>1624</ele>
        <time>2016-07-03T11:41:26.000Z</time>
      </trkpt>
      <trkpt lat="46.26845" lon="6.80712">
        <ele>1623</ele>
        <time>2016-07-03T11:41:33.000Z</time>
      </trkpt>
      <trkpt lat="46.26843" lon="6.80712">
        <ele>1623</ele>
        <time>2016-07-03T11:41:34.000Z</time>
      </trkpt>
      <trkpt lat="46.26838" lon="6.80711">
        <ele>1624</ele>
        <time>2016-07-03T11:41:41.000Z</time>
      </trkpt>
      <trkpt lat="46.26837" lon="6.80712">
        <ele>1626</ele>
        <time>2016-07-03T11:41:42.000Z</time>
      </trkpt>
      <trkpt lat="46.26837" lon="6.80712">
        <ele>1625</ele>
        <time>2016-07-03T11:41:43.000Z</time>
      </trkpt>
      <trkpt lat="46.26833" lon="6.80721">
        <ele>1637</ele>
        <time>2016-07-03T11:42:08.000Z</time>
      </trkpt>
      <trkpt lat="46.26829" lon="6.80721">
        <ele>1636</ele>
        <time>2016-07-03T11:42:09.000Z</time>
      </trkpt>
      <trkpt lat="46.26825" lon="6.80709">
        <ele>1632</ele>
        <time>2016-07-03T11:42:41.000Z</time>
      </trkpt>
      <trkpt lat="46.26824" lon="6.80709">
        <ele>1631</ele>
        <time>2016-07-03T11:42:42.000Z</time>
      </trkpt>
      <trkpt lat="46.26826" lon="6.80711">
        <ele>1640</ele>
        <time>2016-07-03T11:42:50.000Z</time>
      </trkpt>
      <trkpt lat="46.26826" lon="6.80711">
        <ele>1640</ele>
        <time>2016-07-03T11:42:51.000Z</time>
      </trkpt>
      <trkpt lat="46.26825" lon="6.80711">
        <ele>1641</ele>
        <time>2016-07-03T11:42:52.000Z</time>
      </trkpt>
      <trkpt lat="46.26817" lon="6.80711">
        <ele>1643</ele>
        <time>2016-07-03T11:43:31.000Z</time>
      </trkpt>
      <trkpt lat="46.26814" lon="6.80709">
        <ele>1641</ele>
        <time>2016-07-03T11:43:32.000Z</time>
      </trkpt>
      <trkpt lat="46.26807" lon="6.80705">
        <ele>1642</ele>
        <time>2016-07-03T11:43:47.000Z</time>
      </trkpt>
      <trkpt lat="46.26806" lon="6.80706">
        <ele>1643</ele>
        <time>2016-07-03T11:43:48.000Z</time>
      </trkpt>
      <trkpt lat="46.26797" lon="6.80703">
        <ele>1647</ele>
        <time>2016-07-03T11:43:57.000Z</time>
      </trkpt>
      <trkpt lat="46.26796" lon="6.80703">
        <ele>1647</ele>
        <time>2016-07-03T11:43:58.000Z</time>
      </trkpt>
      <trkpt lat="46.26794" lon="6.80704">
        <ele>1649</ele>
        <time>2016-07-03T11:44:11.000Z</time>
      </trkpt>
      <trkpt lat="46.26794" lon="6.80704">
        <ele>1650</ele>
        <time>2016-07-03T11:44:12.000Z</time>
      </trkpt>
      <trkpt lat="46.26794" lon="6.80704">
        <ele>1650</ele>
        <time>2016-07-03T11:44:13.000Z</time>
      </trkpt>
      <trkpt lat="46.26791" lon="6.80715">
        <ele>1665</ele>
        <time>2016-07-03T11:44:54.000Z</time>
      </trkpt>
      <trkpt lat="46.2679" lon="6.80715">
        <ele>1664</ele>
        <time>2016-07-03T11:44:55.000Z</time>
      </trkpt>
      <trkpt lat="46.26781" lon="6.80715">
        <ele>1666</ele>
        <time>2016-07-03T11:46:22.000Z</time>
      </trkpt>
      <trkpt lat="46.26779" lon="6.80715">
        <ele>1662</ele>
        <time>2016-07-03T11:46:23.000Z</time>
      </trkpt>
      <trkpt lat="46.26772" lon="6.80711">
        <ele>1667</ele>
        <time>2016-07-03T11:46:42.000Z</time>
      </trkpt>
      <trkpt lat="46.26772" lon="6.80712">
        <ele>1666</ele>
        <time>2016-07-03T11:46:43.000Z</time>
      </trkpt>
      <trkpt lat="46.2677" lon="6.80714">
        <ele>1667</ele>
        <time>2016-07-03T11:46:44.000Z</time>
      </trkpt>
      <trkpt lat="46.2677" lon="6.80713">
        <ele>1668</ele>
        <time>2016-07-03T11:46:46.000Z</time>
      </trkpt>
      <trkpt lat="46.26771" lon="6.80713">
        <ele>1666</ele>
        <time>2016-07-03T11:46:47.000Z</time>
      </trkpt>
      <trkpt lat="46.26769" lon="6.80713">
        <ele>1666</ele>
        <time>2016-07-03T11:46:48.000Z</time>
      </trkpt>
      <trkpt lat="46.26762" lon="6.80707">
        <ele>1681</ele>
        <time>2016-07-03T11:51:15.000Z</time>
      </trkpt>
      <trkpt lat="46.26761" lon="6.80706">
        <ele>1681</ele>
        <time>2016-07-03T11:51:16.000Z</time>
      </trkpt>
      <trkpt lat="46.26756" lon="6.80707">
        <ele>1683</ele>
        <time>2016-07-03T11:51:33.000Z</time>
      </trkpt>
      <trkpt lat="46.26756" lon="6.80707">
        <ele>1684</ele>
        <time>2016-07-03T11:51:34.000Z</time>
      </trkpt>
      <trkpt lat="46.26757" lon="6.80708">
        <ele>1686</ele>
        <time>2016-07-03T11:51:35.000Z</time>
      </trkpt>
      <trkpt lat="46.2675" lon="6.80712">
        <ele>1689</ele>
        <time>2016-07-03T11:51:55.000Z</time>
      </trkpt>
      <trkpt lat="46.26748" lon="6.80715">
        <ele>1690</ele>
        <time>2016-07-03T11:51:56.000Z</time>
      </trkpt>
      <trkpt lat="46.26741" lon="6.80722">
        <ele>1690</ele>
        <time>2016-07-03T11:52:05.000Z</time>
      </trkpt>
      <trkpt lat="46.26739" lon="6.80723">
        <ele>1690</ele>
        <time>2016-07-03T11:52:06.000Z</time>
      </trkpt>
      <trkpt lat="46.26731" lon="6.80721">
        <ele>1691</ele>
        <time>2016-07-03T11:52:09.000Z</time>
      </trkpt>
      <trkpt lat="46.2673" lon="6.80721">
        <ele>1690</ele>
        <time>2016-07-03T11:52:10.000Z</time>
      </trkpt>
      <trkpt lat="46.26729" lon="6.80726">
        <ele>1694</ele>
        <time>2016-07-03T11:52:13.000Z</time>
      </trkpt>
      <trkpt lat="46.26729" lon="6.80727">
        <ele>1695</ele>
        <time>2016-07-03T11:52:14.000Z</time>
      </trkpt>
      <trkpt lat="46.26727" lon="6.80731">
        <ele>1698</ele>
        <time>2016-07-03T11:52:32.000Z</time>
      </trkpt>
      <trkpt lat="46.26727" lon="6.80732">
        <ele>1698</ele>
        <time>2016-07-03T11:52:33.000Z</time>
      </trkpt>
      <trkpt lat="46.26722" lon="6.8074">
        <ele>1697</ele>
        <time>2016-07-03T11:52:42.000Z</time>
      </trkpt>
      <trkpt lat="46.2672" lon="6.80741">
        <ele>1698</ele>
        <time>2016-07-03T11:52:43.000Z</time>
      </trkpt>
      <trkpt lat="46.26711" lon="6.80744">
        <ele>1696</ele>
        <time>2016-07-03T11:52:55.000Z</time>
      </trkpt>
      <trkpt lat="46.26711" lon="6.80744">
        <ele>1697</ele>
        <time>2016-07-03T11:52:56.000Z</time>
      </trkpt>
      <trkpt lat="46.26704" lon="6.80752">
        <ele>1701</ele>
        <time>2016-07-03T11:53:12.000Z</time>
      </trkpt>
      <trkpt lat="46.26704" lon="6.80752">
        <ele>1701</ele>
        <time>2016-07-03T11:53:13.000Z</time>
      </trkpt>
      <trkpt lat="46.26698" lon="6.80758">
        <ele>1703</ele>
        <time>2016-07-03T11:53:31.000Z</time>
      </trkpt>
      <trkpt lat="46.26697" lon="6.80761">
        <ele>1705</ele>
        <time>2016-07-03T11:53:32.000Z</time>
      </trkpt>
      <trkpt lat="46.26689" lon="6.80764">
        <ele>1705</ele>
        <time>2016-07-03T11:53:42.000Z</time>
      </trkpt>
      <trkpt lat="46.26689" lon="6.80766">
        <ele>1705</ele>
        <time>2016-07-03T11:53:43.000Z</time>
      </trkpt>
      <trkpt lat="46.26686" lon="6.80772">
        <ele>1705</ele>
        <time>2016-07-03T11:53:52.000Z</time>
      </trkpt>
      <trkpt lat="46.26686" lon="6.80772">
        <ele>1705</ele>
        <time>2016-07-03T11:53:53.000Z</time>
      </trkpt>
      <trkpt lat="46.26687" lon="6.80773">
        <ele>1709</ele>
        <time>2016-07-03T11:53:54.000Z</time>
      </trkpt>
      <trkpt lat="46.2669" lon="6.8078">
        <ele>1704</ele>
        <time>2016-07-03T11:54:08.000Z</time>
      </trkpt>
      <trkpt lat="46.2669" lon="6.8078">
        <ele>1704</ele>
        <time>2016-07-03T11:54:09.000Z</time>
      </trkpt>
      <trkpt lat="46.26689" lon="6.8078">
        <ele>1704</ele>
        <time>2016-07-03T11:54:10.000Z</time>
      </trkpt>
      <trkpt lat="46.26682" lon="6.80776">
        <ele>1704</ele>
        <time>2016-07-03T11:54:19.000Z</time>
      </trkpt>
      <trkpt lat="46.2668" lon="6.80775">
        <ele>1703</ele>
        <time>2016-07-03T11:54:20.000Z</time>
      </trkpt>
      <trkpt lat="46.26676" lon="6.80769">
        <ele>1717</ele>
        <time>2016-07-03T11:55:23.000Z</time>
      </trkpt>
      <trkpt lat="46.26671" lon="6.8077">
        <ele>1716</ele>
        <time>2016-07-03T11:55:24.000Z</time>
      </trkpt>
      <trkpt lat="46.26662" lon="6.80767">
        <ele>1720</ele>
        <time>2016-07-03T11:55:35.000Z</time>
      </trkpt>
      <trkpt lat="46.26661" lon="6.80766">
        <ele>1721</ele>
        <time>2016-07-03T11:55:36.000Z</time>
      </trkpt>
      <trkpt lat="46.26653" lon="6.8077">
        <ele>1716</ele>
        <time>2016-07-03T11:55:41.000Z</time>
      </trkpt>
      <trkpt lat="46.26651" lon="6.80771">
        <ele>1719</ele>
        <time>2016-07-03T11:55:42.000Z</time>
      </trkpt>
      <trkpt lat="46.26644" lon="6.80773">
        <ele>1720</ele>
        <time>2016-07-03T11:55:58.000Z</time>
      </trkpt>
      <trkpt lat="46.26641" lon="6.80774">
        <ele>1722</ele>
        <time>2016-07-03T11:55:59.000Z</time>
      </trkpt>
      <trkpt lat="46.26643" lon="6.80773">
        <ele>1721</ele>
        <time>2016-07-03T11:56:09.000Z</time>
      </trkpt>
      <trkpt lat="46.26643" lon="6.80773">
        <ele>1721</ele>
        <time>2016-07-03T11:56:10.000Z</time>
      </trkpt>
      <trkpt lat="46.26643" lon="6.80772">
        <ele>1724</ele>
        <time>2016-07-03T11:56:11.000Z</time>
      </trkpt>
      <trkpt lat="46.26643" lon="6.80768">
        <ele>1723</ele>
        <time>2016-07-03T11:56:13.000Z</time>
      </trkpt>
      <trkpt lat="46.26643" lon="6.8077">
        <ele>1723</ele>
        <time>2016-07-03T11:56:14.000Z</time>
      </trkpt>
      <trkpt lat="46.26642" lon="6.80772">
        <ele>1724</ele>
        <time>2016-07-03T11:56:15.000Z</time>
      </trkpt>
      <trkpt lat="46.26642" lon="6.80771">
        <ele>1724</ele>
        <time>2016-07-03T11:56:16.000Z</time>
      </trkpt>
      <trkpt lat="46.26635" lon="6.80773">
        <ele>1730</ele>
        <time>2016-07-03T11:56:30.000Z</time>
      </trkpt>
      <trkpt lat="46.26632" lon="6.80773">
        <ele>1732</ele>
        <time>2016-07-03T11:56:31.000Z</time>
      </trkpt>
      <trkpt lat="46.26624" lon="6.80769">
        <ele>1731</ele>
        <time>2016-07-03T11:56:52.000Z</time>
      </trkpt>
      <trkpt lat="46.26624" lon="6.80769">
        <ele>1731</ele>
        <time>2016-07-03T11:56:53.000Z</time>
      </trkpt>
      <trkpt lat="46.26617" lon="6.80763">
        <ele>1737</ele>
        <time>2016-07-03T11:57:07.000Z</time>
      </trkpt>
      <trkpt lat="46.26615" lon="6.80761">
        <ele>1736</ele>
        <time>2016-07-03T11:57:08.000Z</time>
      </trkpt>
      <trkpt lat="46.26618" lon="6.80749">
        <ele>1743</ele>
        <time>2016-07-03T11:57:45.000Z</time>
      </trkpt>
      <trkpt lat="46.26619" lon="6.80749">
        <ele>1745</ele>
        <time>2016-07-03T11:57:46.000Z</time>
      </trkpt>
      <trkpt lat="46.26617" lon="6.80741">
        <ele>1747</ele>
        <time>2016-07-03T11:58:36.000Z</time>
      </trkpt>
      <trkpt lat="46.26616" lon="6.8074">
        <ele>1747</ele>
        <time>2016-07-03T11:58:37.000Z</time>
      </trkpt>
      <trkpt lat="46.26608" lon="6.80742">
        <ele>1749</ele>
        <time>2016-07-03T11:59:20.000Z</time>
      </trkpt>
      <trkpt lat="46.26608" lon="6.80742">
        <ele>1749</ele>
        <time>2016-07-03T11:59:21.000Z</time>
      </trkpt>
      <trkpt lat="46.26607" lon="6.80731">
        <ele>1750</ele>
        <time>2016-07-03T11:59:45.000Z</time>
      </trkpt>
      <trkpt lat="46.26607" lon="6.80731">
        <ele>1750</ele>
        <time>2016-07-03T11:59:46.000Z</time>
      </trkpt>
      <trkpt lat="46.26604" lon="6.80733">
        <ele>1746</ele>
        <time>2016-07-03T12:00:07.000Z</time>
      </trkpt>
      <trkpt lat="46.26604" lon="6.80733">
        <ele>1746</ele>
        <time>2016-07-03T12:00:08.000Z</time>
      </trkpt>
      <trkpt lat="46.2661" lon="6.80729">
        <ele>1754</ele>
        <time>2016-07-03T12:02:41.000Z</time>
      </trkpt>
      <trkpt lat="46.2661" lon="6.8073">
        <ele>1754</ele>
        <time>2016-07-03T12:02:42.000Z</time>
      </trkpt>
      <trkpt lat="46.2661" lon="6.80729">
        <ele>1754</ele>
        <time>2016-07-03T12:02:43.000Z</time>
      </trkpt>
      <trkpt lat="46.26601" lon="6.80727">
        <ele>1750</ele>
        <time>2016-07-03T12:03:00.000Z</time>
      </trkpt>
      <trkpt lat="46.266" lon="6.80726">
        <ele>1751</ele>
        <time>2016-07-03T12:03:01.000Z</time>
      </trkpt>
      <trkpt lat="46.26592" lon="6.8072">
        <ele>1745</ele>
        <time>2016-07-03T12:03:11.000Z</time>
      </trkpt>
      <trkpt lat="46.2659" lon="6.80719">
        <ele>1745</ele>
        <time>2016-07-03T12:03:12.000Z</time>
      </trkpt>
      <trkpt lat="46.26583" lon="6.80713">
        <ele>1742</ele>
        <time>2016-07-03T12:03:22.000Z</time>
      </trkpt>
      <trkpt lat="46.26581" lon="6.80711">
        <ele>1741</ele>
        <time>2016-07-03T12:03:23.000Z</time>
      </trkpt>
      <trkpt lat="46.26576" lon="6.80701">
        <ele>1741</ele>
        <time>2016-07-03T12:03:30.000Z</time>
      </trkpt>
      <trkpt lat="46.26576" lon="6.80701">
        <ele>1741</ele>
        <time>2016-07-03T12:03:31.000Z</time>
      </trkpt>
      <trkpt lat="46.26571" lon="6.80691">
        <ele>1742</ele>
        <time>2016-07-03T12:03:39.000Z</time>
      </trkpt>
      <trkpt lat="46.26568" lon="6.80689">
        <ele>1740</ele>
        <time>2016-07-03T12:03:40.000Z</time>
      </trkpt>
      <trkpt lat="46.26563" lon="6.8068">
        <ele>1736</ele>
        <time>2016-07-03T12:03:51.000Z</time>
      </trkpt>
      <trkpt lat="46.26562" lon="6.80679">
        <ele>1736</ele>
        <time>2016-07-03T12:03:52.000Z</time>
      </trkpt>
      <trkpt lat="46.26558" lon="6.80669">
        <ele>1737</ele>
        <time>2016-07-03T12:04:03.000Z</time>
      </trkpt>
      <trkpt lat="46.26556" lon="6.80668">
        <ele>1737</ele>
        <time>2016-07-03T12:04:04.000Z</time>
      </trkpt>
      <trkpt lat="46.26556" lon="6.80657">
        <ele>1747</ele>
        <time>2016-07-03T12:04:17.000Z</time>
      </trkpt>
      <trkpt lat="46.26558" lon="6.80655">
        <ele>1749</ele>
        <time>2016-07-03T12:04:18.000Z</time>
      </trkpt>
      <trkpt lat="46.26559" lon="6.80642">
        <ele>1754</ele>
        <time>2016-07-03T12:04:31.000Z</time>
      </trkpt>
      <trkpt lat="46.26559" lon="6.80641">
        <ele>1755</ele>
        <time>2016-07-03T12:04:32.000Z</time>
      </trkpt>
      <trkpt lat="46.26554" lon="6.80633">
        <ele>1758</ele>
        <time>2016-07-03T12:04:44.000Z</time>
      </trkpt>
      <trkpt lat="46.26553" lon="6.80632">
        <ele>1758</ele>
        <time>2016-07-03T12:04:45.000Z</time>
      </trkpt>
      <trkpt lat="46.26549" lon="6.80622">
        <ele>1760</ele>
        <time>2016-07-03T12:04:59.000Z</time>
      </trkpt>
      <trkpt lat="46.26548" lon="6.8062">
        <ele>1761</ele>
        <time>2016-07-03T12:05:00.000Z</time>
      </trkpt>
      <trkpt lat="46.26544" lon="6.80613">
        <ele>1760</ele>
        <time>2016-07-03T12:05:10.000Z</time>
      </trkpt>
      <trkpt lat="46.26541" lon="6.80611">
        <ele>1760</ele>
        <time>2016-07-03T12:05:11.000Z</time>
      </trkpt>
      <trkpt lat="46.26533" lon="6.80607">
        <ele>1759</ele>
        <time>2016-07-03T12:05:23.000Z</time>
      </trkpt>
      <trkpt lat="46.26531" lon="6.80607">
        <ele>1758</ele>
        <time>2016-07-03T12:05:24.000Z</time>
      </trkpt>
      <trkpt lat="46.26522" lon="6.80606">
        <ele>1762</ele>
        <time>2016-07-03T12:05:43.000Z</time>
      </trkpt>
      <trkpt lat="46.26521" lon="6.80608">
        <ele>1763</ele>
        <time>2016-07-03T12:05:44.000Z</time>
      </trkpt>
      <trkpt lat="46.26513" lon="6.8061">
        <ele>1762</ele>
        <time>2016-07-03T12:05:51.000Z</time>
      </trkpt>
      <trkpt lat="46.26512" lon="6.80607">
        <ele>1762</ele>
        <time>2016-07-03T12:05:52.000Z</time>
      </trkpt>
      <trkpt lat="46.26509" lon="6.80596">
        <ele>1767</ele>
        <time>2016-07-03T12:06:04.000Z</time>
      </trkpt>
      <trkpt lat="46.2651" lon="6.80594">
        <ele>1768</ele>
        <time>2016-07-03T12:06:05.000Z</time>
      </trkpt>
      <trkpt lat="46.26509" lon="6.80585">
        <ele>1771</ele>
        <time>2016-07-03T12:06:15.000Z</time>
      </trkpt>
      <trkpt lat="46.2651" lon="6.80584">
        <ele>1771</ele>
        <time>2016-07-03T12:06:16.000Z</time>
      </trkpt>
      <trkpt lat="46.26511" lon="6.80584">
        <ele>1773</ele>
        <time>2016-07-03T12:06:17.000Z</time>
      </trkpt>
      <trkpt lat="46.26506" lon="6.80573">
        <ele>1773</ele>
        <time>2016-07-03T12:06:28.000Z</time>
      </trkpt>
      <trkpt lat="46.26506" lon="6.80572">
        <ele>1774</ele>
        <time>2016-07-03T12:06:29.000Z</time>
      </trkpt>
      <trkpt lat="46.26502" lon="6.80562">
        <ele>1775</ele>
        <time>2016-07-03T12:06:42.000Z</time>
      </trkpt>
      <trkpt lat="46.26499" lon="6.80562">
        <ele>1773</ele>
        <time>2016-07-03T12:06:43.000Z</time>
      </trkpt>
      <trkpt lat="46.26493" lon="6.80553">
        <ele>1773</ele>
        <time>2016-07-03T12:06:54.000Z</time>
      </trkpt>
      <trkpt lat="46.26492" lon="6.80553">
        <ele>1773</ele>
        <time>2016-07-03T12:06:55.000Z</time>
      </trkpt>
      <trkpt lat="46.26485" lon="6.80545">
        <ele>1775</ele>
        <time>2016-07-03T12:07:11.000Z</time>
      </trkpt>
      <trkpt lat="46.26484" lon="6.80543">
        <ele>1776</ele>
        <time>2016-07-03T12:07:12.000Z</time>
      </trkpt>
      <trkpt lat="46.26478" lon="6.80535">
        <ele>1777</ele>
        <time>2016-07-03T12:07:20.000Z</time>
      </trkpt>
      <trkpt lat="46.26477" lon="6.80534">
        <ele>1777</ele>
        <time>2016-07-03T12:07:21.000Z</time>
      </trkpt>
      <trkpt lat="46.26471" lon="6.80524">
        <ele>1782</ele>
        <time>2016-07-03T12:07:36.000Z</time>
      </trkpt>
      <trkpt lat="46.26471" lon="6.80523">
        <ele>1782</ele>
        <time>2016-07-03T12:07:37.000Z</time>
      </trkpt>
      <trkpt lat="46.26465" lon="6.80514">
        <ele>1783</ele>
        <time>2016-07-03T12:07:48.000Z</time>
      </trkpt>
      <trkpt lat="46.26465" lon="6.80514">
        <ele>1783</ele>
        <time>2016-07-03T12:07:49.000Z</time>
      </trkpt>
      <trkpt lat="46.26461" lon="6.80502">
        <ele>1785</ele>
        <time>2016-07-03T12:08:00.000Z</time>
      </trkpt>
      <trkpt lat="46.26461" lon="6.80501">
        <ele>1785</ele>
        <time>2016-07-03T12:08:01.000Z</time>
      </trkpt>
      <trkpt lat="46.26457" lon="6.8049">
        <ele>1783</ele>
        <time>2016-07-03T12:08:10.000Z</time>
      </trkpt>
      <trkpt lat="46.26455" lon="6.80489">
        <ele>1782</ele>
        <time>2016-07-03T12:08:11.000Z</time>
      </trkpt>
      <trkpt lat="46.26455" lon="6.80476">
        <ele>1783</ele>
        <time>2016-07-03T12:08:37.000Z</time>
      </trkpt>
      <trkpt lat="46.26456" lon="6.80475">
        <ele>1783</ele>
        <time>2016-07-03T12:08:38.000Z</time>
      </trkpt>
      <trkpt lat="46.2645" lon="6.80466">
        <ele>1787</ele>
        <time>2016-07-03T12:08:56.000Z</time>
      </trkpt>
      <trkpt lat="46.2645" lon="6.80466">
        <ele>1787</ele>
        <time>2016-07-03T12:08:57.000Z</time>
      </trkpt>
      <trkpt lat="46.26447" lon="6.80461">
        <ele>1787</ele>
        <time>2016-07-03T12:09:03.000Z</time>
      </trkpt>
      <trkpt lat="46.26447" lon="6.80461">
        <ele>1786</ele>
        <time>2016-07-03T12:09:04.000Z</time>
      </trkpt>
      <trkpt lat="46.26447" lon="6.8046">
        <ele>1787</ele>
        <time>2016-07-03T12:09:05.000Z</time>
      </trkpt>
      <trkpt lat="46.26441" lon="6.80452">
        <ele>1787</ele>
        <time>2016-07-03T12:09:41.000Z</time>
      </trkpt>
      <trkpt lat="46.26441" lon="6.80452">
        <ele>1787</ele>
        <time>2016-07-03T12:09:42.000Z</time>
      </trkpt>
      <trkpt lat="46.26441" lon="6.80449">
        <ele>1788</ele>
        <time>2016-07-03T12:10:02.000Z</time>
      </trkpt>
      <trkpt lat="46.2644" lon="6.80448">
        <ele>1788</ele>
        <time>2016-07-03T12:10:03.000Z</time>
      </trkpt>
      <trkpt lat="46.26434" lon="6.80447">
        <ele>1789</ele>
        <time>2016-07-03T12:10:47.000Z</time>
      </trkpt>
      <trkpt lat="46.26434" lon="6.80447">
        <ele>1789</ele>
        <time>2016-07-03T12:10:48.000Z</time>
      </trkpt>
      <trkpt lat="46.26437" lon="6.80447">
        <ele>1791</ele>
        <time>2016-07-03T12:10:57.000Z</time>
      </trkpt>
      <trkpt lat="46.26437" lon="6.80447">
        <ele>1792</ele>
        <time>2016-07-03T12:10:58.000Z</time>
      </trkpt>
      <trkpt lat="46.26438" lon="6.80448">
        <ele>1791</ele>
        <time>2016-07-03T12:12:12.000Z</time>
      </trkpt>
      <trkpt lat="46.26438" lon="6.80448">
        <ele>1791</ele>
        <time>2016-07-03T12:12:13.000Z</time>
      </trkpt>
      <trkpt lat="46.26439" lon="6.80448">
        <ele>1791</ele>
        <time>2016-07-03T12:12:42.000Z</time>
      </trkpt>
      <trkpt lat="46.26439" lon="6.80448">
        <ele>1791</ele>
        <time>2016-07-03T12:12:43.000Z</time>
      </trkpt>
      <trkpt lat="46.26435" lon="6.80446">
        <ele>1791</ele>
        <time>2016-07-03T12:14:05.000Z</time>
      </trkpt>
      <trkpt lat="46.26435" lon="6.80446">
        <ele>1791</ele>
        <time>2016-07-03T12:14:06.000Z</time>
      </trkpt>
      <trkpt lat="46.26436" lon="6.80446">
        <ele>1793</ele>
        <time>2016-07-03T12:14:07.000Z</time>
      </trkpt>
      <trkpt lat="46.26436" lon="6.80445">
        <ele>1792</ele>
        <time>2016-07-03T12:14:08.000Z</time>
      </trkpt>
      <trkpt lat="46.26431" lon="6.80435">
        <ele>1790</ele>
        <time>2016-07-03T12:14:21.000Z</time>
      </trkpt>
      <trkpt lat="46.26432" lon="6.80433">
        <ele>1792</ele>
        <time>2016-07-03T12:14:22.000Z</time>
      </trkpt>
      <trkpt lat="46.26434" lon="6.80422">
        <ele>1792</ele>
        <time>2016-07-03T12:14:35.000Z</time>
      </trkpt>
      <trkpt lat="46.26433" lon="6.80421">
        <ele>1792</ele>
        <time>2016-07-03T12:14:36.000Z</time>
      </trkpt>
      <trkpt lat="46.26434" lon="6.80408">
        <ele>1793</ele>
        <time>2016-07-03T12:14:48.000Z</time>
      </trkpt>
      <trkpt lat="46.26433" lon="6.80407">
        <ele>1793</ele>
        <time>2016-07-03T12:14:49.000Z</time>
      </trkpt>
      <trkpt lat="46.26433" lon="6.80395">
        <ele>1793</ele>
        <time>2016-07-03T12:15:01.000Z</time>
      </trkpt>
      <trkpt lat="46.26433" lon="6.80394">
        <ele>1793</ele>
        <time>2016-07-03T12:15:02.000Z</time>
      </trkpt>
      <trkpt lat="46.26431" lon="6.80382">
        <ele>1794</ele>
        <time>2016-07-03T12:15:12.000Z</time>
      </trkpt>
      <trkpt lat="46.26431" lon="6.80381">
        <ele>1794</ele>
        <time>2016-07-03T12:15:13.000Z</time>
      </trkpt>
      <trkpt lat="46.26429" lon="6.80368">
        <ele>1796</ele>
        <time>2016-07-03T12:15:28.000Z</time>
      </trkpt>
      <trkpt lat="46.26429" lon="6.80367">
        <ele>1796</ele>
        <time>2016-07-03T12:15:29.000Z</time>
      </trkpt>
      <trkpt lat="46.26425" lon="6.80356">
        <ele>1797</ele>
        <time>2016-07-03T12:15:43.000Z</time>
      </trkpt>
      <trkpt lat="46.26425" lon="6.80355">
        <ele>1797</ele>
        <time>2016-07-03T12:15:44.000Z</time>
      </trkpt>
      <trkpt lat="46.2642" lon="6.80345">
        <ele>1799</ele>
        <time>2016-07-03T12:15:55.000Z</time>
      </trkpt>
      <trkpt lat="46.2642" lon="6.80344">
        <ele>1798</ele>
        <time>2016-07-03T12:15:56.000Z</time>
      </trkpt>
      <trkpt lat="46.26412" lon="6.80338">
        <ele>1796</ele>
        <time>2016-07-03T12:16:03.000Z</time>
      </trkpt>
      <trkpt lat="46.2641" lon="6.80336">
        <ele>1795</ele>
        <time>2016-07-03T12:16:04.000Z</time>
      </trkpt>
      <trkpt lat="46.26404" lon="6.80332">
        <ele>1796</ele>
        <time>2016-07-03T12:16:12.000Z</time>
      </trkpt>
      <trkpt lat="46.26402" lon="6.80329">
        <ele>1795</ele>
        <time>2016-07-03T12:16:13.000Z</time>
      </trkpt>
      <trkpt lat="46.26395" lon="6.80321">
        <ele>1793</ele>
        <time>2016-07-03T12:16:23.000Z</time>
      </trkpt>
      <trkpt lat="46.26395" lon="6.8032">
        <ele>1793</ele>
        <time>2016-07-03T12:16:24.000Z</time>
      </trkpt>
      <trkpt lat="46.26386" lon="6.80315">
        <ele>1794</ele>
        <time>2016-07-03T12:16:50.000Z</time>
      </trkpt>
      <trkpt lat="46.26385" lon="6.80315">
        <ele>1795</ele>
        <time>2016-07-03T12:16:51.000Z</time>
      </trkpt>
      <trkpt lat="46.26377" lon="6.8032">
        <ele>1804</ele>
        <time>2016-07-03T12:17:02.000Z</time>
      </trkpt>
      <trkpt lat="46.26377" lon="6.8032">
        <ele>1804</ele>
        <time>2016-07-03T12:17:03.000Z</time>
      </trkpt>
      <trkpt lat="46.26369" lon="6.80324">
        <ele>1809</ele>
        <time>2016-07-03T12:17:17.000Z</time>
      </trkpt>
      <trkpt lat="46.26368" lon="6.80325">
        <ele>1811</ele>
        <time>2016-07-03T12:17:18.000Z</time>
      </trkpt>
      <trkpt lat="46.2636" lon="6.80325">
        <ele>1813</ele>
        <time>2016-07-03T12:17:32.000Z</time>
      </trkpt>
      <trkpt lat="46.26358" lon="6.80324">
        <ele>1812</ele>
        <time>2016-07-03T12:17:33.000Z</time>
      </trkpt>
      <trkpt lat="46.26349" lon="6.80324">
        <ele>1814</ele>
        <time>2016-07-03T12:17:47.000Z</time>
      </trkpt>
      <trkpt lat="46.26348" lon="6.80324">
        <ele>1814</ele>
        <time>2016-07-03T12:17:48.000Z</time>
      </trkpt>
      <trkpt lat="46.2634" lon="6.80327">
        <ele>1816</ele>
        <time>2016-07-03T12:18:00.000Z</time>
      </trkpt>
      <trkpt lat="46.26339" lon="6.80328">
        <ele>1815</ele>
        <time>2016-07-03T12:18:01.000Z</time>
      </trkpt>
      <trkpt lat="46.26331" lon="6.8033">
        <ele>1817</ele>
        <time>2016-07-03T12:18:13.000Z</time>
      </trkpt>
      <trkpt lat="46.2633" lon="6.8033">
        <ele>1817</ele>
        <time>2016-07-03T12:18:14.000Z</time>
      </trkpt>
      <trkpt lat="46.26323" lon="6.80335">
        <ele>1822</ele>
        <time>2016-07-03T12:18:25.000Z</time>
      </trkpt>
      <trkpt lat="46.26322" lon="6.80336">
        <ele>1823</ele>
        <time>2016-07-03T12:18:26.000Z</time>
      </trkpt>
      <trkpt lat="46.26314" lon="6.80339">
        <ele>1823</ele>
        <time>2016-07-03T12:18:38.000Z</time>
      </trkpt>
      <trkpt lat="46.26314" lon="6.8034">
        <ele>1823</ele>
        <time>2016-07-03T12:18:39.000Z</time>
      </trkpt>
      <trkpt lat="46.26305" lon="6.80337">
        <ele>1827</ele>
        <time>2016-07-03T12:18:52.000Z</time>
      </trkpt>
      <trkpt lat="46.26303" lon="6.80335">
        <ele>1827</ele>
        <time>2016-07-03T12:18:53.000Z</time>
      </trkpt>
      <trkpt lat="46.26295" lon="6.80339">
        <ele>1827</ele>
        <time>2016-07-03T12:19:06.000Z</time>
      </trkpt>
      <trkpt lat="46.26294" lon="6.80338">
        <ele>1827</ele>
        <time>2016-07-03T12:19:07.000Z</time>
      </trkpt>
      <trkpt lat="46.26292" lon="6.80327">
        <ele>1830</ele>
        <time>2016-07-03T12:19:23.000Z</time>
      </trkpt>
      <trkpt lat="46.26292" lon="6.80325">
        <ele>1830</ele>
        <time>2016-07-03T12:19:24.000Z</time>
      </trkpt>
      <trkpt lat="46.2629" lon="6.80313">
        <ele>1828</ele>
        <time>2016-07-03T12:19:37.000Z</time>
      </trkpt>
      <trkpt lat="46.2629" lon="6.80311">
        <ele>1829</ele>
        <time>2016-07-03T12:19:38.000Z</time>
      </trkpt>
      <trkpt lat="46.26286" lon="6.80301">
        <ele>1829</ele>
        <time>2016-07-03T12:19:50.000Z</time>
      </trkpt>
      <trkpt lat="46.26286" lon="6.80299">
        <ele>1829</ele>
        <time>2016-07-03T12:19:51.000Z</time>
      </trkpt>
      <trkpt lat="46.26283" lon="6.80288">
        <ele>1834</ele>
        <time>2016-07-03T12:20:04.000Z</time>
      </trkpt>
      <trkpt lat="46.26282" lon="6.80287">
        <ele>1834</ele>
        <time>2016-07-03T12:20:05.000Z</time>
      </trkpt>
      <trkpt lat="46.26281" lon="6.80275">
        <ele>1839</ele>
        <time>2016-07-03T12:20:23.000Z</time>
      </trkpt>
      <trkpt lat="46.26281" lon="6.80274">
        <ele>1839</ele>
        <time>2016-07-03T12:20:24.000Z</time>
      </trkpt>
      <trkpt lat="46.26282" lon="6.80261">
        <ele>1839</ele>
        <time>2016-07-03T12:20:38.000Z</time>
      </trkpt>
      <trkpt lat="46.26282" lon="6.8026">
        <ele>1839</ele>
        <time>2016-07-03T12:20:39.000Z</time>
      </trkpt>
      <trkpt lat="46.26283" lon="6.80247">
        <ele>1840</ele>
        <time>2016-07-03T12:20:53.000Z</time>
      </trkpt>
      <trkpt lat="46.26284" lon="6.80246">
        <ele>1840</ele>
        <time>2016-07-03T12:20:54.000Z</time>
      </trkpt>
      <trkpt lat="46.26288" lon="6.80235">
        <ele>1840</ele>
        <time>2016-07-03T12:21:07.000Z</time>
      </trkpt>
      <trkpt lat="46.26288" lon="6.80234">
        <ele>1841</ele>
        <time>2016-07-03T12:21:08.000Z</time>
      </trkpt>
      <trkpt lat="46.2629" lon="6.80223">
        <ele>1840</ele>
        <time>2016-07-03T12:21:16.000Z</time>
      </trkpt>
      <trkpt lat="46.2629" lon="6.80221">
        <ele>1839</ele>
        <time>2016-07-03T12:21:17.000Z</time>
      </trkpt>
      <trkpt lat="46.26288" lon="6.80208">
        <ele>1842</ele>
        <time>2016-07-03T12:21:26.000Z</time>
      </trkpt>
      <trkpt lat="46.26287" lon="6.80207">
        <ele>1841</ele>
        <time>2016-07-03T12:21:27.000Z</time>
      </trkpt>
      <trkpt lat="46.26284" lon="6.80195">
        <ele>1842</ele>
        <time>2016-07-03T12:21:37.000Z</time>
      </trkpt>
      <trkpt lat="46.26284" lon="6.80194">
        <ele>1843</ele>
        <time>2016-07-03T12:21:38.000Z</time>
      </trkpt>
      <trkpt lat="46.26278" lon="6.80185">
        <ele>1841</ele>
        <time>2016-07-03T12:21:52.000Z</time>
      </trkpt>
      <trkpt lat="46.26278" lon="6.80184">
        <ele>1840</ele>
        <time>2016-07-03T12:21:53.000Z</time>
      </trkpt>
      <trkpt lat="46.26269" lon="6.80181">
        <ele>1849</ele>
        <time>2016-07-03T12:22:16.000Z</time>
      </trkpt>
      <trkpt lat="46.26269" lon="6.80181">
        <ele>1849</ele>
        <time>2016-07-03T12:22:17.000Z</time>
      </trkpt>
      <trkpt lat="46.2626" lon="6.80177">
        <ele>1848</ele>
        <time>2016-07-03T12:22:29.000Z</time>
      </trkpt>
      <trkpt lat="46.2626" lon="6.80177">
        <ele>1849</ele>
        <time>2016-07-03T12:22:30.000Z</time>
      </trkpt>
      <trkpt lat="46.26264" lon="6.80166">
        <ele>1850</ele>
        <time>2016-07-03T12:22:46.000Z</time>
      </trkpt>
      <trkpt lat="46.26264" lon="6.80165">
        <ele>1851</ele>
        <time>2016-07-03T12:22:47.000Z</time>
      </trkpt>
      <trkpt lat="46.26263" lon="6.80152">
        <ele>1850</ele>
        <time>2016-07-03T12:23:03.000Z</time>
      </trkpt>
      <trkpt lat="46.26263" lon="6.80151">
        <ele>1850</ele>
        <time>2016-07-03T12:23:04.000Z</time>
      </trkpt>
      <trkpt lat="46.26264" lon="6.80139">
        <ele>1852</ele>
        <time>2016-07-03T12:23:19.000Z</time>
      </trkpt>
      <trkpt lat="46.26264" lon="6.80138">
        <ele>1852</ele>
        <time>2016-07-03T12:23:20.000Z</time>
      </trkpt>
      <trkpt lat="46.26266" lon="6.80126">
        <ele>1861</ele>
        <time>2016-07-03T12:23:47.000Z</time>
      </trkpt>
      <trkpt lat="46.26265" lon="6.80124">
        <ele>1861</ele>
        <time>2016-07-03T12:23:48.000Z</time>
      </trkpt>
      <trkpt lat="46.26265" lon="6.80112">
        <ele>1863</ele>
        <time>2016-07-03T12:24:00.000Z</time>
      </trkpt>
      <trkpt lat="46.26264" lon="6.80111">
        <ele>1862</ele>
        <time>2016-07-03T12:24:01.000Z</time>
      </trkpt>
      <trkpt lat="46.26264" lon="6.801">
        <ele>1866</ele>
        <time>2016-07-03T12:26:04.000Z</time>
      </trkpt>
      <trkpt lat="46.26264" lon="6.801">
        <ele>1866</ele>
        <time>2016-07-03T12:26:05.000Z</time>
      </trkpt>
      <trkpt lat="46.26267" lon="6.80102">
        <ele>1868</ele>
        <time>2016-07-03T12:27:32.000Z</time>
      </trkpt>
      <trkpt lat="46.26273" lon="6.80101">
        <ele>1868</ele>
        <time>2016-07-03T12:27:33.000Z</time>
      </trkpt>
      <trkpt lat="46.2627" lon="6.80101">
        <ele>1872</ele>
        <time>2016-07-03T12:28:57.000Z</time>
      </trkpt>
      <trkpt lat="46.26269" lon="6.80101">
        <ele>1872</ele>
        <time>2016-07-03T12:28:58.000Z</time>
      </trkpt>
      <trkpt lat="46.2627" lon="6.80101">
        <ele>1875</ele>
        <time>2016-07-03T12:28:59.000Z</time>
      </trkpt>
      <trkpt lat="46.26266" lon="6.80089">
        <ele>1875</ele>
        <time>2016-07-03T12:29:18.000Z</time>
      </trkpt>
      <trkpt lat="46.26266" lon="6.80088">
        <ele>1874</ele>
        <time>2016-07-03T12:29:19.000Z</time>
      </trkpt>
      <trkpt lat="46.26264" lon="6.80077">
        <ele>1873</ele>
        <time>2016-07-03T12:29:29.000Z</time>
      </trkpt>
      <trkpt lat="46.26263" lon="6.80075">
        <ele>1872</ele>
        <time>2016-07-03T12:29:30.000Z</time>
      </trkpt>
      <trkpt lat="46.26259" lon="6.80064">
        <ele>1874</ele>
        <time>2016-07-03T12:29:41.000Z</time>
      </trkpt>
      <trkpt lat="46.26258" lon="6.80062">
        <ele>1874</ele>
        <time>2016-07-03T12:29:42.000Z</time>
      </trkpt>
      <trkpt lat="46.26257" lon="6.80058">
        <ele>1874</ele>
        <time>2016-07-03T12:29:49.000Z</time>
      </trkpt>
      <trkpt lat="46.26256" lon="6.80058">
        <ele>1874</ele>
        <time>2016-07-03T12:29:50.000Z</time>
      </trkpt>
      <trkpt lat="46.26255" lon="6.80057">
        <ele>1874</ele>
        <time>2016-07-03T12:29:51.000Z</time>
      </trkpt>
      <trkpt lat="46.26249" lon="6.8005">
        <ele>1876</ele>
        <time>2016-07-03T12:30:06.000Z</time>
      </trkpt>
      <trkpt lat="46.2625" lon="6.8005">
        <ele>1876</ele>
        <time>2016-07-03T12:30:07.000Z</time>
      </trkpt>
      <trkpt lat="46.2625" lon="6.80049">
        <ele>1876</ele>
        <time>2016-07-03T12:30:08.000Z</time>
      </trkpt>
      <trkpt lat="46.26248" lon="6.80036">
        <ele>1886</ele>
        <time>2016-07-03T12:30:35.000Z</time>
      </trkpt>
      <trkpt lat="46.26248" lon="6.80035">
        <ele>1885</ele>
        <time>2016-07-03T12:30:36.000Z</time>
      </trkpt>
      <trkpt lat="46.26245" lon="6.80026">
        <ele>1884</ele>
        <time>2016-07-03T12:30:48.000Z</time>
      </trkpt>
      <trkpt lat="46.26246" lon="6.80026">
        <ele>1883</ele>
        <time>2016-07-03T12:30:49.000Z</time>
      </trkpt>
      <trkpt lat="46.26244" lon="6.80026">
        <ele>1883</ele>
        <time>2016-07-03T12:30:50.000Z</time>
      </trkpt>
      <trkpt lat="46.26241" lon="6.80016">
        <ele>1888</ele>
        <time>2016-07-03T12:31:04.000Z</time>
      </trkpt>
      <trkpt lat="46.26242" lon="6.80016">
        <ele>1888</ele>
        <time>2016-07-03T12:31:05.000Z</time>
      </trkpt>
      <trkpt lat="46.26241" lon="6.80014">
        <ele>1888</ele>
        <time>2016-07-03T12:31:06.000Z</time>
      </trkpt>
      <trkpt lat="46.26239" lon="6.80003">
        <ele>1890</ele>
        <time>2016-07-03T12:31:22.000Z</time>
      </trkpt>
      <trkpt lat="46.26238" lon="6.80001">
        <ele>1890</ele>
        <time>2016-07-03T12:31:23.000Z</time>
      </trkpt>
      <trkpt lat="46.26233" lon="6.79991">
        <ele>1897</ele>
        <time>2016-07-03T12:31:53.000Z</time>
      </trkpt>
      <trkpt lat="46.26233" lon="6.7999">
        <ele>1897</ele>
        <time>2016-07-03T12:31:54.000Z</time>
      </trkpt>
      <trkpt lat="46.26229" lon="6.79979">
        <ele>1898</ele>
        <time>2016-07-03T12:32:19.000Z</time>
      </trkpt>
      <trkpt lat="46.26229" lon="6.79977">
        <ele>1898</ele>
        <time>2016-07-03T12:32:20.000Z</time>
      </trkpt>
      <trkpt lat="46.26224" lon="6.79967">
        <ele>1899</ele>
        <time>2016-07-03T12:32:32.000Z</time>
      </trkpt>
      <trkpt lat="46.26224" lon="6.79966">
        <ele>1898</ele>
        <time>2016-07-03T12:32:33.000Z</time>
      </trkpt>
      <trkpt lat="46.26224" lon="6.79955">
        <ele>1901</ele>
        <time>2016-07-03T12:32:47.000Z</time>
      </trkpt>
      <trkpt lat="46.26224" lon="6.79953">
        <ele>1902</ele>
        <time>2016-07-03T12:32:48.000Z</time>
      </trkpt>
      <trkpt lat="46.26226" lon="6.7994">
        <ele>1911</ele>
        <time>2016-07-03T12:33:10.000Z</time>
      </trkpt>
      <trkpt lat="46.26226" lon="6.7994">
        <ele>1910</ele>
        <time>2016-07-03T12:33:11.000Z</time>
      </trkpt>
      <trkpt lat="46.2623" lon="6.79936">
        <ele>1910</ele>
        <time>2016-07-03T12:33:34.000Z</time>
      </trkpt>
      <trkpt lat="46.2623" lon="6.79936">
        <ele>1910</ele>
        <time>2016-07-03T12:33:35.000Z</time>
      </trkpt>
      <trkpt lat="46.2623" lon="6.79935">
        <ele>1910</ele>
        <time>2016-07-03T12:33:36.000Z</time>
      </trkpt>
      <trkpt lat="46.26227" lon="6.79932">
        <ele>1909</ele>
        <time>2016-07-03T12:33:41.000Z</time>
      </trkpt>
      <trkpt lat="46.26227" lon="6.79932">
        <ele>1909</ele>
        <time>2016-07-03T12:33:42.000Z</time>
      </trkpt>
      <trkpt lat="46.26226" lon="6.7993">
        <ele>1909</ele>
        <time>2016-07-03T12:33:43.000Z</time>
      </trkpt>
      <trkpt lat="46.26227" lon="6.79918">
        <ele>1913</ele>
        <time>2016-07-03T12:34:03.000Z</time>
      </trkpt>
      <trkpt lat="46.26227" lon="6.79917">
        <ele>1914</ele>
        <time>2016-07-03T12:34:04.000Z</time>
      </trkpt>
      <trkpt lat="46.26226" lon="6.79912">
        <ele>1915</ele>
        <time>2016-07-03T12:34:11.000Z</time>
      </trkpt>
      <trkpt lat="46.26226" lon="6.79911">
        <ele>1915</ele>
        <time>2016-07-03T12:34:12.000Z</time>
      </trkpt>
      <trkpt lat="46.26226" lon="6.7991">
        <ele>1916</ele>
        <time>2016-07-03T12:34:13.000Z</time>
      </trkpt>
      <trkpt lat="46.2622" lon="6.799">
        <ele>1917</ele>
        <time>2016-07-03T12:34:30.000Z</time>
      </trkpt>
      <trkpt lat="46.2622" lon="6.799">
        <ele>1917</ele>
        <time>2016-07-03T12:34:31.000Z</time>
      </trkpt>
      <trkpt lat="46.26214" lon="6.79891">
        <ele>1922</ele>
        <time>2016-07-03T12:35:07.000Z</time>
      </trkpt>
      <trkpt lat="46.26213" lon="6.7989">
        <ele>1921</ele>
        <time>2016-07-03T12:35:08.000Z</time>
      </trkpt>
      <trkpt lat="46.26206" lon="6.79881">
        <ele>1930</ele>
        <time>2016-07-03T12:35:46.000Z</time>
      </trkpt>
      <trkpt lat="46.26206" lon="6.79881">
        <ele>1930</ele>
        <time>2016-07-03T12:35:47.000Z</time>
      </trkpt>
      <trkpt lat="46.26206" lon="6.79873">
        <ele>1932</ele>
        <time>2016-07-03T12:35:55.000Z</time>
      </trkpt>
      <trkpt lat="46.26206" lon="6.79873">
        <ele>1932</ele>
        <time>2016-07-03T12:35:56.000Z</time>
      </trkpt>
      <trkpt lat="46.26206" lon="6.79873">
        <ele>1934</ele>
        <time>2016-07-03T12:35:57.000Z</time>
      </trkpt>
      <trkpt lat="46.26202" lon="6.79867">
        <ele>1934</ele>
        <time>2016-07-03T12:36:07.000Z</time>
      </trkpt>
      <trkpt lat="46.26203" lon="6.79867">
        <ele>1936</ele>
        <time>2016-07-03T12:36:08.000Z</time>
      </trkpt>
      <trkpt lat="46.26203" lon="6.79866">
        <ele>1936</ele>
        <time>2016-07-03T12:36:11.000Z</time>
      </trkpt>
      <trkpt lat="46.26203" lon="6.79865">
        <ele>1936</ele>
        <time>2016-07-03T12:36:12.000Z</time>
      </trkpt>
      <trkpt lat="46.26201" lon="6.79857">
        <ele>1935</ele>
        <time>2016-07-03T12:36:29.000Z</time>
      </trkpt>
      <trkpt lat="46.26201" lon="6.79857">
        <ele>1936</ele>
        <time>2016-07-03T12:36:30.000Z</time>
      </trkpt>
      <trkpt lat="46.26201" lon="6.79856">
        <ele>1936</ele>
        <time>2016-07-03T12:36:31.000Z</time>
      </trkpt>
      <trkpt lat="46.26194" lon="6.79849">
        <ele>1938</ele>
        <time>2016-07-03T12:36:48.000Z</time>
      </trkpt>
      <trkpt lat="46.26192" lon="6.7985">
        <ele>1937</ele>
        <time>2016-07-03T12:36:49.000Z</time>
      </trkpt>
      <trkpt lat="46.26183" lon="6.79849">
        <ele>1935</ele>
        <time>2016-07-03T12:37:05.000Z</time>
      </trkpt>
      <trkpt lat="46.26183" lon="6.79848">
        <ele>1936</ele>
        <time>2016-07-03T12:37:06.000Z</time>
      </trkpt>
      <trkpt lat="46.26175" lon="6.79851">
        <ele>1935</ele>
        <time>2016-07-03T12:37:25.000Z</time>
      </trkpt>
      <trkpt lat="46.26174" lon="6.7985">
        <ele>1934</ele>
        <time>2016-07-03T12:37:26.000Z</time>
      </trkpt>
      <trkpt lat="46.26167" lon="6.79856">
        <ele>1939</ele>
        <time>2016-07-03T12:37:40.000Z</time>
      </trkpt>
      <trkpt lat="46.26166" lon="6.79857">
        <ele>1939</ele>
        <time>2016-07-03T12:37:41.000Z</time>
      </trkpt>
      <trkpt lat="46.26161" lon="6.79867">
        <ele>1943</ele>
        <time>2016-07-03T12:37:54.000Z</time>
      </trkpt>
      <trkpt lat="46.26161" lon="6.79868">
        <ele>1942</ele>
        <time>2016-07-03T12:37:55.000Z</time>
      </trkpt>
      <trkpt lat="46.26157" lon="6.79857">
        <ele>1952</ele>
        <time>2016-07-03T12:38:36.000Z</time>
      </trkpt>
      <trkpt lat="46.26158" lon="6.79855">
        <ele>1952</ele>
        <time>2016-07-03T12:38:37.000Z</time>
      </trkpt>
      <trkpt lat="46.26156" lon="6.79847">
        <ele>1957</ele>
        <time>2016-07-03T12:38:53.000Z</time>
      </trkpt>
      <trkpt lat="46.26157" lon="6.79847">
        <ele>1956</ele>
        <time>2016-07-03T12:38:54.000Z</time>
      </trkpt>
      <trkpt lat="46.26156" lon="6.79847">
        <ele>1956</ele>
        <time>2016-07-03T12:38:55.000Z</time>
      </trkpt>
      <trkpt lat="46.26151" lon="6.79836">
        <ele>1959</ele>
        <time>2016-07-03T12:39:39.000Z</time>
      </trkpt>
      <trkpt lat="46.2615" lon="6.79833">
        <ele>1959</ele>
        <time>2016-07-03T12:39:40.000Z</time>
      </trkpt>
      <trkpt lat="46.2615" lon="6.7982">
        <ele>1965</ele>
        <time>2016-07-03T12:40:03.000Z</time>
      </trkpt>
      <trkpt lat="46.2615" lon="6.7982">
        <ele>1965</ele>
        <time>2016-07-03T12:40:04.000Z</time>
      </trkpt>
      <trkpt lat="46.26148" lon="6.79808">
        <ele>1969</ele>
        <time>2016-07-03T12:40:28.000Z</time>
      </trkpt>
      <trkpt lat="46.26148" lon="6.79807">
        <ele>1969</ele>
        <time>2016-07-03T12:40:29.000Z</time>
      </trkpt>
      <trkpt lat="46.26145" lon="6.79795">
        <ele>1975</ele>
        <time>2016-07-03T12:40:52.000Z</time>
      </trkpt>
      <trkpt lat="46.26144" lon="6.79793">
        <ele>1976</ele>
        <time>2016-07-03T12:40:53.000Z</time>
      </trkpt>
      <trkpt lat="46.26138" lon="6.79783">
        <ele>1978</ele>
        <time>2016-07-03T12:41:11.000Z</time>
      </trkpt>
      <trkpt lat="46.26138" lon="6.79783">
        <ele>1977</ele>
        <time>2016-07-03T12:41:12.000Z</time>
      </trkpt>
      <trkpt lat="46.26138" lon="6.79781">
        <ele>1978</ele>
        <time>2016-07-03T12:43:28.000Z</time>
      </trkpt>
      <trkpt lat="46.26138" lon="6.79781">
        <ele>1978</ele>
        <time>2016-07-03T12:43:29.000Z</time>
      </trkpt>
      <trkpt lat="46.26137" lon="6.79781">
        <ele>1978</ele>
        <time>2016-07-03T12:43:30.000Z</time>
      </trkpt>
      <trkpt lat="46.26136" lon="6.79781">
        <ele>1975</ele>
        <time>2016-07-03T12:43:31.000Z</time>
      </trkpt>
      <trkpt lat="46.26135" lon="6.79782">
        <ele>1975</ele>
        <time>2016-07-03T12:43:50.000Z</time>
      </trkpt>
      <trkpt lat="46.26135" lon="6.79782">
        <ele>1975</ele>
        <time>2016-07-03T12:43:51.000Z</time>
      </trkpt>
      <trkpt lat="46.26135" lon="6.79784">
        <ele>1976</ele>
        <time>2016-07-03T12:44:33.000Z</time>
      </trkpt>
      <trkpt lat="46.26135" lon="6.79783">
        <ele>1976</ele>
        <time>2016-07-03T12:44:34.000Z</time>
      </trkpt>
      <trkpt lat="46.26129" lon="6.79778">
        <ele>1977</ele>
        <time>2016-07-03T12:44:40.000Z</time>
      </trkpt>
      <trkpt lat="46.26127" lon="6.79776">
        <ele>1976</ele>
        <time>2016-07-03T12:44:41.000Z</time>
      </trkpt>
      <trkpt lat="46.26119" lon="6.79773">
        <ele>1975</ele>
        <time>2016-07-03T12:44:49.000Z</time>
      </trkpt>
      <trkpt lat="46.26118" lon="6.79772">
        <ele>1974</ele>
        <time>2016-07-03T12:44:50.000Z</time>
      </trkpt>
      <trkpt lat="46.26109" lon="6.7977">
        <ele>1977</ele>
        <time>2016-07-03T12:45:01.000Z</time>
      </trkpt>
      <trkpt lat="46.26108" lon="6.7977">
        <ele>1977</ele>
        <time>2016-07-03T12:45:02.000Z</time>
      </trkpt>
      <trkpt lat="46.261" lon="6.79768">
        <ele>1975</ele>
        <time>2016-07-03T12:45:10.000Z</time>
      </trkpt>
      <trkpt lat="46.26099" lon="6.79768">
        <ele>1974</ele>
        <time>2016-07-03T12:45:11.000Z</time>
      </trkpt>
      <trkpt lat="46.2609" lon="6.79764">
        <ele>1974</ele>
        <time>2016-07-03T12:45:17.000Z</time>
      </trkpt>
      <trkpt lat="46.26089" lon="6.79763">
        <ele>1974</ele>
        <time>2016-07-03T12:45:18.000Z</time>
      </trkpt>
      <trkpt lat="46.26082" lon="6.79759">
        <ele>1975</ele>
        <time>2016-07-03T12:45:24.000Z</time>
      </trkpt>
      <trkpt lat="46.2608" lon="6.79758">
        <ele>1975</ele>
        <time>2016-07-03T12:45:25.000Z</time>
      </trkpt>
      <trkpt lat="46.26074" lon="6.79753">
        <ele>1974</ele>
        <time>2016-07-03T12:45:33.000Z</time>
      </trkpt>
      <trkpt lat="46.26072" lon="6.79751">
        <ele>1973</ele>
        <time>2016-07-03T12:45:34.000Z</time>
      </trkpt>
      <trkpt lat="46.26064" lon="6.79746">
        <ele>1970</ele>
        <time>2016-07-03T12:45:43.000Z</time>
      </trkpt>
      <trkpt lat="46.26064" lon="6.79746">
        <ele>1971</ele>
        <time>2016-07-03T12:45:44.000Z</time>
      </trkpt>
      <trkpt lat="46.26056" lon="6.79741">
        <ele>1969</ele>
        <time>2016-07-03T12:45:49.000Z</time>
      </trkpt>
      <trkpt lat="46.26055" lon="6.7974">
        <ele>1967</ele>
        <time>2016-07-03T12:45:50.000Z</time>
      </trkpt>
      <trkpt lat="46.26046" lon="6.79738">
        <ele>1965</ele>
        <time>2016-07-03T12:45:58.000Z</time>
      </trkpt>
      <trkpt lat="46.26045" lon="6.79738">
        <ele>1966</ele>
        <time>2016-07-03T12:45:59.000Z</time>
      </trkpt>
      <trkpt lat="46.26037" lon="6.79736">
        <ele>1970</ele>
        <time>2016-07-03T12:46:28.000Z</time>
      </trkpt>
      <trkpt lat="46.26036" lon="6.79735">
        <ele>1971</ele>
        <time>2016-07-03T12:46:29.000Z</time>
      </trkpt>
      <trkpt lat="46.2603" lon="6.79726">
        <ele>1970</ele>
        <time>2016-07-03T12:46:36.000Z</time>
      </trkpt>
      <trkpt lat="46.2603" lon="6.79725">
        <ele>1970</ele>
        <time>2016-07-03T12:46:37.000Z</time>
      </trkpt>
      <trkpt lat="46.26028" lon="6.79713">
        <ele>1969</ele>
        <time>2016-07-03T12:46:45.000Z</time>
      </trkpt>
      <trkpt lat="46.26027" lon="6.79712">
        <ele>1968</ele>
        <time>2016-07-03T12:46:46.000Z</time>
      </trkpt>
      <trkpt lat="46.26023" lon="6.79701">
        <ele>1969</ele>
        <time>2016-07-03T12:51:10.000Z</time>
      </trkpt>
      <trkpt lat="46.26022" lon="6.79699">
        <ele>1968</ele>
        <time>2016-07-03T12:51:11.000Z</time>
      </trkpt>
      <trkpt lat="46.26021" lon="6.79688">
        <ele>1967</ele>
        <time>2016-07-03T12:51:19.000Z</time>
      </trkpt>
      <trkpt lat="46.2602" lon="6.79687">
        <ele>1967</ele>
        <time>2016-07-03T12:51:20.000Z</time>
      </trkpt>
      <trkpt lat="46.26021" lon="6.79675">
        <ele>1964</ele>
        <time>2016-07-03T12:51:27.000Z</time>
      </trkpt>
      <trkpt lat="46.26022" lon="6.79673">
        <ele>1963</ele>
        <time>2016-07-03T12:51:28.000Z</time>
      </trkpt>
      <trkpt lat="46.26022" lon="6.79661">
        <ele>1961</ele>
        <time>2016-07-03T12:51:36.000Z</time>
      </trkpt>
      <trkpt lat="46.26022" lon="6.7966">
        <ele>1961</ele>
        <time>2016-07-03T12:51:37.000Z</time>
      </trkpt>
      <trkpt lat="46.2602" lon="6.79647">
        <ele>1959</ele>
        <time>2016-07-03T12:51:46.000Z</time>
      </trkpt>
      <trkpt lat="46.2602" lon="6.79646">
        <ele>1958</ele>
        <time>2016-07-03T12:51:47.000Z</time>
      </trkpt>
      <trkpt lat="46.2602" lon="6.79644">
        <ele>1958</ele>
        <time>2016-07-03T12:51:52.000Z</time>
      </trkpt>
      <trkpt lat="46.26021" lon="6.79644">
        <ele>1958</ele>
        <time>2016-07-03T12:51:53.000Z</time>
      </trkpt>
      <trkpt lat="46.26021" lon="6.79643">
        <ele>1958</ele>
        <time>2016-07-03T12:51:54.000Z</time>
      </trkpt>
      <trkpt lat="46.2602" lon="6.79643">
        <ele>1958</ele>
        <time>2016-07-03T12:51:55.000Z</time>
      </trkpt>
      <trkpt lat="46.26021" lon="6.79631">
        <ele>1954</ele>
        <time>2016-07-03T12:52:04.000Z</time>
      </trkpt>
      <trkpt lat="46.26021" lon="6.79629">
        <ele>1955</ele>
        <time>2016-07-03T12:52:05.000Z</time>
      </trkpt>
      <trkpt lat="46.26022" lon="6.79617">
        <ele>1956</ele>
        <time>2016-07-03T12:52:13.000Z</time>
      </trkpt>
      <trkpt lat="46.26023" lon="6.79614">
        <ele>1955</ele>
        <time>2016-07-03T12:52:14.000Z</time>
      </trkpt>
      <trkpt lat="46.26024" lon="6.79602">
        <ele>1954</ele>
        <time>2016-07-03T12:52:23.000Z</time>
      </trkpt>
      <trkpt lat="46.26024" lon="6.796">
        <ele>1953</ele>
        <time>2016-07-03T12:52:24.000Z</time>
      </trkpt>
      <trkpt lat="46.26026" lon="6.79588">
        <ele>1956</ele>
        <time>2016-07-03T12:52:44.000Z</time>
      </trkpt>
      <trkpt lat="46.26026" lon="6.79586">
        <ele>1957</ele>
        <time>2016-07-03T12:52:45.000Z</time>
      </trkpt>
      <trkpt lat="46.26028" lon="6.79575">
        <ele>1955</ele>
        <time>2016-07-03T12:52:52.000Z</time>
      </trkpt>
      <trkpt lat="46.26029" lon="6.79573">
        <ele>1954</ele>
        <time>2016-07-03T12:52:53.000Z</time>
      </trkpt>
      <trkpt lat="46.26033" lon="6.79564">
        <ele>1953</ele>
        <time>2016-07-03T12:53:00.000Z</time>
      </trkpt>
      <trkpt lat="46.26034" lon="6.79562">
        <ele>1953</ele>
        <time>2016-07-03T12:53:01.000Z</time>
      </trkpt>
      <trkpt lat="46.26037" lon="6.7955">
        <ele>1951</ele>
        <time>2016-07-03T12:53:08.000Z</time>
      </trkpt>
      <trkpt lat="46.26038" lon="6.79548">
        <ele>1951</ele>
        <time>2016-07-03T12:53:09.000Z</time>
      </trkpt>
      <trkpt lat="46.26042" lon="6.79537">
        <ele>1949</ele>
        <time>2016-07-03T12:53:17.000Z</time>
      </trkpt>
      <trkpt lat="46.26042" lon="6.79536">
        <ele>1950</ele>
        <time>2016-07-03T12:53:18.000Z</time>
      </trkpt>
      <trkpt lat="46.26046" lon="6.79525">
        <ele>1950</ele>
        <time>2016-07-03T12:53:25.000Z</time>
      </trkpt>
      <trkpt lat="46.26047" lon="6.79523">
        <ele>1950</ele>
        <time>2016-07-03T12:53:26.000Z</time>
      </trkpt>
      <trkpt lat="46.26052" lon="6.79512">
        <ele>1950</ele>
        <time>2016-07-03T12:53:33.000Z</time>
      </trkpt>
      <trkpt lat="46.26053" lon="6.79511">
        <ele>1950</ele>
        <time>2016-07-03T12:53:34.000Z</time>
      </trkpt>
      <trkpt lat="46.26059" lon="6.79503">
        <ele>1949</ele>
        <time>2016-07-03T12:53:40.000Z</time>
      </trkpt>
      <trkpt lat="46.26059" lon="6.79502">
        <ele>1950</ele>
        <time>2016-07-03T12:53:41.000Z</time>
      </trkpt>
      <trkpt lat="46.26064" lon="6.79491">
        <ele>1948</ele>
        <time>2016-07-03T12:53:49.000Z</time>
      </trkpt>
      <trkpt lat="46.26064" lon="6.79489">
        <ele>1948</ele>
        <time>2016-07-03T12:53:50.000Z</time>
      </trkpt>
      <trkpt lat="46.2607" lon="6.79481">
        <ele>1946</ele>
        <time>2016-07-03T12:53:58.000Z</time>
      </trkpt>
      <trkpt lat="46.2607" lon="6.7948">
        <ele>1945</ele>
        <time>2016-07-03T12:53:59.000Z</time>
      </trkpt>
      <trkpt lat="46.26073" lon="6.79468">
        <ele>1942</ele>
        <time>2016-07-03T12:54:06.000Z</time>
      </trkpt>
      <trkpt lat="46.26073" lon="6.79467">
        <ele>1943</ele>
        <time>2016-07-03T12:54:07.000Z</time>
      </trkpt>
      <trkpt lat="46.26078" lon="6.79456">
        <ele>1941</ele>
        <time>2016-07-03T12:54:17.000Z</time>
      </trkpt>
      <trkpt lat="46.26079" lon="6.79454">
        <ele>1941</ele>
        <time>2016-07-03T12:54:18.000Z</time>
      </trkpt>
      <trkpt lat="46.26081" lon="6.79441">
        <ele>1940</ele>
        <time>2016-07-03T12:54:26.000Z</time>
      </trkpt>
      <trkpt lat="46.26082" lon="6.79441">
        <ele>1940</ele>
        <time>2016-07-03T12:54:27.000Z</time>
      </trkpt>
      <trkpt lat="46.26084" lon="6.79429">
        <ele>1945</ele>
        <time>2016-07-03T12:54:36.000Z</time>
      </trkpt>
      <trkpt lat="46.26085" lon="6.79427">
        <ele>1945</ele>
        <time>2016-07-03T12:54:37.000Z</time>
      </trkpt>
      <trkpt lat="46.26087" lon="6.79415">
        <ele>1944</ele>
        <time>2016-07-03T12:54:45.000Z</time>
      </trkpt>
      <trkpt lat="46.26088" lon="6.79414">
        <ele>1944</ele>
        <time>2016-07-03T12:54:46.000Z</time>
      </trkpt>
      <trkpt lat="46.2609" lon="6.79403">
        <ele>1946</ele>
        <time>2016-07-03T12:54:53.000Z</time>
      </trkpt>
      <trkpt lat="46.2609" lon="6.79401">
        <ele>1945</ele>
        <time>2016-07-03T12:54:54.000Z</time>
      </trkpt>
      <trkpt lat="46.26092" lon="6.79388">
        <ele>1945</ele>
        <time>2016-07-03T12:55:03.000Z</time>
      </trkpt>
      <trkpt lat="46.26092" lon="6.79386">
        <ele>1944</ele>
        <time>2016-07-03T12:55:04.000Z</time>
      </trkpt>
      <trkpt lat="46.26093" lon="6.79374">
        <ele>1941</ele>
        <time>2016-07-03T12:55:11.000Z</time>
      </trkpt>
      <trkpt lat="46.26094" lon="6.79372">
        <ele>1941</ele>
        <time>2016-07-03T12:55:12.000Z</time>
      </trkpt>
      <trkpt lat="46.26096" lon="6.7936">
        <ele>1943</ele>
        <time>2016-07-03T12:55:22.000Z</time>
      </trkpt>
      <trkpt lat="46.26096" lon="6.79359">
        <ele>1943</ele>
        <time>2016-07-03T12:55:23.000Z</time>
      </trkpt>
      <trkpt lat="46.26096" lon="6.79347">
        <ele>1942</ele>
        <time>2016-07-03T12:55:32.000Z</time>
      </trkpt>
      <trkpt lat="46.26096" lon="6.79345">
        <ele>1942</ele>
        <time>2016-07-03T12:55:33.000Z</time>
      </trkpt>
      <trkpt lat="46.261" lon="6.79335">
        <ele>1941</ele>
        <time>2016-07-03T12:55:44.000Z</time>
      </trkpt>
      <trkpt lat="46.26101" lon="6.79333">
        <ele>1941</ele>
        <time>2016-07-03T12:55:45.000Z</time>
      </trkpt>
      <trkpt lat="46.26104" lon="6.79322">
        <ele>1942</ele>
        <time>2016-07-03T12:55:53.000Z</time>
      </trkpt>
      <trkpt lat="46.26104" lon="6.79321">
        <ele>1943</ele>
        <time>2016-07-03T12:55:54.000Z</time>
      </trkpt>
      <trkpt lat="46.26105" lon="6.79308">
        <ele>1941</ele>
        <time>2016-07-03T12:56:05.000Z</time>
      </trkpt>
      <trkpt lat="46.26105" lon="6.79306">
        <ele>1940</ele>
        <time>2016-07-03T12:56:06.000Z</time>
      </trkpt>
      <trkpt lat="46.26104" lon="6.79293">
        <ele>1940</ele>
        <time>2016-07-03T12:56:14.000Z</time>
      </trkpt>
      <trkpt lat="46.26104" lon="6.79292">
        <ele>1939</ele>
        <time>2016-07-03T12:56:15.000Z</time>
      </trkpt>
      <trkpt lat="46.26106" lon="6.7928">
        <ele>1939</ele>
        <time>2016-07-03T12:56:22.000Z</time>
      </trkpt>
      <trkpt lat="46.26106" lon="6.79278">
        <ele>1939</ele>
        <time>2016-07-03T12:56:23.000Z</time>
      </trkpt>
      <trkpt lat="46.26104" lon="6.79267">
        <ele>1935</ele>
        <time>2016-07-03T12:56:30.000Z</time>
      </trkpt>
      <trkpt lat="46.26103" lon="6.79265">
        <ele>1935</ele>
        <time>2016-07-03T12:56:31.000Z</time>
      </trkpt>
      <trkpt lat="46.26099" lon="6.79254">
        <ele>1935</ele>
        <time>2016-07-03T12:56:40.000Z</time>
      </trkpt>
      <trkpt lat="46.26099" lon="6.79254">
        <ele>1935</ele>
        <time>2016-07-03T12:56:41.000Z</time>
      </trkpt>
      <trkpt lat="46.26093" lon="6.79257">
        <ele>1934</ele>
        <time>2016-07-03T12:57:47.000Z</time>
      </trkpt>
      <trkpt lat="46.26093" lon="6.79257">
        <ele>1934</ele>
        <time>2016-07-03T12:57:48.000Z</time>
      </trkpt>
      <trkpt lat="46.26093" lon="6.79257">
        <ele>1934</ele>
        <time>2016-07-03T12:57:50.000Z</time>
      </trkpt>
      <trkpt lat="46.26093" lon="6.79257">
        <ele>1934</ele>
        <time>2016-07-03T12:57:51.000Z</time>
      </trkpt>
      <trkpt lat="46.26086" lon="6.7926">
        <ele>1930</ele>
        <time>2016-07-03T12:57:58.000Z</time>
      </trkpt>
      <trkpt lat="46.26084" lon="6.7926">
        <ele>1929</ele>
        <time>2016-07-03T12:57:59.000Z</time>
      </trkpt>
      <trkpt lat="46.26079" lon="6.7927">
        <ele>1927</ele>
        <time>2016-07-03T12:58:07.000Z</time>
      </trkpt>
      <trkpt lat="46.26079" lon="6.79272">
        <ele>1928</ele>
        <time>2016-07-03T12:58:08.000Z</time>
      </trkpt>
      <trkpt lat="46.26071" lon="6.79277">
        <ele>1923</ele>
        <time>2016-07-03T12:58:16.000Z</time>
      </trkpt>
      <trkpt lat="46.2607" lon="6.79278">
        <ele>1923</ele>
        <time>2016-07-03T12:58:17.000Z</time>
      </trkpt>
      <trkpt lat="46.26064" lon="6.79287">
        <ele>1921</ele>
        <time>2016-07-03T12:58:28.000Z</time>
      </trkpt>
      <trkpt lat="46.26064" lon="6.79288">
        <ele>1920</ele>
        <time>2016-07-03T12:58:29.000Z</time>
      </trkpt>
      <trkpt lat="46.26065" lon="6.793">
        <ele>1918</ele>
        <time>2016-07-03T12:58:43.000Z</time>
      </trkpt>
      <trkpt lat="46.26066" lon="6.79302">
        <ele>1919</ele>
        <time>2016-07-03T12:58:44.000Z</time>
      </trkpt>
      <trkpt lat="46.26064" lon="6.79314">
        <ele>1914</ele>
        <time>2016-07-03T12:59:01.000Z</time>
      </trkpt>
      <trkpt lat="46.26064" lon="6.79315">
        <ele>1915</ele>
        <time>2016-07-03T12:59:02.000Z</time>
      </trkpt>
      <trkpt lat="46.26062" lon="6.79326">
        <ele>1913</ele>
        <time>2016-07-03T12:59:14.000Z</time>
      </trkpt>
      <trkpt lat="46.26062" lon="6.79328">
        <ele>1913</ele>
        <time>2016-07-03T12:59:15.000Z</time>
      </trkpt>
      <trkpt lat="46.26059" lon="6.7934">
        <ele>1907</ele>
        <time>2016-07-03T12:59:28.000Z</time>
      </trkpt>
      <trkpt lat="46.26058" lon="6.79342">
        <ele>1907</ele>
        <time>2016-07-03T12:59:29.000Z</time>
      </trkpt>
      <trkpt lat="46.26057" lon="6.79354">
        <ele>1909</ele>
        <time>2016-07-03T12:59:36.000Z</time>
      </trkpt>
      <trkpt lat="46.26056" lon="6.79355">
        <ele>1908</ele>
        <time>2016-07-03T12:59:37.000Z</time>
      </trkpt>
      <trkpt lat="46.26052" lon="6.79366">
        <ele>1908</ele>
        <time>2016-07-03T12:59:46.000Z</time>
      </trkpt>
      <trkpt lat="46.26051" lon="6.79368">
        <ele>1907</ele>
        <time>2016-07-03T12:59:47.000Z</time>
      </trkpt>
      <trkpt lat="46.26044" lon="6.79372">
        <ele>1903</ele>
        <time>2016-07-03T13:00:08.000Z</time>
      </trkpt>
      <trkpt lat="46.26042" lon="6.79373">
        <ele>1904</ele>
        <time>2016-07-03T13:00:09.000Z</time>
      </trkpt>
      <trkpt lat="46.26036" lon="6.79364">
        <ele>1900</ele>
        <time>2016-07-03T13:00:35.000Z</time>
      </trkpt>
      <trkpt lat="46.26036" lon="6.79363">
        <ele>1901</ele>
        <time>2016-07-03T13:00:36.000Z</time>
      </trkpt>
      <trkpt lat="46.26033" lon="6.79351">
        <ele>1899</ele>
        <time>2016-07-03T13:00:52.000Z</time>
      </trkpt>
      <trkpt lat="46.26032" lon="6.79349">
        <ele>1899</ele>
        <time>2016-07-03T13:00:53.000Z</time>
      </trkpt>
      <trkpt lat="46.26026" lon="6.7934">
        <ele>1900</ele>
        <time>2016-07-03T13:01:12.000Z</time>
      </trkpt>
      <trkpt lat="46.26026" lon="6.7934">
        <ele>1900</ele>
        <time>2016-07-03T13:01:13.000Z</time>
      </trkpt>
      <trkpt lat="46.26019" lon="6.79334">
        <ele>1894</ele>
        <time>2016-07-03T13:01:28.000Z</time>
      </trkpt>
      <trkpt lat="46.26019" lon="6.79333">
        <ele>1895</ele>
        <time>2016-07-03T13:01:29.000Z</time>
      </trkpt>
      <trkpt lat="46.26012" lon="6.79327">
        <ele>1894</ele>
        <time>2016-07-03T13:01:38.000Z</time>
      </trkpt>
      <trkpt lat="46.26011" lon="6.79326">
        <ele>1894</ele>
        <time>2016-07-03T13:01:39.000Z</time>
      </trkpt>
      <trkpt lat="46.26004" lon="6.79318">
        <ele>1892</ele>
        <time>2016-07-03T13:01:50.000Z</time>
      </trkpt>
      <trkpt lat="46.26003" lon="6.79317">
        <ele>1893</ele>
        <time>2016-07-03T13:01:51.000Z</time>
      </trkpt>
      <trkpt lat="46.25997" lon="6.79308">
        <ele>1891</ele>
        <time>2016-07-03T13:02:02.000Z</time>
      </trkpt>
      <trkpt lat="46.25996" lon="6.79307">
        <ele>1892</ele>
        <time>2016-07-03T13:02:03.000Z</time>
      </trkpt>
      <trkpt lat="46.25989" lon="6.793">
        <ele>1890</ele>
        <time>2016-07-03T13:02:12.000Z</time>
      </trkpt>
      <trkpt lat="46.25988" lon="6.79298">
        <ele>1890</ele>
        <time>2016-07-03T13:02:13.000Z</time>
      </trkpt>
      <trkpt lat="46.25982" lon="6.79292">
        <ele>1885</ele>
        <time>2016-07-03T13:02:22.000Z</time>
      </trkpt>
      <trkpt lat="46.2598" lon="6.79291">
        <ele>1885</ele>
        <time>2016-07-03T13:02:23.000Z</time>
      </trkpt>
      <trkpt lat="46.25976" lon="6.7928">
        <ele>1884</ele>
        <time>2016-07-03T13:02:30.000Z</time>
      </trkpt>
      <trkpt lat="46.25975" lon="6.79278">
        <ele>1883</ele>
        <time>2016-07-03T13:02:31.000Z</time>
      </trkpt>
      <trkpt lat="46.25968" lon="6.7927">
        <ele>1877</ele>
        <time>2016-07-03T13:02:41.000Z</time>
      </trkpt>
      <trkpt lat="46.25967" lon="6.79269">
        <ele>1879</ele>
        <time>2016-07-03T13:02:42.000Z</time>
      </trkpt>
      <trkpt lat="46.25959" lon="6.79272">
        <ele>1877</ele>
        <time>2016-07-03T13:03:03.000Z</time>
      </trkpt>
      <trkpt lat="46.25958" lon="6.79273">
        <ele>1876</ele>
        <time>2016-07-03T13:03:04.000Z</time>
      </trkpt>
      <trkpt lat="46.25956" lon="6.79278">
        <ele>1872</ele>
        <time>2016-07-03T13:03:14.000Z</time>
      </trkpt>
      <trkpt lat="46.25955" lon="6.79277">
        <ele>1872</ele>
        <time>2016-07-03T13:03:15.000Z</time>
      </trkpt>
      <trkpt lat="46.25957" lon="6.79279">
        <ele>1877</ele>
        <time>2016-07-03T13:03:17.000Z</time>
      </trkpt>
      <trkpt lat="46.25956" lon="6.79279">
        <ele>1877</ele>
        <time>2016-07-03T13:03:18.000Z</time>
      </trkpt>
      <trkpt lat="46.25948" lon="6.7928">
        <ele>1876</ele>
        <time>2016-07-03T13:03:26.000Z</time>
      </trkpt>
      <trkpt lat="46.25947" lon="6.79279">
        <ele>1876</ele>
        <time>2016-07-03T13:03:27.000Z</time>
      </trkpt>
      <trkpt lat="46.25939" lon="6.79274">
        <ele>1875</ele>
        <time>2016-07-03T13:03:37.000Z</time>
      </trkpt>
      <trkpt lat="46.25938" lon="6.79274">
        <ele>1875</ele>
        <time>2016-07-03T13:03:38.000Z</time>
      </trkpt>
      <trkpt lat="46.2593" lon="6.79271">
        <ele>1871</ele>
        <time>2016-07-03T13:03:50.000Z</time>
      </trkpt>
      <trkpt lat="46.25929" lon="6.79271">
        <ele>1870</ele>
        <time>2016-07-03T13:03:51.000Z</time>
      </trkpt>
      <trkpt lat="46.25921" lon="6.79268">
        <ele>1865</ele>
        <time>2016-07-03T13:04:01.000Z</time>
      </trkpt>
      <trkpt lat="46.2592" lon="6.79268">
        <ele>1865</ele>
        <time>2016-07-03T13:04:02.000Z</time>
      </trkpt>
      <trkpt lat="46.25911" lon="6.7927">
        <ele>1863</ele>
        <time>2016-07-03T13:04:22.000Z</time>
      </trkpt>
      <trkpt lat="46.25911" lon="6.79271">
        <ele>1863</ele>
        <time>2016-07-03T13:04:23.000Z</time>
      </trkpt>
      <trkpt lat="46.25905" lon="6.79279">
        <ele>1862</ele>
        <time>2016-07-03T13:04:32.000Z</time>
      </trkpt>
      <trkpt lat="46.25904" lon="6.7928">
        <ele>1862</ele>
        <time>2016-07-03T13:04:33.000Z</time>
      </trkpt>
      <trkpt lat="46.259" lon="6.7929">
        <ele>1866</ele>
        <time>2016-07-03T13:04:40.000Z</time>
      </trkpt>
      <trkpt lat="46.259" lon="6.79292">
        <ele>1866</ele>
        <time>2016-07-03T13:04:41.000Z</time>
      </trkpt>
      <trkpt lat="46.25899" lon="6.79303">
        <ele>1862</ele>
        <time>2016-07-03T13:04:54.000Z</time>
      </trkpt>
      <trkpt lat="46.25898" lon="6.79305">
        <ele>1861</ele>
        <time>2016-07-03T13:04:55.000Z</time>
      </trkpt>
      <trkpt lat="46.25897" lon="6.79317">
        <ele>1858</ele>
        <time>2016-07-03T13:05:07.000Z</time>
      </trkpt>
      <trkpt lat="46.25897" lon="6.79319">
        <ele>1859</ele>
        <time>2016-07-03T13:05:08.000Z</time>
      </trkpt>
      <trkpt lat="46.25897" lon="6.7933">
        <ele>1847</ele>
        <time>2016-07-03T13:05:30.000Z</time>
      </trkpt>
      <trkpt lat="46.25896" lon="6.79332">
        <ele>1847</ele>
        <time>2016-07-03T13:05:31.000Z</time>
      </trkpt>
      <trkpt lat="46.25896" lon="6.79345">
        <ele>1848</ele>
        <time>2016-07-03T13:05:40.000Z</time>
      </trkpt>
      <trkpt lat="46.25896" lon="6.79345">
        <ele>1848</ele>
        <time>2016-07-03T13:05:41.000Z</time>
      </trkpt>
      <trkpt lat="46.25889" lon="6.79351">
        <ele>1848</ele>
        <time>2016-07-03T13:05:47.000Z</time>
      </trkpt>
      <trkpt lat="46.25888" lon="6.79352">
        <ele>1849</ele>
        <time>2016-07-03T13:05:48.000Z</time>
      </trkpt>
      <trkpt lat="46.25883" lon="6.79361">
        <ele>1847</ele>
        <time>2016-07-03T13:05:59.000Z</time>
      </trkpt>
      <trkpt lat="46.25882" lon="6.79362">
        <ele>1847</ele>
        <time>2016-07-03T13:06:00.000Z</time>
      </trkpt>
      <trkpt lat="46.25879" lon="6.79372">
        <ele>1844</ele>
        <time>2016-07-03T13:06:09.000Z</time>
      </trkpt>
      <trkpt lat="46.25877" lon="6.79374">
        <ele>1844</ele>
        <time>2016-07-03T13:06:10.000Z</time>
      </trkpt>
      <trkpt lat="46.25869" lon="6.79374">
        <ele>1839</ele>
        <time>2016-07-03T13:06:25.000Z</time>
      </trkpt>
      <trkpt lat="46.25868" lon="6.79375">
        <ele>1837</ele>
        <time>2016-07-03T13:06:26.000Z</time>
      </trkpt>
      <trkpt lat="46.2586" lon="6.79375">
        <ele>1834</ele>
        <time>2016-07-03T13:06:32.000Z</time>
      </trkpt>
      <trkpt lat="46.25861" lon="6.79376">
        <ele>1834</ele>
        <time>2016-07-03T13:06:33.000Z</time>
      </trkpt>
      <trkpt lat="46.25861" lon="6.79377">
        <ele>1833</ele>
        <time>2016-07-03T13:06:34.000Z</time>
      </trkpt>
      <trkpt lat="46.25857" lon="6.79379">
        <ele>1830</ele>
        <time>2016-07-03T13:06:42.000Z</time>
      </trkpt>
      <trkpt lat="46.25857" lon="6.79379">
        <ele>1830</ele>
        <time>2016-07-03T13:06:43.000Z</time>
      </trkpt>
      <trkpt lat="46.25856" lon="6.79379">
        <ele>1831</ele>
        <time>2016-07-03T13:06:44.000Z</time>
      </trkpt>
      <trkpt lat="46.25847" lon="6.79381">
        <ele>1841</ele>
        <time>2016-07-03T13:07:48.000Z</time>
      </trkpt>
      <trkpt lat="46.25847" lon="6.79382">
        <ele>1841</ele>
        <time>2016-07-03T13:07:49.000Z</time>
      </trkpt>
      <trkpt lat="46.25841" lon="6.79391">
        <ele>1841</ele>
        <time>2016-07-03T13:07:58.000Z</time>
      </trkpt>
      <trkpt lat="46.2584" lon="6.79393">
        <ele>1840</ele>
        <time>2016-07-03T13:07:59.000Z</time>
      </trkpt>
      <trkpt lat="46.25841" lon="6.79406">
        <ele>1841</ele>
        <time>2016-07-03T13:08:10.000Z</time>
      </trkpt>
      <trkpt lat="46.25841" lon="6.79408">
        <ele>1841</ele>
        <time>2016-07-03T13:08:11.000Z</time>
      </trkpt>
      <trkpt lat="46.25841" lon="6.79419">
        <ele>1843</ele>
        <time>2016-07-03T13:08:17.000Z</time>
      </trkpt>
      <trkpt lat="46.25841" lon="6.79421">
        <ele>1844</ele>
        <time>2016-07-03T13:08:18.000Z</time>
      </trkpt>
      <trkpt lat="46.25843" lon="6.79434">
        <ele>1840</ele>
        <time>2016-07-03T13:08:26.000Z</time>
      </trkpt>
      <trkpt lat="46.25844" lon="6.79436">
        <ele>1840</ele>
        <time>2016-07-03T13:08:27.000Z</time>
      </trkpt>
      <trkpt lat="46.25845" lon="6.79447">
        <ele>1838</ele>
        <time>2016-07-03T13:08:36.000Z</time>
      </trkpt>
      <trkpt lat="46.25845" lon="6.79449">
        <ele>1838</ele>
        <time>2016-07-03T13:08:37.000Z</time>
      </trkpt>
      <trkpt lat="46.25839" lon="6.79458">
        <ele>1838</ele>
        <time>2016-07-03T13:08:44.000Z</time>
      </trkpt>
      <trkpt lat="46.25839" lon="6.7946">
        <ele>1839</ele>
        <time>2016-07-03T13:08:45.000Z</time>
      </trkpt>
      <trkpt lat="46.25832" lon="6.79468">
        <ele>1837</ele>
        <time>2016-07-03T13:08:53.000Z</time>
      </trkpt>
      <trkpt lat="46.25831" lon="6.79469">
        <ele>1838</ele>
        <time>2016-07-03T13:08:54.000Z</time>
      </trkpt>
      <trkpt lat="46.25825" lon="6.79476">
        <ele>1835</ele>
        <time>2016-07-03T13:09:05.000Z</time>
      </trkpt>
      <trkpt lat="46.25824" lon="6.79477">
        <ele>1834</ele>
        <time>2016-07-03T13:09:06.000Z</time>
      </trkpt>
      <trkpt lat="46.25819" lon="6.79466">
        <ele>1828</ele>
        <time>2016-07-03T13:09:17.000Z</time>
      </trkpt>
      <trkpt lat="46.25818" lon="6.79465">
        <ele>1828</ele>
        <time>2016-07-03T13:09:18.000Z</time>
      </trkpt>
      <trkpt lat="46.25813" lon="6.79455">
        <ele>1825</ele>
        <time>2016-07-03T13:09:29.000Z</time>
      </trkpt>
      <trkpt lat="46.25813" lon="6.79454">
        <ele>1824</ele>
        <time>2016-07-03T13:09:30.000Z</time>
      </trkpt>
      <trkpt lat="46.25808" lon="6.79444">
        <ele>1822</ele>
        <time>2016-07-03T13:09:40.000Z</time>
      </trkpt>
      <trkpt lat="46.25808" lon="6.79443">
        <ele>1822</ele>
        <time>2016-07-03T13:09:41.000Z</time>
      </trkpt>
      <trkpt lat="46.25807" lon="6.79431">
        <ele>1827</ele>
        <time>2016-07-03T13:09:54.000Z</time>
      </trkpt>
      <trkpt lat="46.25807" lon="6.79429">
        <ele>1827</ele>
        <time>2016-07-03T13:09:55.000Z</time>
      </trkpt>
      <trkpt lat="46.25798" lon="6.79428">
        <ele>1820</ele>
        <time>2016-07-03T13:10:20.000Z</time>
      </trkpt>
      <trkpt lat="46.25797" lon="6.79429">
        <ele>1820</ele>
        <time>2016-07-03T13:10:21.000Z</time>
      </trkpt>
      <trkpt lat="46.25792" lon="6.79438">
        <ele>1813</ele>
        <time>2016-07-03T13:10:34.000Z</time>
      </trkpt>
      <trkpt lat="46.25792" lon="6.7944">
        <ele>1812</ele>
        <time>2016-07-03T13:10:35.000Z</time>
      </trkpt>
      <trkpt lat="46.25791" lon="6.79452">
        <ele>1810</ele>
        <time>2016-07-03T13:10:43.000Z</time>
      </trkpt>
      <trkpt lat="46.25791" lon="6.79453">
        <ele>1810</ele>
        <time>2016-07-03T13:10:44.000Z</time>
      </trkpt>
      <trkpt lat="46.25787" lon="6.79464">
        <ele>1811</ele>
        <time>2016-07-03T13:10:53.000Z</time>
      </trkpt>
      <trkpt lat="46.25787" lon="6.79466">
        <ele>1811</ele>
        <time>2016-07-03T13:10:54.000Z</time>
      </trkpt>
      <trkpt lat="46.25788" lon="6.79478">
        <ele>1809</ele>
        <time>2016-07-03T13:11:08.000Z</time>
      </trkpt>
      <trkpt lat="46.25788" lon="6.79479">
        <ele>1808</ele>
        <time>2016-07-03T13:11:09.000Z</time>
      </trkpt>
      <trkpt lat="46.25787" lon="6.79492">
        <ele>1807</ele>
        <time>2016-07-03T13:11:18.000Z</time>
      </trkpt>
      <trkpt lat="46.25787" lon="6.79492">
        <ele>1807</ele>
        <time>2016-07-03T13:11:19.000Z</time>
      </trkpt>
      <trkpt lat="46.2578" lon="6.79501">
        <ele>1804</ele>
        <time>2016-07-03T13:11:30.000Z</time>
      </trkpt>
      <trkpt lat="46.25779" lon="6.79502">
        <ele>1804</ele>
        <time>2016-07-03T13:11:31.000Z</time>
      </trkpt>
      <trkpt lat="46.25778" lon="6.79503">
        <ele>1802</ele>
        <time>2016-07-03T13:12:00.000Z</time>
      </trkpt>
      <trkpt lat="46.25778" lon="6.79503">
        <ele>1802</ele>
        <time>2016-07-03T13:12:01.000Z</time>
      </trkpt>
      <trkpt lat="46.2578" lon="6.79503">
        <ele>1799</ele>
        <time>2016-07-03T13:12:05.000Z</time>
      </trkpt>
      <trkpt lat="46.25779" lon="6.79503">
        <ele>1799</ele>
        <time>2016-07-03T13:12:06.000Z</time>
      </trkpt>
      <trkpt lat="46.25773" lon="6.79495">
        <ele>1801</ele>
        <time>2016-07-03T13:12:26.000Z</time>
      </trkpt>
      <trkpt lat="46.25773" lon="6.79494">
        <ele>1801</ele>
        <time>2016-07-03T13:12:27.000Z</time>
      </trkpt>
      <trkpt lat="46.25767" lon="6.79485">
        <ele>1801</ele>
        <time>2016-07-03T13:12:35.000Z</time>
      </trkpt>
      <trkpt lat="46.25766" lon="6.79484">
        <ele>1801</ele>
        <time>2016-07-03T13:12:36.000Z</time>
      </trkpt>
      <trkpt lat="46.25764" lon="6.79472">
        <ele>1800</ele>
        <time>2016-07-03T13:12:45.000Z</time>
      </trkpt>
      <trkpt lat="46.25764" lon="6.79471">
        <ele>1800</ele>
        <time>2016-07-03T13:12:46.000Z</time>
      </trkpt>
      <trkpt lat="46.2576" lon="6.7946">
        <ele>1798</ele>
        <time>2016-07-03T13:12:58.000Z</time>
      </trkpt>
      <trkpt lat="46.2576" lon="6.79459">
        <ele>1797</ele>
        <time>2016-07-03T13:12:59.000Z</time>
      </trkpt>
      <trkpt lat="46.25758" lon="6.79447">
        <ele>1787</ele>
        <time>2016-07-03T13:13:11.000Z</time>
      </trkpt>
      <trkpt lat="46.25757" lon="6.79446">
        <ele>1786</ele>
        <time>2016-07-03T13:13:12.000Z</time>
      </trkpt>
      <trkpt lat="46.25755" lon="6.79436">
        <ele>1791</ele>
        <time>2016-07-03T13:13:21.000Z</time>
      </trkpt>
      <trkpt lat="46.25755" lon="6.79433">
        <ele>1788</ele>
        <time>2016-07-03T13:13:22.000Z</time>
      </trkpt>
      <trkpt lat="46.25754" lon="6.79422">
        <ele>1791</ele>
        <time>2016-07-03T13:13:29.000Z</time>
      </trkpt>
      <trkpt lat="46.25754" lon="6.79419">
        <ele>1789</ele>
        <time>2016-07-03T13:13:30.000Z</time>
      </trkpt>
      <trkpt lat="46.25752" lon="6.79408">
        <ele>1783</ele>
        <time>2016-07-03T13:13:37.000Z</time>
      </trkpt>
      <trkpt lat="46.25751" lon="6.79407">
        <ele>1782</ele>
        <time>2016-07-03T13:13:38.000Z</time>
      </trkpt>
      <trkpt lat="46.25744" lon="6.79412">
        <ele>1783</ele>
        <time>2016-07-03T13:13:47.000Z</time>
      </trkpt>
      <trkpt lat="46.25743" lon="6.79414">
        <ele>1782</ele>
        <time>2016-07-03T13:13:48.000Z</time>
      </trkpt>
      <trkpt lat="46.25738" lon="6.79424">
        <ele>1784</ele>
        <time>2016-07-03T13:13:55.000Z</time>
      </trkpt>
      <trkpt lat="46.25737" lon="6.79425">
        <ele>1784</ele>
        <time>2016-07-03T13:13:56.000Z</time>
      </trkpt>
      <trkpt lat="46.25728" lon="6.79425">
        <ele>1783</ele>
        <time>2016-07-03T13:14:13.000Z</time>
      </trkpt>
      <trkpt lat="46.25728" lon="6.79425">
        <ele>1784</ele>
        <time>2016-07-03T13:14:14.000Z</time>
      </trkpt>
      <trkpt lat="46.2572" lon="6.7942">
        <ele>1782</ele>
        <time>2016-07-03T13:14:35.000Z</time>
      </trkpt>
      <trkpt lat="46.25719" lon="6.7942">
        <ele>1782</ele>
        <time>2016-07-03T13:14:36.000Z</time>
      </trkpt>
      <trkpt lat="46.25711" lon="6.79415">
        <ele>1778</ele>
        <time>2016-07-03T13:14:52.000Z</time>
      </trkpt>
      <trkpt lat="46.25711" lon="6.79414">
        <ele>1777</ele>
        <time>2016-07-03T13:14:53.000Z</time>
      </trkpt>
      <trkpt lat="46.25711" lon="6.79413">
        <ele>1775</ele>
        <time>2016-07-03T13:14:57.000Z</time>
      </trkpt>
      <trkpt lat="46.25711" lon="6.79413">
        <ele>1775</ele>
        <time>2016-07-03T13:14:58.000Z</time>
      </trkpt>
      <trkpt lat="46.2571" lon="6.79411">
        <ele>1774</ele>
        <time>2016-07-03T13:14:59.000Z</time>
      </trkpt>
      <trkpt lat="46.25702" lon="6.79415">
        <ele>1768</ele>
        <time>2016-07-03T13:15:09.000Z</time>
      </trkpt>
      <trkpt lat="46.25701" lon="6.79415">
        <ele>1766</ele>
        <time>2016-07-03T13:15:10.000Z</time>
      </trkpt>
      <trkpt lat="46.25702" lon="6.79403">
        <ele>1772</ele>
        <time>2016-07-03T13:15:34.000Z</time>
      </trkpt>
      <trkpt lat="46.25702" lon="6.79401">
        <ele>1772</ele>
        <time>2016-07-03T13:15:35.000Z</time>
      </trkpt>
      <trkpt lat="46.25707" lon="6.79392">
        <ele>1770</ele>
        <time>2016-07-03T13:15:49.000Z</time>
      </trkpt>
      <trkpt lat="46.25709" lon="6.7939">
        <ele>1771</ele>
        <time>2016-07-03T13:15:50.000Z</time>
      </trkpt>
      <trkpt lat="46.25717" lon="6.79385">
        <ele>1776</ele>
        <time>2016-07-03T13:15:58.000Z</time>
      </trkpt>
      <trkpt lat="46.25717" lon="6.79383">
        <ele>1776</ele>
        <time>2016-07-03T13:15:59.000Z</time>
      </trkpt>
      <trkpt lat="46.2572" lon="6.79371">
        <ele>1772</ele>
        <time>2016-07-03T13:16:07.000Z</time>
      </trkpt>
      <trkpt lat="46.2572" lon="6.7937">
        <ele>1770</ele>
        <time>2016-07-03T13:16:08.000Z</time>
      </trkpt>
      <trkpt lat="46.25725" lon="6.79359">
        <ele>1775</ele>
        <time>2016-07-03T13:16:24.000Z</time>
      </trkpt>
      <trkpt lat="46.25724" lon="6.79358">
        <ele>1775</ele>
        <time>2016-07-03T13:16:25.000Z</time>
      </trkpt>
      <trkpt lat="46.25727" lon="6.79346">
        <ele>1768</ele>
        <time>2016-07-03T13:16:41.000Z</time>
      </trkpt>
      <trkpt lat="46.25727" lon="6.79345">
        <ele>1768</ele>
        <time>2016-07-03T13:16:42.000Z</time>
      </trkpt>
      <trkpt lat="46.25731" lon="6.79335">
        <ele>1770</ele>
        <time>2016-07-03T13:16:46.000Z</time>
      </trkpt>
      <trkpt lat="46.25731" lon="6.79332">
        <ele>1771</ele>
        <time>2016-07-03T13:16:47.000Z</time>
      </trkpt>
      <trkpt lat="46.25732" lon="6.79321">
        <ele>1777</ele>
        <time>2016-07-03T13:16:52.000Z</time>
      </trkpt>
      <trkpt lat="46.25733" lon="6.79319">
        <ele>1778</ele>
        <time>2016-07-03T13:16:53.000Z</time>
      </trkpt>
      <trkpt lat="46.25735" lon="6.79309">
        <ele>1779</ele>
        <time>2016-07-03T13:17:00.000Z</time>
      </trkpt>
      <trkpt lat="46.25736" lon="6.79307">
        <ele>1776</ele>
        <time>2016-07-03T13:17:01.000Z</time>
      </trkpt>
      <trkpt lat="46.25738" lon="6.79295">
        <ele>1773</ele>
        <time>2016-07-03T13:17:21.000Z</time>
      </trkpt>
      <trkpt lat="46.25738" lon="6.79293">
        <ele>1774</ele>
        <time>2016-07-03T13:17:22.000Z</time>
      </trkpt>
      <trkpt lat="46.25741" lon="6.79281">
        <ele>1769</ele>
        <time>2016-07-03T13:17:31.000Z</time>
      </trkpt>
      <trkpt lat="46.25741" lon="6.7928">
        <ele>1771</ele>
        <time>2016-07-03T13:17:32.000Z</time>
      </trkpt>
      <trkpt lat="46.2574" lon="6.79269">
        <ele>1774</ele>
        <time>2016-07-03T13:17:42.000Z</time>
      </trkpt>
      <trkpt lat="46.2574" lon="6.79267">
        <ele>1774</ele>
        <time>2016-07-03T13:17:43.000Z</time>
      </trkpt>
      <trkpt lat="46.25739" lon="6.79256">
        <ele>1772</ele>
        <time>2016-07-03T13:17:51.000Z</time>
      </trkpt>
      <trkpt lat="46.25738" lon="6.79254">
        <ele>1773</ele>
        <time>2016-07-03T13:17:52.000Z</time>
      </trkpt>
      <trkpt lat="46.2574" lon="6.79242">
        <ele>1773</ele>
        <time>2016-07-03T13:18:00.000Z</time>
      </trkpt>
      <trkpt lat="46.25741" lon="6.7924">
        <ele>1773</ele>
        <time>2016-07-03T13:18:01.000Z</time>
      </trkpt>
      <trkpt lat="46.25744" lon="6.79229">
        <ele>1770</ele>
        <time>2016-07-03T13:18:14.000Z</time>
      </trkpt>
      <trkpt lat="46.25744" lon="6.79228">
        <ele>1770</ele>
        <time>2016-07-03T13:18:15.000Z</time>
      </trkpt>
      <trkpt lat="46.2575" lon="6.79221">
        <ele>1769</ele>
        <time>2016-07-03T13:18:22.000Z</time>
      </trkpt>
      <trkpt lat="46.25751" lon="6.7922">
        <ele>1769</ele>
        <time>2016-07-03T13:18:23.000Z</time>
      </trkpt>
      <trkpt lat="46.25751" lon="6.79208">
        <ele>1770</ele>
        <time>2016-07-03T13:18:41.000Z</time>
      </trkpt>
      <trkpt lat="46.25751" lon="6.79207">
        <ele>1770</ele>
        <time>2016-07-03T13:18:42.000Z</time>
      </trkpt>
      <trkpt lat="46.25751" lon="6.79201">
        <ele>1767</ele>
        <time>2016-07-03T13:18:54.000Z</time>
      </trkpt>
      <trkpt lat="46.25751" lon="6.79201">
        <ele>1767</ele>
        <time>2016-07-03T13:18:55.000Z</time>
      </trkpt>
      <trkpt lat="46.25751" lon="6.792">
        <ele>1767</ele>
        <time>2016-07-03T13:18:56.000Z</time>
      </trkpt>
      <trkpt lat="46.2575" lon="6.79191">
        <ele>1757</ele>
        <time>2016-07-03T13:19:05.000Z</time>
      </trkpt>
      <trkpt lat="46.2575" lon="6.7919">
        <ele>1758</ele>
        <time>2016-07-03T13:19:06.000Z</time>
      </trkpt>
      <trkpt lat="46.2575" lon="6.7919">
        <ele>1757</ele>
        <time>2016-07-03T13:19:07.000Z</time>
      </trkpt>
      <trkpt lat="46.25741" lon="6.79185">
        <ele>1756</ele>
        <time>2016-07-03T13:19:21.000Z</time>
      </trkpt>
      <trkpt lat="46.25741" lon="6.79185">
        <ele>1755</ele>
        <time>2016-07-03T13:19:22.000Z</time>
      </trkpt>
      <trkpt lat="46.25732" lon="6.79189">
        <ele>1750</ele>
        <time>2016-07-03T13:19:35.000Z</time>
      </trkpt>
      <trkpt lat="46.25731" lon="6.79187">
        <ele>1750</ele>
        <time>2016-07-03T13:19:36.000Z</time>
      </trkpt>
      <trkpt lat="46.25723" lon="6.79188">
        <ele>1747</ele>
        <time>2016-07-03T13:19:47.000Z</time>
      </trkpt>
      <trkpt lat="46.25722" lon="6.79188">
        <ele>1747</ele>
        <time>2016-07-03T13:19:48.000Z</time>
      </trkpt>
      <trkpt lat="46.25713" lon="6.7919">
        <ele>1744</ele>
        <time>2016-07-03T13:19:58.000Z</time>
      </trkpt>
      <trkpt lat="46.25712" lon="6.79189">
        <ele>1744</ele>
        <time>2016-07-03T13:19:59.000Z</time>
      </trkpt>
      <trkpt lat="46.25705" lon="6.79188">
        <ele>1742</ele>
        <time>2016-07-03T13:20:11.000Z</time>
      </trkpt>
      <trkpt lat="46.25703" lon="6.79187">
        <ele>1743</ele>
        <time>2016-07-03T13:20:12.000Z</time>
      </trkpt>
      <trkpt lat="46.25698" lon="6.79196">
        <ele>1736</ele>
        <time>2016-07-03T13:20:34.000Z</time>
      </trkpt>
      <trkpt lat="46.25697" lon="6.79197">
        <ele>1737</ele>
        <time>2016-07-03T13:20:35.000Z</time>
      </trkpt>
      <trkpt lat="46.2569" lon="6.79204">
        <ele>1736</ele>
        <time>2016-07-03T13:20:46.000Z</time>
      </trkpt>
      <trkpt lat="46.25689" lon="6.79204">
        <ele>1735</ele>
        <time>2016-07-03T13:20:47.000Z</time>
      </trkpt>
      <trkpt lat="46.25682" lon="6.79211">
        <ele>1731</ele>
        <time>2016-07-03T13:21:04.000Z</time>
      </trkpt>
      <trkpt lat="46.25681" lon="6.79212">
        <ele>1730</ele>
        <time>2016-07-03T13:21:05.000Z</time>
      </trkpt>
      <trkpt lat="46.25673" lon="6.79214">
        <ele>1727</ele>
        <time>2016-07-03T13:21:19.000Z</time>
      </trkpt>
      <trkpt lat="46.25672" lon="6.79215">
        <ele>1726</ele>
        <time>2016-07-03T13:21:20.000Z</time>
      </trkpt>
      <trkpt lat="46.25666" lon="6.79223">
        <ele>1726</ele>
        <time>2016-07-03T13:21:32.000Z</time>
      </trkpt>
      <trkpt lat="46.25666" lon="6.79224">
        <ele>1727</ele>
        <time>2016-07-03T13:21:33.000Z</time>
      </trkpt>
      <trkpt lat="46.25657" lon="6.79224">
        <ele>1723</ele>
        <time>2016-07-03T13:21:49.000Z</time>
      </trkpt>
      <trkpt lat="46.25655" lon="6.79223">
        <ele>1721</ele>
        <time>2016-07-03T13:21:50.000Z</time>
      </trkpt>
      <trkpt lat="46.25647" lon="6.79224">
        <ele>1712</ele>
        <time>2016-07-03T13:22:06.000Z</time>
      </trkpt>
      <trkpt lat="46.25645" lon="6.79223">
        <ele>1712</ele>
        <time>2016-07-03T13:22:07.000Z</time>
      </trkpt>
      <trkpt lat="46.25637" lon="6.79223">
        <ele>1716</ele>
        <time>2016-07-03T13:22:17.000Z</time>
      </trkpt>
      <trkpt lat="46.25636" lon="6.79223">
        <ele>1716</ele>
        <time>2016-07-03T13:22:18.000Z</time>
      </trkpt>
      <trkpt lat="46.25627" lon="6.79222">
        <ele>1712</ele>
        <time>2016-07-03T13:22:34.000Z</time>
      </trkpt>
      <trkpt lat="46.25625" lon="6.79223">
        <ele>1711</ele>
        <time>2016-07-03T13:22:35.000Z</time>
      </trkpt>
      <trkpt lat="46.25616" lon="6.79223">
        <ele>1706</ele>
        <time>2016-07-03T13:22:53.000Z</time>
      </trkpt>
      <trkpt lat="46.25615" lon="6.79225">
        <ele>1706</ele>
        <time>2016-07-03T13:22:54.000Z</time>
      </trkpt>
      <trkpt lat="46.2561" lon="6.79215">
        <ele>1703</ele>
        <time>2016-07-03T13:23:12.000Z</time>
      </trkpt>
      <trkpt lat="46.25609" lon="6.79215">
        <ele>1704</ele>
        <time>2016-07-03T13:23:13.000Z</time>
      </trkpt>
      <trkpt lat="46.25601" lon="6.79209">
        <ele>1701</ele>
        <time>2016-07-03T13:23:21.000Z</time>
      </trkpt>
      <trkpt lat="46.25601" lon="6.79208">
        <ele>1700</ele>
        <time>2016-07-03T13:23:22.000Z</time>
      </trkpt>
      <trkpt lat="46.25594" lon="6.79201">
        <ele>1700</ele>
        <time>2016-07-03T13:23:29.000Z</time>
      </trkpt>
      <trkpt lat="46.25592" lon="6.79199">
        <ele>1700</ele>
        <time>2016-07-03T13:23:30.000Z</time>
      </trkpt>
      <trkpt lat="46.25585" lon="6.79192">
        <ele>1697</ele>
        <time>2016-07-03T13:23:41.000Z</time>
      </trkpt>
      <trkpt lat="46.25584" lon="6.79191">
        <ele>1699</ele>
        <time>2016-07-03T13:23:42.000Z</time>
      </trkpt>
      <trkpt lat="46.25578" lon="6.79183">
        <ele>1697</ele>
        <time>2016-07-03T13:23:49.000Z</time>
      </trkpt>
      <trkpt lat="46.25576" lon="6.79182">
        <ele>1697</ele>
        <time>2016-07-03T13:23:50.000Z</time>
      </trkpt>
      <trkpt lat="46.2557" lon="6.79175">
        <ele>1694</ele>
        <time>2016-07-03T13:23:59.000Z</time>
      </trkpt>
      <trkpt lat="46.2557" lon="6.79173">
        <ele>1693</ele>
        <time>2016-07-03T13:24:00.000Z</time>
      </trkpt>
      <trkpt lat="46.25563" lon="6.79166">
        <ele>1695</ele>
        <time>2016-07-03T13:24:08.000Z</time>
      </trkpt>
      <trkpt lat="46.25563" lon="6.79165">
        <ele>1695</ele>
        <time>2016-07-03T13:24:09.000Z</time>
      </trkpt>
      <trkpt lat="46.25556" lon="6.79157">
        <ele>1695</ele>
        <time>2016-07-03T13:24:16.000Z</time>
      </trkpt>
      <trkpt lat="46.25555" lon="6.79156">
        <ele>1696</ele>
        <time>2016-07-03T13:24:17.000Z</time>
      </trkpt>
      <trkpt lat="46.25548" lon="6.7915">
        <ele>1694</ele>
        <time>2016-07-03T13:24:26.000Z</time>
      </trkpt>
      <trkpt lat="46.25548" lon="6.79149">
        <ele>1694</ele>
        <time>2016-07-03T13:24:27.000Z</time>
      </trkpt>
      <trkpt lat="46.25541" lon="6.79143">
        <ele>1684</ele>
        <time>2016-07-03T13:24:40.000Z</time>
      </trkpt>
      <trkpt lat="46.25539" lon="6.79142">
        <ele>1685</ele>
        <time>2016-07-03T13:24:41.000Z</time>
      </trkpt>
      <trkpt lat="46.25532" lon="6.79134">
        <ele>1687</ele>
        <time>2016-07-03T13:24:53.000Z</time>
      </trkpt>
      <trkpt lat="46.25532" lon="6.79134">
        <ele>1685</ele>
        <time>2016-07-03T13:24:54.000Z</time>
      </trkpt>
      <trkpt lat="46.25527" lon="6.79124">
        <ele>1686</ele>
        <time>2016-07-03T13:25:03.000Z</time>
      </trkpt>
      <trkpt lat="46.25525" lon="6.7912">
        <ele>1693</ele>
        <time>2016-07-03T13:25:04.000Z</time>
      </trkpt>
      <trkpt lat="46.25521" lon="6.79111">
        <ele>1696</ele>
        <time>2016-07-03T13:25:12.000Z</time>
      </trkpt>
      <trkpt lat="46.2552" lon="6.79109">
        <ele>1697</ele>
        <time>2016-07-03T13:25:13.000Z</time>
      </trkpt>
      <trkpt lat="46.25513" lon="6.79102">
        <ele>1695</ele>
        <time>2016-07-03T13:25:24.000Z</time>
      </trkpt>
      <trkpt lat="46.25512" lon="6.79101">
        <ele>1695</ele>
        <time>2016-07-03T13:25:25.000Z</time>
      </trkpt>
      <trkpt lat="46.25503" lon="6.79096">
        <ele>1692</ele>
        <time>2016-07-03T13:25:40.000Z</time>
      </trkpt>
      <trkpt lat="46.25503" lon="6.79096">
        <ele>1692</ele>
        <time>2016-07-03T13:25:41.000Z</time>
      </trkpt>
      <trkpt lat="46.25496" lon="6.79088">
        <ele>1689</ele>
        <time>2016-07-03T13:25:52.000Z</time>
      </trkpt>
      <trkpt lat="46.25495" lon="6.79085">
        <ele>1692</ele>
        <time>2016-07-03T13:25:53.000Z</time>
      </trkpt>
      <trkpt lat="46.25491" lon="6.79074">
        <ele>1707</ele>
        <time>2016-07-03T13:25:57.000Z</time>
      </trkpt>
      <trkpt lat="46.25491" lon="6.79073">
        <ele>1707</ele>
        <time>2016-07-03T13:25:58.000Z</time>
      </trkpt>
      <trkpt lat="46.25486" lon="6.79068">
        <ele>1704</ele>
        <time>2016-07-03T13:26:07.000Z</time>
      </trkpt>
      <trkpt lat="46.25484" lon="6.79064">
        <ele>1711</ele>
        <time>2016-07-03T13:26:08.000Z</time>
      </trkpt>
      <trkpt lat="46.25478" lon="6.79058">
        <ele>1723</ele>
        <time>2016-07-03T13:26:13.000Z</time>
      </trkpt>
      <trkpt lat="46.25476" lon="6.79058">
        <ele>1722</ele>
        <time>2016-07-03T13:26:14.000Z</time>
      </trkpt>
      <trkpt lat="46.25469" lon="6.79065">
        <ele>1724</ele>
        <time>2016-07-03T13:26:26.000Z</time>
      </trkpt>
      <trkpt lat="46.25469" lon="6.79066">
        <ele>1724</ele>
        <time>2016-07-03T13:26:27.000Z</time>
      </trkpt>
      <trkpt lat="46.25463" lon="6.79075">
        <ele>1724</ele>
        <time>2016-07-03T13:26:40.000Z</time>
      </trkpt>
      <trkpt lat="46.25462" lon="6.79076">
        <ele>1724</ele>
        <time>2016-07-03T13:26:41.000Z</time>
      </trkpt>
      <trkpt lat="46.25458" lon="6.79087">
        <ele>1734</ele>
        <time>2016-07-03T13:26:53.000Z</time>
      </trkpt>
      <trkpt lat="46.25457" lon="6.79089">
        <ele>1734</ele>
        <time>2016-07-03T13:26:54.000Z</time>
      </trkpt>
      <trkpt lat="46.25453" lon="6.79099">
        <ele>1735</ele>
        <time>2016-07-03T13:27:11.000Z</time>
      </trkpt>
      <trkpt lat="46.25452" lon="6.791">
        <ele>1735</ele>
        <time>2016-07-03T13:27:12.000Z</time>
      </trkpt>
      <trkpt lat="46.25445" lon="6.79107">
        <ele>1737</ele>
        <time>2016-07-03T13:27:27.000Z</time>
      </trkpt>
      <trkpt lat="46.25444" lon="6.79108">
        <ele>1736</ele>
        <time>2016-07-03T13:27:28.000Z</time>
      </trkpt>
      <trkpt lat="46.25435" lon="6.79111">
        <ele>1739</ele>
        <time>2016-07-03T13:27:35.000Z</time>
      </trkpt>
      <trkpt lat="46.25434" lon="6.79111">
        <ele>1739</ele>
        <time>2016-07-03T13:27:36.000Z</time>
      </trkpt>
      <trkpt lat="46.25426" lon="6.79105">
        <ele>1740</ele>
        <time>2016-07-03T13:27:50.000Z</time>
      </trkpt>
      <trkpt lat="46.25426" lon="6.79103">
        <ele>1739</ele>
        <time>2016-07-03T13:27:51.000Z</time>
      </trkpt>
      <trkpt lat="46.25425" lon="6.79105">
        <ele>1749</ele>
        <time>2016-07-03T13:30:06.000Z</time>
      </trkpt>
      <trkpt lat="46.25425" lon="6.79105">
        <ele>1749</ele>
        <time>2016-07-03T13:30:07.000Z</time>
      </trkpt>
      <trkpt lat="46.25426" lon="6.79104">
        <ele>1743</ele>
        <time>2016-07-03T13:32:43.000Z</time>
      </trkpt>
      <trkpt lat="46.25426" lon="6.79104">
        <ele>1743</ele>
        <time>2016-07-03T13:32:44.000Z</time>
      </trkpt>
      <trkpt lat="46.25426" lon="6.791">
        <ele>1750</ele>
        <time>2016-07-03T13:33:26.000Z</time>
      </trkpt>
      <trkpt lat="46.25426" lon="6.791">
        <ele>1751</ele>
        <time>2016-07-03T13:33:27.000Z</time>
      </trkpt>
    </trkseg>
  </trk>
</gpx>